<?xml version="1.0" encoding="UTF-8" standalone="no" ?>
<gpx xmlns="http://www.topografix.com/GPX/1/1" xmlns:xsi="http://www.w3.org/2001/XMLSchema-instance" xsi:schemaLocation="http://www.topografix.com/GPX/1/1 http://www.topografix.com/GPX/1/1/gpx.xsd" version="1.1" creator="VisuGPX - https://www.visugpx.com">
  <metadata>
    <name>Best-of Coquibus amélioré</name>
  </metadata>
  <trk>
    <name><![CDATA[Noisy-sur-École Cyclisme]]></name>
    <trkseg>
      <trkpt lat="48.39048" lon="2.55299">
        <ele>84.599998474121</ele>
        <time>2019-11-16T11:02:10.000Z</time>
      </trkpt>
      <trkpt lat="48.39048" lon="2.55299">
        <ele>84.599998474121</ele>
        <time>2019-11-16T11:02:19.000Z</time>
      </trkpt>
      <trkpt lat="48.39049" lon="2.55298">
        <ele>84.599998474121</ele>
        <time>2019-11-16T11:02:29.000Z</time>
      </trkpt>
      <trkpt lat="48.39049" lon="2.55296">
        <ele>84.599998474121</ele>
        <time>2019-11-16T11:02:30.000Z</time>
      </trkpt>
      <trkpt lat="48.39048" lon="2.55286">
        <ele>85</ele>
        <time>2019-11-16T11:02:33.000Z</time>
      </trkpt>
      <trkpt lat="48.39046" lon="2.55264">
        <ele>85.400001525879</ele>
        <time>2019-11-16T11:02:38.000Z</time>
      </trkpt>
      <trkpt lat="48.3905" lon="2.55252">
        <ele>85.199996948242</ele>
        <time>2019-11-16T11:02:42.000Z</time>
      </trkpt>
      <trkpt lat="48.3905" lon="2.55241">
        <ele>85.400001525879</ele>
        <time>2019-11-16T11:02:45.000Z</time>
      </trkpt>
      <trkpt lat="48.39052" lon="2.55239">
        <ele>85.400001525879</ele>
        <time>2019-11-16T11:02:48.000Z</time>
      </trkpt>
      <trkpt lat="48.39059" lon="2.55246">
        <ele>85.400001525879</ele>
        <time>2019-11-16T11:02:52.000Z</time>
      </trkpt>
      <trkpt lat="48.39068" lon="2.55238">
        <ele>85.400001525879</ele>
        <time>2019-11-16T11:02:55.000Z</time>
      </trkpt>
      <trkpt lat="48.39072" lon="2.55233">
        <ele>85.199996948242</ele>
        <time>2019-11-16T11:02:56.000Z</time>
      </trkpt>
      <trkpt lat="48.39076" lon="2.55229">
        <ele>85.400001525879</ele>
        <time>2019-11-16T11:02:57.000Z</time>
      </trkpt>
      <trkpt lat="48.39084" lon="2.5522">
        <ele>85.599998474121</ele>
        <time>2019-11-16T11:02:59.000Z</time>
      </trkpt>
      <trkpt lat="48.39088" lon="2.55214">
        <ele>85.800003051758</ele>
        <time>2019-11-16T11:03:00.000Z</time>
      </trkpt>
      <trkpt lat="48.39103" lon="2.55185">
        <ele>85.599998474121</ele>
        <time>2019-11-16T11:03:04.000Z</time>
      </trkpt>
      <trkpt lat="48.39107" lon="2.55176">
        <ele>85.599998474121</ele>
        <time>2019-11-16T11:03:05.000Z</time>
      </trkpt>
      <trkpt lat="48.39121" lon="2.55155">
        <ele>86</ele>
        <time>2019-11-16T11:03:08.000Z</time>
      </trkpt>
      <trkpt lat="48.39126" lon="2.5515">
        <ele>86</ele>
        <time>2019-11-16T11:03:09.000Z</time>
      </trkpt>
      <trkpt lat="48.39136" lon="2.55127">
        <ele>86.400001525879</ele>
        <time>2019-11-16T11:03:12.000Z</time>
      </trkpt>
      <trkpt lat="48.39138" lon="2.55108">
        <ele>86.400001525879</ele>
        <time>2019-11-16T11:03:14.000Z</time>
      </trkpt>
      <trkpt lat="48.3914" lon="2.55082">
        <ele>86.599998474121</ele>
        <time>2019-11-16T11:03:17.000Z</time>
      </trkpt>
      <trkpt lat="48.3914" lon="2.55074">
        <ele>86.800003051758</ele>
        <time>2019-11-16T11:03:18.000Z</time>
      </trkpt>
      <trkpt lat="48.39142" lon="2.55054">
        <ele>87.400001525879</ele>
        <time>2019-11-16T11:03:21.000Z</time>
      </trkpt>
      <trkpt lat="48.39145" lon="2.55038">
        <ele>87.400001525879</ele>
        <time>2019-11-16T11:03:24.000Z</time>
      </trkpt>
      <trkpt lat="48.39147" lon="2.55027">
        <ele>87.800003051758</ele>
        <time>2019-11-16T11:03:26.000Z</time>
      </trkpt>
      <trkpt lat="48.39148" lon="2.55022">
        <ele>88</ele>
        <time>2019-11-16T11:03:27.000Z</time>
      </trkpt>
      <trkpt lat="48.39153" lon="2.54987">
        <ele>87.800003051758</ele>
        <time>2019-11-16T11:03:33.000Z</time>
      </trkpt>
      <trkpt lat="48.39154" lon="2.54958">
        <ele>87.800003051758</ele>
        <time>2019-11-16T11:03:39.000Z</time>
      </trkpt>
      <trkpt lat="48.39158" lon="2.54933">
        <ele>88.400001525879</ele>
        <time>2019-11-16T11:03:43.000Z</time>
      </trkpt>
      <trkpt lat="48.39161" lon="2.54928">
        <ele>88.800003051758</ele>
        <time>2019-11-16T11:03:44.000Z</time>
      </trkpt>
      <trkpt lat="48.39164" lon="2.54925">
        <ele>89.199996948242</ele>
        <time>2019-11-16T11:03:45.000Z</time>
      </trkpt>
      <trkpt lat="48.39166" lon="2.54922">
        <ele>89.599998474121</ele>
        <time>2019-11-16T11:03:46.000Z</time>
      </trkpt>
      <trkpt lat="48.39169" lon="2.54911">
        <ele>90</ele>
        <time>2019-11-16T11:03:49.000Z</time>
      </trkpt>
      <trkpt lat="48.39168" lon="2.54906">
        <ele>90.199996948242</ele>
        <time>2019-11-16T11:03:50.000Z</time>
      </trkpt>
      <trkpt lat="48.3917" lon="2.54893">
        <ele>90.599998474121</ele>
        <time>2019-11-16T11:03:53.000Z</time>
      </trkpt>
      <trkpt lat="48.39171" lon="2.54878">
        <ele>90.800003051758</ele>
        <time>2019-11-16T11:03:56.000Z</time>
      </trkpt>
      <trkpt lat="48.39169" lon="2.54874">
        <ele>90.800003051758</ele>
        <time>2019-11-16T11:03:57.000Z</time>
      </trkpt>
      <trkpt lat="48.39158" lon="2.54859">
        <ele>89.800003051758</ele>
        <time>2019-11-16T11:04:00.000Z</time>
      </trkpt>
      <trkpt lat="48.39153" lon="2.54856">
        <ele>89.199996948242</ele>
        <time>2019-11-16T11:04:01.000Z</time>
      </trkpt>
      <trkpt lat="48.39142" lon="2.54853">
        <ele>88.199996948242</ele>
        <time>2019-11-16T11:04:03.000Z</time>
      </trkpt>
      <trkpt lat="48.39136" lon="2.54853">
        <ele>87.800003051758</ele>
        <time>2019-11-16T11:04:04.000Z</time>
      </trkpt>
      <trkpt lat="48.39117" lon="2.54858">
        <ele>87.199996948242</ele>
        <time>2019-11-16T11:04:07.000Z</time>
      </trkpt>
      <trkpt lat="48.39112" lon="2.54861">
        <ele>87</ele>
        <time>2019-11-16T11:04:08.000Z</time>
      </trkpt>
      <trkpt lat="48.39107" lon="2.54863">
        <ele>87</ele>
        <time>2019-11-16T11:04:09.000Z</time>
      </trkpt>
      <trkpt lat="48.39098" lon="2.54863">
        <ele>87.400001525879</ele>
        <time>2019-11-16T11:04:11.000Z</time>
      </trkpt>
      <trkpt lat="48.39094" lon="2.54851">
        <ele>87.400001525879</ele>
        <time>2019-11-16T11:04:13.000Z</time>
      </trkpt>
      <trkpt lat="48.39087" lon="2.54822">
        <ele>87.599998474121</ele>
        <time>2019-11-16T11:04:17.000Z</time>
      </trkpt>
      <trkpt lat="48.39081" lon="2.54808">
        <ele>87.599998474121</ele>
        <time>2019-11-16T11:04:19.000Z</time>
      </trkpt>
      <trkpt lat="48.39078" lon="2.54801">
        <ele>87.800003051758</ele>
        <time>2019-11-16T11:04:20.000Z</time>
      </trkpt>
      <trkpt lat="48.39074" lon="2.54787">
        <ele>88.400001525879</ele>
        <time>2019-11-16T11:04:22.000Z</time>
      </trkpt>
      <trkpt lat="48.39069" lon="2.54766">
        <ele>89.400001525879</ele>
        <time>2019-11-16T11:04:25.000Z</time>
      </trkpt>
      <trkpt lat="48.39062" lon="2.5474">
        <ele>90</ele>
        <time>2019-11-16T11:04:29.000Z</time>
      </trkpt>
      <trkpt lat="48.39061" lon="2.54733">
        <ele>90.400001525879</ele>
        <time>2019-11-16T11:04:30.000Z</time>
      </trkpt>
      <trkpt lat="48.39054" lon="2.547">
        <ele>91.199996948242</ele>
        <time>2019-11-16T11:04:35.000Z</time>
      </trkpt>
      <trkpt lat="48.39053" lon="2.54693">
        <ele>91.400001525879</ele>
        <time>2019-11-16T11:04:36.000Z</time>
      </trkpt>
      <trkpt lat="48.39054" lon="2.54685">
        <ele>91.599998474121</ele>
        <time>2019-11-16T11:04:37.000Z</time>
      </trkpt>
      <trkpt lat="48.39055" lon="2.54669">
        <ele>92.199996948242</ele>
        <time>2019-11-16T11:04:39.000Z</time>
      </trkpt>
      <trkpt lat="48.39053" lon="2.54657">
        <ele>92.599998474121</ele>
        <time>2019-11-16T11:04:41.000Z</time>
      </trkpt>
      <trkpt lat="48.39054" lon="2.54644">
        <ele>93.199996948242</ele>
        <time>2019-11-16T11:04:43.000Z</time>
      </trkpt>
      <trkpt lat="48.39056" lon="2.54631">
        <ele>93.599998474121</ele>
        <time>2019-11-16T11:04:45.000Z</time>
      </trkpt>
      <trkpt lat="48.39055" lon="2.54624">
        <ele>94</ele>
        <time>2019-11-16T11:04:46.000Z</time>
      </trkpt>
      <trkpt lat="48.39055" lon="2.54618">
        <ele>94.199996948242</ele>
        <time>2019-11-16T11:04:47.000Z</time>
      </trkpt>
      <trkpt lat="48.39059" lon="2.54597">
        <ele>94.800003051758</ele>
        <time>2019-11-16T11:04:50.000Z</time>
      </trkpt>
      <trkpt lat="48.3906" lon="2.5459">
        <ele>95</ele>
        <time>2019-11-16T11:04:51.000Z</time>
      </trkpt>
      <trkpt lat="48.3906" lon="2.54584">
        <ele>95.199996948242</ele>
        <time>2019-11-16T11:04:52.000Z</time>
      </trkpt>
      <trkpt lat="48.39061" lon="2.54577">
        <ele>95.400001525879</ele>
        <time>2019-11-16T11:04:53.000Z</time>
      </trkpt>
      <trkpt lat="48.39061" lon="2.54564">
        <ele>96</ele>
        <time>2019-11-16T11:04:55.000Z</time>
      </trkpt>
      <trkpt lat="48.39062" lon="2.54538">
        <ele>97.199996948242</ele>
        <time>2019-11-16T11:04:59.000Z</time>
      </trkpt>
      <trkpt lat="48.39061" lon="2.54531">
        <ele>97.400001525879</ele>
        <time>2019-11-16T11:05:00.000Z</time>
      </trkpt>
      <trkpt lat="48.39062" lon="2.54525">
        <ele>97.400001525879</ele>
        <time>2019-11-16T11:05:01.000Z</time>
      </trkpt>
      <trkpt lat="48.39064" lon="2.54513">
        <ele>97.400001525879</ele>
        <time>2019-11-16T11:05:03.000Z</time>
      </trkpt>
      <trkpt lat="48.39069" lon="2.54491">
        <ele>98.199996948242</ele>
        <time>2019-11-16T11:05:07.000Z</time>
      </trkpt>
      <trkpt lat="48.39071" lon="2.54485">
        <ele>98.400001525879</ele>
        <time>2019-11-16T11:05:08.000Z</time>
      </trkpt>
      <trkpt lat="48.39077" lon="2.54457">
        <ele>99</ele>
        <time>2019-11-16T11:05:12.000Z</time>
      </trkpt>
      <trkpt lat="48.39078" lon="2.5445">
        <ele>99</ele>
        <time>2019-11-16T11:05:13.000Z</time>
      </trkpt>
      <trkpt lat="48.3908" lon="2.54444">
        <ele>99.199996948242</ele>
        <time>2019-11-16T11:05:14.000Z</time>
      </trkpt>
      <trkpt lat="48.39081" lon="2.54439">
        <ele>99.199996948242</ele>
        <time>2019-11-16T11:05:15.000Z</time>
      </trkpt>
      <trkpt lat="48.39082" lon="2.54435">
        <ele>99.400001525879</ele>
        <time>2019-11-16T11:05:16.000Z</time>
      </trkpt>
      <trkpt lat="48.39081" lon="2.54409">
        <ele>100</ele>
        <time>2019-11-16T11:05:21.000Z</time>
      </trkpt>
      <trkpt lat="48.39083" lon="2.54395">
        <ele>100.40000152588</ele>
        <time>2019-11-16T11:05:23.000Z</time>
      </trkpt>
      <trkpt lat="48.39087" lon="2.54368">
        <ele>101.40000152588</ele>
        <time>2019-11-16T11:05:27.000Z</time>
      </trkpt>
      <trkpt lat="48.39089" lon="2.54364">
        <ele>101.59999847412</ele>
        <time>2019-11-16T11:05:28.000Z</time>
      </trkpt>
      <trkpt lat="48.39089" lon="2.54359">
        <ele>102</ele>
        <time>2019-11-16T11:05:29.000Z</time>
      </trkpt>
      <trkpt lat="48.39088" lon="2.54347">
        <ele>102.40000152588</ele>
        <time>2019-11-16T11:05:31.000Z</time>
      </trkpt>
      <trkpt lat="48.39089" lon="2.54335">
        <ele>102.80000305176</ele>
        <time>2019-11-16T11:05:33.000Z</time>
      </trkpt>
      <trkpt lat="48.3909" lon="2.54329">
        <ele>103</ele>
        <time>2019-11-16T11:05:34.000Z</time>
      </trkpt>
      <trkpt lat="48.39092" lon="2.54316">
        <ele>103.59999847412</ele>
        <time>2019-11-16T11:05:36.000Z</time>
      </trkpt>
      <trkpt lat="48.39094" lon="2.5431">
        <ele>103.80000305176</ele>
        <time>2019-11-16T11:05:37.000Z</time>
      </trkpt>
      <trkpt lat="48.39096" lon="2.54303">
        <ele>104</ele>
        <time>2019-11-16T11:05:38.000Z</time>
      </trkpt>
      <trkpt lat="48.39096" lon="2.54297">
        <ele>104.19999694824</ele>
        <time>2019-11-16T11:05:39.000Z</time>
      </trkpt>
      <trkpt lat="48.39098" lon="2.54282">
        <ele>104.80000305176</ele>
        <time>2019-11-16T11:05:41.000Z</time>
      </trkpt>
      <trkpt lat="48.391" lon="2.5427">
        <ele>105</ele>
        <time>2019-11-16T11:05:43.000Z</time>
      </trkpt>
      <trkpt lat="48.39106" lon="2.54254">
        <ele>105.40000152588</ele>
        <time>2019-11-16T11:05:46.000Z</time>
      </trkpt>
      <trkpt lat="48.39107" lon="2.54249">
        <ele>105.40000152588</ele>
        <time>2019-11-16T11:05:47.000Z</time>
      </trkpt>
      <trkpt lat="48.39107" lon="2.54227">
        <ele>105.40000152588</ele>
        <time>2019-11-16T11:05:51.000Z</time>
      </trkpt>
      <trkpt lat="48.39109" lon="2.54222">
        <ele>105.40000152588</ele>
        <time>2019-11-16T11:05:52.000Z</time>
      </trkpt>
      <trkpt lat="48.39112" lon="2.54203">
        <ele>105</ele>
        <time>2019-11-16T11:05:55.000Z</time>
      </trkpt>
      <trkpt lat="48.39113" lon="2.54196">
        <ele>104.80000305176</ele>
        <time>2019-11-16T11:05:56.000Z</time>
      </trkpt>
      <trkpt lat="48.39118" lon="2.5417">
        <ele>104.40000152588</ele>
        <time>2019-11-16T11:06:00.000Z</time>
      </trkpt>
      <trkpt lat="48.3912" lon="2.54164">
        <ele>104.40000152588</ele>
        <time>2019-11-16T11:06:01.000Z</time>
      </trkpt>
      <trkpt lat="48.39126" lon="2.54136">
        <ele>104.59999847412</ele>
        <time>2019-11-16T11:06:05.000Z</time>
      </trkpt>
      <trkpt lat="48.39127" lon="2.54129">
        <ele>104.59999847412</ele>
        <time>2019-11-16T11:06:06.000Z</time>
      </trkpt>
      <trkpt lat="48.39133" lon="2.54094">
        <ele>105.59999847412</ele>
        <time>2019-11-16T11:06:11.000Z</time>
      </trkpt>
      <trkpt lat="48.39135" lon="2.54078">
        <ele>106</ele>
        <time>2019-11-16T11:06:13.000Z</time>
      </trkpt>
      <trkpt lat="48.39137" lon="2.54071">
        <ele>106</ele>
        <time>2019-11-16T11:06:14.000Z</time>
      </trkpt>
      <trkpt lat="48.39141" lon="2.54057">
        <ele>105.80000305176</ele>
        <time>2019-11-16T11:06:16.000Z</time>
      </trkpt>
      <trkpt lat="48.39149" lon="2.54013">
        <ele>107</ele>
        <time>2019-11-16T11:06:22.000Z</time>
      </trkpt>
      <trkpt lat="48.3915" lon="2.54006">
        <ele>107.19999694824</ele>
        <time>2019-11-16T11:06:23.000Z</time>
      </trkpt>
      <trkpt lat="48.39154" lon="2.53976">
        <ele>107.19999694824</ele>
        <time>2019-11-16T11:06:27.000Z</time>
      </trkpt>
      <trkpt lat="48.39158" lon="2.53954">
        <ele>107.40000152588</ele>
        <time>2019-11-16T11:06:30.000Z</time>
      </trkpt>
      <trkpt lat="48.3916" lon="2.53942">
        <ele>108.19999694824</ele>
        <time>2019-11-16T11:06:32.000Z</time>
      </trkpt>
      <trkpt lat="48.39165" lon="2.53916">
        <ele>109</ele>
        <time>2019-11-16T11:06:36.000Z</time>
      </trkpt>
      <trkpt lat="48.39167" lon="2.53909">
        <ele>109.40000152588</ele>
        <time>2019-11-16T11:06:37.000Z</time>
      </trkpt>
      <trkpt lat="48.39169" lon="2.53901">
        <ele>109.40000152588</ele>
        <time>2019-11-16T11:06:38.000Z</time>
      </trkpt>
      <trkpt lat="48.39172" lon="2.53886">
        <ele>109.19999694824</ele>
        <time>2019-11-16T11:06:40.000Z</time>
      </trkpt>
      <trkpt lat="48.39171" lon="2.53872">
        <ele>109</ele>
        <time>2019-11-16T11:06:42.000Z</time>
      </trkpt>
      <trkpt lat="48.39171" lon="2.53866">
        <ele>109.40000152588</ele>
        <time>2019-11-16T11:06:43.000Z</time>
      </trkpt>
      <trkpt lat="48.39173" lon="2.53854">
        <ele>110.19999694824</ele>
        <time>2019-11-16T11:06:45.000Z</time>
      </trkpt>
      <trkpt lat="48.39174" lon="2.53847">
        <ele>110.59999847412</ele>
        <time>2019-11-16T11:06:46.000Z</time>
      </trkpt>
      <trkpt lat="48.39182" lon="2.53819">
        <ele>111.40000152588</ele>
        <time>2019-11-16T11:06:51.000Z</time>
      </trkpt>
      <trkpt lat="48.39184" lon="2.53813">
        <ele>111.80000305176</ele>
        <time>2019-11-16T11:06:52.000Z</time>
      </trkpt>
      <trkpt lat="48.39186" lon="2.53808">
        <ele>112</ele>
        <time>2019-11-16T11:06:53.000Z</time>
      </trkpt>
      <trkpt lat="48.39191" lon="2.53795">
        <ele>112</ele>
        <time>2019-11-16T11:06:55.000Z</time>
      </trkpt>
      <trkpt lat="48.39192" lon="2.53788">
        <ele>112</ele>
        <time>2019-11-16T11:06:56.000Z</time>
      </trkpt>
      <trkpt lat="48.39193" lon="2.5377">
        <ele>112.40000152588</ele>
        <time>2019-11-16T11:06:59.000Z</time>
      </trkpt>
      <trkpt lat="48.39193" lon="2.53764">
        <ele>112.80000305176</ele>
        <time>2019-11-16T11:07:00.000Z</time>
      </trkpt>
      <trkpt lat="48.39193" lon="2.53747">
        <ele>114</ele>
        <time>2019-11-16T11:07:03.000Z</time>
      </trkpt>
      <trkpt lat="48.39195" lon="2.53742">
        <ele>114.19999694824</ele>
        <time>2019-11-16T11:07:04.000Z</time>
      </trkpt>
      <trkpt lat="48.39207" lon="2.5371">
        <ele>115</ele>
        <time>2019-11-16T11:07:10.000Z</time>
      </trkpt>
      <trkpt lat="48.39208" lon="2.53706">
        <ele>115.19999694824</ele>
        <time>2019-11-16T11:07:11.000Z</time>
      </trkpt>
      <trkpt lat="48.39208" lon="2.53695">
        <ele>116.19999694824</ele>
        <time>2019-11-16T11:07:14.000Z</time>
      </trkpt>
      <trkpt lat="48.39208" lon="2.53693">
        <ele>116.59999847412</ele>
        <time>2019-11-16T11:07:15.000Z</time>
      </trkpt>
      <trkpt lat="48.39209" lon="2.53688">
        <ele>117</ele>
        <time>2019-11-16T11:07:17.000Z</time>
      </trkpt>
      <trkpt lat="48.3921" lon="2.53685">
        <ele>117.19999694824</ele>
        <time>2019-11-16T11:07:18.000Z</time>
      </trkpt>
      <trkpt lat="48.39214" lon="2.53674">
        <ele>117.59999847412</ele>
        <time>2019-11-16T11:07:22.000Z</time>
      </trkpt>
      <trkpt lat="48.39215" lon="2.53667">
        <ele>118</ele>
        <time>2019-11-16T11:07:24.000Z</time>
      </trkpt>
      <trkpt lat="48.39217" lon="2.53648">
        <ele>118.80000305176</ele>
        <time>2019-11-16T11:07:28.000Z</time>
      </trkpt>
      <trkpt lat="48.39218" lon="2.53637">
        <ele>119.19999694824</ele>
        <time>2019-11-16T11:07:30.000Z</time>
      </trkpt>
      <trkpt lat="48.39216" lon="2.53616">
        <ele>120</ele>
        <time>2019-11-16T11:07:34.000Z</time>
      </trkpt>
      <trkpt lat="48.39217" lon="2.53607">
        <ele>121</ele>
        <time>2019-11-16T11:07:36.000Z</time>
      </trkpt>
      <trkpt lat="48.39217" lon="2.53602">
        <ele>121.19999694824</ele>
        <time>2019-11-16T11:07:37.000Z</time>
      </trkpt>
      <trkpt lat="48.39217" lon="2.53591">
        <ele>122.80000305176</ele>
        <time>2019-11-16T11:07:40.000Z</time>
      </trkpt>
      <trkpt lat="48.39216" lon="2.53587">
        <ele>123.40000152588</ele>
        <time>2019-11-16T11:07:41.000Z</time>
      </trkpt>
      <trkpt lat="48.39215" lon="2.53584">
        <ele>124</ele>
        <time>2019-11-16T11:07:42.000Z</time>
      </trkpt>
      <trkpt lat="48.39215" lon="2.53577">
        <ele>125</ele>
        <time>2019-11-16T11:07:44.000Z</time>
      </trkpt>
      <trkpt lat="48.39215" lon="2.53565">
        <ele>126.40000152588</ele>
        <time>2019-11-16T11:07:48.000Z</time>
      </trkpt>
      <trkpt lat="48.39214" lon="2.53554">
        <ele>127.40000152588</ele>
        <time>2019-11-16T11:07:51.000Z</time>
      </trkpt>
      <trkpt lat="48.39213" lon="2.53547">
        <ele>128.60000610352</ele>
        <time>2019-11-16T11:07:53.000Z</time>
      </trkpt>
      <trkpt lat="48.39212" lon="2.53543">
        <ele>129.19999694824</ele>
        <time>2019-11-16T11:07:54.000Z</time>
      </trkpt>
      <trkpt lat="48.39211" lon="2.53538">
        <ele>129.80000305176</ele>
        <time>2019-11-16T11:07:56.000Z</time>
      </trkpt>
      <trkpt lat="48.3921" lon="2.53534">
        <ele>130</ele>
        <time>2019-11-16T11:07:57.000Z</time>
      </trkpt>
      <trkpt lat="48.39208" lon="2.53527">
        <ele>128.39999389648</ele>
        <time>2019-11-16T11:07:59.000Z</time>
      </trkpt>
      <trkpt lat="48.39207" lon="2.53524">
        <ele>127</ele>
        <time>2019-11-16T11:08:00.000Z</time>
      </trkpt>
      <trkpt lat="48.39206" lon="2.53517">
        <ele>129.80000305176</ele>
        <time>2019-11-16T11:08:02.000Z</time>
      </trkpt>
      <trkpt lat="48.39207" lon="2.53513">
        <ele>131.60000610352</ele>
        <time>2019-11-16T11:08:03.000Z</time>
      </trkpt>
      <trkpt lat="48.39208" lon="2.53509">
        <ele>131.39999389648</ele>
        <time>2019-11-16T11:08:04.000Z</time>
      </trkpt>
      <trkpt lat="48.3921" lon="2.53488">
        <ele>132.19999694824</ele>
        <time>2019-11-16T11:08:09.000Z</time>
      </trkpt>
      <trkpt lat="48.39209" lon="2.53466">
        <ele>132.60000610352</ele>
        <time>2019-11-16T11:08:14.000Z</time>
      </trkpt>
      <trkpt lat="48.39209" lon="2.53461">
        <ele>132.60000610352</ele>
        <time>2019-11-16T11:08:15.000Z</time>
      </trkpt>
      <trkpt lat="48.3921" lon="2.53431">
        <ele>132.60000610352</ele>
        <time>2019-11-16T11:08:20.000Z</time>
      </trkpt>
      <trkpt lat="48.39207" lon="2.53401">
        <ele>132.19999694824</ele>
        <time>2019-11-16T11:08:24.000Z</time>
      </trkpt>
      <trkpt lat="48.39212" lon="2.53373">
        <ele>132.19999694824</ele>
        <time>2019-11-16T11:08:28.000Z</time>
      </trkpt>
      <trkpt lat="48.39214" lon="2.53368">
        <ele>132.19999694824</ele>
        <time>2019-11-16T11:08:29.000Z</time>
      </trkpt>
      <trkpt lat="48.39217" lon="2.53364">
        <ele>132.39999389648</ele>
        <time>2019-11-16T11:08:30.000Z</time>
      </trkpt>
      <trkpt lat="48.39224" lon="2.53367">
        <ele>132.39999389648</ele>
        <time>2019-11-16T11:08:32.000Z</time>
      </trkpt>
      <trkpt lat="48.39231" lon="2.53377">
        <ele>132.60000610352</ele>
        <time>2019-11-16T11:08:34.000Z</time>
      </trkpt>
      <trkpt lat="48.39233" lon="2.53382">
        <ele>132.39999389648</ele>
        <time>2019-11-16T11:08:35.000Z</time>
      </trkpt>
      <trkpt lat="48.39236" lon="2.53394">
        <ele>132.19999694824</ele>
        <time>2019-11-16T11:08:37.000Z</time>
      </trkpt>
      <trkpt lat="48.39238" lon="2.53411">
        <ele>132.80000305176</ele>
        <time>2019-11-16T11:08:40.000Z</time>
      </trkpt>
      <trkpt lat="48.39242" lon="2.53428">
        <ele>133.60000610352</ele>
        <time>2019-11-16T11:08:44.000Z</time>
      </trkpt>
      <trkpt lat="48.39243" lon="2.53434">
        <ele>133.80000305176</ele>
        <time>2019-11-16T11:08:45.000Z</time>
      </trkpt>
      <trkpt lat="48.39246" lon="2.53459">
        <ele>134.39999389648</ele>
        <time>2019-11-16T11:08:49.000Z</time>
      </trkpt>
      <trkpt lat="48.39243" lon="2.53501">
        <ele>134.39999389648</ele>
        <time>2019-11-16T11:08:54.000Z</time>
      </trkpt>
      <trkpt lat="48.39243" lon="2.53508">
        <ele>134.19999694824</ele>
        <time>2019-11-16T11:08:55.000Z</time>
      </trkpt>
      <trkpt lat="48.39243" lon="2.53523">
        <ele>133.60000610352</ele>
        <time>2019-11-16T11:08:57.000Z</time>
      </trkpt>
      <trkpt lat="48.39243" lon="2.53531">
        <ele>133.80000305176</ele>
        <time>2019-11-16T11:08:58.000Z</time>
      </trkpt>
      <trkpt lat="48.39245" lon="2.53547">
        <ele>133.60000610352</ele>
        <time>2019-11-16T11:09:00.000Z</time>
      </trkpt>
      <trkpt lat="48.39245" lon="2.53557">
        <ele>133.19999694824</ele>
        <time>2019-11-16T11:09:02.000Z</time>
      </trkpt>
      <trkpt lat="48.39246" lon="2.53565">
        <ele>132.80000305176</ele>
        <time>2019-11-16T11:09:04.000Z</time>
      </trkpt>
      <trkpt lat="48.3925" lon="2.53577">
        <ele>131</ele>
        <time>2019-11-16T11:09:07.000Z</time>
      </trkpt>
      <trkpt lat="48.39253" lon="2.53583">
        <ele>130.39999389648</ele>
        <time>2019-11-16T11:09:08.000Z</time>
      </trkpt>
      <trkpt lat="48.39256" lon="2.53588">
        <ele>130</ele>
        <time>2019-11-16T11:09:09.000Z</time>
      </trkpt>
      <trkpt lat="48.39258" lon="2.53592">
        <ele>129.60000610352</ele>
        <time>2019-11-16T11:09:10.000Z</time>
      </trkpt>
      <trkpt lat="48.3926" lon="2.53602">
        <ele>128.60000610352</ele>
        <time>2019-11-16T11:09:12.000Z</time>
      </trkpt>
      <trkpt lat="48.39262" lon="2.5362">
        <ele>128</ele>
        <time>2019-11-16T11:09:15.000Z</time>
      </trkpt>
      <trkpt lat="48.3926" lon="2.53647">
        <ele>127.80000305176</ele>
        <time>2019-11-16T11:09:18.000Z</time>
      </trkpt>
      <trkpt lat="48.3926" lon="2.53655">
        <ele>128</ele>
        <time>2019-11-16T11:09:19.000Z</time>
      </trkpt>
      <trkpt lat="48.39258" lon="2.53672">
        <ele>128</ele>
        <time>2019-11-16T11:09:21.000Z</time>
      </trkpt>
      <trkpt lat="48.39254" lon="2.53693">
        <ele>128.19999694824</ele>
        <time>2019-11-16T11:09:24.000Z</time>
      </trkpt>
      <trkpt lat="48.39253" lon="2.53706">
        <ele>128.39999389648</ele>
        <time>2019-11-16T11:09:26.000Z</time>
      </trkpt>
      <trkpt lat="48.39253" lon="2.5374">
        <ele>128.39999389648</ele>
        <time>2019-11-16T11:09:30.000Z</time>
      </trkpt>
      <trkpt lat="48.39252" lon="2.53767">
        <ele>128.19999694824</ele>
        <time>2019-11-16T11:09:34.000Z</time>
      </trkpt>
      <trkpt lat="48.39252" lon="2.53774">
        <ele>127.59999847412</ele>
        <time>2019-11-16T11:09:35.000Z</time>
      </trkpt>
      <trkpt lat="48.39253" lon="2.5378">
        <ele>127.19999694824</ele>
        <time>2019-11-16T11:09:36.000Z</time>
      </trkpt>
      <trkpt lat="48.39253" lon="2.53787">
        <ele>127</ele>
        <time>2019-11-16T11:09:37.000Z</time>
      </trkpt>
      <trkpt lat="48.39257" lon="2.53798">
        <ele>127.59999847412</ele>
        <time>2019-11-16T11:09:40.000Z</time>
      </trkpt>
      <trkpt lat="48.39258" lon="2.53799">
        <ele>127.80000305176</ele>
        <time>2019-11-16T11:09:41.000Z</time>
      </trkpt>
      <trkpt lat="48.39264" lon="2.53807">
        <ele>128.19999694824</ele>
        <time>2019-11-16T11:09:44.000Z</time>
      </trkpt>
      <trkpt lat="48.39269" lon="2.53815">
        <ele>128.39999389648</ele>
        <time>2019-11-16T11:09:46.000Z</time>
      </trkpt>
      <trkpt lat="48.39273" lon="2.53827">
        <ele>128</ele>
        <time>2019-11-16T11:09:49.000Z</time>
      </trkpt>
      <trkpt lat="48.39276" lon="2.53829">
        <ele>128</ele>
        <time>2019-11-16T11:09:50.000Z</time>
      </trkpt>
      <trkpt lat="48.39282" lon="2.53828">
        <ele>128</ele>
        <time>2019-11-16T11:09:53.000Z</time>
      </trkpt>
      <trkpt lat="48.39284" lon="2.53827">
        <ele>128</ele>
        <time>2019-11-16T11:09:54.000Z</time>
      </trkpt>
      <trkpt lat="48.39288" lon="2.53825">
        <ele>128.39999389648</ele>
        <time>2019-11-16T11:09:56.000Z</time>
      </trkpt>
      <trkpt lat="48.39295" lon="2.53824">
        <ele>129.60000610352</ele>
        <time>2019-11-16T11:09:59.000Z</time>
      </trkpt>
      <trkpt lat="48.39302" lon="2.53823">
        <ele>130.80000305176</ele>
        <time>2019-11-16T11:10:02.000Z</time>
      </trkpt>
      <trkpt lat="48.39305" lon="2.53822">
        <ele>131.19999694824</ele>
        <time>2019-11-16T11:10:03.000Z</time>
      </trkpt>
      <trkpt lat="48.39319" lon="2.53819">
        <ele>131.80000305176</ele>
        <time>2019-11-16T11:10:07.000Z</time>
      </trkpt>
      <trkpt lat="48.39323" lon="2.53819">
        <ele>131.80000305176</ele>
        <time>2019-11-16T11:10:08.000Z</time>
      </trkpt>
      <trkpt lat="48.39335" lon="2.5381">
        <ele>132.19999694824</ele>
        <time>2019-11-16T11:10:11.000Z</time>
      </trkpt>
      <trkpt lat="48.3935" lon="2.53788">
        <ele>132.60000610352</ele>
        <time>2019-11-16T11:10:16.000Z</time>
      </trkpt>
      <trkpt lat="48.39353" lon="2.53784">
        <ele>132.80000305176</ele>
        <time>2019-11-16T11:10:17.000Z</time>
      </trkpt>
      <trkpt lat="48.39361" lon="2.53775">
        <ele>132.80000305176</ele>
        <time>2019-11-16T11:10:19.000Z</time>
      </trkpt>
      <trkpt lat="48.39365" lon="2.53772">
        <ele>132.80000305176</ele>
        <time>2019-11-16T11:10:20.000Z</time>
      </trkpt>
      <trkpt lat="48.39382" lon="2.5377">
        <ele>133.39999389648</ele>
        <time>2019-11-16T11:10:24.000Z</time>
      </trkpt>
      <trkpt lat="48.39389" lon="2.53769">
        <ele>133.39999389648</ele>
        <time>2019-11-16T11:10:25.000Z</time>
      </trkpt>
      <trkpt lat="48.39395" lon="2.5377">
        <ele>133.39999389648</ele>
        <time>2019-11-16T11:10:26.000Z</time>
      </trkpt>
      <trkpt lat="48.39407" lon="2.53772">
        <ele>133.39999389648</ele>
        <time>2019-11-16T11:10:28.000Z</time>
      </trkpt>
      <trkpt lat="48.39418" lon="2.53773">
        <ele>133.60000610352</ele>
        <time>2019-11-16T11:10:30.000Z</time>
      </trkpt>
      <trkpt lat="48.39424" lon="2.53769">
        <ele>133.60000610352</ele>
        <time>2019-11-16T11:10:31.000Z</time>
      </trkpt>
      <trkpt lat="48.39438" lon="2.53767">
        <ele>133.60000610352</ele>
        <time>2019-11-16T11:10:34.000Z</time>
      </trkpt>
      <trkpt lat="48.39443" lon="2.5377">
        <ele>133.39999389648</ele>
        <time>2019-11-16T11:10:35.000Z</time>
      </trkpt>
      <trkpt lat="48.39446" lon="2.53775">
        <ele>133.39999389648</ele>
        <time>2019-11-16T11:10:36.000Z</time>
      </trkpt>
      <trkpt lat="48.39453" lon="2.53785">
        <ele>133.19999694824</ele>
        <time>2019-11-16T11:10:38.000Z</time>
      </trkpt>
      <trkpt lat="48.39466" lon="2.53797">
        <ele>133.39999389648</ele>
        <time>2019-11-16T11:10:41.000Z</time>
      </trkpt>
      <trkpt lat="48.3948" lon="2.53802">
        <ele>133.60000610352</ele>
        <time>2019-11-16T11:10:44.000Z</time>
      </trkpt>
      <trkpt lat="48.39485" lon="2.53802">
        <ele>133.80000305176</ele>
        <time>2019-11-16T11:10:45.000Z</time>
      </trkpt>
      <trkpt lat="48.3949" lon="2.53802">
        <ele>134</ele>
        <time>2019-11-16T11:10:46.000Z</time>
      </trkpt>
      <trkpt lat="48.39508" lon="2.53801">
        <ele>134.60000610352</ele>
        <time>2019-11-16T11:10:50.000Z</time>
      </trkpt>
      <trkpt lat="48.39513" lon="2.53802">
        <ele>135</ele>
        <time>2019-11-16T11:10:51.000Z</time>
      </trkpt>
      <trkpt lat="48.39516" lon="2.53803">
        <ele>135</ele>
        <time>2019-11-16T11:10:52.000Z</time>
      </trkpt>
      <trkpt lat="48.3952" lon="2.53804">
        <ele>135.39999389648</ele>
        <time>2019-11-16T11:10:54.000Z</time>
      </trkpt>
      <trkpt lat="48.39525" lon="2.53804">
        <ele>135.39999389648</ele>
        <time>2019-11-16T11:10:56.000Z</time>
      </trkpt>
      <trkpt lat="48.39529" lon="2.53803">
        <ele>135.60000610352</ele>
        <time>2019-11-16T11:10:57.000Z</time>
      </trkpt>
      <trkpt lat="48.39546" lon="2.538">
        <ele>135.80000305176</ele>
        <time>2019-11-16T11:11:02.000Z</time>
      </trkpt>
      <trkpt lat="48.39549" lon="2.53801">
        <ele>135.80000305176</ele>
        <time>2019-11-16T11:11:03.000Z</time>
      </trkpt>
      <trkpt lat="48.39558" lon="2.53804">
        <ele>135.80000305176</ele>
        <time>2019-11-16T11:11:06.000Z</time>
      </trkpt>
      <trkpt lat="48.39561" lon="2.53802">
        <ele>135.80000305176</ele>
        <time>2019-11-16T11:11:07.000Z</time>
      </trkpt>
      <trkpt lat="48.39567" lon="2.53797">
        <ele>135.80000305176</ele>
        <time>2019-11-16T11:11:09.000Z</time>
      </trkpt>
      <trkpt lat="48.39573" lon="2.53801">
        <ele>135</ele>
        <time>2019-11-16T11:11:11.000Z</time>
      </trkpt>
      <trkpt lat="48.39579" lon="2.53808">
        <ele>135</ele>
        <time>2019-11-16T11:11:15.000Z</time>
      </trkpt>
      <trkpt lat="48.39586" lon="2.53811">
        <ele>133.80000305176</ele>
        <time>2019-11-16T11:11:19.000Z</time>
      </trkpt>
      <trkpt lat="48.39588" lon="2.53812">
        <ele>133.80000305176</ele>
        <time>2019-11-16T11:11:20.000Z</time>
      </trkpt>
      <trkpt lat="48.39592" lon="2.5382">
        <ele>133.39999389648</ele>
        <time>2019-11-16T11:11:23.000Z</time>
      </trkpt>
      <trkpt lat="48.39594" lon="2.53824">
        <ele>133</ele>
        <time>2019-11-16T11:11:24.000Z</time>
      </trkpt>
      <trkpt lat="48.39597" lon="2.53829">
        <ele>132.60000610352</ele>
        <time>2019-11-16T11:11:25.000Z</time>
      </trkpt>
      <trkpt lat="48.39605" lon="2.53842">
        <ele>131.19999694824</ele>
        <time>2019-11-16T11:11:28.000Z</time>
      </trkpt>
      <trkpt lat="48.39608" lon="2.53846">
        <ele>130.80000305176</ele>
        <time>2019-11-16T11:11:29.000Z</time>
      </trkpt>
      <trkpt lat="48.39613" lon="2.53855">
        <ele>129.80000305176</ele>
        <time>2019-11-16T11:11:31.000Z</time>
      </trkpt>
      <trkpt lat="48.39619" lon="2.53864">
        <ele>129.39999389648</ele>
        <time>2019-11-16T11:11:33.000Z</time>
      </trkpt>
      <trkpt lat="48.39623" lon="2.53873">
        <ele>128.39999389648</ele>
        <time>2019-11-16T11:11:35.000Z</time>
      </trkpt>
      <trkpt lat="48.39626" lon="2.53878">
        <ele>127.80000305176</ele>
        <time>2019-11-16T11:11:37.000Z</time>
      </trkpt>
      <trkpt lat="48.39629" lon="2.53883">
        <ele>127.19999694824</ele>
        <time>2019-11-16T11:11:39.000Z</time>
      </trkpt>
      <trkpt lat="48.39634" lon="2.53887">
        <ele>126</ele>
        <time>2019-11-16T11:11:42.000Z</time>
      </trkpt>
      <trkpt lat="48.39634" lon="2.53887">
        <ele>125.80000305176</ele>
        <time>2019-11-16T11:11:43.000Z</time>
      </trkpt>
      <trkpt lat="48.39635" lon="2.53888">
        <ele>125</ele>
        <time>2019-11-16T11:11:46.000Z</time>
      </trkpt>
      <trkpt lat="48.39636" lon="2.53887">
        <ele>124.80000305176</ele>
        <time>2019-11-16T11:11:51.000Z</time>
      </trkpt>
      <trkpt lat="48.39641" lon="2.53887">
        <ele>124.80000305176</ele>
        <time>2019-11-16T11:11:55.000Z</time>
      </trkpt>
      <trkpt lat="48.39642" lon="2.53885">
        <ele>124</ele>
        <time>2019-11-16T11:11:57.000Z</time>
      </trkpt>
      <trkpt lat="48.39643" lon="2.53884">
        <ele>123.80000305176</ele>
        <time>2019-11-16T11:11:58.000Z</time>
      </trkpt>
      <trkpt lat="48.39644" lon="2.53884">
        <ele>123.19999694824</ele>
        <time>2019-11-16T11:12:00.000Z</time>
      </trkpt>
      <trkpt lat="48.39646" lon="2.53883">
        <ele>122.80000305176</ele>
        <time>2019-11-16T11:12:02.000Z</time>
      </trkpt>
      <trkpt lat="48.39647" lon="2.53881">
        <ele>122.40000152588</ele>
        <time>2019-11-16T11:12:06.000Z</time>
      </trkpt>
      <trkpt lat="48.39649" lon="2.5388">
        <ele>122.19999694824</ele>
        <time>2019-11-16T11:12:07.000Z</time>
      </trkpt>
      <trkpt lat="48.39651" lon="2.53878">
        <ele>121.59999847412</ele>
        <time>2019-11-16T11:12:08.000Z</time>
      </trkpt>
      <trkpt lat="48.39659" lon="2.53876">
        <ele>120.40000152588</ele>
        <time>2019-11-16T11:12:11.000Z</time>
      </trkpt>
      <trkpt lat="48.39663" lon="2.53873">
        <ele>119.40000152588</ele>
        <time>2019-11-16T11:12:13.000Z</time>
      </trkpt>
      <trkpt lat="48.39666" lon="2.53871">
        <ele>118.40000152588</ele>
        <time>2019-11-16T11:12:15.000Z</time>
      </trkpt>
      <trkpt lat="48.39668" lon="2.5387">
        <ele>118.19999694824</ele>
        <time>2019-11-16T11:12:16.000Z</time>
      </trkpt>
      <trkpt lat="48.3967" lon="2.53869">
        <ele>118</ele>
        <time>2019-11-16T11:12:17.000Z</time>
      </trkpt>
      <trkpt lat="48.39674" lon="2.53867">
        <ele>116.80000305176</ele>
        <time>2019-11-16T11:12:19.000Z</time>
      </trkpt>
      <trkpt lat="48.39675" lon="2.53863">
        <ele>115.80000305176</ele>
        <time>2019-11-16T11:12:21.000Z</time>
      </trkpt>
      <trkpt lat="48.39677" lon="2.53861">
        <ele>115.40000152588</ele>
        <time>2019-11-16T11:12:22.000Z</time>
      </trkpt>
      <trkpt lat="48.39678" lon="2.53858">
        <ele>114.40000152588</ele>
        <time>2019-11-16T11:12:23.000Z</time>
      </trkpt>
      <trkpt lat="48.39681" lon="2.53853">
        <ele>113</ele>
        <time>2019-11-16T11:12:25.000Z</time>
      </trkpt>
      <trkpt lat="48.39682" lon="2.53852">
        <ele>112</ele>
        <time>2019-11-16T11:12:26.000Z</time>
      </trkpt>
      <trkpt lat="48.39683" lon="2.53854">
        <ele>111</ele>
        <time>2019-11-16T11:12:27.000Z</time>
      </trkpt>
      <trkpt lat="48.39684" lon="2.53857">
        <ele>110</ele>
        <time>2019-11-16T11:12:28.000Z</time>
      </trkpt>
      <trkpt lat="48.39685" lon="2.53862">
        <ele>108.80000305176</ele>
        <time>2019-11-16T11:12:29.000Z</time>
      </trkpt>
      <trkpt lat="48.39687" lon="2.53865">
        <ele>107.59999847412</ele>
        <time>2019-11-16T11:12:30.000Z</time>
      </trkpt>
      <trkpt lat="48.39689" lon="2.53866">
        <ele>106.19999694824</ele>
        <time>2019-11-16T11:12:31.000Z</time>
      </trkpt>
      <trkpt lat="48.39692" lon="2.53868">
        <ele>104.80000305176</ele>
        <time>2019-11-16T11:12:32.000Z</time>
      </trkpt>
      <trkpt lat="48.39694" lon="2.53869">
        <ele>103.40000152588</ele>
        <time>2019-11-16T11:12:33.000Z</time>
      </trkpt>
      <trkpt lat="48.39696" lon="2.53872">
        <ele>102.40000152588</ele>
        <time>2019-11-16T11:12:34.000Z</time>
      </trkpt>
      <trkpt lat="48.39699" lon="2.53877">
        <ele>101.40000152588</ele>
        <time>2019-11-16T11:12:35.000Z</time>
      </trkpt>
      <trkpt lat="48.39702" lon="2.53882">
        <ele>100.40000152588</ele>
        <time>2019-11-16T11:12:36.000Z</time>
      </trkpt>
      <trkpt lat="48.39706" lon="2.53889">
        <ele>99.800003051758</ele>
        <time>2019-11-16T11:12:37.000Z</time>
      </trkpt>
      <trkpt lat="48.39714" lon="2.53904">
        <ele>98.199996948242</ele>
        <time>2019-11-16T11:12:39.000Z</time>
      </trkpt>
      <trkpt lat="48.39718" lon="2.53913">
        <ele>97.400001525879</ele>
        <time>2019-11-16T11:12:40.000Z</time>
      </trkpt>
      <trkpt lat="48.39722" lon="2.53921">
        <ele>96.800003051758</ele>
        <time>2019-11-16T11:12:41.000Z</time>
      </trkpt>
      <trkpt lat="48.3973" lon="2.53936">
        <ele>95.800003051758</ele>
        <time>2019-11-16T11:12:43.000Z</time>
      </trkpt>
      <trkpt lat="48.39733" lon="2.53942">
        <ele>95.400001525879</ele>
        <time>2019-11-16T11:12:44.000Z</time>
      </trkpt>
      <trkpt lat="48.39742" lon="2.53964">
        <ele>95.199996948242</ele>
        <time>2019-11-16T11:12:49.000Z</time>
      </trkpt>
      <trkpt lat="48.3975" lon="2.53979">
        <ele>94.599998474121</ele>
        <time>2019-11-16T11:12:54.000Z</time>
      </trkpt>
      <trkpt lat="48.39758" lon="2.53992">
        <ele>94.800003051758</ele>
        <time>2019-11-16T11:12:58.000Z</time>
      </trkpt>
      <trkpt lat="48.39761" lon="2.5401">
        <ele>94.199996948242</ele>
        <time>2019-11-16T11:13:02.000Z</time>
      </trkpt>
      <trkpt lat="48.39764" lon="2.54025">
        <ele>93.400001525879</ele>
        <time>2019-11-16T11:13:05.000Z</time>
      </trkpt>
      <trkpt lat="48.39765" lon="2.54035">
        <ele>93.400001525879</ele>
        <time>2019-11-16T11:13:07.000Z</time>
      </trkpt>
      <trkpt lat="48.3977" lon="2.54055">
        <ele>93</ele>
        <time>2019-11-16T11:13:12.000Z</time>
      </trkpt>
      <trkpt lat="48.39771" lon="2.54055">
        <ele>93.199996948242</ele>
        <time>2019-11-16T11:13:14.000Z</time>
      </trkpt>
      <trkpt lat="48.39773" lon="2.54056">
        <ele>93.400001525879</ele>
        <time>2019-11-16T11:13:16.000Z</time>
      </trkpt>
      <trkpt lat="48.39773" lon="2.54056">
        <ele>93</ele>
        <time>2019-11-16T11:13:31.000Z</time>
      </trkpt>
      <trkpt lat="48.39773" lon="2.54056">
        <ele>93.400001525879</ele>
        <time>2019-11-16T11:13:48.000Z</time>
      </trkpt>
      <trkpt lat="48.39774" lon="2.54057">
        <ele>93.199996948242</ele>
        <time>2019-11-16T11:14:10.000Z</time>
      </trkpt>
      <trkpt lat="48.39774" lon="2.54057">
        <ele>93.400001525879</ele>
        <time>2019-11-16T11:14:25.000Z</time>
      </trkpt>
      <trkpt lat="48.39778" lon="2.54056">
        <ele>93.400001525879</ele>
        <time>2019-11-16T11:14:36.000Z</time>
      </trkpt>
      <trkpt lat="48.39784" lon="2.54039">
        <ele>93.599998474121</ele>
        <time>2019-11-16T11:14:40.000Z</time>
      </trkpt>
      <trkpt lat="48.39784" lon="2.54033">
        <ele>93.800003051758</ele>
        <time>2019-11-16T11:14:41.000Z</time>
      </trkpt>
      <trkpt lat="48.39784" lon="2.54007">
        <ele>94</ele>
        <time>2019-11-16T11:14:45.000Z</time>
      </trkpt>
      <trkpt lat="48.39785" lon="2.54">
        <ele>94.199996948242</ele>
        <time>2019-11-16T11:14:46.000Z</time>
      </trkpt>
      <trkpt lat="48.39787" lon="2.53987">
        <ele>94.599998474121</ele>
        <time>2019-11-16T11:14:48.000Z</time>
      </trkpt>
      <trkpt lat="48.3979" lon="2.53973">
        <ele>94.599998474121</ele>
        <time>2019-11-16T11:14:50.000Z</time>
      </trkpt>
      <trkpt lat="48.39791" lon="2.53958">
        <ele>95</ele>
        <time>2019-11-16T11:14:52.000Z</time>
      </trkpt>
      <trkpt lat="48.39791" lon="2.53935">
        <ele>95.199996948242</ele>
        <time>2019-11-16T11:14:55.000Z</time>
      </trkpt>
      <trkpt lat="48.39792" lon="2.53921">
        <ele>95.599998474121</ele>
        <time>2019-11-16T11:14:57.000Z</time>
      </trkpt>
      <trkpt lat="48.39794" lon="2.53871">
        <ele>96.599998474121</ele>
        <time>2019-11-16T11:15:04.000Z</time>
      </trkpt>
      <trkpt lat="48.39792" lon="2.53855">
        <ele>96.800003051758</ele>
        <time>2019-11-16T11:15:06.000Z</time>
      </trkpt>
      <trkpt lat="48.39789" lon="2.53838">
        <ele>97</ele>
        <time>2019-11-16T11:15:08.000Z</time>
      </trkpt>
      <trkpt lat="48.39787" lon="2.53818">
        <ele>97.400001525879</ele>
        <time>2019-11-16T11:15:11.000Z</time>
      </trkpt>
      <trkpt lat="48.39786" lon="2.53811">
        <ele>97.800003051758</ele>
        <time>2019-11-16T11:15:12.000Z</time>
      </trkpt>
      <trkpt lat="48.39787" lon="2.53779">
        <ele>98.599998474121</ele>
        <time>2019-11-16T11:15:17.000Z</time>
      </trkpt>
      <trkpt lat="48.39787" lon="2.53768">
        <ele>98.800003051758</ele>
        <time>2019-11-16T11:15:19.000Z</time>
      </trkpt>
      <trkpt lat="48.39788" lon="2.53754">
        <ele>99.199996948242</ele>
        <time>2019-11-16T11:15:23.000Z</time>
      </trkpt>
      <trkpt lat="48.39788" lon="2.53754">
        <ele>96.800003051758</ele>
        <time>2019-11-16T11:15:27.000Z</time>
      </trkpt>
      <trkpt lat="48.39788" lon="2.53754">
        <ele>95.400001525879</ele>
        <time>2019-11-16T11:15:28.000Z</time>
      </trkpt>
      <trkpt lat="48.39788" lon="2.53754">
        <ele>98.400001525879</ele>
        <time>2019-11-16T11:15:30.000Z</time>
      </trkpt>
      <trkpt lat="48.39788" lon="2.53754">
        <ele>99.800003051758</ele>
        <time>2019-11-16T11:15:31.000Z</time>
      </trkpt>
      <trkpt lat="48.39787" lon="2.5375">
        <ele>99.400001525879</ele>
        <time>2019-11-16T11:15:39.000Z</time>
      </trkpt>
      <trkpt lat="48.39787" lon="2.53748">
        <ele>99.400001525879</ele>
        <time>2019-11-16T11:15:43.000Z</time>
      </trkpt>
      <trkpt lat="48.39787" lon="2.53763">
        <ele>99.599998474121</ele>
        <time>2019-11-16T11:15:47.000Z</time>
      </trkpt>
      <trkpt lat="48.39784" lon="2.53782">
        <ele>99.199996948242</ele>
        <time>2019-11-16T11:15:51.000Z</time>
      </trkpt>
      <trkpt lat="48.39776" lon="2.53781">
        <ele>99</ele>
        <time>2019-11-16T11:15:54.000Z</time>
      </trkpt>
      <trkpt lat="48.39765" lon="2.53772">
        <ele>99.199996948242</ele>
        <time>2019-11-16T11:15:59.000Z</time>
      </trkpt>
      <trkpt lat="48.39754" lon="2.53764">
        <ele>100</ele>
        <time>2019-11-16T11:16:04.000Z</time>
      </trkpt>
      <trkpt lat="48.39751" lon="2.5376">
        <ele>100.19999694824</ele>
        <time>2019-11-16T11:16:06.000Z</time>
      </trkpt>
      <trkpt lat="48.39749" lon="2.53757">
        <ele>100.80000305176</ele>
        <time>2019-11-16T11:16:08.000Z</time>
      </trkpt>
      <trkpt lat="48.39748" lon="2.53754">
        <ele>101</ele>
        <time>2019-11-16T11:16:09.000Z</time>
      </trkpt>
      <trkpt lat="48.39743" lon="2.53744">
        <ele>101.59999847412</ele>
        <time>2019-11-16T11:16:13.000Z</time>
      </trkpt>
      <trkpt lat="48.39741" lon="2.53742">
        <ele>101.40000152588</ele>
        <time>2019-11-16T11:16:14.000Z</time>
      </trkpt>
      <trkpt lat="48.39739" lon="2.53734">
        <ele>101.80000305176</ele>
        <time>2019-11-16T11:16:17.000Z</time>
      </trkpt>
      <trkpt lat="48.39739" lon="2.5373">
        <ele>102.19999694824</ele>
        <time>2019-11-16T11:16:18.000Z</time>
      </trkpt>
      <trkpt lat="48.39741" lon="2.53718">
        <ele>102.40000152588</ele>
        <time>2019-11-16T11:16:21.000Z</time>
      </trkpt>
      <trkpt lat="48.39737" lon="2.53706">
        <ele>103.19999694824</ele>
        <time>2019-11-16T11:16:25.000Z</time>
      </trkpt>
      <trkpt lat="48.39735" lon="2.53703">
        <ele>103.40000152588</ele>
        <time>2019-11-16T11:16:26.000Z</time>
      </trkpt>
      <trkpt lat="48.39732" lon="2.53697">
        <ele>104.59999847412</ele>
        <time>2019-11-16T11:16:29.000Z</time>
      </trkpt>
      <trkpt lat="48.39728" lon="2.5369">
        <ele>105.80000305176</ele>
        <time>2019-11-16T11:16:32.000Z</time>
      </trkpt>
      <trkpt lat="48.39727" lon="2.53688">
        <ele>106</ele>
        <time>2019-11-16T11:16:33.000Z</time>
      </trkpt>
      <trkpt lat="48.39726" lon="2.53685">
        <ele>106.80000305176</ele>
        <time>2019-11-16T11:16:35.000Z</time>
      </trkpt>
      <trkpt lat="48.39726" lon="2.53685">
        <ele>107.19999694824</ele>
        <time>2019-11-16T11:16:36.000Z</time>
      </trkpt>
      <trkpt lat="48.39725" lon="2.53683">
        <ele>108.19999694824</ele>
        <time>2019-11-16T11:16:38.000Z</time>
      </trkpt>
      <trkpt lat="48.39722" lon="2.53683">
        <ele>109.40000152588</ele>
        <time>2019-11-16T11:16:40.000Z</time>
      </trkpt>
      <trkpt lat="48.3972" lon="2.53682">
        <ele>110.19999694824</ele>
        <time>2019-11-16T11:16:42.000Z</time>
      </trkpt>
      <trkpt lat="48.3972" lon="2.53682">
        <ele>110.59999847412</ele>
        <time>2019-11-16T11:16:43.000Z</time>
      </trkpt>
      <trkpt lat="48.39718" lon="2.53681">
        <ele>111.40000152588</ele>
        <time>2019-11-16T11:16:48.000Z</time>
      </trkpt>
      <trkpt lat="48.39717" lon="2.53681">
        <ele>111.80000305176</ele>
        <time>2019-11-16T11:16:49.000Z</time>
      </trkpt>
      <trkpt lat="48.39715" lon="2.53674">
        <ele>113.19999694824</ele>
        <time>2019-11-16T11:16:55.000Z</time>
      </trkpt>
      <trkpt lat="48.39712" lon="2.53669">
        <ele>114.19999694824</ele>
        <time>2019-11-16T11:16:59.000Z</time>
      </trkpt>
      <trkpt lat="48.39711" lon="2.53669">
        <ele>114.59999847412</ele>
        <time>2019-11-16T11:17:00.000Z</time>
      </trkpt>
      <trkpt lat="48.39709" lon="2.53667">
        <ele>115</ele>
        <time>2019-11-16T11:17:02.000Z</time>
      </trkpt>
      <trkpt lat="48.39708" lon="2.53664">
        <ele>115.59999847412</ele>
        <time>2019-11-16T11:17:05.000Z</time>
      </trkpt>
      <trkpt lat="48.39707" lon="2.53662">
        <ele>116.80000305176</ele>
        <time>2019-11-16T11:17:09.000Z</time>
      </trkpt>
      <trkpt lat="48.39707" lon="2.53662">
        <ele>117.19999694824</ele>
        <time>2019-11-16T11:17:10.000Z</time>
      </trkpt>
      <trkpt lat="48.39707" lon="2.53662">
        <ele>117.59999847412</ele>
        <time>2019-11-16T11:17:11.000Z</time>
      </trkpt>
      <trkpt lat="48.39707" lon="2.53662">
        <ele>118</ele>
        <time>2019-11-16T11:17:12.000Z</time>
      </trkpt>
      <trkpt lat="48.39707" lon="2.53662">
        <ele>118.80000305176</ele>
        <time>2019-11-16T11:17:16.000Z</time>
      </trkpt>
      <trkpt lat="48.39707" lon="2.53662">
        <ele>119.19999694824</ele>
        <time>2019-11-16T11:17:18.000Z</time>
      </trkpt>
      <trkpt lat="48.39707" lon="2.53662">
        <ele>120.40000152588</ele>
        <time>2019-11-16T11:17:21.000Z</time>
      </trkpt>
      <trkpt lat="48.39707" lon="2.53662">
        <ele>120.80000305176</ele>
        <time>2019-11-16T11:17:24.000Z</time>
      </trkpt>
      <trkpt lat="48.39707" lon="2.53662">
        <ele>121.40000152588</ele>
        <time>2019-11-16T11:17:26.000Z</time>
      </trkpt>
      <trkpt lat="48.39707" lon="2.53662">
        <ele>122.40000152588</ele>
        <time>2019-11-16T11:17:31.000Z</time>
      </trkpt>
      <trkpt lat="48.39707" lon="2.53662">
        <ele>122.59999847412</ele>
        <time>2019-11-16T11:17:32.000Z</time>
      </trkpt>
      <trkpt lat="48.39707" lon="2.53663">
        <ele>123.59999847412</ele>
        <time>2019-11-16T11:17:37.000Z</time>
      </trkpt>
      <trkpt lat="48.39704" lon="2.53664">
        <ele>123.59999847412</ele>
        <time>2019-11-16T11:17:38.000Z</time>
      </trkpt>
      <trkpt lat="48.39703" lon="2.53664">
        <ele>124.80000305176</ele>
        <time>2019-11-16T11:17:43.000Z</time>
      </trkpt>
      <trkpt lat="48.397" lon="2.53662">
        <ele>126</ele>
        <time>2019-11-16T11:17:48.000Z</time>
      </trkpt>
      <trkpt lat="48.397" lon="2.53662">
        <ele>126.19999694824</ele>
        <time>2019-11-16T11:17:51.000Z</time>
      </trkpt>
      <trkpt lat="48.397" lon="2.53662">
        <ele>127</ele>
        <time>2019-11-16T11:17:55.000Z</time>
      </trkpt>
      <trkpt lat="48.39699" lon="2.53661">
        <ele>127.19999694824</ele>
        <time>2019-11-16T11:17:59.000Z</time>
      </trkpt>
      <trkpt lat="48.39699" lon="2.53661">
        <ele>127.80000305176</ele>
        <time>2019-11-16T11:18:05.000Z</time>
      </trkpt>
      <trkpt lat="48.39695" lon="2.53659">
        <ele>128.19999694824</ele>
        <time>2019-11-16T11:18:11.000Z</time>
      </trkpt>
      <trkpt lat="48.39691" lon="2.53659">
        <ele>129.19999694824</ele>
        <time>2019-11-16T11:18:15.000Z</time>
      </trkpt>
      <trkpt lat="48.3969" lon="2.53661">
        <ele>130</ele>
        <time>2019-11-16T11:18:18.000Z</time>
      </trkpt>
      <trkpt lat="48.39689" lon="2.53663">
        <ele>130.19999694824</ele>
        <time>2019-11-16T11:18:19.000Z</time>
      </trkpt>
      <trkpt lat="48.39684" lon="2.53666">
        <ele>131.60000610352</ele>
        <time>2019-11-16T11:18:24.000Z</time>
      </trkpt>
      <trkpt lat="48.39682" lon="2.53667">
        <ele>131.80000305176</ele>
        <time>2019-11-16T11:18:28.000Z</time>
      </trkpt>
      <trkpt lat="48.39681" lon="2.53667">
        <ele>132</ele>
        <time>2019-11-16T11:18:29.000Z</time>
      </trkpt>
      <trkpt lat="48.39678" lon="2.53665">
        <ele>132.60000610352</ele>
        <time>2019-11-16T11:18:32.000Z</time>
      </trkpt>
      <trkpt lat="48.39675" lon="2.53663">
        <ele>132.80000305176</ele>
        <time>2019-11-16T11:18:35.000Z</time>
      </trkpt>
      <trkpt lat="48.3967" lon="2.53659">
        <ele>133.19999694824</ele>
        <time>2019-11-16T11:18:41.000Z</time>
      </trkpt>
      <trkpt lat="48.39669" lon="2.53658">
        <ele>133.39999389648</ele>
        <time>2019-11-16T11:18:42.000Z</time>
      </trkpt>
      <trkpt lat="48.39665" lon="2.53654">
        <ele>133.60000610352</ele>
        <time>2019-11-16T11:18:46.000Z</time>
      </trkpt>
      <trkpt lat="48.39664" lon="2.53646">
        <ele>133.60000610352</ele>
        <time>2019-11-16T11:18:50.000Z</time>
      </trkpt>
      <trkpt lat="48.39664" lon="2.53643">
        <ele>133.60000610352</ele>
        <time>2019-11-16T11:18:51.000Z</time>
      </trkpt>
      <trkpt lat="48.39666" lon="2.53632">
        <ele>133</ele>
        <time>2019-11-16T11:18:56.000Z</time>
      </trkpt>
      <trkpt lat="48.39667" lon="2.53628">
        <ele>134.19999694824</ele>
        <time>2019-11-16T11:19:01.000Z</time>
      </trkpt>
      <trkpt lat="48.39668" lon="2.53622">
        <ele>134.39999389648</ele>
        <time>2019-11-16T11:19:06.000Z</time>
      </trkpt>
      <trkpt lat="48.39668" lon="2.53614">
        <ele>134.60000610352</ele>
        <time>2019-11-16T11:19:08.000Z</time>
      </trkpt>
      <trkpt lat="48.39669" lon="2.53611">
        <ele>134.39999389648</ele>
        <time>2019-11-16T11:19:09.000Z</time>
      </trkpt>
      <trkpt lat="48.39672" lon="2.53605">
        <ele>134.19999694824</ele>
        <time>2019-11-16T11:19:12.000Z</time>
      </trkpt>
      <trkpt lat="48.39673" lon="2.53603">
        <ele>134.60000610352</ele>
        <time>2019-11-16T11:19:14.000Z</time>
      </trkpt>
      <trkpt lat="48.39673" lon="2.53601">
        <ele>134.60000610352</ele>
        <time>2019-11-16T11:19:19.000Z</time>
      </trkpt>
      <trkpt lat="48.39669" lon="2.53596">
        <ele>134.60000610352</ele>
        <time>2019-11-16T11:19:24.000Z</time>
      </trkpt>
      <trkpt lat="48.39665" lon="2.53591">
        <ele>135.39999389648</ele>
        <time>2019-11-16T11:19:27.000Z</time>
      </trkpt>
      <trkpt lat="48.39661" lon="2.53587">
        <ele>135</ele>
        <time>2019-11-16T11:19:29.000Z</time>
      </trkpt>
      <trkpt lat="48.39658" lon="2.53581">
        <ele>134.60000610352</ele>
        <time>2019-11-16T11:19:31.000Z</time>
      </trkpt>
      <trkpt lat="48.39658" lon="2.53576">
        <ele>134.39999389648</ele>
        <time>2019-11-16T11:19:33.000Z</time>
      </trkpt>
      <trkpt lat="48.39655" lon="2.53565">
        <ele>134.60000610352</ele>
        <time>2019-11-16T11:19:38.000Z</time>
      </trkpt>
      <trkpt lat="48.3965" lon="2.53558">
        <ele>134.80000305176</ele>
        <time>2019-11-16T11:19:42.000Z</time>
      </trkpt>
      <trkpt lat="48.3965" lon="2.53559">
        <ele>134.80000305176</ele>
        <time>2019-11-16T11:19:43.000Z</time>
      </trkpt>
      <trkpt lat="48.3965" lon="2.53558">
        <ele>134.80000305176</ele>
        <time>2019-11-16T11:19:51.000Z</time>
      </trkpt>
      <trkpt lat="48.3965" lon="2.53558">
        <ele>134.60000610352</ele>
        <time>2019-11-16T11:19:56.000Z</time>
      </trkpt>
      <trkpt lat="48.39651" lon="2.5356">
        <ele>134.60000610352</ele>
        <time>2019-11-16T11:19:58.000Z</time>
      </trkpt>
      <trkpt lat="48.39654" lon="2.53563">
        <ele>134.80000305176</ele>
        <time>2019-11-16T11:20:00.000Z</time>
      </trkpt>
      <trkpt lat="48.3966" lon="2.53565">
        <ele>134.60000610352</ele>
        <time>2019-11-16T11:20:04.000Z</time>
      </trkpt>
      <trkpt lat="48.39661" lon="2.53557">
        <ele>134.39999389648</ele>
        <time>2019-11-16T11:20:08.000Z</time>
      </trkpt>
      <trkpt lat="48.39666" lon="2.53552">
        <ele>134.60000610352</ele>
        <time>2019-11-16T11:20:12.000Z</time>
      </trkpt>
      <trkpt lat="48.39674" lon="2.53557">
        <ele>134.80000305176</ele>
        <time>2019-11-16T11:20:17.000Z</time>
      </trkpt>
      <trkpt lat="48.39678" lon="2.53553">
        <ele>134.80000305176</ele>
        <time>2019-11-16T11:20:20.000Z</time>
      </trkpt>
      <trkpt lat="48.3968" lon="2.53549">
        <ele>134.80000305176</ele>
        <time>2019-11-16T11:20:21.000Z</time>
      </trkpt>
      <trkpt lat="48.39681" lon="2.53545">
        <ele>134.80000305176</ele>
        <time>2019-11-16T11:20:22.000Z</time>
      </trkpt>
      <trkpt lat="48.39682" lon="2.53534">
        <ele>134.60000610352</ele>
        <time>2019-11-16T11:20:25.000Z</time>
      </trkpt>
      <trkpt lat="48.39683" lon="2.53529">
        <ele>134.39999389648</ele>
        <time>2019-11-16T11:20:26.000Z</time>
      </trkpt>
      <trkpt lat="48.39686" lon="2.53508">
        <ele>134.80000305176</ele>
        <time>2019-11-16T11:20:30.000Z</time>
      </trkpt>
      <trkpt lat="48.39692" lon="2.53482">
        <ele>134</ele>
        <time>2019-11-16T11:20:35.000Z</time>
      </trkpt>
      <trkpt lat="48.39698" lon="2.53454">
        <ele>133.80000305176</ele>
        <time>2019-11-16T11:20:40.000Z</time>
      </trkpt>
      <trkpt lat="48.39701" lon="2.53443">
        <ele>133.60000610352</ele>
        <time>2019-11-16T11:20:42.000Z</time>
      </trkpt>
      <trkpt lat="48.3971" lon="2.53425">
        <ele>133.39999389648</ele>
        <time>2019-11-16T11:20:46.000Z</time>
      </trkpt>
      <trkpt lat="48.39716" lon="2.53408">
        <ele>133.60000610352</ele>
        <time>2019-11-16T11:20:49.000Z</time>
      </trkpt>
      <trkpt lat="48.39722" lon="2.5339">
        <ele>133.39999389648</ele>
        <time>2019-11-16T11:20:52.000Z</time>
      </trkpt>
      <trkpt lat="48.39732" lon="2.53364">
        <ele>134</ele>
        <time>2019-11-16T11:20:57.000Z</time>
      </trkpt>
      <trkpt lat="48.39733" lon="2.53353">
        <ele>134</ele>
        <time>2019-11-16T11:20:59.000Z</time>
      </trkpt>
      <trkpt lat="48.39735" lon="2.53347">
        <ele>133.80000305176</ele>
        <time>2019-11-16T11:21:00.000Z</time>
      </trkpt>
      <trkpt lat="48.39737" lon="2.53342">
        <ele>134</ele>
        <time>2019-11-16T11:21:01.000Z</time>
      </trkpt>
      <trkpt lat="48.39742" lon="2.53317">
        <ele>133.80000305176</ele>
        <time>2019-11-16T11:21:05.000Z</time>
      </trkpt>
      <trkpt lat="48.39742" lon="2.53311">
        <ele>133.60000610352</ele>
        <time>2019-11-16T11:21:06.000Z</time>
      </trkpt>
      <trkpt lat="48.39748" lon="2.53292">
        <ele>134.19999694824</ele>
        <time>2019-11-16T11:21:10.000Z</time>
      </trkpt>
      <trkpt lat="48.3975" lon="2.53281">
        <ele>134.80000305176</ele>
        <time>2019-11-16T11:21:12.000Z</time>
      </trkpt>
      <trkpt lat="48.39749" lon="2.53271">
        <ele>135.19999694824</ele>
        <time>2019-11-16T11:21:14.000Z</time>
      </trkpt>
      <trkpt lat="48.39745" lon="2.53254">
        <ele>135.39999389648</ele>
        <time>2019-11-16T11:21:17.000Z</time>
      </trkpt>
      <trkpt lat="48.39744" lon="2.53249">
        <ele>135.39999389648</ele>
        <time>2019-11-16T11:21:18.000Z</time>
      </trkpt>
      <trkpt lat="48.3974" lon="2.53232">
        <ele>135.39999389648</ele>
        <time>2019-11-16T11:21:21.000Z</time>
      </trkpt>
      <trkpt lat="48.39739" lon="2.53227">
        <ele>135.39999389648</ele>
        <time>2019-11-16T11:21:22.000Z</time>
      </trkpt>
      <trkpt lat="48.39741" lon="2.53218">
        <ele>135.39999389648</ele>
        <time>2019-11-16T11:21:24.000Z</time>
      </trkpt>
      <trkpt lat="48.39742" lon="2.53214">
        <ele>135.39999389648</ele>
        <time>2019-11-16T11:21:25.000Z</time>
      </trkpt>
      <trkpt lat="48.39743" lon="2.53196">
        <ele>134.39999389648</ele>
        <time>2019-11-16T11:21:28.000Z</time>
      </trkpt>
      <trkpt lat="48.39742" lon="2.53186">
        <ele>134.60000610352</ele>
        <time>2019-11-16T11:21:31.000Z</time>
      </trkpt>
      <trkpt lat="48.3974" lon="2.53182">
        <ele>135.60000610352</ele>
        <time>2019-11-16T11:21:33.000Z</time>
      </trkpt>
      <trkpt lat="48.39739" lon="2.53181">
        <ele>136</ele>
        <time>2019-11-16T11:21:34.000Z</time>
      </trkpt>
      <trkpt lat="48.39736" lon="2.5318">
        <ele>136.60000610352</ele>
        <time>2019-11-16T11:21:36.000Z</time>
      </trkpt>
      <trkpt lat="48.39735" lon="2.5318">
        <ele>137.19999694824</ele>
        <time>2019-11-16T11:21:39.000Z</time>
      </trkpt>
      <trkpt lat="48.39735" lon="2.5318">
        <ele>137.39999389648</ele>
        <time>2019-11-16T11:21:42.000Z</time>
      </trkpt>
      <trkpt lat="48.39734" lon="2.53181">
        <ele>137.19999694824</ele>
        <time>2019-11-16T11:21:44.000Z</time>
      </trkpt>
      <trkpt lat="48.39731" lon="2.53179">
        <ele>137</ele>
        <time>2019-11-16T11:21:46.000Z</time>
      </trkpt>
      <trkpt lat="48.39722" lon="2.53169">
        <ele>136.60000610352</ele>
        <time>2019-11-16T11:21:50.000Z</time>
      </trkpt>
      <trkpt lat="48.3972" lon="2.53157">
        <ele>136.60000610352</ele>
        <time>2019-11-16T11:21:53.000Z</time>
      </trkpt>
      <trkpt lat="48.39717" lon="2.53149">
        <ele>136.80000305176</ele>
        <time>2019-11-16T11:21:55.000Z</time>
      </trkpt>
      <trkpt lat="48.39711" lon="2.53138">
        <ele>136.80000305176</ele>
        <time>2019-11-16T11:21:58.000Z</time>
      </trkpt>
      <trkpt lat="48.39698" lon="2.53125">
        <ele>136.60000610352</ele>
        <time>2019-11-16T11:22:02.000Z</time>
      </trkpt>
      <trkpt lat="48.39693" lon="2.5312">
        <ele>136.60000610352</ele>
        <time>2019-11-16T11:22:03.000Z</time>
      </trkpt>
      <trkpt lat="48.39683" lon="2.53098">
        <ele>136.39999389648</ele>
        <time>2019-11-16T11:22:07.000Z</time>
      </trkpt>
      <trkpt lat="48.39679" lon="2.53083">
        <ele>136.60000610352</ele>
        <time>2019-11-16T11:22:11.000Z</time>
      </trkpt>
      <trkpt lat="48.39673" lon="2.53078">
        <ele>136.60000610352</ele>
        <time>2019-11-16T11:22:13.000Z</time>
      </trkpt>
      <trkpt lat="48.39667" lon="2.53075">
        <ele>136.19999694824</ele>
        <time>2019-11-16T11:22:15.000Z</time>
      </trkpt>
      <trkpt lat="48.39666" lon="2.53074">
        <ele>136.19999694824</ele>
        <time>2019-11-16T11:22:16.000Z</time>
      </trkpt>
      <trkpt lat="48.39663" lon="2.53066">
        <ele>136.39999389648</ele>
        <time>2019-11-16T11:22:19.000Z</time>
      </trkpt>
      <trkpt lat="48.39658" lon="2.53053">
        <ele>136.39999389648</ele>
        <time>2019-11-16T11:22:22.000Z</time>
      </trkpt>
      <trkpt lat="48.39657" lon="2.53025">
        <ele>135.80000305176</ele>
        <time>2019-11-16T11:22:26.000Z</time>
      </trkpt>
      <trkpt lat="48.3966" lon="2.53013">
        <ele>135.80000305176</ele>
        <time>2019-11-16T11:22:28.000Z</time>
      </trkpt>
      <trkpt lat="48.39667" lon="2.53004">
        <ele>135.60000610352</ele>
        <time>2019-11-16T11:22:30.000Z</time>
      </trkpt>
      <trkpt lat="48.39669" lon="2.52999">
        <ele>135.60000610352</ele>
        <time>2019-11-16T11:22:31.000Z</time>
      </trkpt>
      <trkpt lat="48.39673" lon="2.5299">
        <ele>135.39999389648</ele>
        <time>2019-11-16T11:22:33.000Z</time>
      </trkpt>
      <trkpt lat="48.39683" lon="2.52985">
        <ele>135.60000610352</ele>
        <time>2019-11-16T11:22:36.000Z</time>
      </trkpt>
      <trkpt lat="48.39687" lon="2.5299">
        <ele>135.80000305176</ele>
        <time>2019-11-16T11:22:38.000Z</time>
      </trkpt>
      <trkpt lat="48.39695" lon="2.52987">
        <ele>136.60000610352</ele>
        <time>2019-11-16T11:22:41.000Z</time>
      </trkpt>
      <trkpt lat="48.39702" lon="2.52981">
        <ele>137</ele>
        <time>2019-11-16T11:22:45.000Z</time>
      </trkpt>
      <trkpt lat="48.39705" lon="2.52973">
        <ele>137.19999694824</ele>
        <time>2019-11-16T11:22:47.000Z</time>
      </trkpt>
      <trkpt lat="48.39706" lon="2.52969">
        <ele>137.19999694824</ele>
        <time>2019-11-16T11:22:48.000Z</time>
      </trkpt>
      <trkpt lat="48.39707" lon="2.52962">
        <ele>137.39999389648</ele>
        <time>2019-11-16T11:22:50.000Z</time>
      </trkpt>
      <trkpt lat="48.39708" lon="2.52959">
        <ele>137.60000610352</ele>
        <time>2019-11-16T11:22:51.000Z</time>
      </trkpt>
      <trkpt lat="48.39713" lon="2.52948">
        <ele>137.80000305176</ele>
        <time>2019-11-16T11:22:54.000Z</time>
      </trkpt>
      <trkpt lat="48.39714" lon="2.52947">
        <ele>137.80000305176</ele>
        <time>2019-11-16T11:22:55.000Z</time>
      </trkpt>
      <trkpt lat="48.39718" lon="2.52949">
        <ele>137.60000610352</ele>
        <time>2019-11-16T11:22:57.000Z</time>
      </trkpt>
      <trkpt lat="48.39725" lon="2.52962">
        <ele>137.39999389648</ele>
        <time>2019-11-16T11:23:01.000Z</time>
      </trkpt>
      <trkpt lat="48.39732" lon="2.5296">
        <ele>137.60000610352</ele>
        <time>2019-11-16T11:23:05.000Z</time>
      </trkpt>
      <trkpt lat="48.39739" lon="2.52959">
        <ele>137.39999389648</ele>
        <time>2019-11-16T11:23:08.000Z</time>
      </trkpt>
      <trkpt lat="48.39744" lon="2.52955">
        <ele>137.19999694824</ele>
        <time>2019-11-16T11:23:10.000Z</time>
      </trkpt>
      <trkpt lat="48.39746" lon="2.52953">
        <ele>137.60000610352</ele>
        <time>2019-11-16T11:23:12.000Z</time>
      </trkpt>
      <trkpt lat="48.39746" lon="2.52953">
        <ele>138.19999694824</ele>
        <time>2019-11-16T11:23:14.000Z</time>
      </trkpt>
      <trkpt lat="48.39747" lon="2.52953">
        <ele>138.39999389648</ele>
        <time>2019-11-16T11:23:15.000Z</time>
      </trkpt>
      <trkpt lat="48.39749" lon="2.52949">
        <ele>138.39999389648</ele>
        <time>2019-11-16T11:23:17.000Z</time>
      </trkpt>
      <trkpt lat="48.39753" lon="2.52938">
        <ele>138.60000610352</ele>
        <time>2019-11-16T11:23:22.000Z</time>
      </trkpt>
      <trkpt lat="48.39757" lon="2.52933">
        <ele>138.80000305176</ele>
        <time>2019-11-16T11:23:24.000Z</time>
      </trkpt>
      <trkpt lat="48.39759" lon="2.52928">
        <ele>138.60000610352</ele>
        <time>2019-11-16T11:23:26.000Z</time>
      </trkpt>
      <trkpt lat="48.39759" lon="2.52923">
        <ele>138.60000610352</ele>
        <time>2019-11-16T11:23:27.000Z</time>
      </trkpt>
      <trkpt lat="48.39758" lon="2.52914">
        <ele>138</ele>
        <time>2019-11-16T11:23:29.000Z</time>
      </trkpt>
      <trkpt lat="48.3976" lon="2.52904">
        <ele>137.60000610352</ele>
        <time>2019-11-16T11:23:31.000Z</time>
      </trkpt>
      <trkpt lat="48.39761" lon="2.52901">
        <ele>137.60000610352</ele>
        <time>2019-11-16T11:23:32.000Z</time>
      </trkpt>
      <trkpt lat="48.39767" lon="2.52897">
        <ele>137.39999389648</ele>
        <time>2019-11-16T11:23:35.000Z</time>
      </trkpt>
      <trkpt lat="48.3977" lon="2.52895">
        <ele>137.19999694824</ele>
        <time>2019-11-16T11:23:36.000Z</time>
      </trkpt>
      <trkpt lat="48.39772" lon="2.52891">
        <ele>137.19999694824</ele>
        <time>2019-11-16T11:23:37.000Z</time>
      </trkpt>
      <trkpt lat="48.39773" lon="2.52887">
        <ele>137.39999389648</ele>
        <time>2019-11-16T11:23:38.000Z</time>
      </trkpt>
      <trkpt lat="48.39774" lon="2.52872">
        <ele>137.19999694824</ele>
        <time>2019-11-16T11:23:41.000Z</time>
      </trkpt>
      <trkpt lat="48.39775" lon="2.52869">
        <ele>137.19999694824</ele>
        <time>2019-11-16T11:23:42.000Z</time>
      </trkpt>
      <trkpt lat="48.39775" lon="2.52868">
        <ele>137</ele>
        <time>2019-11-16T11:23:45.000Z</time>
      </trkpt>
      <trkpt lat="48.39776" lon="2.52864">
        <ele>136.60000610352</ele>
        <time>2019-11-16T11:23:47.000Z</time>
      </trkpt>
      <trkpt lat="48.39777" lon="2.52857">
        <ele>136.60000610352</ele>
        <time>2019-11-16T11:23:49.000Z</time>
      </trkpt>
      <trkpt lat="48.3978" lon="2.5285">
        <ele>136.60000610352</ele>
        <time>2019-11-16T11:23:53.000Z</time>
      </trkpt>
      <trkpt lat="48.39781" lon="2.5285">
        <ele>136.80000305176</ele>
        <time>2019-11-16T11:23:54.000Z</time>
      </trkpt>
      <trkpt lat="48.39788" lon="2.52846">
        <ele>136</ele>
        <time>2019-11-16T11:23:59.000Z</time>
      </trkpt>
      <trkpt lat="48.39791" lon="2.52846">
        <ele>134.39999389648</ele>
        <time>2019-11-16T11:24:01.000Z</time>
      </trkpt>
      <trkpt lat="48.39793" lon="2.52846">
        <ele>134.60000610352</ele>
        <time>2019-11-16T11:24:05.000Z</time>
      </trkpt>
      <trkpt lat="48.39795" lon="2.52847">
        <ele>135</ele>
        <time>2019-11-16T11:24:08.000Z</time>
      </trkpt>
      <trkpt lat="48.398" lon="2.52845">
        <ele>134.80000305176</ele>
        <time>2019-11-16T11:24:10.000Z</time>
      </trkpt>
      <trkpt lat="48.39803" lon="2.52842">
        <ele>134.80000305176</ele>
        <time>2019-11-16T11:24:12.000Z</time>
      </trkpt>
      <trkpt lat="48.39806" lon="2.52838">
        <ele>134.80000305176</ele>
        <time>2019-11-16T11:24:14.000Z</time>
      </trkpt>
      <trkpt lat="48.39811" lon="2.52842">
        <ele>135.80000305176</ele>
        <time>2019-11-16T11:24:17.000Z</time>
      </trkpt>
      <trkpt lat="48.39813" lon="2.52845">
        <ele>136</ele>
        <time>2019-11-16T11:24:19.000Z</time>
      </trkpt>
      <trkpt lat="48.3982" lon="2.52848">
        <ele>136.19999694824</ele>
        <time>2019-11-16T11:24:23.000Z</time>
      </trkpt>
      <trkpt lat="48.39824" lon="2.52849">
        <ele>136.19999694824</ele>
        <time>2019-11-16T11:24:25.000Z</time>
      </trkpt>
      <trkpt lat="48.39828" lon="2.52845">
        <ele>136.19999694824</ele>
        <time>2019-11-16T11:24:27.000Z</time>
      </trkpt>
      <trkpt lat="48.39829" lon="2.5284">
        <ele>136.19999694824</ele>
        <time>2019-11-16T11:24:29.000Z</time>
      </trkpt>
      <trkpt lat="48.3983" lon="2.52831">
        <ele>136.39999389648</ele>
        <time>2019-11-16T11:24:32.000Z</time>
      </trkpt>
      <trkpt lat="48.39834" lon="2.52819">
        <ele>136.39999389648</ele>
        <time>2019-11-16T11:24:37.000Z</time>
      </trkpt>
      <trkpt lat="48.39836" lon="2.52813">
        <ele>136.19999694824</ele>
        <time>2019-11-16T11:24:42.000Z</time>
      </trkpt>
      <trkpt lat="48.39836" lon="2.52813">
        <ele>136</ele>
        <time>2019-11-16T11:24:49.000Z</time>
      </trkpt>
      <trkpt lat="48.39836" lon="2.52813">
        <ele>136</ele>
        <time>2019-11-16T11:25:01.000Z</time>
      </trkpt>
      <trkpt lat="48.39836" lon="2.52813">
        <ele>135.80000305176</ele>
        <time>2019-11-16T11:25:16.000Z</time>
      </trkpt>
      <trkpt lat="48.39836" lon="2.52813">
        <ele>136</ele>
        <time>2019-11-16T11:25:33.000Z</time>
      </trkpt>
      <trkpt lat="48.39833" lon="2.52812">
        <ele>135.80000305176</ele>
        <time>2019-11-16T11:25:42.000Z</time>
      </trkpt>
      <trkpt lat="48.39832" lon="2.52811">
        <ele>133.39999389648</ele>
        <time>2019-11-16T11:25:43.000Z</time>
      </trkpt>
      <trkpt lat="48.39827" lon="2.52802">
        <ele>135.39999389648</ele>
        <time>2019-11-16T11:25:46.000Z</time>
      </trkpt>
      <trkpt lat="48.39826" lon="2.52801">
        <ele>136.60000610352</ele>
        <time>2019-11-16T11:25:47.000Z</time>
      </trkpt>
      <trkpt lat="48.39823" lon="2.528">
        <ele>135.80000305176</ele>
        <time>2019-11-16T11:25:50.000Z</time>
      </trkpt>
      <trkpt lat="48.39822" lon="2.52797">
        <ele>135.60000610352</ele>
        <time>2019-11-16T11:25:55.000Z</time>
      </trkpt>
      <trkpt lat="48.39822" lon="2.52797">
        <ele>136</ele>
        <time>2019-11-16T11:25:57.000Z</time>
      </trkpt>
      <trkpt lat="48.39822" lon="2.52796">
        <ele>135.60000610352</ele>
        <time>2019-11-16T11:26:02.000Z</time>
      </trkpt>
      <trkpt lat="48.39823" lon="2.52789">
        <ele>135.80000305176</ele>
        <time>2019-11-16T11:26:04.000Z</time>
      </trkpt>
      <trkpt lat="48.39819" lon="2.52778">
        <ele>135.60000610352</ele>
        <time>2019-11-16T11:26:07.000Z</time>
      </trkpt>
      <trkpt lat="48.39811" lon="2.5277">
        <ele>135.80000305176</ele>
        <time>2019-11-16T11:26:11.000Z</time>
      </trkpt>
      <trkpt lat="48.39808" lon="2.52762">
        <ele>135.39999389648</ele>
        <time>2019-11-16T11:26:13.000Z</time>
      </trkpt>
      <trkpt lat="48.39808" lon="2.52758">
        <ele>135.39999389648</ele>
        <time>2019-11-16T11:26:14.000Z</time>
      </trkpt>
      <trkpt lat="48.39808" lon="2.52758">
        <ele>135.60000610352</ele>
        <time>2019-11-16T11:26:15.000Z</time>
      </trkpt>
      <trkpt lat="48.39809" lon="2.52757">
        <ele>135.80000305176</ele>
        <time>2019-11-16T11:26:19.000Z</time>
      </trkpt>
      <trkpt lat="48.39809" lon="2.52751">
        <ele>136.19999694824</ele>
        <time>2019-11-16T11:26:26.000Z</time>
      </trkpt>
      <trkpt lat="48.39807" lon="2.52745">
        <ele>136.80000305176</ele>
        <time>2019-11-16T11:26:28.000Z</time>
      </trkpt>
      <trkpt lat="48.39802" lon="2.52735">
        <ele>136.60000610352</ele>
        <time>2019-11-16T11:26:31.000Z</time>
      </trkpt>
      <trkpt lat="48.39791" lon="2.52734">
        <ele>136.80000305176</ele>
        <time>2019-11-16T11:26:35.000Z</time>
      </trkpt>
      <trkpt lat="48.3979" lon="2.52735">
        <ele>137</ele>
        <time>2019-11-16T11:26:36.000Z</time>
      </trkpt>
      <trkpt lat="48.39785" lon="2.52737">
        <ele>137.19999694824</ele>
        <time>2019-11-16T11:26:38.000Z</time>
      </trkpt>
      <trkpt lat="48.39784" lon="2.52734">
        <ele>137.19999694824</ele>
        <time>2019-11-16T11:26:39.000Z</time>
      </trkpt>
      <trkpt lat="48.39773" lon="2.52723">
        <ele>136.60000610352</ele>
        <time>2019-11-16T11:26:43.000Z</time>
      </trkpt>
      <trkpt lat="48.39771" lon="2.5272">
        <ele>136.60000610352</ele>
        <time>2019-11-16T11:26:44.000Z</time>
      </trkpt>
      <trkpt lat="48.3977" lon="2.52717">
        <ele>136.80000305176</ele>
        <time>2019-11-16T11:26:45.000Z</time>
      </trkpt>
      <trkpt lat="48.3977" lon="2.52708">
        <ele>137.39999389648</ele>
        <time>2019-11-16T11:26:47.000Z</time>
      </trkpt>
      <trkpt lat="48.39778" lon="2.52685">
        <ele>137</ele>
        <time>2019-11-16T11:26:52.000Z</time>
      </trkpt>
      <trkpt lat="48.39784" lon="2.52677">
        <ele>136.80000305176</ele>
        <time>2019-11-16T11:26:55.000Z</time>
      </trkpt>
      <trkpt lat="48.39785" lon="2.52673">
        <ele>136.80000305176</ele>
        <time>2019-11-16T11:26:56.000Z</time>
      </trkpt>
      <trkpt lat="48.39786" lon="2.52655">
        <ele>136.80000305176</ele>
        <time>2019-11-16T11:27:00.000Z</time>
      </trkpt>
      <trkpt lat="48.39787" lon="2.52637">
        <ele>136.60000610352</ele>
        <time>2019-11-16T11:27:04.000Z</time>
      </trkpt>
      <trkpt lat="48.39797" lon="2.52621">
        <ele>136.60000610352</ele>
        <time>2019-11-16T11:27:09.000Z</time>
      </trkpt>
      <trkpt lat="48.39801" lon="2.52602">
        <ele>137.19999694824</ele>
        <time>2019-11-16T11:27:15.000Z</time>
      </trkpt>
      <trkpt lat="48.39811" lon="2.52587">
        <ele>137</ele>
        <time>2019-11-16T11:27:20.000Z</time>
      </trkpt>
      <trkpt lat="48.39819" lon="2.52565">
        <ele>137.60000610352</ele>
        <time>2019-11-16T11:27:25.000Z</time>
      </trkpt>
      <trkpt lat="48.39821" lon="2.52561">
        <ele>137.39999389648</ele>
        <time>2019-11-16T11:27:26.000Z</time>
      </trkpt>
      <trkpt lat="48.39823" lon="2.52553">
        <ele>137.39999389648</ele>
        <time>2019-11-16T11:27:28.000Z</time>
      </trkpt>
      <trkpt lat="48.39826" lon="2.52532">
        <ele>137.39999389648</ele>
        <time>2019-11-16T11:27:33.000Z</time>
      </trkpt>
      <trkpt lat="48.3983" lon="2.52507">
        <ele>136.80000305176</ele>
        <time>2019-11-16T11:27:38.000Z</time>
      </trkpt>
      <trkpt lat="48.39831" lon="2.52504">
        <ele>136.60000610352</ele>
        <time>2019-11-16T11:27:39.000Z</time>
      </trkpt>
      <trkpt lat="48.39833" lon="2.52494">
        <ele>136.39999389648</ele>
        <time>2019-11-16T11:27:42.000Z</time>
      </trkpt>
      <trkpt lat="48.39833" lon="2.52493">
        <ele>136.39999389648</ele>
        <time>2019-11-16T11:27:43.000Z</time>
      </trkpt>
      <trkpt lat="48.39832" lon="2.52493">
        <ele>136</ele>
        <time>2019-11-16T11:27:46.000Z</time>
      </trkpt>
      <trkpt lat="48.39832" lon="2.52493">
        <ele>135.60000610352</ele>
        <time>2019-11-16T11:27:49.000Z</time>
      </trkpt>
      <trkpt lat="48.39832" lon="2.52493">
        <ele>135.60000610352</ele>
        <time>2019-11-16T11:28:00.000Z</time>
      </trkpt>
      <trkpt lat="48.39832" lon="2.52493">
        <ele>135.39999389648</ele>
        <time>2019-11-16T11:28:18.000Z</time>
      </trkpt>
      <trkpt lat="48.39832" lon="2.52492">
        <ele>135</ele>
        <time>2019-11-16T11:28:32.000Z</time>
      </trkpt>
      <trkpt lat="48.39832" lon="2.5249">
        <ele>134.80000305176</ele>
        <time>2019-11-16T11:28:37.000Z</time>
      </trkpt>
      <trkpt lat="48.39833" lon="2.52489">
        <ele>134.80000305176</ele>
        <time>2019-11-16T11:28:38.000Z</time>
      </trkpt>
      <trkpt lat="48.39832" lon="2.52488">
        <ele>134.39999389648</ele>
        <time>2019-11-16T11:28:40.000Z</time>
      </trkpt>
      <trkpt lat="48.39833" lon="2.52482">
        <ele>134.80000305176</ele>
        <time>2019-11-16T11:28:44.000Z</time>
      </trkpt>
      <trkpt lat="48.39834" lon="2.5248">
        <ele>135</ele>
        <time>2019-11-16T11:28:48.000Z</time>
      </trkpt>
      <trkpt lat="48.39834" lon="2.52474">
        <ele>135</ele>
        <time>2019-11-16T11:28:50.000Z</time>
      </trkpt>
      <trkpt lat="48.39835" lon="2.52468">
        <ele>135.60000610352</ele>
        <time>2019-11-16T11:28:52.000Z</time>
      </trkpt>
      <trkpt lat="48.39838" lon="2.52456">
        <ele>136.19999694824</ele>
        <time>2019-11-16T11:28:55.000Z</time>
      </trkpt>
      <trkpt lat="48.39839" lon="2.52449">
        <ele>136.80000305176</ele>
        <time>2019-11-16T11:28:57.000Z</time>
      </trkpt>
      <trkpt lat="48.3984" lon="2.52442">
        <ele>136.80000305176</ele>
        <time>2019-11-16T11:28:59.000Z</time>
      </trkpt>
      <trkpt lat="48.39841" lon="2.52435">
        <ele>137</ele>
        <time>2019-11-16T11:29:01.000Z</time>
      </trkpt>
      <trkpt lat="48.39842" lon="2.52434">
        <ele>137.60000610352</ele>
        <time>2019-11-16T11:29:03.000Z</time>
      </trkpt>
      <trkpt lat="48.39844" lon="2.52433">
        <ele>138</ele>
        <time>2019-11-16T11:29:04.000Z</time>
      </trkpt>
      <trkpt lat="48.39845" lon="2.52432">
        <ele>138.39999389648</ele>
        <time>2019-11-16T11:29:05.000Z</time>
      </trkpt>
      <trkpt lat="48.39851" lon="2.5242">
        <ele>137.80000305176</ele>
        <time>2019-11-16T11:29:09.000Z</time>
      </trkpt>
      <trkpt lat="48.39858" lon="2.52401">
        <ele>137.39999389648</ele>
        <time>2019-11-16T11:29:13.000Z</time>
      </trkpt>
      <trkpt lat="48.3986" lon="2.52396">
        <ele>137.39999389648</ele>
        <time>2019-11-16T11:29:14.000Z</time>
      </trkpt>
      <trkpt lat="48.39871" lon="2.52368">
        <ele>137</ele>
        <time>2019-11-16T11:29:19.000Z</time>
      </trkpt>
      <trkpt lat="48.3988" lon="2.52356">
        <ele>136.80000305176</ele>
        <time>2019-11-16T11:29:23.000Z</time>
      </trkpt>
      <trkpt lat="48.39895" lon="2.52348">
        <ele>137.19999694824</ele>
        <time>2019-11-16T11:29:28.000Z</time>
      </trkpt>
      <trkpt lat="48.39899" lon="2.52339">
        <ele>138</ele>
        <time>2019-11-16T11:29:32.000Z</time>
      </trkpt>
      <trkpt lat="48.39901" lon="2.52329">
        <ele>137.60000610352</ele>
        <time>2019-11-16T11:29:35.000Z</time>
      </trkpt>
      <trkpt lat="48.39904" lon="2.52326">
        <ele>137.39999389648</ele>
        <time>2019-11-16T11:29:37.000Z</time>
      </trkpt>
      <trkpt lat="48.39908" lon="2.52327">
        <ele>137.60000610352</ele>
        <time>2019-11-16T11:29:39.000Z</time>
      </trkpt>
      <trkpt lat="48.39916" lon="2.52326">
        <ele>137.80000305176</ele>
        <time>2019-11-16T11:29:42.000Z</time>
      </trkpt>
      <trkpt lat="48.39921" lon="2.52329">
        <ele>137</ele>
        <time>2019-11-16T11:29:46.000Z</time>
      </trkpt>
      <trkpt lat="48.39922" lon="2.52328">
        <ele>136.60000610352</ele>
        <time>2019-11-16T11:29:47.000Z</time>
      </trkpt>
      <trkpt lat="48.39923" lon="2.52328">
        <ele>136</ele>
        <time>2019-11-16T11:29:48.000Z</time>
      </trkpt>
      <trkpt lat="48.39924" lon="2.52329">
        <ele>134.80000305176</ele>
        <time>2019-11-16T11:29:52.000Z</time>
      </trkpt>
      <trkpt lat="48.39925" lon="2.52331">
        <ele>134.60000610352</ele>
        <time>2019-11-16T11:29:53.000Z</time>
      </trkpt>
      <trkpt lat="48.39927" lon="2.52332">
        <ele>133.60000610352</ele>
        <time>2019-11-16T11:29:55.000Z</time>
      </trkpt>
      <trkpt lat="48.39931" lon="2.52331">
        <ele>133.39999389648</ele>
        <time>2019-11-16T11:29:59.000Z</time>
      </trkpt>
      <trkpt lat="48.39931" lon="2.5233">
        <ele>133.39999389648</ele>
        <time>2019-11-16T11:30:00.000Z</time>
      </trkpt>
      <trkpt lat="48.3994" lon="2.52322">
        <ele>133</ele>
        <time>2019-11-16T11:30:03.000Z</time>
      </trkpt>
      <trkpt lat="48.39942" lon="2.5232">
        <ele>133</ele>
        <time>2019-11-16T11:30:04.000Z</time>
      </trkpt>
      <trkpt lat="48.39945" lon="2.52318">
        <ele>132.60000610352</ele>
        <time>2019-11-16T11:30:10.000Z</time>
      </trkpt>
      <trkpt lat="48.39944" lon="2.52321">
        <ele>133.39999389648</ele>
        <time>2019-11-16T11:30:17.000Z</time>
      </trkpt>
      <trkpt lat="48.39943" lon="2.52323">
        <ele>133.19999694824</ele>
        <time>2019-11-16T11:30:18.000Z</time>
      </trkpt>
      <trkpt lat="48.39939" lon="2.52325">
        <ele>133.39999389648</ele>
        <time>2019-11-16T11:30:22.000Z</time>
      </trkpt>
      <trkpt lat="48.39932" lon="2.52334">
        <ele>133.39999389648</ele>
        <time>2019-11-16T11:30:28.000Z</time>
      </trkpt>
      <trkpt lat="48.39933" lon="2.52334">
        <ele>133</ele>
        <time>2019-11-16T11:30:32.000Z</time>
      </trkpt>
      <trkpt lat="48.39935" lon="2.52333">
        <ele>132.39999389648</ele>
        <time>2019-11-16T11:30:33.000Z</time>
      </trkpt>
      <trkpt lat="48.39942" lon="2.52331">
        <ele>131.60000610352</ele>
        <time>2019-11-16T11:30:35.000Z</time>
      </trkpt>
      <trkpt lat="48.39944" lon="2.52331">
        <ele>131.19999694824</ele>
        <time>2019-11-16T11:30:36.000Z</time>
      </trkpt>
      <trkpt lat="48.39945" lon="2.52332">
        <ele>131</ele>
        <time>2019-11-16T11:30:37.000Z</time>
      </trkpt>
      <trkpt lat="48.3995" lon="2.52331">
        <ele>130.19999694824</ele>
        <time>2019-11-16T11:30:39.000Z</time>
      </trkpt>
      <trkpt lat="48.39951" lon="2.5233">
        <ele>129.39999389648</ele>
        <time>2019-11-16T11:30:40.000Z</time>
      </trkpt>
      <trkpt lat="48.3995" lon="2.5233">
        <ele>128.60000610352</ele>
        <time>2019-11-16T11:30:41.000Z</time>
      </trkpt>
      <trkpt lat="48.39951" lon="2.5233">
        <ele>127.80000305176</ele>
        <time>2019-11-16T11:30:43.000Z</time>
      </trkpt>
      <trkpt lat="48.39951" lon="2.5233">
        <ele>127.59999847412</ele>
        <time>2019-11-16T11:30:44.000Z</time>
      </trkpt>
      <trkpt lat="48.39951" lon="2.5233">
        <ele>127.80000305176</ele>
        <time>2019-11-16T11:30:58.000Z</time>
      </trkpt>
      <trkpt lat="48.39956" lon="2.52325">
        <ele>127.80000305176</ele>
        <time>2019-11-16T11:31:03.000Z</time>
      </trkpt>
      <trkpt lat="48.39958" lon="2.52325">
        <ele>127.40000152588</ele>
        <time>2019-11-16T11:31:04.000Z</time>
      </trkpt>
      <trkpt lat="48.3996" lon="2.52324">
        <ele>126.59999847412</ele>
        <time>2019-11-16T11:31:06.000Z</time>
      </trkpt>
      <trkpt lat="48.39961" lon="2.52323">
        <ele>126.19999694824</ele>
        <time>2019-11-16T11:31:07.000Z</time>
      </trkpt>
      <trkpt lat="48.39966" lon="2.52327">
        <ele>125.59999847412</ele>
        <time>2019-11-16T11:31:10.000Z</time>
      </trkpt>
      <trkpt lat="48.39969" lon="2.52329">
        <ele>125.59999847412</ele>
        <time>2019-11-16T11:31:11.000Z</time>
      </trkpt>
      <trkpt lat="48.39972" lon="2.5233">
        <ele>125.19999694824</ele>
        <time>2019-11-16T11:31:12.000Z</time>
      </trkpt>
      <trkpt lat="48.39977" lon="2.52332">
        <ele>122.19999694824</ele>
        <time>2019-11-16T11:31:14.000Z</time>
      </trkpt>
      <trkpt lat="48.39978" lon="2.52334">
        <ele>121.19999694824</ele>
        <time>2019-11-16T11:31:15.000Z</time>
      </trkpt>
      <trkpt lat="48.39977" lon="2.52333">
        <ele>120</ele>
        <time>2019-11-16T11:31:16.000Z</time>
      </trkpt>
      <trkpt lat="48.39977" lon="2.52333">
        <ele>119</ele>
        <time>2019-11-16T11:31:18.000Z</time>
      </trkpt>
      <trkpt lat="48.39977" lon="2.52333">
        <ele>118.19999694824</ele>
        <time>2019-11-16T11:31:22.000Z</time>
      </trkpt>
      <trkpt lat="48.39977" lon="2.52333">
        <ele>117.80000305176</ele>
        <time>2019-11-16T11:31:25.000Z</time>
      </trkpt>
      <trkpt lat="48.39979" lon="2.52333">
        <ele>117.19999694824</ele>
        <time>2019-11-16T11:31:28.000Z</time>
      </trkpt>
      <trkpt lat="48.3998" lon="2.52333">
        <ele>116.80000305176</ele>
        <time>2019-11-16T11:31:30.000Z</time>
      </trkpt>
      <trkpt lat="48.39982" lon="2.52333">
        <ele>115.59999847412</ele>
        <time>2019-11-16T11:31:32.000Z</time>
      </trkpt>
      <trkpt lat="48.39982" lon="2.52336">
        <ele>115</ele>
        <time>2019-11-16T11:31:33.000Z</time>
      </trkpt>
      <trkpt lat="48.39982" lon="2.52335">
        <ele>114.40000152588</ele>
        <time>2019-11-16T11:31:34.000Z</time>
      </trkpt>
      <trkpt lat="48.39982" lon="2.52336">
        <ele>113.40000152588</ele>
        <time>2019-11-16T11:31:36.000Z</time>
      </trkpt>
      <trkpt lat="48.39982" lon="2.52336">
        <ele>112.19999694824</ele>
        <time>2019-11-16T11:31:38.000Z</time>
      </trkpt>
      <trkpt lat="48.39985" lon="2.52339">
        <ele>111</ele>
        <time>2019-11-16T11:31:40.000Z</time>
      </trkpt>
      <trkpt lat="48.39984" lon="2.52344">
        <ele>109.19999694824</ele>
        <time>2019-11-16T11:31:42.000Z</time>
      </trkpt>
      <trkpt lat="48.39985" lon="2.52344">
        <ele>107.59999847412</ele>
        <time>2019-11-16T11:31:44.000Z</time>
      </trkpt>
      <trkpt lat="48.39991" lon="2.52353">
        <ele>106.19999694824</ele>
        <time>2019-11-16T11:31:46.000Z</time>
      </trkpt>
      <trkpt lat="48.39994" lon="2.52356">
        <ele>105.19999694824</ele>
        <time>2019-11-16T11:31:47.000Z</time>
      </trkpt>
      <trkpt lat="48.39998" lon="2.5236">
        <ele>104</ele>
        <time>2019-11-16T11:31:48.000Z</time>
      </trkpt>
      <trkpt lat="48.4" lon="2.52365">
        <ele>102.80000305176</ele>
        <time>2019-11-16T11:31:49.000Z</time>
      </trkpt>
      <trkpt lat="48.40003" lon="2.5237">
        <ele>101.40000152588</ele>
        <time>2019-11-16T11:31:50.000Z</time>
      </trkpt>
      <trkpt lat="48.40007" lon="2.52375">
        <ele>99.800003051758</ele>
        <time>2019-11-16T11:31:51.000Z</time>
      </trkpt>
      <trkpt lat="48.40009" lon="2.5238">
        <ele>98.199996948242</ele>
        <time>2019-11-16T11:31:52.000Z</time>
      </trkpt>
      <trkpt lat="48.40011" lon="2.52385">
        <ele>96.599998474121</ele>
        <time>2019-11-16T11:31:53.000Z</time>
      </trkpt>
      <trkpt lat="48.40014" lon="2.52393">
        <ele>95.199996948242</ele>
        <time>2019-11-16T11:31:54.000Z</time>
      </trkpt>
      <trkpt lat="48.40017" lon="2.52402">
        <ele>93.800003051758</ele>
        <time>2019-11-16T11:31:55.000Z</time>
      </trkpt>
      <trkpt lat="48.4002" lon="2.52409">
        <ele>92.199996948242</ele>
        <time>2019-11-16T11:31:56.000Z</time>
      </trkpt>
      <trkpt lat="48.40025" lon="2.52416">
        <ele>90.800003051758</ele>
        <time>2019-11-16T11:31:57.000Z</time>
      </trkpt>
      <trkpt lat="48.40029" lon="2.52422">
        <ele>89.599998474121</ele>
        <time>2019-11-16T11:31:58.000Z</time>
      </trkpt>
      <trkpt lat="48.40039" lon="2.52433">
        <ele>88</ele>
        <time>2019-11-16T11:32:00.000Z</time>
      </trkpt>
      <trkpt lat="48.40047" lon="2.52439">
        <ele>86.800003051758</ele>
        <time>2019-11-16T11:32:02.000Z</time>
      </trkpt>
      <trkpt lat="48.40052" lon="2.52442">
        <ele>86.400001525879</ele>
        <time>2019-11-16T11:32:05.000Z</time>
      </trkpt>
      <trkpt lat="48.40064" lon="2.5245">
        <ele>86</ele>
        <time>2019-11-16T11:32:10.000Z</time>
      </trkpt>
      <trkpt lat="48.40068" lon="2.5245">
        <ele>85.599998474121</ele>
        <time>2019-11-16T11:32:11.000Z</time>
      </trkpt>
      <trkpt lat="48.40073" lon="2.52453">
        <ele>85.800003051758</ele>
        <time>2019-11-16T11:32:13.000Z</time>
      </trkpt>
      <trkpt lat="48.40075" lon="2.52454">
        <ele>85.800003051758</ele>
        <time>2019-11-16T11:32:14.000Z</time>
      </trkpt>
      <trkpt lat="48.40081" lon="2.52449">
        <ele>85.599998474121</ele>
        <time>2019-11-16T11:32:17.000Z</time>
      </trkpt>
      <trkpt lat="48.40083" lon="2.52446">
        <ele>83.800003051758</ele>
        <time>2019-11-16T11:32:18.000Z</time>
      </trkpt>
      <trkpt lat="48.40084" lon="2.52434">
        <ele>86.199996948242</ele>
        <time>2019-11-16T11:32:21.000Z</time>
      </trkpt>
      <trkpt lat="48.40093" lon="2.52417">
        <ele>85.800003051758</ele>
        <time>2019-11-16T11:32:26.000Z</time>
      </trkpt>
      <trkpt lat="48.40096" lon="2.52414">
        <ele>85.599998474121</ele>
        <time>2019-11-16T11:32:28.000Z</time>
      </trkpt>
      <trkpt lat="48.40098" lon="2.52414">
        <ele>85.800003051758</ele>
        <time>2019-11-16T11:32:30.000Z</time>
      </trkpt>
      <trkpt lat="48.40098" lon="2.52414">
        <ele>85.599998474121</ele>
        <time>2019-11-16T11:32:41.000Z</time>
      </trkpt>
      <trkpt lat="48.40098" lon="2.52414">
        <ele>85.400001525879</ele>
        <time>2019-11-16T11:32:53.000Z</time>
      </trkpt>
      <trkpt lat="48.40098" lon="2.52414">
        <ele>85.199996948242</ele>
        <time>2019-11-16T11:33:02.000Z</time>
      </trkpt>
      <trkpt lat="48.40098" lon="2.52414">
        <ele>85.400001525879</ele>
        <time>2019-11-16T11:33:09.000Z</time>
      </trkpt>
      <trkpt lat="48.40097" lon="2.52414">
        <ele>85.199996948242</ele>
        <time>2019-11-16T11:33:19.000Z</time>
      </trkpt>
      <trkpt lat="48.40097" lon="2.52414">
        <ele>85.400001525879</ele>
        <time>2019-11-16T11:33:25.000Z</time>
      </trkpt>
      <trkpt lat="48.40097" lon="2.52414">
        <ele>85.599998474121</ele>
        <time>2019-11-16T11:33:34.000Z</time>
      </trkpt>
      <trkpt lat="48.40097" lon="2.52414">
        <ele>83.800003051758</ele>
        <time>2019-11-16T11:33:40.000Z</time>
      </trkpt>
      <trkpt lat="48.40097" lon="2.52414">
        <ele>82.400001525879</ele>
        <time>2019-11-16T11:33:41.000Z</time>
      </trkpt>
      <trkpt lat="48.40097" lon="2.52414">
        <ele>85.199996948242</ele>
        <time>2019-11-16T11:33:43.000Z</time>
      </trkpt>
      <trkpt lat="48.40097" lon="2.52414">
        <ele>86.800003051758</ele>
        <time>2019-11-16T11:33:44.000Z</time>
      </trkpt>
      <trkpt lat="48.40097" lon="2.52414">
        <ele>85.599998474121</ele>
        <time>2019-11-16T11:33:47.000Z</time>
      </trkpt>
      <trkpt lat="48.40097" lon="2.52414">
        <ele>85.199996948242</ele>
        <time>2019-11-16T11:33:49.000Z</time>
      </trkpt>
      <trkpt lat="48.40095" lon="2.5242">
        <ele>86</ele>
        <time>2019-11-16T11:33:54.000Z</time>
      </trkpt>
      <trkpt lat="48.40093" lon="2.52425">
        <ele>86</ele>
        <time>2019-11-16T11:33:55.000Z</time>
      </trkpt>
      <trkpt lat="48.40089" lon="2.5244">
        <ele>86</ele>
        <time>2019-11-16T11:33:58.000Z</time>
      </trkpt>
      <trkpt lat="48.40086" lon="2.5245">
        <ele>85.800003051758</ele>
        <time>2019-11-16T11:34:00.000Z</time>
      </trkpt>
      <trkpt lat="48.40082" lon="2.52468">
        <ele>86</ele>
        <time>2019-11-16T11:34:04.000Z</time>
      </trkpt>
      <trkpt lat="48.40079" lon="2.52488">
        <ele>86.199996948242</ele>
        <time>2019-11-16T11:34:08.000Z</time>
      </trkpt>
      <trkpt lat="48.40073" lon="2.52509">
        <ele>86</ele>
        <time>2019-11-16T11:34:12.000Z</time>
      </trkpt>
      <trkpt lat="48.40066" lon="2.52546">
        <ele>86.199996948242</ele>
        <time>2019-11-16T11:34:19.000Z</time>
      </trkpt>
      <trkpt lat="48.40055" lon="2.5258">
        <ele>86.599998474121</ele>
        <time>2019-11-16T11:34:24.000Z</time>
      </trkpt>
      <trkpt lat="48.40041" lon="2.52621">
        <ele>87.199996948242</ele>
        <time>2019-11-16T11:34:30.000Z</time>
      </trkpt>
      <trkpt lat="48.40035" lon="2.52639">
        <ele>87.599998474121</ele>
        <time>2019-11-16T11:34:33.000Z</time>
      </trkpt>
      <trkpt lat="48.40034" lon="2.52643">
        <ele>87.800003051758</ele>
        <time>2019-11-16T11:34:34.000Z</time>
      </trkpt>
      <trkpt lat="48.40036" lon="2.5266">
        <ele>88</ele>
        <time>2019-11-16T11:34:38.000Z</time>
      </trkpt>
      <trkpt lat="48.40042" lon="2.52665">
        <ele>88</ele>
        <time>2019-11-16T11:34:40.000Z</time>
      </trkpt>
      <trkpt lat="48.40046" lon="2.52667">
        <ele>88.199996948242</ele>
        <time>2019-11-16T11:34:41.000Z</time>
      </trkpt>
      <trkpt lat="48.40054" lon="2.52673">
        <ele>88.199996948242</ele>
        <time>2019-11-16T11:34:43.000Z</time>
      </trkpt>
      <trkpt lat="48.40085" lon="2.52696">
        <ele>88</ele>
        <time>2019-11-16T11:34:50.000Z</time>
      </trkpt>
      <trkpt lat="48.40109" lon="2.52713">
        <ele>87.800003051758</ele>
        <time>2019-11-16T11:34:55.000Z</time>
      </trkpt>
      <trkpt lat="48.40113" lon="2.52718">
        <ele>87.599998474121</ele>
        <time>2019-11-16T11:34:56.000Z</time>
      </trkpt>
      <trkpt lat="48.4013" lon="2.52742">
        <ele>88</ele>
        <time>2019-11-16T11:35:01.000Z</time>
      </trkpt>
      <trkpt lat="48.40137" lon="2.52753">
        <ele>88</ele>
        <time>2019-11-16T11:35:03.000Z</time>
      </trkpt>
      <trkpt lat="48.40153" lon="2.52781">
        <ele>88.800003051758</ele>
        <time>2019-11-16T11:35:08.000Z</time>
      </trkpt>
      <trkpt lat="48.40156" lon="2.52787">
        <ele>89</ele>
        <time>2019-11-16T11:35:09.000Z</time>
      </trkpt>
      <trkpt lat="48.40166" lon="2.52808">
        <ele>89.800003051758</ele>
        <time>2019-11-16T11:35:13.000Z</time>
      </trkpt>
      <trkpt lat="48.40172" lon="2.52824">
        <ele>91</ele>
        <time>2019-11-16T11:35:16.000Z</time>
      </trkpt>
      <trkpt lat="48.40185" lon="2.52847">
        <ele>92</ele>
        <time>2019-11-16T11:35:21.000Z</time>
      </trkpt>
      <trkpt lat="48.40191" lon="2.52862">
        <ele>93</ele>
        <time>2019-11-16T11:35:24.000Z</time>
      </trkpt>
      <trkpt lat="48.40191" lon="2.52867">
        <ele>93.400001525879</ele>
        <time>2019-11-16T11:35:25.000Z</time>
      </trkpt>
      <trkpt lat="48.40191" lon="2.52884">
        <ele>94.199996948242</ele>
        <time>2019-11-16T11:35:28.000Z</time>
      </trkpt>
      <trkpt lat="48.40191" lon="2.5289">
        <ele>94.599998474121</ele>
        <time>2019-11-16T11:35:29.000Z</time>
      </trkpt>
      <trkpt lat="48.40196" lon="2.52898">
        <ele>95.400001525879</ele>
        <time>2019-11-16T11:35:31.000Z</time>
      </trkpt>
      <trkpt lat="48.40199" lon="2.529">
        <ele>95.800003051758</ele>
        <time>2019-11-16T11:35:32.000Z</time>
      </trkpt>
      <trkpt lat="48.4021" lon="2.529">
        <ele>96.800003051758</ele>
        <time>2019-11-16T11:35:35.000Z</time>
      </trkpt>
      <trkpt lat="48.40214" lon="2.52902">
        <ele>97</ele>
        <time>2019-11-16T11:35:36.000Z</time>
      </trkpt>
      <trkpt lat="48.40221" lon="2.52912">
        <ele>97.800003051758</ele>
        <time>2019-11-16T11:35:39.000Z</time>
      </trkpt>
      <trkpt lat="48.40222" lon="2.52917">
        <ele>98.199996948242</ele>
        <time>2019-11-16T11:35:40.000Z</time>
      </trkpt>
      <trkpt lat="48.40226" lon="2.52928">
        <ele>99.400001525879</ele>
        <time>2019-11-16T11:35:43.000Z</time>
      </trkpt>
      <trkpt lat="48.40227" lon="2.52931">
        <ele>100</ele>
        <time>2019-11-16T11:35:44.000Z</time>
      </trkpt>
      <trkpt lat="48.40226" lon="2.52937">
        <ele>100.80000305176</ele>
        <time>2019-11-16T11:35:46.000Z</time>
      </trkpt>
      <trkpt lat="48.40226" lon="2.52943">
        <ele>101.80000305176</ele>
        <time>2019-11-16T11:35:48.000Z</time>
      </trkpt>
      <trkpt lat="48.40227" lon="2.52947">
        <ele>102.19999694824</ele>
        <time>2019-11-16T11:35:49.000Z</time>
      </trkpt>
      <trkpt lat="48.40224" lon="2.5296">
        <ele>103</ele>
        <time>2019-11-16T11:35:53.000Z</time>
      </trkpt>
      <trkpt lat="48.40223" lon="2.52963">
        <ele>103.19999694824</ele>
        <time>2019-11-16T11:35:54.000Z</time>
      </trkpt>
      <trkpt lat="48.40223" lon="2.5298">
        <ele>104</ele>
        <time>2019-11-16T11:35:59.000Z</time>
      </trkpt>
      <trkpt lat="48.40223" lon="2.52984">
        <ele>104.40000152588</ele>
        <time>2019-11-16T11:36:00.000Z</time>
      </trkpt>
      <trkpt lat="48.40225" lon="2.52991">
        <ele>105.59999847412</ele>
        <time>2019-11-16T11:36:04.000Z</time>
      </trkpt>
      <trkpt lat="48.40226" lon="2.52992">
        <ele>106</ele>
        <time>2019-11-16T11:36:05.000Z</time>
      </trkpt>
      <trkpt lat="48.40226" lon="2.52993">
        <ele>106.59999847412</ele>
        <time>2019-11-16T11:36:09.000Z</time>
      </trkpt>
      <trkpt lat="48.40227" lon="2.52998">
        <ele>106.80000305176</ele>
        <time>2019-11-16T11:36:12.000Z</time>
      </trkpt>
      <trkpt lat="48.40228" lon="2.53002">
        <ele>107.59999847412</ele>
        <time>2019-11-16T11:36:16.000Z</time>
      </trkpt>
      <trkpt lat="48.40228" lon="2.53003">
        <ele>108</ele>
        <time>2019-11-16T11:36:18.000Z</time>
      </trkpt>
      <trkpt lat="48.40228" lon="2.53003">
        <ele>108.40000152588</ele>
        <time>2019-11-16T11:36:28.000Z</time>
      </trkpt>
      <trkpt lat="48.40228" lon="2.53003">
        <ele>109</ele>
        <time>2019-11-16T11:36:32.000Z</time>
      </trkpt>
      <trkpt lat="48.40228" lon="2.53003">
        <ele>108</ele>
        <time>2019-11-16T11:36:39.000Z</time>
      </trkpt>
      <trkpt lat="48.40228" lon="2.53003">
        <ele>107.40000152588</ele>
        <time>2019-11-16T11:36:42.000Z</time>
      </trkpt>
      <trkpt lat="48.40228" lon="2.53003">
        <ele>108</ele>
        <time>2019-11-16T11:36:57.000Z</time>
      </trkpt>
      <trkpt lat="48.40229" lon="2.53015">
        <ele>109</ele>
        <time>2019-11-16T11:37:03.000Z</time>
      </trkpt>
      <trkpt lat="48.4023" lon="2.53018">
        <ele>109.40000152588</ele>
        <time>2019-11-16T11:37:04.000Z</time>
      </trkpt>
      <trkpt lat="48.40234" lon="2.53019">
        <ele>110.40000152588</ele>
        <time>2019-11-16T11:37:10.000Z</time>
      </trkpt>
      <trkpt lat="48.40235" lon="2.53019">
        <ele>110.40000152588</ele>
        <time>2019-11-16T11:37:11.000Z</time>
      </trkpt>
      <trkpt lat="48.40236" lon="2.53018">
        <ele>110</ele>
        <time>2019-11-16T11:37:19.000Z</time>
      </trkpt>
      <trkpt lat="48.40236" lon="2.53018">
        <ele>110</ele>
        <time>2019-11-16T11:37:31.000Z</time>
      </trkpt>
      <trkpt lat="48.40236" lon="2.53018">
        <ele>110</ele>
        <time>2019-11-16T11:37:47.000Z</time>
      </trkpt>
      <trkpt lat="48.40236" lon="2.53019">
        <ele>110.40000152588</ele>
        <time>2019-11-16T11:38:01.000Z</time>
      </trkpt>
      <trkpt lat="48.40235" lon="2.53024">
        <ele>110.59999847412</ele>
        <time>2019-11-16T11:38:07.000Z</time>
      </trkpt>
      <trkpt lat="48.40234" lon="2.53027">
        <ele>110.80000305176</ele>
        <time>2019-11-16T11:38:08.000Z</time>
      </trkpt>
      <trkpt lat="48.40232" lon="2.53031">
        <ele>111.59999847412</ele>
        <time>2019-11-16T11:38:10.000Z</time>
      </trkpt>
      <trkpt lat="48.40229" lon="2.53036">
        <ele>112.40000152588</ele>
        <time>2019-11-16T11:38:12.000Z</time>
      </trkpt>
      <trkpt lat="48.40227" lon="2.53038">
        <ele>112.80000305176</ele>
        <time>2019-11-16T11:38:13.000Z</time>
      </trkpt>
      <trkpt lat="48.40224" lon="2.53045">
        <ele>114.19999694824</ele>
        <time>2019-11-16T11:38:16.000Z</time>
      </trkpt>
      <trkpt lat="48.40224" lon="2.53048">
        <ele>115.40000152588</ele>
        <time>2019-11-16T11:38:18.000Z</time>
      </trkpt>
      <trkpt lat="48.40225" lon="2.5305">
        <ele>116</ele>
        <time>2019-11-16T11:38:19.000Z</time>
      </trkpt>
      <trkpt lat="48.40226" lon="2.53051">
        <ele>116.40000152588</ele>
        <time>2019-11-16T11:38:20.000Z</time>
      </trkpt>
      <trkpt lat="48.40228" lon="2.53057">
        <ele>118</ele>
        <time>2019-11-16T11:38:23.000Z</time>
      </trkpt>
      <trkpt lat="48.40228" lon="2.5306">
        <ele>118.19999694824</ele>
        <time>2019-11-16T11:38:24.000Z</time>
      </trkpt>
      <trkpt lat="48.40228" lon="2.53062">
        <ele>119</ele>
        <time>2019-11-16T11:38:25.000Z</time>
      </trkpt>
      <trkpt lat="48.40229" lon="2.53067">
        <ele>121.19999694824</ele>
        <time>2019-11-16T11:38:27.000Z</time>
      </trkpt>
      <trkpt lat="48.40229" lon="2.5307">
        <ele>122.40000152588</ele>
        <time>2019-11-16T11:38:29.000Z</time>
      </trkpt>
      <trkpt lat="48.40228" lon="2.53071">
        <ele>123.80000305176</ele>
        <time>2019-11-16T11:38:31.000Z</time>
      </trkpt>
      <trkpt lat="48.40223" lon="2.53075">
        <ele>125</ele>
        <time>2019-11-16T11:38:34.000Z</time>
      </trkpt>
      <trkpt lat="48.40219" lon="2.53078">
        <ele>126</ele>
        <time>2019-11-16T11:38:38.000Z</time>
      </trkpt>
      <trkpt lat="48.40216" lon="2.53079">
        <ele>126.40000152588</ele>
        <time>2019-11-16T11:38:39.000Z</time>
      </trkpt>
      <trkpt lat="48.40213" lon="2.53082">
        <ele>126.80000305176</ele>
        <time>2019-11-16T11:38:41.000Z</time>
      </trkpt>
      <trkpt lat="48.40212" lon="2.53083">
        <ele>127.19999694824</ele>
        <time>2019-11-16T11:38:42.000Z</time>
      </trkpt>
      <trkpt lat="48.40204" lon="2.53087">
        <ele>128.19999694824</ele>
        <time>2019-11-16T11:38:46.000Z</time>
      </trkpt>
      <trkpt lat="48.402" lon="2.53089">
        <ele>128.39999389648</ele>
        <time>2019-11-16T11:38:48.000Z</time>
      </trkpt>
      <trkpt lat="48.40193" lon="2.53106">
        <ele>129.39999389648</ele>
        <time>2019-11-16T11:38:54.000Z</time>
      </trkpt>
      <trkpt lat="48.40184" lon="2.53134">
        <ele>130</ele>
        <time>2019-11-16T11:39:02.000Z</time>
      </trkpt>
      <trkpt lat="48.40174" lon="2.53141">
        <ele>130.39999389648</ele>
        <time>2019-11-16T11:39:06.000Z</time>
      </trkpt>
      <trkpt lat="48.40168" lon="2.53155">
        <ele>129.80000305176</ele>
        <time>2019-11-16T11:39:10.000Z</time>
      </trkpt>
      <trkpt lat="48.40167" lon="2.53159">
        <ele>129.80000305176</ele>
        <time>2019-11-16T11:39:11.000Z</time>
      </trkpt>
      <trkpt lat="48.40159" lon="2.53179">
        <ele>130.39999389648</ele>
        <time>2019-11-16T11:39:17.000Z</time>
      </trkpt>
      <trkpt lat="48.40154" lon="2.53193">
        <ele>130.60000610352</ele>
        <time>2019-11-16T11:39:21.000Z</time>
      </trkpt>
      <trkpt lat="48.40152" lon="2.53197">
        <ele>130.60000610352</ele>
        <time>2019-11-16T11:39:22.000Z</time>
      </trkpt>
      <trkpt lat="48.4014" lon="2.53224">
        <ele>131.19999694824</ele>
        <time>2019-11-16T11:39:29.000Z</time>
      </trkpt>
      <trkpt lat="48.40132" lon="2.53249">
        <ele>131</ele>
        <time>2019-11-16T11:39:35.000Z</time>
      </trkpt>
      <trkpt lat="48.40126" lon="2.53275">
        <ele>131</ele>
        <time>2019-11-16T11:39:40.000Z</time>
      </trkpt>
      <trkpt lat="48.40124" lon="2.53293">
        <ele>131.19999694824</ele>
        <time>2019-11-16T11:39:45.000Z</time>
      </trkpt>
      <trkpt lat="48.40121" lon="2.53317">
        <ele>131.60000610352</ele>
        <time>2019-11-16T11:39:50.000Z</time>
      </trkpt>
      <trkpt lat="48.40115" lon="2.53355">
        <ele>131.60000610352</ele>
        <time>2019-11-16T11:39:57.000Z</time>
      </trkpt>
      <trkpt lat="48.40116" lon="2.53389">
        <ele>132.19999694824</ele>
        <time>2019-11-16T11:40:03.000Z</time>
      </trkpt>
      <trkpt lat="48.40117" lon="2.53412">
        <ele>132.60000610352</ele>
        <time>2019-11-16T11:40:07.000Z</time>
      </trkpt>
      <trkpt lat="48.40118" lon="2.53425">
        <ele>132.80000305176</ele>
        <time>2019-11-16T11:40:09.000Z</time>
      </trkpt>
      <trkpt lat="48.40119" lon="2.53461">
        <ele>132.60000610352</ele>
        <time>2019-11-16T11:40:15.000Z</time>
      </trkpt>
      <trkpt lat="48.40128" lon="2.53485">
        <ele>133</ele>
        <time>2019-11-16T11:40:20.000Z</time>
      </trkpt>
      <trkpt lat="48.4014" lon="2.53492">
        <ele>132.80000305176</ele>
        <time>2019-11-16T11:40:23.000Z</time>
      </trkpt>
      <trkpt lat="48.40144" lon="2.53492">
        <ele>132.80000305176</ele>
        <time>2019-11-16T11:40:24.000Z</time>
      </trkpt>
      <trkpt lat="48.4016" lon="2.53495">
        <ele>132.39999389648</ele>
        <time>2019-11-16T11:40:27.000Z</time>
      </trkpt>
      <trkpt lat="48.40176" lon="2.53496">
        <ele>131.60000610352</ele>
        <time>2019-11-16T11:40:30.000Z</time>
      </trkpt>
      <trkpt lat="48.40182" lon="2.53494">
        <ele>131.39999389648</ele>
        <time>2019-11-16T11:40:31.000Z</time>
      </trkpt>
      <trkpt lat="48.40205" lon="2.53487">
        <ele>130.60000610352</ele>
        <time>2019-11-16T11:40:35.000Z</time>
      </trkpt>
      <trkpt lat="48.40212" lon="2.53487">
        <ele>130.19999694824</ele>
        <time>2019-11-16T11:40:36.000Z</time>
      </trkpt>
      <trkpt lat="48.40221" lon="2.53494">
        <ele>129.19999694824</ele>
        <time>2019-11-16T11:40:38.000Z</time>
      </trkpt>
      <trkpt lat="48.40224" lon="2.53501">
        <ele>128.80000305176</ele>
        <time>2019-11-16T11:40:39.000Z</time>
      </trkpt>
      <trkpt lat="48.40231" lon="2.53517">
        <ele>127.40000152588</ele>
        <time>2019-11-16T11:40:41.000Z</time>
      </trkpt>
      <trkpt lat="48.40234" lon="2.53526">
        <ele>126.59999847412</ele>
        <time>2019-11-16T11:40:42.000Z</time>
      </trkpt>
      <trkpt lat="48.40236" lon="2.53534">
        <ele>125.80000305176</ele>
        <time>2019-11-16T11:40:43.000Z</time>
      </trkpt>
      <trkpt lat="48.40238" lon="2.53553">
        <ele>124</ele>
        <time>2019-11-16T11:40:45.000Z</time>
      </trkpt>
      <trkpt lat="48.40235" lon="2.53574">
        <ele>122.19999694824</ele>
        <time>2019-11-16T11:40:47.000Z</time>
      </trkpt>
      <trkpt lat="48.40234" lon="2.53583">
        <ele>121.19999694824</ele>
        <time>2019-11-16T11:40:48.000Z</time>
      </trkpt>
      <trkpt lat="48.40232" lon="2.53592">
        <ele>120.80000305176</ele>
        <time>2019-11-16T11:40:49.000Z</time>
      </trkpt>
      <trkpt lat="48.40227" lon="2.53626">
        <ele>118.19999694824</ele>
        <time>2019-11-16T11:40:52.000Z</time>
      </trkpt>
      <trkpt lat="48.40226" lon="2.5364">
        <ele>117.19999694824</ele>
        <time>2019-11-16T11:40:53.000Z</time>
      </trkpt>
      <trkpt lat="48.40225" lon="2.53654">
        <ele>116.19999694824</ele>
        <time>2019-11-16T11:40:54.000Z</time>
      </trkpt>
      <trkpt lat="48.40222" lon="2.53686">
        <ele>114.40000152588</ele>
        <time>2019-11-16T11:40:56.000Z</time>
      </trkpt>
      <trkpt lat="48.40222" lon="2.53701">
        <ele>113.19999694824</ele>
        <time>2019-11-16T11:40:57.000Z</time>
      </trkpt>
      <trkpt lat="48.40221" lon="2.53716">
        <ele>112.19999694824</ele>
        <time>2019-11-16T11:40:58.000Z</time>
      </trkpt>
      <trkpt lat="48.40216" lon="2.53738">
        <ele>110.59999847412</ele>
        <time>2019-11-16T11:41:00.000Z</time>
      </trkpt>
      <trkpt lat="48.40213" lon="2.53747">
        <ele>110.19999694824</ele>
        <time>2019-11-16T11:41:01.000Z</time>
      </trkpt>
      <trkpt lat="48.40214" lon="2.53757">
        <ele>110</ele>
        <time>2019-11-16T11:41:02.000Z</time>
      </trkpt>
      <trkpt lat="48.40217" lon="2.53766">
        <ele>109.80000305176</ele>
        <time>2019-11-16T11:41:03.000Z</time>
      </trkpt>
      <trkpt lat="48.4022" lon="2.53775">
        <ele>109.19999694824</ele>
        <time>2019-11-16T11:41:04.000Z</time>
      </trkpt>
      <trkpt lat="48.40228" lon="2.53793">
        <ele>108</ele>
        <time>2019-11-16T11:41:06.000Z</time>
      </trkpt>
      <trkpt lat="48.40232" lon="2.53802">
        <ele>107.40000152588</ele>
        <time>2019-11-16T11:41:07.000Z</time>
      </trkpt>
      <trkpt lat="48.40235" lon="2.53811">
        <ele>106.80000305176</ele>
        <time>2019-11-16T11:41:08.000Z</time>
      </trkpt>
      <trkpt lat="48.40245" lon="2.53832">
        <ele>105.59999847412</ele>
        <time>2019-11-16T11:41:11.000Z</time>
      </trkpt>
      <trkpt lat="48.40249" lon="2.53834">
        <ele>105.40000152588</ele>
        <time>2019-11-16T11:41:12.000Z</time>
      </trkpt>
      <trkpt lat="48.40252" lon="2.53834">
        <ele>105</ele>
        <time>2019-11-16T11:41:15.000Z</time>
      </trkpt>
      <trkpt lat="48.40252" lon="2.53833">
        <ele>104.80000305176</ele>
        <time>2019-11-16T11:41:28.000Z</time>
      </trkpt>
      <trkpt lat="48.40252" lon="2.53833">
        <ele>104.59999847412</ele>
        <time>2019-11-16T11:41:32.000Z</time>
      </trkpt>
      <trkpt lat="48.40257" lon="2.53829">
        <ele>104.80000305176</ele>
        <time>2019-11-16T11:41:43.000Z</time>
      </trkpt>
      <trkpt lat="48.40268" lon="2.53811">
        <ele>104.80000305176</ele>
        <time>2019-11-16T11:41:47.000Z</time>
      </trkpt>
      <trkpt lat="48.40271" lon="2.53806">
        <ele>105</ele>
        <time>2019-11-16T11:41:48.000Z</time>
      </trkpt>
      <trkpt lat="48.40283" lon="2.5379">
        <ele>105.19999694824</ele>
        <time>2019-11-16T11:41:51.000Z</time>
      </trkpt>
      <trkpt lat="48.40291" lon="2.5378">
        <ele>105.19999694824</ele>
        <time>2019-11-16T11:41:53.000Z</time>
      </trkpt>
      <trkpt lat="48.40317" lon="2.53743">
        <ele>105.19999694824</ele>
        <time>2019-11-16T11:41:59.000Z</time>
      </trkpt>
      <trkpt lat="48.40326" lon="2.53732">
        <ele>105</ele>
        <time>2019-11-16T11:42:01.000Z</time>
      </trkpt>
      <trkpt lat="48.40333" lon="2.53719">
        <ele>105</ele>
        <time>2019-11-16T11:42:03.000Z</time>
      </trkpt>
      <trkpt lat="48.40334" lon="2.53711">
        <ele>105.19999694824</ele>
        <time>2019-11-16T11:42:04.000Z</time>
      </trkpt>
      <trkpt lat="48.40335" lon="2.53686">
        <ele>105.40000152588</ele>
        <time>2019-11-16T11:42:07.000Z</time>
      </trkpt>
      <trkpt lat="48.40335" lon="2.53679">
        <ele>105.59999847412</ele>
        <time>2019-11-16T11:42:08.000Z</time>
      </trkpt>
      <trkpt lat="48.40336" lon="2.53622">
        <ele>106</ele>
        <time>2019-11-16T11:42:15.000Z</time>
      </trkpt>
      <trkpt lat="48.40337" lon="2.53608">
        <ele>105.80000305176</ele>
        <time>2019-11-16T11:42:17.000Z</time>
      </trkpt>
      <trkpt lat="48.40339" lon="2.53593">
        <ele>106</ele>
        <time>2019-11-16T11:42:19.000Z</time>
      </trkpt>
      <trkpt lat="48.4034" lon="2.5354">
        <ele>106.19999694824</ele>
        <time>2019-11-16T11:42:25.000Z</time>
      </trkpt>
      <trkpt lat="48.40345" lon="2.53468">
        <ele>105.59999847412</ele>
        <time>2019-11-16T11:42:33.000Z</time>
      </trkpt>
      <trkpt lat="48.40349" lon="2.53413">
        <ele>104.80000305176</ele>
        <time>2019-11-16T11:42:39.000Z</time>
      </trkpt>
      <trkpt lat="48.40351" lon="2.53394">
        <ele>104.59999847412</ele>
        <time>2019-11-16T11:42:41.000Z</time>
      </trkpt>
      <trkpt lat="48.40353" lon="2.53348">
        <ele>104</ele>
        <time>2019-11-16T11:42:46.000Z</time>
      </trkpt>
      <trkpt lat="48.40353" lon="2.53306">
        <ele>103.59999847412</ele>
        <time>2019-11-16T11:42:51.000Z</time>
      </trkpt>
      <trkpt lat="48.40354" lon="2.53296">
        <ele>103</ele>
        <time>2019-11-16T11:42:52.000Z</time>
      </trkpt>
      <trkpt lat="48.40357" lon="2.53258">
        <ele>102.59999847412</ele>
        <time>2019-11-16T11:42:56.000Z</time>
      </trkpt>
      <trkpt lat="48.40358" lon="2.53248">
        <ele>102.40000152588</ele>
        <time>2019-11-16T11:42:57.000Z</time>
      </trkpt>
      <trkpt lat="48.4036" lon="2.53238">
        <ele>102</ele>
        <time>2019-11-16T11:42:58.000Z</time>
      </trkpt>
      <trkpt lat="48.40364" lon="2.53218">
        <ele>101.19999694824</ele>
        <time>2019-11-16T11:43:00.000Z</time>
      </trkpt>
      <trkpt lat="48.40365" lon="2.53209">
        <ele>101.19999694824</ele>
        <time>2019-11-16T11:43:01.000Z</time>
      </trkpt>
      <trkpt lat="48.40369" lon="2.53177">
        <ele>100.19999694824</ele>
        <time>2019-11-16T11:43:04.000Z</time>
      </trkpt>
      <trkpt lat="48.40371" lon="2.53144">
        <ele>99.400001525879</ele>
        <time>2019-11-16T11:43:07.000Z</time>
      </trkpt>
      <trkpt lat="48.40372" lon="2.53133">
        <ele>99.199996948242</ele>
        <time>2019-11-16T11:43:08.000Z</time>
      </trkpt>
      <trkpt lat="48.4037" lon="2.53092">
        <ele>98</ele>
        <time>2019-11-16T11:43:12.000Z</time>
      </trkpt>
      <trkpt lat="48.40369" lon="2.53063">
        <ele>96.800003051758</ele>
        <time>2019-11-16T11:43:15.000Z</time>
      </trkpt>
      <trkpt lat="48.40368" lon="2.53043">
        <ele>95.800003051758</ele>
        <time>2019-11-16T11:43:17.000Z</time>
      </trkpt>
      <trkpt lat="48.40367" lon="2.53032">
        <ele>95.599998474121</ele>
        <time>2019-11-16T11:43:18.000Z</time>
      </trkpt>
      <trkpt lat="48.40361" lon="2.52974">
        <ele>94.400001525879</ele>
        <time>2019-11-16T11:43:23.000Z</time>
      </trkpt>
      <trkpt lat="48.40355" lon="2.52915">
        <ele>93.199996948242</ele>
        <time>2019-11-16T11:43:28.000Z</time>
      </trkpt>
      <trkpt lat="48.40353" lon="2.52903">
        <ele>92.800003051758</ele>
        <time>2019-11-16T11:43:29.000Z</time>
      </trkpt>
      <trkpt lat="48.40348" lon="2.52856">
        <ele>92</ele>
        <time>2019-11-16T11:43:33.000Z</time>
      </trkpt>
      <trkpt lat="48.40344" lon="2.52801">
        <ele>91</ele>
        <time>2019-11-16T11:43:38.000Z</time>
      </trkpt>
      <trkpt lat="48.40342" lon="2.52791">
        <ele>90.800003051758</ele>
        <time>2019-11-16T11:43:39.000Z</time>
      </trkpt>
      <trkpt lat="48.4034" lon="2.52751">
        <ele>89.599998474121</ele>
        <time>2019-11-16T11:43:43.000Z</time>
      </trkpt>
      <trkpt lat="48.40337" lon="2.52731">
        <ele>89.400001525879</ele>
        <time>2019-11-16T11:43:45.000Z</time>
      </trkpt>
      <trkpt lat="48.40332" lon="2.52685">
        <ele>89</ele>
        <time>2019-11-16T11:43:50.000Z</time>
      </trkpt>
      <trkpt lat="48.40329" lon="2.52661">
        <ele>89.199996948242</ele>
        <time>2019-11-16T11:43:53.000Z</time>
      </trkpt>
      <trkpt lat="48.40325" lon="2.52644">
        <ele>88.800003051758</ele>
        <time>2019-11-16T11:43:55.000Z</time>
      </trkpt>
      <trkpt lat="48.40324" lon="2.52637">
        <ele>88.599998474121</ele>
        <time>2019-11-16T11:43:56.000Z</time>
      </trkpt>
      <trkpt lat="48.40319" lon="2.52603">
        <ele>88.599998474121</ele>
        <time>2019-11-16T11:44:00.000Z</time>
      </trkpt>
      <trkpt lat="48.40317" lon="2.52595">
        <ele>88.599998474121</ele>
        <time>2019-11-16T11:44:01.000Z</time>
      </trkpt>
      <trkpt lat="48.40309" lon="2.5257">
        <ele>88.199996948242</ele>
        <time>2019-11-16T11:44:05.000Z</time>
      </trkpt>
      <trkpt lat="48.40304" lon="2.52561">
        <ele>88.400001525879</ele>
        <time>2019-11-16T11:44:08.000Z</time>
      </trkpt>
      <trkpt lat="48.40303" lon="2.52547">
        <ele>88</ele>
        <time>2019-11-16T11:44:13.000Z</time>
      </trkpt>
      <trkpt lat="48.40311" lon="2.52557">
        <ele>87.800003051758</ele>
        <time>2019-11-16T11:44:16.000Z</time>
      </trkpt>
      <trkpt lat="48.40317" lon="2.52566">
        <ele>88</ele>
        <time>2019-11-16T11:44:18.000Z</time>
      </trkpt>
      <trkpt lat="48.40325" lon="2.52576">
        <ele>88</ele>
        <time>2019-11-16T11:44:20.000Z</time>
      </trkpt>
      <trkpt lat="48.40329" lon="2.52582">
        <ele>87.599998474121</ele>
        <time>2019-11-16T11:44:21.000Z</time>
      </trkpt>
      <trkpt lat="48.40357" lon="2.52612">
        <ele>88.599998474121</ele>
        <time>2019-11-16T11:44:27.000Z</time>
      </trkpt>
      <trkpt lat="48.40386" lon="2.52638">
        <ele>88.800003051758</ele>
        <time>2019-11-16T11:44:33.000Z</time>
      </trkpt>
      <trkpt lat="48.40406" lon="2.52655">
        <ele>89</ele>
        <time>2019-11-16T11:44:37.000Z</time>
      </trkpt>
      <trkpt lat="48.40415" lon="2.52663">
        <ele>89.400001525879</ele>
        <time>2019-11-16T11:44:39.000Z</time>
      </trkpt>
      <trkpt lat="48.40423" lon="2.52669">
        <ele>89.599998474121</ele>
        <time>2019-11-16T11:44:41.000Z</time>
      </trkpt>
      <trkpt lat="48.4043" lon="2.5267">
        <ele>90</ele>
        <time>2019-11-16T11:44:43.000Z</time>
      </trkpt>
      <trkpt lat="48.40432" lon="2.52665">
        <ele>90</ele>
        <time>2019-11-16T11:44:44.000Z</time>
      </trkpt>
      <trkpt lat="48.40436" lon="2.5264">
        <ele>90.199996948242</ele>
        <time>2019-11-16T11:44:47.000Z</time>
      </trkpt>
      <trkpt lat="48.40436" lon="2.52611">
        <ele>90.400001525879</ele>
        <time>2019-11-16T11:44:50.000Z</time>
      </trkpt>
      <trkpt lat="48.40437" lon="2.52591">
        <ele>90</ele>
        <time>2019-11-16T11:44:52.000Z</time>
      </trkpt>
      <trkpt lat="48.40445" lon="2.5253">
        <ele>89.599998474121</ele>
        <time>2019-11-16T11:44:58.000Z</time>
      </trkpt>
      <trkpt lat="48.4046" lon="2.52447">
        <ele>88.800003051758</ele>
        <time>2019-11-16T11:45:06.000Z</time>
      </trkpt>
      <trkpt lat="48.40466" lon="2.52406">
        <ele>88.599998474121</ele>
        <time>2019-11-16T11:45:10.000Z</time>
      </trkpt>
      <trkpt lat="48.40471" lon="2.52375">
        <ele>88.400001525879</ele>
        <time>2019-11-16T11:45:13.000Z</time>
      </trkpt>
      <trkpt lat="48.40483" lon="2.5229">
        <ele>87.800003051758</ele>
        <time>2019-11-16T11:45:21.000Z</time>
      </trkpt>
      <trkpt lat="48.40484" lon="2.5228">
        <ele>87.599998474121</ele>
        <time>2019-11-16T11:45:22.000Z</time>
      </trkpt>
      <trkpt lat="48.40485" lon="2.52269">
        <ele>87.199996948242</ele>
        <time>2019-11-16T11:45:23.000Z</time>
      </trkpt>
      <trkpt lat="48.40497" lon="2.52188">
        <ele>87</ele>
        <time>2019-11-16T11:45:31.000Z</time>
      </trkpt>
      <trkpt lat="48.40498" lon="2.52178">
        <ele>87</ele>
        <time>2019-11-16T11:45:32.000Z</time>
      </trkpt>
      <trkpt lat="48.40504" lon="2.52137">
        <ele>86.400001525879</ele>
        <time>2019-11-16T11:45:36.000Z</time>
      </trkpt>
      <trkpt lat="48.40508" lon="2.52122">
        <ele>86.199996948242</ele>
        <time>2019-11-16T11:45:38.000Z</time>
      </trkpt>
      <trkpt lat="48.40514" lon="2.52121">
        <ele>86.199996948242</ele>
        <time>2019-11-16T11:45:39.000Z</time>
      </trkpt>
      <trkpt lat="48.40527" lon="2.52123">
        <ele>85.800003051758</ele>
        <time>2019-11-16T11:45:42.000Z</time>
      </trkpt>
      <trkpt lat="48.40535" lon="2.52129">
        <ele>85.599998474121</ele>
        <time>2019-11-16T11:45:44.000Z</time>
      </trkpt>
      <trkpt lat="48.40549" lon="2.5214">
        <ele>86</ele>
        <time>2019-11-16T11:45:47.000Z</time>
      </trkpt>
      <trkpt lat="48.40555" lon="2.52143">
        <ele>86.199996948242</ele>
        <time>2019-11-16T11:45:48.000Z</time>
      </trkpt>
      <trkpt lat="48.4058" lon="2.52155">
        <ele>86</ele>
        <time>2019-11-16T11:45:52.000Z</time>
      </trkpt>
      <trkpt lat="48.4059" lon="2.52162">
        <ele>86.199996948242</ele>
        <time>2019-11-16T11:45:54.000Z</time>
      </trkpt>
      <trkpt lat="48.40606" lon="2.52171">
        <ele>86.599998474121</ele>
        <time>2019-11-16T11:45:57.000Z</time>
      </trkpt>
      <trkpt lat="48.4064" lon="2.52194">
        <ele>87.599998474121</ele>
        <time>2019-11-16T11:46:04.000Z</time>
      </trkpt>
      <trkpt lat="48.40645" lon="2.52197">
        <ele>88</ele>
        <time>2019-11-16T11:46:05.000Z</time>
      </trkpt>
      <trkpt lat="48.40666" lon="2.52205">
        <ele>88.599998474121</ele>
        <time>2019-11-16T11:46:10.000Z</time>
      </trkpt>
      <trkpt lat="48.40673" lon="2.52187">
        <ele>89.400001525879</ele>
        <time>2019-11-16T11:46:13.000Z</time>
      </trkpt>
      <trkpt lat="48.40673" lon="2.52161">
        <ele>89.199996948242</ele>
        <time>2019-11-16T11:46:16.000Z</time>
      </trkpt>
      <trkpt lat="48.40672" lon="2.52151">
        <ele>88.800003051758</ele>
        <time>2019-11-16T11:46:17.000Z</time>
      </trkpt>
      <trkpt lat="48.40668" lon="2.52102">
        <ele>87.599998474121</ele>
        <time>2019-11-16T11:46:22.000Z</time>
      </trkpt>
      <trkpt lat="48.40668" lon="2.52091">
        <ele>87.400001525879</ele>
        <time>2019-11-16T11:46:23.000Z</time>
      </trkpt>
      <trkpt lat="48.40671" lon="2.52059">
        <ele>86.599998474121</ele>
        <time>2019-11-16T11:46:26.000Z</time>
      </trkpt>
      <trkpt lat="48.40672" lon="2.5204">
        <ele>86.400001525879</ele>
        <time>2019-11-16T11:46:28.000Z</time>
      </trkpt>
      <trkpt lat="48.40673" lon="2.52012">
        <ele>86</ele>
        <time>2019-11-16T11:46:31.000Z</time>
      </trkpt>
      <trkpt lat="48.40676" lon="2.51993">
        <ele>86</ele>
        <time>2019-11-16T11:46:33.000Z</time>
      </trkpt>
      <trkpt lat="48.40685" lon="2.5195">
        <ele>86</ele>
        <time>2019-11-16T11:46:38.000Z</time>
      </trkpt>
      <trkpt lat="48.40686" lon="2.51934">
        <ele>86.400001525879</ele>
        <time>2019-11-16T11:46:40.000Z</time>
      </trkpt>
      <trkpt lat="48.40686" lon="2.51915">
        <ele>87</ele>
        <time>2019-11-16T11:46:43.000Z</time>
      </trkpt>
      <trkpt lat="48.40686" lon="2.51903">
        <ele>88</ele>
        <time>2019-11-16T11:46:45.000Z</time>
      </trkpt>
      <trkpt lat="48.40683" lon="2.51882">
        <ele>89</ele>
        <time>2019-11-16T11:46:49.000Z</time>
      </trkpt>
      <trkpt lat="48.40679" lon="2.51875">
        <ele>89.199996948242</ele>
        <time>2019-11-16T11:46:51.000Z</time>
      </trkpt>
      <trkpt lat="48.40676" lon="2.51869">
        <ele>89.400001525879</ele>
        <time>2019-11-16T11:46:52.000Z</time>
      </trkpt>
      <trkpt lat="48.40663" lon="2.51854">
        <ele>88.599998474121</ele>
        <time>2019-11-16T11:46:55.000Z</time>
      </trkpt>
      <trkpt lat="48.40658" lon="2.51852">
        <ele>88.199996948242</ele>
        <time>2019-11-16T11:46:56.000Z</time>
      </trkpt>
      <trkpt lat="48.40642" lon="2.51847">
        <ele>87.800003051758</ele>
        <time>2019-11-16T11:46:59.000Z</time>
      </trkpt>
      <trkpt lat="48.4063" lon="2.51846">
        <ele>87.199996948242</ele>
        <time>2019-11-16T11:47:01.000Z</time>
      </trkpt>
      <trkpt lat="48.40624" lon="2.51845">
        <ele>86.800003051758</ele>
        <time>2019-11-16T11:47:02.000Z</time>
      </trkpt>
      <trkpt lat="48.40614" lon="2.51837">
        <ele>85.599998474121</ele>
        <time>2019-11-16T11:47:04.000Z</time>
      </trkpt>
      <trkpt lat="48.40612" lon="2.51831">
        <ele>85.400001525879</ele>
        <time>2019-11-16T11:47:05.000Z</time>
      </trkpt>
      <trkpt lat="48.40613" lon="2.51815">
        <ele>85.599998474121</ele>
        <time>2019-11-16T11:47:07.000Z</time>
      </trkpt>
      <trkpt lat="48.40619" lon="2.51768">
        <ele>85.199996948242</ele>
        <time>2019-11-16T11:47:13.000Z</time>
      </trkpt>
      <trkpt lat="48.40623" lon="2.51752">
        <ele>85.400001525879</ele>
        <time>2019-11-16T11:47:15.000Z</time>
      </trkpt>
      <trkpt lat="48.40635" lon="2.51719">
        <ele>85</ele>
        <time>2019-11-16T11:47:19.000Z</time>
      </trkpt>
      <trkpt lat="48.40653" lon="2.51663">
        <ele>85.400001525879</ele>
        <time>2019-11-16T11:47:26.000Z</time>
      </trkpt>
      <trkpt lat="48.40668" lon="2.51611">
        <ele>86.400001525879</ele>
        <time>2019-11-16T11:47:33.000Z</time>
      </trkpt>
      <trkpt lat="48.4067" lon="2.51604">
        <ele>86.800003051758</ele>
        <time>2019-11-16T11:47:34.000Z</time>
      </trkpt>
      <trkpt lat="48.40673" lon="2.51596">
        <ele>87</ele>
        <time>2019-11-16T11:47:35.000Z</time>
      </trkpt>
      <trkpt lat="48.40682" lon="2.5157">
        <ele>87.400001525879</ele>
        <time>2019-11-16T11:47:39.000Z</time>
      </trkpt>
      <trkpt lat="48.40685" lon="2.51565">
        <ele>87.800003051758</ele>
        <time>2019-11-16T11:47:40.000Z</time>
      </trkpt>
      <trkpt lat="48.40688" lon="2.51559">
        <ele>88</ele>
        <time>2019-11-16T11:47:41.000Z</time>
      </trkpt>
      <trkpt lat="48.40701" lon="2.51533">
        <ele>88.199996948242</ele>
        <time>2019-11-16T11:47:45.000Z</time>
      </trkpt>
      <trkpt lat="48.40715" lon="2.51499">
        <ele>88.599998474121</ele>
        <time>2019-11-16T11:47:50.000Z</time>
      </trkpt>
      <trkpt lat="48.40721" lon="2.5149">
        <ele>88.800003051758</ele>
        <time>2019-11-16T11:47:52.000Z</time>
      </trkpt>
      <trkpt lat="48.40726" lon="2.51482">
        <ele>89</ele>
        <time>2019-11-16T11:47:54.000Z</time>
      </trkpt>
      <trkpt lat="48.40737" lon="2.51466">
        <ele>89.599998474121</ele>
        <time>2019-11-16T11:47:57.000Z</time>
      </trkpt>
      <trkpt lat="48.40761" lon="2.5143">
        <ele>89.400001525879</ele>
        <time>2019-11-16T11:48:03.000Z</time>
      </trkpt>
      <trkpt lat="48.40793" lon="2.51378">
        <ele>89</ele>
        <time>2019-11-16T11:48:11.000Z</time>
      </trkpt>
      <trkpt lat="48.40816" lon="2.51337">
        <ele>89</ele>
        <time>2019-11-16T11:48:17.000Z</time>
      </trkpt>
      <trkpt lat="48.40832" lon="2.51302">
        <ele>88.599998474121</ele>
        <time>2019-11-16T11:48:22.000Z</time>
      </trkpt>
      <trkpt lat="48.40838" lon="2.51286">
        <ele>88.800003051758</ele>
        <time>2019-11-16T11:48:24.000Z</time>
      </trkpt>
      <trkpt lat="48.40858" lon="2.51239">
        <ele>88.800003051758</ele>
        <time>2019-11-16T11:48:31.000Z</time>
      </trkpt>
      <trkpt lat="48.4087" lon="2.51198">
        <ele>88.800003051758</ele>
        <time>2019-11-16T11:48:37.000Z</time>
      </trkpt>
      <trkpt lat="48.40879" lon="2.51171">
        <ele>89</ele>
        <time>2019-11-16T11:48:41.000Z</time>
      </trkpt>
      <trkpt lat="48.40886" lon="2.51141">
        <ele>89.400001525879</ele>
        <time>2019-11-16T11:48:45.000Z</time>
      </trkpt>
      <trkpt lat="48.40895" lon="2.51092">
        <ele>88.800003051758</ele>
        <time>2019-11-16T11:48:51.000Z</time>
      </trkpt>
      <trkpt lat="48.40903" lon="2.51035">
        <ele>89</ele>
        <time>2019-11-16T11:48:58.000Z</time>
      </trkpt>
      <trkpt lat="48.40913" lon="2.50966">
        <ele>89.599998474121</ele>
        <time>2019-11-16T11:49:07.000Z</time>
      </trkpt>
      <trkpt lat="48.40917" lon="2.50934">
        <ele>90</ele>
        <time>2019-11-16T11:49:11.000Z</time>
      </trkpt>
      <trkpt lat="48.40919" lon="2.50926">
        <ele>90.199996948242</ele>
        <time>2019-11-16T11:49:12.000Z</time>
      </trkpt>
      <trkpt lat="48.40926" lon="2.50867">
        <ele>90.199996948242</ele>
        <time>2019-11-16T11:49:19.000Z</time>
      </trkpt>
      <trkpt lat="48.40928" lon="2.5085">
        <ele>90</ele>
        <time>2019-11-16T11:49:21.000Z</time>
      </trkpt>
      <trkpt lat="48.40931" lon="2.50833">
        <ele>89.800003051758</ele>
        <time>2019-11-16T11:49:23.000Z</time>
      </trkpt>
      <trkpt lat="48.40933" lon="2.50825">
        <ele>89.800003051758</ele>
        <time>2019-11-16T11:49:24.000Z</time>
      </trkpt>
      <trkpt lat="48.40937" lon="2.50801">
        <ele>89.800003051758</ele>
        <time>2019-11-16T11:49:27.000Z</time>
      </trkpt>
      <trkpt lat="48.40938" lon="2.50785">
        <ele>89.800003051758</ele>
        <time>2019-11-16T11:49:29.000Z</time>
      </trkpt>
      <trkpt lat="48.4094" lon="2.50761">
        <ele>89.800003051758</ele>
        <time>2019-11-16T11:49:32.000Z</time>
      </trkpt>
      <trkpt lat="48.40944" lon="2.50746">
        <ele>89.800003051758</ele>
        <time>2019-11-16T11:49:34.000Z</time>
      </trkpt>
      <trkpt lat="48.40947" lon="2.50697">
        <ele>89.800003051758</ele>
        <time>2019-11-16T11:49:40.000Z</time>
      </trkpt>
      <trkpt lat="48.40949" lon="2.50642">
        <ele>89.800003051758</ele>
        <time>2019-11-16T11:49:47.000Z</time>
      </trkpt>
      <trkpt lat="48.40948" lon="2.50602">
        <ele>90.199996948242</ele>
        <time>2019-11-16T11:49:52.000Z</time>
      </trkpt>
      <trkpt lat="48.40947" lon="2.50594">
        <ele>90</ele>
        <time>2019-11-16T11:49:53.000Z</time>
      </trkpt>
      <trkpt lat="48.40945" lon="2.5057">
        <ele>89.800003051758</ele>
        <time>2019-11-16T11:49:56.000Z</time>
      </trkpt>
      <trkpt lat="48.40944" lon="2.50553">
        <ele>89.800003051758</ele>
        <time>2019-11-16T11:49:58.000Z</time>
      </trkpt>
      <trkpt lat="48.4094" lon="2.50501">
        <ele>89.400001525879</ele>
        <time>2019-11-16T11:50:04.000Z</time>
      </trkpt>
      <trkpt lat="48.4094" lon="2.50493">
        <ele>89.400001525879</ele>
        <time>2019-11-16T11:50:05.000Z</time>
      </trkpt>
      <trkpt lat="48.40937" lon="2.50451">
        <ele>89.199996948242</ele>
        <time>2019-11-16T11:50:10.000Z</time>
      </trkpt>
      <trkpt lat="48.40937" lon="2.50443">
        <ele>89.199996948242</ele>
        <time>2019-11-16T11:50:11.000Z</time>
      </trkpt>
      <trkpt lat="48.40942" lon="2.50395">
        <ele>89.400001525879</ele>
        <time>2019-11-16T11:50:17.000Z</time>
      </trkpt>
      <trkpt lat="48.40943" lon="2.50388">
        <ele>89.400001525879</ele>
        <time>2019-11-16T11:50:18.000Z</time>
      </trkpt>
      <trkpt lat="48.40948" lon="2.50361">
        <ele>89.599998474121</ele>
        <time>2019-11-16T11:50:22.000Z</time>
      </trkpt>
      <trkpt lat="48.40955" lon="2.50316">
        <ele>89.800003051758</ele>
        <time>2019-11-16T11:50:28.000Z</time>
      </trkpt>
      <trkpt lat="48.40957" lon="2.50268">
        <ele>90</ele>
        <time>2019-11-16T11:50:34.000Z</time>
      </trkpt>
      <trkpt lat="48.40962" lon="2.50221">
        <ele>90.400001525879</ele>
        <time>2019-11-16T11:50:40.000Z</time>
      </trkpt>
      <trkpt lat="48.40972" lon="2.50166">
        <ele>91.199996948242</ele>
        <time>2019-11-16T11:50:47.000Z</time>
      </trkpt>
      <trkpt lat="48.40972" lon="2.50158">
        <ele>91.199996948242</ele>
        <time>2019-11-16T11:50:48.000Z</time>
      </trkpt>
      <trkpt lat="48.40974" lon="2.5012">
        <ele>91.599998474121</ele>
        <time>2019-11-16T11:50:53.000Z</time>
      </trkpt>
      <trkpt lat="48.40974" lon="2.50112">
        <ele>91.800003051758</ele>
        <time>2019-11-16T11:50:54.000Z</time>
      </trkpt>
      <trkpt lat="48.40974" lon="2.50098">
        <ele>92.199996948242</ele>
        <time>2019-11-16T11:50:56.000Z</time>
      </trkpt>
      <trkpt lat="48.40975" lon="2.50077">
        <ele>92.199996948242</ele>
        <time>2019-11-16T11:50:59.000Z</time>
      </trkpt>
      <trkpt lat="48.40975" lon="2.50055">
        <ele>92.800003051758</ele>
        <time>2019-11-16T11:51:02.000Z</time>
      </trkpt>
      <trkpt lat="48.40977" lon="2.50041">
        <ele>93.199996948242</ele>
        <time>2019-11-16T11:51:04.000Z</time>
      </trkpt>
      <trkpt lat="48.40979" lon="2.50034">
        <ele>93.199996948242</ele>
        <time>2019-11-16T11:51:05.000Z</time>
      </trkpt>
      <trkpt lat="48.40985" lon="2.50013">
        <ele>93.599998474121</ele>
        <time>2019-11-16T11:51:08.000Z</time>
      </trkpt>
      <trkpt lat="48.40994" lon="2.49989">
        <ele>94.400001525879</ele>
        <time>2019-11-16T11:51:12.000Z</time>
      </trkpt>
      <trkpt lat="48.40996" lon="2.49983">
        <ele>94.800003051758</ele>
        <time>2019-11-16T11:51:13.000Z</time>
      </trkpt>
      <trkpt lat="48.41003" lon="2.49972">
        <ele>95.199996948242</ele>
        <time>2019-11-16T11:51:15.000Z</time>
      </trkpt>
      <trkpt lat="48.4101" lon="2.49961">
        <ele>95.800003051758</ele>
        <time>2019-11-16T11:51:17.000Z</time>
      </trkpt>
      <trkpt lat="48.41014" lon="2.49956">
        <ele>96</ele>
        <time>2019-11-16T11:51:18.000Z</time>
      </trkpt>
      <trkpt lat="48.41033" lon="2.49921">
        <ele>96.800003051758</ele>
        <time>2019-11-16T11:51:24.000Z</time>
      </trkpt>
      <trkpt lat="48.41036" lon="2.49917">
        <ele>96.800003051758</ele>
        <time>2019-11-16T11:51:25.000Z</time>
      </trkpt>
      <trkpt lat="48.4104" lon="2.49914">
        <ele>97</ele>
        <time>2019-11-16T11:51:26.000Z</time>
      </trkpt>
      <trkpt lat="48.41043" lon="2.49911">
        <ele>96.800003051758</ele>
        <time>2019-11-16T11:51:29.000Z</time>
      </trkpt>
      <trkpt lat="48.41043" lon="2.4991">
        <ele>96.800003051758</ele>
        <time>2019-11-16T11:51:30.000Z</time>
      </trkpt>
      <trkpt lat="48.41041" lon="2.49912">
        <ele>96.800003051758</ele>
        <time>2019-11-16T11:51:32.000Z</time>
      </trkpt>
      <trkpt lat="48.41031" lon="2.49915">
        <ele>96.599998474121</ele>
        <time>2019-11-16T11:51:36.000Z</time>
      </trkpt>
      <trkpt lat="48.41028" lon="2.49914">
        <ele>96.599998474121</ele>
        <time>2019-11-16T11:51:37.000Z</time>
      </trkpt>
      <trkpt lat="48.41025" lon="2.49906">
        <ele>96.400001525879</ele>
        <time>2019-11-16T11:51:39.000Z</time>
      </trkpt>
      <trkpt lat="48.41022" lon="2.4989">
        <ele>97</ele>
        <time>2019-11-16T11:51:41.000Z</time>
      </trkpt>
      <trkpt lat="48.41018" lon="2.49865">
        <ele>97.199996948242</ele>
        <time>2019-11-16T11:51:44.000Z</time>
      </trkpt>
      <trkpt lat="48.41015" lon="2.49804">
        <ele>97.599998474121</ele>
        <time>2019-11-16T11:51:51.000Z</time>
      </trkpt>
      <trkpt lat="48.41016" lon="2.49787">
        <ele>97.800003051758</ele>
        <time>2019-11-16T11:51:53.000Z</time>
      </trkpt>
      <trkpt lat="48.41021" lon="2.49744">
        <ele>98.599998474121</ele>
        <time>2019-11-16T11:51:58.000Z</time>
      </trkpt>
      <trkpt lat="48.41024" lon="2.49728">
        <ele>99</ele>
        <time>2019-11-16T11:52:00.000Z</time>
      </trkpt>
      <trkpt lat="48.41031" lon="2.49689">
        <ele>100.19999694824</ele>
        <time>2019-11-16T11:52:05.000Z</time>
      </trkpt>
      <trkpt lat="48.41035" lon="2.49653">
        <ele>101</ele>
        <time>2019-11-16T11:52:10.000Z</time>
      </trkpt>
      <trkpt lat="48.41036" lon="2.49639">
        <ele>101.40000152588</ele>
        <time>2019-11-16T11:52:12.000Z</time>
      </trkpt>
      <trkpt lat="48.41039" lon="2.49602">
        <ele>102.59999847412</ele>
        <time>2019-11-16T11:52:17.000Z</time>
      </trkpt>
      <trkpt lat="48.4104" lon="2.49594">
        <ele>102.59999847412</ele>
        <time>2019-11-16T11:52:18.000Z</time>
      </trkpt>
      <trkpt lat="48.41041" lon="2.49566">
        <ele>103.59999847412</ele>
        <time>2019-11-16T11:52:22.000Z</time>
      </trkpt>
      <trkpt lat="48.41043" lon="2.49545">
        <ele>104</ele>
        <time>2019-11-16T11:52:25.000Z</time>
      </trkpt>
      <trkpt lat="48.41044" lon="2.49537">
        <ele>104.59999847412</ele>
        <time>2019-11-16T11:52:26.000Z</time>
      </trkpt>
      <trkpt lat="48.4105" lon="2.49494">
        <ele>105.80000305176</ele>
        <time>2019-11-16T11:52:32.000Z</time>
      </trkpt>
      <trkpt lat="48.41051" lon="2.49487">
        <ele>106.19999694824</ele>
        <time>2019-11-16T11:52:33.000Z</time>
      </trkpt>
      <trkpt lat="48.41052" lon="2.49474">
        <ele>106.59999847412</ele>
        <time>2019-11-16T11:52:35.000Z</time>
      </trkpt>
      <trkpt lat="48.41055" lon="2.4946">
        <ele>107.19999694824</ele>
        <time>2019-11-16T11:52:37.000Z</time>
      </trkpt>
      <trkpt lat="48.41057" lon="2.49448">
        <ele>108</ele>
        <time>2019-11-16T11:52:39.000Z</time>
      </trkpt>
      <trkpt lat="48.41059" lon="2.49442">
        <ele>108.40000152588</ele>
        <time>2019-11-16T11:52:40.000Z</time>
      </trkpt>
      <trkpt lat="48.41064" lon="2.49426">
        <ele>109.80000305176</ele>
        <time>2019-11-16T11:52:43.000Z</time>
      </trkpt>
      <trkpt lat="48.41067" lon="2.49412">
        <ele>111</ele>
        <time>2019-11-16T11:52:46.000Z</time>
      </trkpt>
      <trkpt lat="48.41072" lon="2.49391">
        <ele>112.19999694824</ele>
        <time>2019-11-16T11:52:50.000Z</time>
      </trkpt>
      <trkpt lat="48.41079" lon="2.49368">
        <ele>113</ele>
        <time>2019-11-16T11:52:54.000Z</time>
      </trkpt>
      <trkpt lat="48.41082" lon="2.49354">
        <ele>113.19999694824</ele>
        <time>2019-11-16T11:52:56.000Z</time>
      </trkpt>
      <trkpt lat="48.41091" lon="2.49317">
        <ele>112.40000152588</ele>
        <time>2019-11-16T11:53:01.000Z</time>
      </trkpt>
      <trkpt lat="48.41098" lon="2.49286">
        <ele>112</ele>
        <time>2019-11-16T11:53:05.000Z</time>
      </trkpt>
      <trkpt lat="48.41103" lon="2.4926">
        <ele>111.59999847412</ele>
        <time>2019-11-16T11:53:08.000Z</time>
      </trkpt>
      <trkpt lat="48.41107" lon="2.49228">
        <ele>111</ele>
        <time>2019-11-16T11:53:11.000Z</time>
      </trkpt>
      <trkpt lat="48.4111" lon="2.49205">
        <ele>109.80000305176</ele>
        <time>2019-11-16T11:53:13.000Z</time>
      </trkpt>
      <trkpt lat="48.41112" lon="2.49193">
        <ele>109.40000152588</ele>
        <time>2019-11-16T11:53:14.000Z</time>
      </trkpt>
      <trkpt lat="48.41113" lon="2.49181">
        <ele>108.80000305176</ele>
        <time>2019-11-16T11:53:15.000Z</time>
      </trkpt>
      <trkpt lat="48.41117" lon="2.49157">
        <ele>107.19999694824</ele>
        <time>2019-11-16T11:53:17.000Z</time>
      </trkpt>
      <trkpt lat="48.41123" lon="2.49125">
        <ele>106.80000305176</ele>
        <time>2019-11-16T11:53:20.000Z</time>
      </trkpt>
      <trkpt lat="48.41128" lon="2.49105">
        <ele>106.19999694824</ele>
        <time>2019-11-16T11:53:22.000Z</time>
      </trkpt>
      <trkpt lat="48.4114" lon="2.49067">
        <ele>105.80000305176</ele>
        <time>2019-11-16T11:53:26.000Z</time>
      </trkpt>
      <trkpt lat="48.41154" lon="2.49021">
        <ele>105.19999694824</ele>
        <time>2019-11-16T11:53:31.000Z</time>
      </trkpt>
      <trkpt lat="48.41159" lon="2.49004">
        <ele>104.80000305176</ele>
        <time>2019-11-16T11:53:33.000Z</time>
      </trkpt>
      <trkpt lat="48.41175" lon="2.48962">
        <ele>104.80000305176</ele>
        <time>2019-11-16T11:53:39.000Z</time>
      </trkpt>
      <trkpt lat="48.41183" lon="2.48919">
        <ele>104</ele>
        <time>2019-11-16T11:53:44.000Z</time>
      </trkpt>
      <trkpt lat="48.41189" lon="2.48893">
        <ele>103</ele>
        <time>2019-11-16T11:53:47.000Z</time>
      </trkpt>
      <trkpt lat="48.41193" lon="2.48875">
        <ele>102.59999847412</ele>
        <time>2019-11-16T11:53:49.000Z</time>
      </trkpt>
      <trkpt lat="48.41199" lon="2.48822">
        <ele>101.80000305176</ele>
        <time>2019-11-16T11:53:55.000Z</time>
      </trkpt>
      <trkpt lat="48.41203" lon="2.48769">
        <ele>101.19999694824</ele>
        <time>2019-11-16T11:54:01.000Z</time>
      </trkpt>
      <trkpt lat="48.41212" lon="2.48719">
        <ele>101.59999847412</ele>
        <time>2019-11-16T11:54:07.000Z</time>
      </trkpt>
      <trkpt lat="48.4122" lon="2.48674">
        <ele>102.19999694824</ele>
        <time>2019-11-16T11:54:13.000Z</time>
      </trkpt>
      <trkpt lat="48.41227" lon="2.48639">
        <ele>102.40000152588</ele>
        <time>2019-11-16T11:54:17.000Z</time>
      </trkpt>
      <trkpt lat="48.41231" lon="2.48624">
        <ele>102.40000152588</ele>
        <time>2019-11-16T11:54:19.000Z</time>
      </trkpt>
      <trkpt lat="48.41233" lon="2.48617">
        <ele>102.19999694824</ele>
        <time>2019-11-16T11:54:20.000Z</time>
      </trkpt>
      <trkpt lat="48.41238" lon="2.48598">
        <ele>102.19999694824</ele>
        <time>2019-11-16T11:54:23.000Z</time>
      </trkpt>
      <trkpt lat="48.41254" lon="2.48558">
        <ele>102.19999694824</ele>
        <time>2019-11-16T11:54:30.000Z</time>
      </trkpt>
      <trkpt lat="48.41256" lon="2.48552">
        <ele>102.19999694824</ele>
        <time>2019-11-16T11:54:31.000Z</time>
      </trkpt>
      <trkpt lat="48.41262" lon="2.48527">
        <ele>102.19999694824</ele>
        <time>2019-11-16T11:54:35.000Z</time>
      </trkpt>
      <trkpt lat="48.4127" lon="2.48498">
        <ele>102</ele>
        <time>2019-11-16T11:54:39.000Z</time>
      </trkpt>
      <trkpt lat="48.41272" lon="2.4849">
        <ele>102</ele>
        <time>2019-11-16T11:54:40.000Z</time>
      </trkpt>
      <trkpt lat="48.41275" lon="2.48475">
        <ele>101.40000152588</ele>
        <time>2019-11-16T11:54:42.000Z</time>
      </trkpt>
      <trkpt lat="48.41279" lon="2.48458">
        <ele>101.19999694824</ele>
        <time>2019-11-16T11:54:44.000Z</time>
      </trkpt>
      <trkpt lat="48.41283" lon="2.48442">
        <ele>100.59999847412</ele>
        <time>2019-11-16T11:54:46.000Z</time>
      </trkpt>
      <trkpt lat="48.41283" lon="2.48434">
        <ele>99.599998474121</ele>
        <time>2019-11-16T11:54:48.000Z</time>
      </trkpt>
      <trkpt lat="48.41284" lon="2.48432">
        <ele>99.400001525879</ele>
        <time>2019-11-16T11:54:49.000Z</time>
      </trkpt>
      <trkpt lat="48.41284" lon="2.4843">
        <ele>99.199996948242</ele>
        <time>2019-11-16T11:54:50.000Z</time>
      </trkpt>
      <trkpt lat="48.41284" lon="2.48426">
        <ele>98.800003051758</ele>
        <time>2019-11-16T11:54:52.000Z</time>
      </trkpt>
      <trkpt lat="48.41284" lon="2.48423">
        <ele>98.599998474121</ele>
        <time>2019-11-16T11:54:53.000Z</time>
      </trkpt>
      <trkpt lat="48.41284" lon="2.48405">
        <ele>98.199996948242</ele>
        <time>2019-11-16T11:54:57.000Z</time>
      </trkpt>
      <trkpt lat="48.41283" lon="2.48399">
        <ele>98</ele>
        <time>2019-11-16T11:54:58.000Z</time>
      </trkpt>
      <trkpt lat="48.41283" lon="2.48382">
        <ele>97.599998474121</ele>
        <time>2019-11-16T11:55:01.000Z</time>
      </trkpt>
      <trkpt lat="48.41288" lon="2.48377">
        <ele>97.400001525879</ele>
        <time>2019-11-16T11:55:03.000Z</time>
      </trkpt>
      <trkpt lat="48.41303" lon="2.48373">
        <ele>98.199996948242</ele>
        <time>2019-11-16T11:55:08.000Z</time>
      </trkpt>
      <trkpt lat="48.41306" lon="2.48373">
        <ele>98.599998474121</ele>
        <time>2019-11-16T11:55:09.000Z</time>
      </trkpt>
      <trkpt lat="48.41313" lon="2.48375">
        <ele>99.400001525879</ele>
        <time>2019-11-16T11:55:11.000Z</time>
      </trkpt>
      <trkpt lat="48.41319" lon="2.48377">
        <ele>100.40000152588</ele>
        <time>2019-11-16T11:55:13.000Z</time>
      </trkpt>
      <trkpt lat="48.41325" lon="2.48379">
        <ele>101.40000152588</ele>
        <time>2019-11-16T11:55:15.000Z</time>
      </trkpt>
      <trkpt lat="48.41327" lon="2.48381">
        <ele>101.80000305176</ele>
        <time>2019-11-16T11:55:16.000Z</time>
      </trkpt>
      <trkpt lat="48.41333" lon="2.48385">
        <ele>103</ele>
        <time>2019-11-16T11:55:19.000Z</time>
      </trkpt>
      <trkpt lat="48.41335" lon="2.48386">
        <ele>103.59999847412</ele>
        <time>2019-11-16T11:55:20.000Z</time>
      </trkpt>
      <trkpt lat="48.41337" lon="2.48386">
        <ele>104</ele>
        <time>2019-11-16T11:55:21.000Z</time>
      </trkpt>
      <trkpt lat="48.41343" lon="2.48386">
        <ele>105.19999694824</ele>
        <time>2019-11-16T11:55:24.000Z</time>
      </trkpt>
      <trkpt lat="48.41346" lon="2.48386">
        <ele>106</ele>
        <time>2019-11-16T11:55:26.000Z</time>
      </trkpt>
      <trkpt lat="48.41348" lon="2.48386">
        <ele>106.40000152588</ele>
        <time>2019-11-16T11:55:27.000Z</time>
      </trkpt>
      <trkpt lat="48.41353" lon="2.48384">
        <ele>107.59999847412</ele>
        <time>2019-11-16T11:55:30.000Z</time>
      </trkpt>
      <trkpt lat="48.41357" lon="2.48382">
        <ele>108.19999694824</ele>
        <time>2019-11-16T11:55:32.000Z</time>
      </trkpt>
      <trkpt lat="48.41363" lon="2.48383">
        <ele>108.80000305176</ele>
        <time>2019-11-16T11:55:35.000Z</time>
      </trkpt>
      <trkpt lat="48.41367" lon="2.48385">
        <ele>109.19999694824</ele>
        <time>2019-11-16T11:55:37.000Z</time>
      </trkpt>
      <trkpt lat="48.4137" lon="2.48386">
        <ele>110</ele>
        <time>2019-11-16T11:55:39.000Z</time>
      </trkpt>
      <trkpt lat="48.41371" lon="2.48387">
        <ele>110.40000152588</ele>
        <time>2019-11-16T11:55:40.000Z</time>
      </trkpt>
      <trkpt lat="48.41374" lon="2.48388">
        <ele>111.19999694824</ele>
        <time>2019-11-16T11:55:42.000Z</time>
      </trkpt>
      <trkpt lat="48.41375" lon="2.48387">
        <ele>111.80000305176</ele>
        <time>2019-11-16T11:55:43.000Z</time>
      </trkpt>
      <trkpt lat="48.41379" lon="2.48384">
        <ele>112.40000152588</ele>
        <time>2019-11-16T11:55:45.000Z</time>
      </trkpt>
      <trkpt lat="48.41385" lon="2.48381">
        <ele>112.80000305176</ele>
        <time>2019-11-16T11:55:48.000Z</time>
      </trkpt>
      <trkpt lat="48.41391" lon="2.48379">
        <ele>113.80000305176</ele>
        <time>2019-11-16T11:55:51.000Z</time>
      </trkpt>
      <trkpt lat="48.41395" lon="2.48379">
        <ele>114.59999847412</ele>
        <time>2019-11-16T11:55:54.000Z</time>
      </trkpt>
      <trkpt lat="48.41397" lon="2.48378">
        <ele>115</ele>
        <time>2019-11-16T11:55:55.000Z</time>
      </trkpt>
      <trkpt lat="48.41399" lon="2.48376">
        <ele>115.59999847412</ele>
        <time>2019-11-16T11:55:57.000Z</time>
      </trkpt>
      <trkpt lat="48.414" lon="2.48374">
        <ele>116.19999694824</ele>
        <time>2019-11-16T11:55:58.000Z</time>
      </trkpt>
      <trkpt lat="48.41401" lon="2.48374">
        <ele>116.40000152588</ele>
        <time>2019-11-16T11:55:59.000Z</time>
      </trkpt>
      <trkpt lat="48.41404" lon="2.48374">
        <ele>117.40000152588</ele>
        <time>2019-11-16T11:56:01.000Z</time>
      </trkpt>
      <trkpt lat="48.41406" lon="2.48374">
        <ele>118.59999847412</ele>
        <time>2019-11-16T11:56:03.000Z</time>
      </trkpt>
      <trkpt lat="48.41407" lon="2.48374">
        <ele>119.19999694824</ele>
        <time>2019-11-16T11:56:04.000Z</time>
      </trkpt>
      <trkpt lat="48.41408" lon="2.48374">
        <ele>119.80000305176</ele>
        <time>2019-11-16T11:56:05.000Z</time>
      </trkpt>
      <trkpt lat="48.4141" lon="2.48376">
        <ele>121</ele>
        <time>2019-11-16T11:56:07.000Z</time>
      </trkpt>
      <trkpt lat="48.4141" lon="2.48378">
        <ele>121.40000152588</ele>
        <time>2019-11-16T11:56:08.000Z</time>
      </trkpt>
      <trkpt lat="48.4141" lon="2.4838">
        <ele>121.59999847412</ele>
        <time>2019-11-16T11:56:09.000Z</time>
      </trkpt>
      <trkpt lat="48.41409" lon="2.48383">
        <ele>122</ele>
        <time>2019-11-16T11:56:11.000Z</time>
      </trkpt>
      <trkpt lat="48.41408" lon="2.48385">
        <ele>122.40000152588</ele>
        <time>2019-11-16T11:56:12.000Z</time>
      </trkpt>
      <trkpt lat="48.41406" lon="2.48388">
        <ele>123.19999694824</ele>
        <time>2019-11-16T11:56:14.000Z</time>
      </trkpt>
      <trkpt lat="48.41405" lon="2.48389">
        <ele>123.80000305176</ele>
        <time>2019-11-16T11:56:15.000Z</time>
      </trkpt>
      <trkpt lat="48.41405" lon="2.48392">
        <ele>124.40000152588</ele>
        <time>2019-11-16T11:56:17.000Z</time>
      </trkpt>
      <trkpt lat="48.41404" lon="2.48399">
        <ele>125.59999847412</ele>
        <time>2019-11-16T11:56:21.000Z</time>
      </trkpt>
      <trkpt lat="48.41403" lon="2.48406">
        <ele>126.80000305176</ele>
        <time>2019-11-16T11:56:25.000Z</time>
      </trkpt>
      <trkpt lat="48.41402" lon="2.48408">
        <ele>127</ele>
        <time>2019-11-16T11:56:26.000Z</time>
      </trkpt>
      <trkpt lat="48.41401" lon="2.4841">
        <ele>127.19999694824</ele>
        <time>2019-11-16T11:56:27.000Z</time>
      </trkpt>
      <trkpt lat="48.414" lon="2.48413">
        <ele>127.80000305176</ele>
        <time>2019-11-16T11:56:29.000Z</time>
      </trkpt>
      <trkpt lat="48.41397" lon="2.48417">
        <ele>128.80000305176</ele>
        <time>2019-11-16T11:56:32.000Z</time>
      </trkpt>
      <trkpt lat="48.41396" lon="2.48419">
        <ele>129.19999694824</ele>
        <time>2019-11-16T11:56:33.000Z</time>
      </trkpt>
      <trkpt lat="48.41394" lon="2.48425">
        <ele>130</ele>
        <time>2019-11-16T11:56:37.000Z</time>
      </trkpt>
      <trkpt lat="48.41393" lon="2.48428">
        <ele>130.60000610352</ele>
        <time>2019-11-16T11:56:39.000Z</time>
      </trkpt>
      <trkpt lat="48.41393" lon="2.48431">
        <ele>131</ele>
        <time>2019-11-16T11:56:41.000Z</time>
      </trkpt>
      <trkpt lat="48.41394" lon="2.48432">
        <ele>131.19999694824</ele>
        <time>2019-11-16T11:56:42.000Z</time>
      </trkpt>
      <trkpt lat="48.41395" lon="2.48431">
        <ele>131.80000305176</ele>
        <time>2019-11-16T11:56:43.000Z</time>
      </trkpt>
      <trkpt lat="48.41399" lon="2.48426">
        <ele>132</ele>
        <time>2019-11-16T11:56:46.000Z</time>
      </trkpt>
      <trkpt lat="48.41403" lon="2.48422">
        <ele>132</ele>
        <time>2019-11-16T11:56:48.000Z</time>
      </trkpt>
      <trkpt lat="48.41413" lon="2.4841">
        <ele>131.60000610352</ele>
        <time>2019-11-16T11:56:53.000Z</time>
      </trkpt>
      <trkpt lat="48.41414" lon="2.48409">
        <ele>131.80000305176</ele>
        <time>2019-11-16T11:56:54.000Z</time>
      </trkpt>
      <trkpt lat="48.41416" lon="2.48409">
        <ele>132.19999694824</ele>
        <time>2019-11-16T11:56:57.000Z</time>
      </trkpt>
      <trkpt lat="48.41416" lon="2.4841">
        <ele>132.80000305176</ele>
        <time>2019-11-16T11:57:05.000Z</time>
      </trkpt>
      <trkpt lat="48.41417" lon="2.48412">
        <ele>133.19999694824</ele>
        <time>2019-11-16T11:57:12.000Z</time>
      </trkpt>
      <trkpt lat="48.41417" lon="2.48414">
        <ele>134.19999694824</ele>
        <time>2019-11-16T11:57:18.000Z</time>
      </trkpt>
      <trkpt lat="48.41417" lon="2.48415">
        <ele>134.39999389648</ele>
        <time>2019-11-16T11:57:19.000Z</time>
      </trkpt>
      <trkpt lat="48.41417" lon="2.48415">
        <ele>135.19999694824</ele>
        <time>2019-11-16T11:57:23.000Z</time>
      </trkpt>
      <trkpt lat="48.41415" lon="2.48417">
        <ele>135.60000610352</ele>
        <time>2019-11-16T11:57:25.000Z</time>
      </trkpt>
      <trkpt lat="48.41414" lon="2.48423">
        <ele>135.80000305176</ele>
        <time>2019-11-16T11:57:29.000Z</time>
      </trkpt>
      <trkpt lat="48.41411" lon="2.48435">
        <ele>136.19999694824</ele>
        <time>2019-11-16T11:57:34.000Z</time>
      </trkpt>
      <trkpt lat="48.41409" lon="2.48445">
        <ele>136.60000610352</ele>
        <time>2019-11-16T11:57:37.000Z</time>
      </trkpt>
      <trkpt lat="48.41409" lon="2.48453">
        <ele>137</ele>
        <time>2019-11-16T11:57:41.000Z</time>
      </trkpt>
      <trkpt lat="48.41409" lon="2.48456">
        <ele>137.19999694824</ele>
        <time>2019-11-16T11:57:43.000Z</time>
      </trkpt>
      <trkpt lat="48.41408" lon="2.48461">
        <ele>137.60000610352</ele>
        <time>2019-11-16T11:57:45.000Z</time>
      </trkpt>
      <trkpt lat="48.41407" lon="2.48464">
        <ele>137.80000305176</ele>
        <time>2019-11-16T11:57:46.000Z</time>
      </trkpt>
      <trkpt lat="48.41403" lon="2.48484">
        <ele>137.60000610352</ele>
        <time>2019-11-16T11:57:52.000Z</time>
      </trkpt>
      <trkpt lat="48.41397" lon="2.48509">
        <ele>137.60000610352</ele>
        <time>2019-11-16T11:57:58.000Z</time>
      </trkpt>
      <trkpt lat="48.41393" lon="2.48517">
        <ele>137.80000305176</ele>
        <time>2019-11-16T11:58:00.000Z</time>
      </trkpt>
      <trkpt lat="48.41389" lon="2.48524">
        <ele>137.80000305176</ele>
        <time>2019-11-16T11:58:02.000Z</time>
      </trkpt>
      <trkpt lat="48.41386" lon="2.48549">
        <ele>138.19999694824</ele>
        <time>2019-11-16T11:58:07.000Z</time>
      </trkpt>
      <trkpt lat="48.41383" lon="2.48568">
        <ele>138.39999389648</ele>
        <time>2019-11-16T11:58:12.000Z</time>
      </trkpt>
      <trkpt lat="48.41377" lon="2.48582">
        <ele>138.39999389648</ele>
        <time>2019-11-16T11:58:16.000Z</time>
      </trkpt>
      <trkpt lat="48.41377" lon="2.48586">
        <ele>138.60000610352</ele>
        <time>2019-11-16T11:58:17.000Z</time>
      </trkpt>
      <trkpt lat="48.41378" lon="2.48599">
        <ele>138.39999389648</ele>
        <time>2019-11-16T11:58:20.000Z</time>
      </trkpt>
      <trkpt lat="48.41378" lon="2.48612">
        <ele>138.19999694824</ele>
        <time>2019-11-16T11:58:23.000Z</time>
      </trkpt>
      <trkpt lat="48.41373" lon="2.48623">
        <ele>138.19999694824</ele>
        <time>2019-11-16T11:58:27.000Z</time>
      </trkpt>
      <trkpt lat="48.41358" lon="2.48638">
        <ele>138.39999389648</ele>
        <time>2019-11-16T11:58:32.000Z</time>
      </trkpt>
      <trkpt lat="48.41352" lon="2.48649">
        <ele>138.39999389648</ele>
        <time>2019-11-16T11:58:35.000Z</time>
      </trkpt>
      <trkpt lat="48.41349" lon="2.4865">
        <ele>138.39999389648</ele>
        <time>2019-11-16T11:58:36.000Z</time>
      </trkpt>
      <trkpt lat="48.41343" lon="2.48658">
        <ele>138.39999389648</ele>
        <time>2019-11-16T11:58:39.000Z</time>
      </trkpt>
      <trkpt lat="48.4134" lon="2.48667">
        <ele>138.60000610352</ele>
        <time>2019-11-16T11:58:41.000Z</time>
      </trkpt>
      <trkpt lat="48.41338" lon="2.48686">
        <ele>138.60000610352</ele>
        <time>2019-11-16T11:58:45.000Z</time>
      </trkpt>
      <trkpt lat="48.41333" lon="2.48704">
        <ele>137.80000305176</ele>
        <time>2019-11-16T11:58:50.000Z</time>
      </trkpt>
      <trkpt lat="48.41327" lon="2.48709">
        <ele>138</ele>
        <time>2019-11-16T11:58:52.000Z</time>
      </trkpt>
      <trkpt lat="48.41323" lon="2.48709">
        <ele>138.19999694824</ele>
        <time>2019-11-16T11:58:53.000Z</time>
      </trkpt>
      <trkpt lat="48.41316" lon="2.48718">
        <ele>139</ele>
        <time>2019-11-16T11:58:56.000Z</time>
      </trkpt>
      <trkpt lat="48.41307" lon="2.4874">
        <ele>138.80000305176</ele>
        <time>2019-11-16T11:59:01.000Z</time>
      </trkpt>
      <trkpt lat="48.41305" lon="2.48761">
        <ele>139</ele>
        <time>2019-11-16T11:59:05.000Z</time>
      </trkpt>
      <trkpt lat="48.413" lon="2.48784">
        <ele>139.39999389648</ele>
        <time>2019-11-16T11:59:09.000Z</time>
      </trkpt>
      <trkpt lat="48.41296" lon="2.48803">
        <ele>139</ele>
        <time>2019-11-16T11:59:12.000Z</time>
      </trkpt>
      <trkpt lat="48.41297" lon="2.48809">
        <ele>139</ele>
        <time>2019-11-16T11:59:13.000Z</time>
      </trkpt>
      <trkpt lat="48.41302" lon="2.48828">
        <ele>139</ele>
        <time>2019-11-16T11:59:16.000Z</time>
      </trkpt>
      <trkpt lat="48.41304" lon="2.48839">
        <ele>138.80000305176</ele>
        <time>2019-11-16T11:59:18.000Z</time>
      </trkpt>
      <trkpt lat="48.41306" lon="2.4885">
        <ele>138.80000305176</ele>
        <time>2019-11-16T11:59:20.000Z</time>
      </trkpt>
      <trkpt lat="48.41305" lon="2.48862">
        <ele>139</ele>
        <time>2019-11-16T11:59:22.000Z</time>
      </trkpt>
      <trkpt lat="48.41302" lon="2.48883">
        <ele>138.39999389648</ele>
        <time>2019-11-16T11:59:26.000Z</time>
      </trkpt>
      <trkpt lat="48.41301" lon="2.48908">
        <ele>138.39999389648</ele>
        <time>2019-11-16T11:59:30.000Z</time>
      </trkpt>
      <trkpt lat="48.41302" lon="2.48914">
        <ele>138.39999389648</ele>
        <time>2019-11-16T11:59:31.000Z</time>
      </trkpt>
      <trkpt lat="48.41307" lon="2.48927">
        <ele>138.39999389648</ele>
        <time>2019-11-16T11:59:34.000Z</time>
      </trkpt>
      <trkpt lat="48.41304" lon="2.48941">
        <ele>138.39999389648</ele>
        <time>2019-11-16T11:59:37.000Z</time>
      </trkpt>
      <trkpt lat="48.41302" lon="2.48953">
        <ele>138.60000610352</ele>
        <time>2019-11-16T11:59:39.000Z</time>
      </trkpt>
      <trkpt lat="48.41302" lon="2.48965">
        <ele>138.60000610352</ele>
        <time>2019-11-16T11:59:41.000Z</time>
      </trkpt>
      <trkpt lat="48.41303" lon="2.48971">
        <ele>138.39999389648</ele>
        <time>2019-11-16T11:59:42.000Z</time>
      </trkpt>
      <trkpt lat="48.41306" lon="2.48994">
        <ele>138.39999389648</ele>
        <time>2019-11-16T11:59:46.000Z</time>
      </trkpt>
      <trkpt lat="48.41304" lon="2.49">
        <ele>138.39999389648</ele>
        <time>2019-11-16T11:59:47.000Z</time>
      </trkpt>
      <trkpt lat="48.413" lon="2.4901">
        <ele>138.19999694824</ele>
        <time>2019-11-16T11:59:49.000Z</time>
      </trkpt>
      <trkpt lat="48.41297" lon="2.4902">
        <ele>138</ele>
        <time>2019-11-16T11:59:52.000Z</time>
      </trkpt>
      <trkpt lat="48.41294" lon="2.49042">
        <ele>138.19999694824</ele>
        <time>2019-11-16T11:59:56.000Z</time>
      </trkpt>
      <trkpt lat="48.41294" lon="2.49057">
        <ele>138.19999694824</ele>
        <time>2019-11-16T11:59:58.000Z</time>
      </trkpt>
      <trkpt lat="48.41294" lon="2.49071">
        <ele>138.19999694824</ele>
        <time>2019-11-16T12:00:00.000Z</time>
      </trkpt>
      <trkpt lat="48.41286" lon="2.49086">
        <ele>138.60000610352</ele>
        <time>2019-11-16T12:00:03.000Z</time>
      </trkpt>
      <trkpt lat="48.41281" lon="2.49102">
        <ele>137.80000305176</ele>
        <time>2019-11-16T12:00:06.000Z</time>
      </trkpt>
      <trkpt lat="48.41279" lon="2.49107">
        <ele>137.80000305176</ele>
        <time>2019-11-16T12:00:07.000Z</time>
      </trkpt>
      <trkpt lat="48.41279" lon="2.49113">
        <ele>137.60000610352</ele>
        <time>2019-11-16T12:00:08.000Z</time>
      </trkpt>
      <trkpt lat="48.41277" lon="2.49118">
        <ele>137.60000610352</ele>
        <time>2019-11-16T12:00:09.000Z</time>
      </trkpt>
      <trkpt lat="48.41272" lon="2.49129">
        <ele>137.60000610352</ele>
        <time>2019-11-16T12:00:11.000Z</time>
      </trkpt>
      <trkpt lat="48.41265" lon="2.49145">
        <ele>137.19999694824</ele>
        <time>2019-11-16T12:00:15.000Z</time>
      </trkpt>
      <trkpt lat="48.41263" lon="2.49154">
        <ele>136.60000610352</ele>
        <time>2019-11-16T12:00:18.000Z</time>
      </trkpt>
      <trkpt lat="48.41262" lon="2.49157">
        <ele>136.60000610352</ele>
        <time>2019-11-16T12:00:19.000Z</time>
      </trkpt>
      <trkpt lat="48.4126" lon="2.4916">
        <ele>136.80000305176</ele>
        <time>2019-11-16T12:00:20.000Z</time>
      </trkpt>
      <trkpt lat="48.41255" lon="2.49171">
        <ele>137.19999694824</ele>
        <time>2019-11-16T12:00:23.000Z</time>
      </trkpt>
      <trkpt lat="48.41252" lon="2.49173">
        <ele>137.60000610352</ele>
        <time>2019-11-16T12:00:24.000Z</time>
      </trkpt>
      <trkpt lat="48.41237" lon="2.49185">
        <ele>137.19999694824</ele>
        <time>2019-11-16T12:00:28.000Z</time>
      </trkpt>
      <trkpt lat="48.4122" lon="2.49196">
        <ele>136.80000305176</ele>
        <time>2019-11-16T12:00:32.000Z</time>
      </trkpt>
      <trkpt lat="48.41213" lon="2.49208">
        <ele>136.80000305176</ele>
        <time>2019-11-16T12:00:35.000Z</time>
      </trkpt>
      <trkpt lat="48.41213" lon="2.49216">
        <ele>136.39999389648</ele>
        <time>2019-11-16T12:00:37.000Z</time>
      </trkpt>
      <trkpt lat="48.41214" lon="2.4922">
        <ele>136.19999694824</ele>
        <time>2019-11-16T12:00:38.000Z</time>
      </trkpt>
      <trkpt lat="48.41218" lon="2.49231">
        <ele>136.39999389648</ele>
        <time>2019-11-16T12:00:42.000Z</time>
      </trkpt>
      <trkpt lat="48.41217" lon="2.49234">
        <ele>136.80000305176</ele>
        <time>2019-11-16T12:00:43.000Z</time>
      </trkpt>
      <trkpt lat="48.41216" lon="2.49245">
        <ele>137.39999389648</ele>
        <time>2019-11-16T12:00:45.000Z</time>
      </trkpt>
      <trkpt lat="48.41214" lon="2.49259">
        <ele>137.60000610352</ele>
        <time>2019-11-16T12:00:47.000Z</time>
      </trkpt>
      <trkpt lat="48.41204" lon="2.49296">
        <ele>138</ele>
        <time>2019-11-16T12:00:53.000Z</time>
      </trkpt>
      <trkpt lat="48.41197" lon="2.4933">
        <ele>137.60000610352</ele>
        <time>2019-11-16T12:00:58.000Z</time>
      </trkpt>
      <trkpt lat="48.41185" lon="2.49345">
        <ele>137.19999694824</ele>
        <time>2019-11-16T12:01:01.000Z</time>
      </trkpt>
      <trkpt lat="48.41177" lon="2.4935">
        <ele>137.39999389648</ele>
        <time>2019-11-16T12:01:03.000Z</time>
      </trkpt>
      <trkpt lat="48.41173" lon="2.49355">
        <ele>137.19999694824</ele>
        <time>2019-11-16T12:01:04.000Z</time>
      </trkpt>
      <trkpt lat="48.4117" lon="2.49361">
        <ele>137</ele>
        <time>2019-11-16T12:01:05.000Z</time>
      </trkpt>
      <trkpt lat="48.41168" lon="2.49385">
        <ele>137</ele>
        <time>2019-11-16T12:01:08.000Z</time>
      </trkpt>
      <trkpt lat="48.41165" lon="2.49411">
        <ele>137.19999694824</ele>
        <time>2019-11-16T12:01:11.000Z</time>
      </trkpt>
      <trkpt lat="48.41164" lon="2.4942">
        <ele>137.19999694824</ele>
        <time>2019-11-16T12:01:12.000Z</time>
      </trkpt>
      <trkpt lat="48.41165" lon="2.49435">
        <ele>137.19999694824</ele>
        <time>2019-11-16T12:01:14.000Z</time>
      </trkpt>
      <trkpt lat="48.4117" lon="2.49445">
        <ele>136.80000305176</ele>
        <time>2019-11-16T12:01:16.000Z</time>
      </trkpt>
      <trkpt lat="48.41174" lon="2.49466">
        <ele>136.60000610352</ele>
        <time>2019-11-16T12:01:20.000Z</time>
      </trkpt>
      <trkpt lat="48.41173" lon="2.49472">
        <ele>136.39999389648</ele>
        <time>2019-11-16T12:01:21.000Z</time>
      </trkpt>
      <trkpt lat="48.4117" lon="2.49491">
        <ele>136</ele>
        <time>2019-11-16T12:01:24.000Z</time>
      </trkpt>
      <trkpt lat="48.41171" lon="2.49502">
        <ele>136</ele>
        <time>2019-11-16T12:01:28.000Z</time>
      </trkpt>
      <trkpt lat="48.41174" lon="2.49504">
        <ele>135.39999389648</ele>
        <time>2019-11-16T12:01:29.000Z</time>
      </trkpt>
      <trkpt lat="48.4118" lon="2.4951">
        <ele>133.80000305176</ele>
        <time>2019-11-16T12:01:31.000Z</time>
      </trkpt>
      <trkpt lat="48.41184" lon="2.49513">
        <ele>133.19999694824</ele>
        <time>2019-11-16T12:01:32.000Z</time>
      </trkpt>
      <trkpt lat="48.41189" lon="2.49516">
        <ele>132.39999389648</ele>
        <time>2019-11-16T12:01:33.000Z</time>
      </trkpt>
      <trkpt lat="48.41199" lon="2.49524">
        <ele>130.39999389648</ele>
        <time>2019-11-16T12:01:35.000Z</time>
      </trkpt>
      <trkpt lat="48.41205" lon="2.49529">
        <ele>129.39999389648</ele>
        <time>2019-11-16T12:01:36.000Z</time>
      </trkpt>
      <trkpt lat="48.41211" lon="2.49534">
        <ele>128.39999389648</ele>
        <time>2019-11-16T12:01:37.000Z</time>
      </trkpt>
      <trkpt lat="48.41218" lon="2.49539">
        <ele>127.59999847412</ele>
        <time>2019-11-16T12:01:38.000Z</time>
      </trkpt>
      <trkpt lat="48.41224" lon="2.49544">
        <ele>126.59999847412</ele>
        <time>2019-11-16T12:01:39.000Z</time>
      </trkpt>
      <trkpt lat="48.4123" lon="2.49546">
        <ele>126</ele>
        <time>2019-11-16T12:01:40.000Z</time>
      </trkpt>
      <trkpt lat="48.41235" lon="2.49547">
        <ele>125.80000305176</ele>
        <time>2019-11-16T12:01:41.000Z</time>
      </trkpt>
      <trkpt lat="48.41244" lon="2.49548">
        <ele>126</ele>
        <time>2019-11-16T12:01:43.000Z</time>
      </trkpt>
      <trkpt lat="48.41252" lon="2.49551">
        <ele>126.19999694824</ele>
        <time>2019-11-16T12:01:45.000Z</time>
      </trkpt>
      <trkpt lat="48.4126" lon="2.49555">
        <ele>126.40000152588</ele>
        <time>2019-11-16T12:01:47.000Z</time>
      </trkpt>
      <trkpt lat="48.41271" lon="2.49563">
        <ele>127</ele>
        <time>2019-11-16T12:01:50.000Z</time>
      </trkpt>
      <trkpt lat="48.41274" lon="2.49567">
        <ele>127.19999694824</ele>
        <time>2019-11-16T12:01:51.000Z</time>
      </trkpt>
      <trkpt lat="48.41281" lon="2.49575">
        <ele>128</ele>
        <time>2019-11-16T12:01:54.000Z</time>
      </trkpt>
      <trkpt lat="48.41282" lon="2.49577">
        <ele>128.19999694824</ele>
        <time>2019-11-16T12:01:55.000Z</time>
      </trkpt>
      <trkpt lat="48.41286" lon="2.4958">
        <ele>129.19999694824</ele>
        <time>2019-11-16T12:01:58.000Z</time>
      </trkpt>
      <trkpt lat="48.41288" lon="2.49581">
        <ele>129.39999389648</ele>
        <time>2019-11-16T12:01:59.000Z</time>
      </trkpt>
      <trkpt lat="48.41288" lon="2.49581">
        <ele>130.60000610352</ele>
        <time>2019-11-16T12:02:02.000Z</time>
      </trkpt>
      <trkpt lat="48.41289" lon="2.49581">
        <ele>131</ele>
        <time>2019-11-16T12:02:10.000Z</time>
      </trkpt>
      <trkpt lat="48.41291" lon="2.49581">
        <ele>131.60000610352</ele>
        <time>2019-11-16T12:02:12.000Z</time>
      </trkpt>
      <trkpt lat="48.41295" lon="2.49583">
        <ele>131.60000610352</ele>
        <time>2019-11-16T12:02:15.000Z</time>
      </trkpt>
      <trkpt lat="48.41296" lon="2.49583">
        <ele>131.60000610352</ele>
        <time>2019-11-16T12:02:16.000Z</time>
      </trkpt>
      <trkpt lat="48.41299" lon="2.49583">
        <ele>132.19999694824</ele>
        <time>2019-11-16T12:02:18.000Z</time>
      </trkpt>
      <trkpt lat="48.41301" lon="2.49583">
        <ele>132.80000305176</ele>
        <time>2019-11-16T12:02:19.000Z</time>
      </trkpt>
      <trkpt lat="48.41305" lon="2.49586">
        <ele>133.19999694824</ele>
        <time>2019-11-16T12:02:21.000Z</time>
      </trkpt>
      <trkpt lat="48.41311" lon="2.49587">
        <ele>134.19999694824</ele>
        <time>2019-11-16T12:02:24.000Z</time>
      </trkpt>
      <trkpt lat="48.41314" lon="2.49587">
        <ele>134.80000305176</ele>
        <time>2019-11-16T12:02:26.000Z</time>
      </trkpt>
      <trkpt lat="48.41316" lon="2.49586">
        <ele>135.19999694824</ele>
        <time>2019-11-16T12:02:27.000Z</time>
      </trkpt>
      <trkpt lat="48.41317" lon="2.49585">
        <ele>135.80000305176</ele>
        <time>2019-11-16T12:02:28.000Z</time>
      </trkpt>
      <trkpt lat="48.41324" lon="2.49585">
        <ele>136.60000610352</ele>
        <time>2019-11-16T12:02:31.000Z</time>
      </trkpt>
      <trkpt lat="48.41326" lon="2.49586">
        <ele>136.80000305176</ele>
        <time>2019-11-16T12:02:32.000Z</time>
      </trkpt>
      <trkpt lat="48.41333" lon="2.49596">
        <ele>137</ele>
        <time>2019-11-16T12:02:37.000Z</time>
      </trkpt>
      <trkpt lat="48.41327" lon="2.49608">
        <ele>137.19999694824</ele>
        <time>2019-11-16T12:02:41.000Z</time>
      </trkpt>
      <trkpt lat="48.41321" lon="2.49615">
        <ele>137.60000610352</ele>
        <time>2019-11-16T12:02:44.000Z</time>
      </trkpt>
      <trkpt lat="48.4132" lon="2.49619">
        <ele>137.60000610352</ele>
        <time>2019-11-16T12:02:45.000Z</time>
      </trkpt>
      <trkpt lat="48.41319" lon="2.49629">
        <ele>138</ele>
        <time>2019-11-16T12:02:47.000Z</time>
      </trkpt>
      <trkpt lat="48.41321" lon="2.49638">
        <ele>138.39999389648</ele>
        <time>2019-11-16T12:02:49.000Z</time>
      </trkpt>
      <trkpt lat="48.41322" lon="2.49649">
        <ele>138.80000305176</ele>
        <time>2019-11-16T12:02:51.000Z</time>
      </trkpt>
      <trkpt lat="48.41319" lon="2.49658">
        <ele>138.80000305176</ele>
        <time>2019-11-16T12:02:53.000Z</time>
      </trkpt>
      <trkpt lat="48.41308" lon="2.49668">
        <ele>139</ele>
        <time>2019-11-16T12:02:57.000Z</time>
      </trkpt>
      <trkpt lat="48.413" lon="2.49684">
        <ele>138.60000610352</ele>
        <time>2019-11-16T12:03:01.000Z</time>
      </trkpt>
      <trkpt lat="48.41299" lon="2.49683">
        <ele>138.19999694824</ele>
        <time>2019-11-16T12:03:03.000Z</time>
      </trkpt>
      <trkpt lat="48.4129" lon="2.49676">
        <ele>138</ele>
        <time>2019-11-16T12:03:08.000Z</time>
      </trkpt>
      <trkpt lat="48.41283" lon="2.49676">
        <ele>137.60000610352</ele>
        <time>2019-11-16T12:03:11.000Z</time>
      </trkpt>
      <trkpt lat="48.41281" lon="2.49676">
        <ele>137.39999389648</ele>
        <time>2019-11-16T12:03:12.000Z</time>
      </trkpt>
      <trkpt lat="48.41277" lon="2.49674">
        <ele>137.60000610352</ele>
        <time>2019-11-16T12:03:17.000Z</time>
      </trkpt>
      <trkpt lat="48.41277" lon="2.49675">
        <ele>137.39999389648</ele>
        <time>2019-11-16T12:03:23.000Z</time>
      </trkpt>
      <trkpt lat="48.41278" lon="2.49675">
        <ele>137.60000610352</ele>
        <time>2019-11-16T12:03:29.000Z</time>
      </trkpt>
      <trkpt lat="48.4128" lon="2.49675">
        <ele>137.39999389648</ele>
        <time>2019-11-16T12:03:30.000Z</time>
      </trkpt>
      <trkpt lat="48.41293" lon="2.49675">
        <ele>137.60000610352</ele>
        <time>2019-11-16T12:03:35.000Z</time>
      </trkpt>
      <trkpt lat="48.41302" lon="2.49684">
        <ele>137.60000610352</ele>
        <time>2019-11-16T12:03:39.000Z</time>
      </trkpt>
      <trkpt lat="48.41318" lon="2.49693">
        <ele>137.60000610352</ele>
        <time>2019-11-16T12:03:45.000Z</time>
      </trkpt>
      <trkpt lat="48.41334" lon="2.49684">
        <ele>138.60000610352</ele>
        <time>2019-11-16T12:03:50.000Z</time>
      </trkpt>
      <trkpt lat="48.41338" lon="2.49684">
        <ele>139</ele>
        <time>2019-11-16T12:03:51.000Z</time>
      </trkpt>
      <trkpt lat="48.41346" lon="2.49688">
        <ele>139.19999694824</ele>
        <time>2019-11-16T12:03:54.000Z</time>
      </trkpt>
      <trkpt lat="48.41358" lon="2.49685">
        <ele>139.60000610352</ele>
        <time>2019-11-16T12:03:58.000Z</time>
      </trkpt>
      <trkpt lat="48.41364" lon="2.49688">
        <ele>139.80000305176</ele>
        <time>2019-11-16T12:04:00.000Z</time>
      </trkpt>
      <trkpt lat="48.41367" lon="2.49693">
        <ele>139.80000305176</ele>
        <time>2019-11-16T12:04:01.000Z</time>
      </trkpt>
      <trkpt lat="48.41373" lon="2.49709">
        <ele>139</ele>
        <time>2019-11-16T12:04:04.000Z</time>
      </trkpt>
      <trkpt lat="48.41376" lon="2.49715">
        <ele>138.80000305176</ele>
        <time>2019-11-16T12:04:05.000Z</time>
      </trkpt>
      <trkpt lat="48.4138" lon="2.4972">
        <ele>138.39999389648</ele>
        <time>2019-11-16T12:04:06.000Z</time>
      </trkpt>
      <trkpt lat="48.41383" lon="2.49725">
        <ele>137.60000610352</ele>
        <time>2019-11-16T12:04:07.000Z</time>
      </trkpt>
      <trkpt lat="48.41386" lon="2.49727">
        <ele>137.39999389648</ele>
        <time>2019-11-16T12:04:08.000Z</time>
      </trkpt>
      <trkpt lat="48.41391" lon="2.49729">
        <ele>137</ele>
        <time>2019-11-16T12:04:09.000Z</time>
      </trkpt>
      <trkpt lat="48.41395" lon="2.49731">
        <ele>136.19999694824</ele>
        <time>2019-11-16T12:04:10.000Z</time>
      </trkpt>
      <trkpt lat="48.41401" lon="2.49737">
        <ele>135.19999694824</ele>
        <time>2019-11-16T12:04:12.000Z</time>
      </trkpt>
      <trkpt lat="48.41404" lon="2.4974">
        <ele>135</ele>
        <time>2019-11-16T12:04:13.000Z</time>
      </trkpt>
      <trkpt lat="48.41406" lon="2.4974">
        <ele>134.80000305176</ele>
        <time>2019-11-16T12:04:14.000Z</time>
      </trkpt>
      <trkpt lat="48.41408" lon="2.4974">
        <ele>134.39999389648</ele>
        <time>2019-11-16T12:04:17.000Z</time>
      </trkpt>
      <trkpt lat="48.4141" lon="2.49743">
        <ele>134</ele>
        <time>2019-11-16T12:04:19.000Z</time>
      </trkpt>
      <trkpt lat="48.41411" lon="2.49749">
        <ele>134</ele>
        <time>2019-11-16T12:04:21.000Z</time>
      </trkpt>
      <trkpt lat="48.41419" lon="2.49763">
        <ele>133.80000305176</ele>
        <time>2019-11-16T12:04:25.000Z</time>
      </trkpt>
      <trkpt lat="48.41421" lon="2.49766">
        <ele>134</ele>
        <time>2019-11-16T12:04:26.000Z</time>
      </trkpt>
      <trkpt lat="48.41427" lon="2.49779">
        <ele>135.19999694824</ele>
        <time>2019-11-16T12:04:29.000Z</time>
      </trkpt>
      <trkpt lat="48.41431" lon="2.49789">
        <ele>135.19999694824</ele>
        <time>2019-11-16T12:04:31.000Z</time>
      </trkpt>
      <trkpt lat="48.41439" lon="2.49799">
        <ele>136.19999694824</ele>
        <time>2019-11-16T12:04:34.000Z</time>
      </trkpt>
      <trkpt lat="48.41442" lon="2.49802">
        <ele>136.60000610352</ele>
        <time>2019-11-16T12:04:35.000Z</time>
      </trkpt>
      <trkpt lat="48.41445" lon="2.49803">
        <ele>137.60000610352</ele>
        <time>2019-11-16T12:04:37.000Z</time>
      </trkpt>
      <trkpt lat="48.41447" lon="2.49804">
        <ele>138.39999389648</ele>
        <time>2019-11-16T12:04:39.000Z</time>
      </trkpt>
      <trkpt lat="48.4145" lon="2.49808">
        <ele>138.80000305176</ele>
        <time>2019-11-16T12:04:43.000Z</time>
      </trkpt>
      <trkpt lat="48.41454" lon="2.49812">
        <ele>138.80000305176</ele>
        <time>2019-11-16T12:04:45.000Z</time>
      </trkpt>
      <trkpt lat="48.41467" lon="2.49825">
        <ele>139.39999389648</ele>
        <time>2019-11-16T12:04:50.000Z</time>
      </trkpt>
      <trkpt lat="48.4148" lon="2.49834">
        <ele>139.60000610352</ele>
        <time>2019-11-16T12:04:54.000Z</time>
      </trkpt>
      <trkpt lat="48.41497" lon="2.49834">
        <ele>139.60000610352</ele>
        <time>2019-11-16T12:04:59.000Z</time>
      </trkpt>
      <trkpt lat="48.41501" lon="2.4983">
        <ele>139.80000305176</ele>
        <time>2019-11-16T12:05:00.000Z</time>
      </trkpt>
      <trkpt lat="48.41504" lon="2.49819">
        <ele>139.80000305176</ele>
        <time>2019-11-16T12:05:02.000Z</time>
      </trkpt>
      <trkpt lat="48.41512" lon="2.49773">
        <ele>140</ele>
        <time>2019-11-16T12:05:09.000Z</time>
      </trkpt>
      <trkpt lat="48.41514" lon="2.49758">
        <ele>139.80000305176</ele>
        <time>2019-11-16T12:05:11.000Z</time>
      </trkpt>
      <trkpt lat="48.41517" lon="2.49737">
        <ele>139.80000305176</ele>
        <time>2019-11-16T12:05:14.000Z</time>
      </trkpt>
      <trkpt lat="48.41519" lon="2.49731">
        <ele>139.60000610352</ele>
        <time>2019-11-16T12:05:15.000Z</time>
      </trkpt>
      <trkpt lat="48.41526" lon="2.49694">
        <ele>139.39999389648</ele>
        <time>2019-11-16T12:05:20.000Z</time>
      </trkpt>
      <trkpt lat="48.41528" lon="2.49681">
        <ele>139</ele>
        <time>2019-11-16T12:05:22.000Z</time>
      </trkpt>
      <trkpt lat="48.41531" lon="2.49659">
        <ele>139</ele>
        <time>2019-11-16T12:05:25.000Z</time>
      </trkpt>
      <trkpt lat="48.41533" lon="2.49652">
        <ele>138.80000305176</ele>
        <time>2019-11-16T12:05:26.000Z</time>
      </trkpt>
      <trkpt lat="48.41534" lon="2.49645">
        <ele>138.60000610352</ele>
        <time>2019-11-16T12:05:27.000Z</time>
      </trkpt>
      <trkpt lat="48.41538" lon="2.49623">
        <ele>138</ele>
        <time>2019-11-16T12:05:30.000Z</time>
      </trkpt>
      <trkpt lat="48.41541" lon="2.496">
        <ele>137.60000610352</ele>
        <time>2019-11-16T12:05:33.000Z</time>
      </trkpt>
      <trkpt lat="48.41546" lon="2.49568">
        <ele>136.80000305176</ele>
        <time>2019-11-16T12:05:37.000Z</time>
      </trkpt>
      <trkpt lat="48.41552" lon="2.49526">
        <ele>136.39999389648</ele>
        <time>2019-11-16T12:05:42.000Z</time>
      </trkpt>
      <trkpt lat="48.41555" lon="2.4951">
        <ele>136.39999389648</ele>
        <time>2019-11-16T12:05:44.000Z</time>
      </trkpt>
      <trkpt lat="48.41562" lon="2.49468">
        <ele>136</ele>
        <time>2019-11-16T12:05:49.000Z</time>
      </trkpt>
      <trkpt lat="48.41563" lon="2.49461">
        <ele>136</ele>
        <time>2019-11-16T12:05:50.000Z</time>
      </trkpt>
      <trkpt lat="48.41569" lon="2.49428">
        <ele>135.39999389648</ele>
        <time>2019-11-16T12:05:54.000Z</time>
      </trkpt>
      <trkpt lat="48.41573" lon="2.49403">
        <ele>135</ele>
        <time>2019-11-16T12:05:57.000Z</time>
      </trkpt>
      <trkpt lat="48.41575" lon="2.49385">
        <ele>134.60000610352</ele>
        <time>2019-11-16T12:05:59.000Z</time>
      </trkpt>
      <trkpt lat="48.41575" lon="2.49376">
        <ele>134.39999389648</ele>
        <time>2019-11-16T12:06:00.000Z</time>
      </trkpt>
      <trkpt lat="48.41576" lon="2.49359">
        <ele>133.80000305176</ele>
        <time>2019-11-16T12:06:02.000Z</time>
      </trkpt>
      <trkpt lat="48.41578" lon="2.49352">
        <ele>133.60000610352</ele>
        <time>2019-11-16T12:06:03.000Z</time>
      </trkpt>
      <trkpt lat="48.41584" lon="2.4932">
        <ele>133.39999389648</ele>
        <time>2019-11-16T12:06:07.000Z</time>
      </trkpt>
      <trkpt lat="48.41586" lon="2.49305">
        <ele>133.39999389648</ele>
        <time>2019-11-16T12:06:09.000Z</time>
      </trkpt>
      <trkpt lat="48.41588" lon="2.49275">
        <ele>133.80000305176</ele>
        <time>2019-11-16T12:06:13.000Z</time>
      </trkpt>
      <trkpt lat="48.41593" lon="2.49235">
        <ele>135</ele>
        <time>2019-11-16T12:06:19.000Z</time>
      </trkpt>
      <trkpt lat="48.41596" lon="2.49216">
        <ele>135.39999389648</ele>
        <time>2019-11-16T12:06:22.000Z</time>
      </trkpt>
      <trkpt lat="48.41599" lon="2.49196">
        <ele>135.80000305176</ele>
        <time>2019-11-16T12:06:25.000Z</time>
      </trkpt>
      <trkpt lat="48.41604" lon="2.49153">
        <ele>136.19999694824</ele>
        <time>2019-11-16T12:06:31.000Z</time>
      </trkpt>
      <trkpt lat="48.41606" lon="2.49138">
        <ele>136.39999389648</ele>
        <time>2019-11-16T12:06:33.000Z</time>
      </trkpt>
      <trkpt lat="48.4161" lon="2.49107">
        <ele>136.19999694824</ele>
        <time>2019-11-16T12:06:37.000Z</time>
      </trkpt>
      <trkpt lat="48.41612" lon="2.49092">
        <ele>135.80000305176</ele>
        <time>2019-11-16T12:06:39.000Z</time>
      </trkpt>
      <trkpt lat="48.41617" lon="2.49063">
        <ele>136.19999694824</ele>
        <time>2019-11-16T12:06:43.000Z</time>
      </trkpt>
      <trkpt lat="48.41623" lon="2.49017">
        <ele>136</ele>
        <time>2019-11-16T12:06:49.000Z</time>
      </trkpt>
      <trkpt lat="48.41623" lon="2.49002">
        <ele>136</ele>
        <time>2019-11-16T12:06:51.000Z</time>
      </trkpt>
      <trkpt lat="48.41626" lon="2.4898">
        <ele>135.60000610352</ele>
        <time>2019-11-16T12:06:54.000Z</time>
      </trkpt>
      <trkpt lat="48.4163" lon="2.48958">
        <ele>135.60000610352</ele>
        <time>2019-11-16T12:06:57.000Z</time>
      </trkpt>
      <trkpt lat="48.41632" lon="2.48943">
        <ele>135.60000610352</ele>
        <time>2019-11-16T12:06:59.000Z</time>
      </trkpt>
      <trkpt lat="48.41636" lon="2.48912">
        <ele>135.60000610352</ele>
        <time>2019-11-16T12:07:03.000Z</time>
      </trkpt>
      <trkpt lat="48.41638" lon="2.48898">
        <ele>135.19999694824</ele>
        <time>2019-11-16T12:07:05.000Z</time>
      </trkpt>
      <trkpt lat="48.41646" lon="2.48886">
        <ele>134.80000305176</ele>
        <time>2019-11-16T12:07:08.000Z</time>
      </trkpt>
      <trkpt lat="48.41653" lon="2.48889">
        <ele>134.39999389648</ele>
        <time>2019-11-16T12:07:10.000Z</time>
      </trkpt>
      <trkpt lat="48.41655" lon="2.48892">
        <ele>134.19999694824</ele>
        <time>2019-11-16T12:07:11.000Z</time>
      </trkpt>
      <trkpt lat="48.41658" lon="2.48894">
        <ele>134.19999694824</ele>
        <time>2019-11-16T12:07:12.000Z</time>
      </trkpt>
      <trkpt lat="48.41669" lon="2.48903">
        <ele>133.60000610352</ele>
        <time>2019-11-16T12:07:17.000Z</time>
      </trkpt>
      <trkpt lat="48.41671" lon="2.48907">
        <ele>133.39999389648</ele>
        <time>2019-11-16T12:07:18.000Z</time>
      </trkpt>
      <trkpt lat="48.41678" lon="2.48918">
        <ele>132.19999694824</ele>
        <time>2019-11-16T12:07:21.000Z</time>
      </trkpt>
      <trkpt lat="48.4168" lon="2.48917">
        <ele>131.80000305176</ele>
        <time>2019-11-16T12:07:23.000Z</time>
      </trkpt>
      <trkpt lat="48.41681" lon="2.48916">
        <ele>131.80000305176</ele>
        <time>2019-11-16T12:07:24.000Z</time>
      </trkpt>
      <trkpt lat="48.41681" lon="2.48914">
        <ele>131</ele>
        <time>2019-11-16T12:07:27.000Z</time>
      </trkpt>
      <trkpt lat="48.41682" lon="2.48912">
        <ele>130.39999389648</ele>
        <time>2019-11-16T12:07:30.000Z</time>
      </trkpt>
      <trkpt lat="48.41684" lon="2.48907">
        <ele>129.80000305176</ele>
        <time>2019-11-16T12:07:32.000Z</time>
      </trkpt>
      <trkpt lat="48.41684" lon="2.48905">
        <ele>129.19999694824</ele>
        <time>2019-11-16T12:07:33.000Z</time>
      </trkpt>
      <trkpt lat="48.41685" lon="2.48902">
        <ele>128.60000610352</ele>
        <time>2019-11-16T12:07:34.000Z</time>
      </trkpt>
      <trkpt lat="48.41687" lon="2.48894">
        <ele>127.19999694824</ele>
        <time>2019-11-16T12:07:36.000Z</time>
      </trkpt>
      <trkpt lat="48.4169" lon="2.48885">
        <ele>125.40000152588</ele>
        <time>2019-11-16T12:07:38.000Z</time>
      </trkpt>
      <trkpt lat="48.41691" lon="2.48879">
        <ele>124.40000152588</ele>
        <time>2019-11-16T12:07:39.000Z</time>
      </trkpt>
      <trkpt lat="48.41693" lon="2.48872">
        <ele>122.80000305176</ele>
        <time>2019-11-16T12:07:40.000Z</time>
      </trkpt>
      <trkpt lat="48.41693" lon="2.48864">
        <ele>121.40000152588</ele>
        <time>2019-11-16T12:07:41.000Z</time>
      </trkpt>
      <trkpt lat="48.41694" lon="2.48857">
        <ele>120</ele>
        <time>2019-11-16T12:07:42.000Z</time>
      </trkpt>
      <trkpt lat="48.41695" lon="2.4885">
        <ele>118.59999847412</ele>
        <time>2019-11-16T12:07:43.000Z</time>
      </trkpt>
      <trkpt lat="48.41696" lon="2.48842">
        <ele>116.19999694824</ele>
        <time>2019-11-16T12:07:44.000Z</time>
      </trkpt>
      <trkpt lat="48.41698" lon="2.48835">
        <ele>115</ele>
        <time>2019-11-16T12:07:45.000Z</time>
      </trkpt>
      <trkpt lat="48.41701" lon="2.48828">
        <ele>113.80000305176</ele>
        <time>2019-11-16T12:07:46.000Z</time>
      </trkpt>
      <trkpt lat="48.41704" lon="2.48822">
        <ele>112.40000152588</ele>
        <time>2019-11-16T12:07:47.000Z</time>
      </trkpt>
      <trkpt lat="48.41707" lon="2.48817">
        <ele>111.19999694824</ele>
        <time>2019-11-16T12:07:48.000Z</time>
      </trkpt>
      <trkpt lat="48.41709" lon="2.48811">
        <ele>110.19999694824</ele>
        <time>2019-11-16T12:07:49.000Z</time>
      </trkpt>
      <trkpt lat="48.4171" lon="2.48806">
        <ele>108.40000152588</ele>
        <time>2019-11-16T12:07:51.000Z</time>
      </trkpt>
      <trkpt lat="48.4171" lon="2.48804">
        <ele>107.19999694824</ele>
        <time>2019-11-16T12:07:54.000Z</time>
      </trkpt>
      <trkpt lat="48.41711" lon="2.48801">
        <ele>106.80000305176</ele>
        <time>2019-11-16T12:07:57.000Z</time>
      </trkpt>
      <trkpt lat="48.41711" lon="2.48801">
        <ele>106.40000152588</ele>
        <time>2019-11-16T12:08:04.000Z</time>
      </trkpt>
      <trkpt lat="48.41711" lon="2.48801">
        <ele>106.19999694824</ele>
        <time>2019-11-16T12:08:05.000Z</time>
      </trkpt>
      <trkpt lat="48.41711" lon="2.48801">
        <ele>106.19999694824</ele>
        <time>2019-11-16T12:08:20.000Z</time>
      </trkpt>
      <trkpt lat="48.4171" lon="2.48802">
        <ele>106.59999847412</ele>
        <time>2019-11-16T12:08:40.000Z</time>
      </trkpt>
      <trkpt lat="48.4171" lon="2.48802">
        <ele>106.59999847412</ele>
        <time>2019-11-16T12:08:56.000Z</time>
      </trkpt>
      <trkpt lat="48.4171" lon="2.48802">
        <ele>106.59999847412</ele>
        <time>2019-11-16T12:09:12.000Z</time>
      </trkpt>
      <trkpt lat="48.4171" lon="2.48801">
        <ele>106.40000152588</ele>
        <time>2019-11-16T12:09:32.000Z</time>
      </trkpt>
      <trkpt lat="48.41711" lon="2.48797">
        <ele>107</ele>
        <time>2019-11-16T12:09:41.000Z</time>
      </trkpt>
      <trkpt lat="48.41712" lon="2.48793">
        <ele>107</ele>
        <time>2019-11-16T12:09:42.000Z</time>
      </trkpt>
      <trkpt lat="48.41716" lon="2.48781">
        <ele>105.40000152588</ele>
        <time>2019-11-16T12:09:45.000Z</time>
      </trkpt>
      <trkpt lat="48.41718" lon="2.48776">
        <ele>104.80000305176</ele>
        <time>2019-11-16T12:09:46.000Z</time>
      </trkpt>
      <trkpt lat="48.41717" lon="2.48766">
        <ele>103.59999847412</ele>
        <time>2019-11-16T12:09:48.000Z</time>
      </trkpt>
      <trkpt lat="48.41715" lon="2.48763">
        <ele>103</ele>
        <time>2019-11-16T12:09:49.000Z</time>
      </trkpt>
      <trkpt lat="48.41715" lon="2.48754">
        <ele>102.40000152588</ele>
        <time>2019-11-16T12:09:51.000Z</time>
      </trkpt>
      <trkpt lat="48.41717" lon="2.48745">
        <ele>101.59999847412</ele>
        <time>2019-11-16T12:09:53.000Z</time>
      </trkpt>
      <trkpt lat="48.41717" lon="2.48742">
        <ele>101.19999694824</ele>
        <time>2019-11-16T12:09:54.000Z</time>
      </trkpt>
      <trkpt lat="48.41723" lon="2.48733">
        <ele>100</ele>
        <time>2019-11-16T12:09:57.000Z</time>
      </trkpt>
      <trkpt lat="48.41729" lon="2.4872">
        <ele>98.800003051758</ele>
        <time>2019-11-16T12:10:01.000Z</time>
      </trkpt>
      <trkpt lat="48.41731" lon="2.48717">
        <ele>98.599998474121</ele>
        <time>2019-11-16T12:10:02.000Z</time>
      </trkpt>
      <trkpt lat="48.41738" lon="2.48709">
        <ele>97.800003051758</ele>
        <time>2019-11-16T12:10:05.000Z</time>
      </trkpt>
      <trkpt lat="48.41741" lon="2.48707">
        <ele>97.599998474121</ele>
        <time>2019-11-16T12:10:06.000Z</time>
      </trkpt>
      <trkpt lat="48.41744" lon="2.48705">
        <ele>97.400001525879</ele>
        <time>2019-11-16T12:10:07.000Z</time>
      </trkpt>
      <trkpt lat="48.4175" lon="2.48702">
        <ele>96.800003051758</ele>
        <time>2019-11-16T12:10:09.000Z</time>
      </trkpt>
      <trkpt lat="48.41757" lon="2.48695">
        <ele>96</ele>
        <time>2019-11-16T12:10:11.000Z</time>
      </trkpt>
      <trkpt lat="48.41761" lon="2.48691">
        <ele>95.599998474121</ele>
        <time>2019-11-16T12:10:12.000Z</time>
      </trkpt>
      <trkpt lat="48.4177" lon="2.48686">
        <ele>94.400001525879</ele>
        <time>2019-11-16T12:10:15.000Z</time>
      </trkpt>
      <trkpt lat="48.41773" lon="2.48684">
        <ele>94.199996948242</ele>
        <time>2019-11-16T12:10:16.000Z</time>
      </trkpt>
      <trkpt lat="48.41786" lon="2.48677">
        <ele>94</ele>
        <time>2019-11-16T12:10:21.000Z</time>
      </trkpt>
      <trkpt lat="48.4179" lon="2.48675">
        <ele>93.199996948242</ele>
        <time>2019-11-16T12:10:25.000Z</time>
      </trkpt>
      <trkpt lat="48.41792" lon="2.48677">
        <ele>93</ele>
        <time>2019-11-16T12:10:27.000Z</time>
      </trkpt>
      <trkpt lat="48.41794" lon="2.48684">
        <ele>93.199996948242</ele>
        <time>2019-11-16T12:10:29.000Z</time>
      </trkpt>
      <trkpt lat="48.41799" lon="2.48703">
        <ele>92.800003051758</ele>
        <time>2019-11-16T12:10:32.000Z</time>
      </trkpt>
      <trkpt lat="48.418" lon="2.4871">
        <ele>93.199996948242</ele>
        <time>2019-11-16T12:10:33.000Z</time>
      </trkpt>
      <trkpt lat="48.41806" lon="2.48747">
        <ele>94.199996948242</ele>
        <time>2019-11-16T12:10:38.000Z</time>
      </trkpt>
      <trkpt lat="48.41807" lon="2.48762">
        <ele>94.400001525879</ele>
        <time>2019-11-16T12:10:40.000Z</time>
      </trkpt>
      <trkpt lat="48.41812" lon="2.48796">
        <ele>95.400001525879</ele>
        <time>2019-11-16T12:10:45.000Z</time>
      </trkpt>
      <trkpt lat="48.41813" lon="2.48811">
        <ele>95.800003051758</ele>
        <time>2019-11-16T12:10:47.000Z</time>
      </trkpt>
      <trkpt lat="48.41813" lon="2.48832">
        <ele>96</ele>
        <time>2019-11-16T12:10:50.000Z</time>
      </trkpt>
      <trkpt lat="48.4181" lon="2.48845">
        <ele>96.199996948242</ele>
        <time>2019-11-16T12:10:52.000Z</time>
      </trkpt>
      <trkpt lat="48.41804" lon="2.48861">
        <ele>96.599998474121</ele>
        <time>2019-11-16T12:10:55.000Z</time>
      </trkpt>
      <trkpt lat="48.41802" lon="2.48867">
        <ele>97</ele>
        <time>2019-11-16T12:10:56.000Z</time>
      </trkpt>
      <trkpt lat="48.418" lon="2.48872">
        <ele>97.599998474121</ele>
        <time>2019-11-16T12:10:57.000Z</time>
      </trkpt>
      <trkpt lat="48.41798" lon="2.48877">
        <ele>97.800003051758</ele>
        <time>2019-11-16T12:10:58.000Z</time>
      </trkpt>
      <trkpt lat="48.41793" lon="2.48893">
        <ele>99.199996948242</ele>
        <time>2019-11-16T12:11:01.000Z</time>
      </trkpt>
      <trkpt lat="48.41792" lon="2.48898">
        <ele>100</ele>
        <time>2019-11-16T12:11:02.000Z</time>
      </trkpt>
      <trkpt lat="48.41791" lon="2.48903">
        <ele>100.40000152588</ele>
        <time>2019-11-16T12:11:04.000Z</time>
      </trkpt>
      <trkpt lat="48.4179" lon="2.48912">
        <ele>101.40000152588</ele>
        <time>2019-11-16T12:11:06.000Z</time>
      </trkpt>
      <trkpt lat="48.41789" lon="2.48927">
        <ele>102.40000152588</ele>
        <time>2019-11-16T12:11:09.000Z</time>
      </trkpt>
      <trkpt lat="48.41788" lon="2.48933">
        <ele>102.59999847412</ele>
        <time>2019-11-16T12:11:10.000Z</time>
      </trkpt>
      <trkpt lat="48.41783" lon="2.4896">
        <ele>103.80000305176</ele>
        <time>2019-11-16T12:11:15.000Z</time>
      </trkpt>
      <trkpt lat="48.41781" lon="2.48984">
        <ele>104.59999847412</ele>
        <time>2019-11-16T12:11:19.000Z</time>
      </trkpt>
      <trkpt lat="48.41779" lon="2.48996">
        <ele>105</ele>
        <time>2019-11-16T12:11:21.000Z</time>
      </trkpt>
      <trkpt lat="48.41774" lon="2.49024">
        <ele>105.19999694824</ele>
        <time>2019-11-16T12:11:25.000Z</time>
      </trkpt>
      <trkpt lat="48.41771" lon="2.49051">
        <ele>105.59999847412</ele>
        <time>2019-11-16T12:11:29.000Z</time>
      </trkpt>
      <trkpt lat="48.4177" lon="2.49071">
        <ele>106</ele>
        <time>2019-11-16T12:11:32.000Z</time>
      </trkpt>
      <trkpt lat="48.41768" lon="2.49098">
        <ele>106</ele>
        <time>2019-11-16T12:11:37.000Z</time>
      </trkpt>
      <trkpt lat="48.41769" lon="2.491">
        <ele>106.40000152588</ele>
        <time>2019-11-16T12:11:40.000Z</time>
      </trkpt>
      <trkpt lat="48.41768" lon="2.49098">
        <ele>106.59999847412</ele>
        <time>2019-11-16T12:11:41.000Z</time>
      </trkpt>
      <trkpt lat="48.41766" lon="2.49088">
        <ele>106.40000152588</ele>
        <time>2019-11-16T12:11:44.000Z</time>
      </trkpt>
      <trkpt lat="48.41765" lon="2.49078">
        <ele>106.19999694824</ele>
        <time>2019-11-16T12:11:46.000Z</time>
      </trkpt>
      <trkpt lat="48.41763" lon="2.49061">
        <ele>106</ele>
        <time>2019-11-16T12:11:49.000Z</time>
      </trkpt>
      <trkpt lat="48.41766" lon="2.49025">
        <ele>105.59999847412</ele>
        <time>2019-11-16T12:11:55.000Z</time>
      </trkpt>
      <trkpt lat="48.41771" lon="2.49004">
        <ele>104.80000305176</ele>
        <time>2019-11-16T12:11:59.000Z</time>
      </trkpt>
      <trkpt lat="48.41775" lon="2.48987">
        <ele>104.80000305176</ele>
        <time>2019-11-16T12:12:02.000Z</time>
      </trkpt>
      <trkpt lat="48.41777" lon="2.48969">
        <ele>104.59999847412</ele>
        <time>2019-11-16T12:12:06.000Z</time>
      </trkpt>
      <trkpt lat="48.41779" lon="2.48968">
        <ele>104.59999847412</ele>
        <time>2019-11-16T12:12:10.000Z</time>
      </trkpt>
      <trkpt lat="48.41781" lon="2.4896">
        <ele>104</ele>
        <time>2019-11-16T12:12:14.000Z</time>
      </trkpt>
      <trkpt lat="48.41783" lon="2.48946">
        <ele>103.59999847412</ele>
        <time>2019-11-16T12:12:18.000Z</time>
      </trkpt>
      <trkpt lat="48.41785" lon="2.48933">
        <ele>103.40000152588</ele>
        <time>2019-11-16T12:12:21.000Z</time>
      </trkpt>
      <trkpt lat="48.41788" lon="2.48899">
        <ele>102.40000152588</ele>
        <time>2019-11-16T12:12:27.000Z</time>
      </trkpt>
      <trkpt lat="48.41789" lon="2.48893">
        <ele>102.19999694824</ele>
        <time>2019-11-16T12:12:28.000Z</time>
      </trkpt>
      <trkpt lat="48.41792" lon="2.48881">
        <ele>101.59999847412</ele>
        <time>2019-11-16T12:12:30.000Z</time>
      </trkpt>
      <trkpt lat="48.41794" lon="2.48876">
        <ele>101.19999694824</ele>
        <time>2019-11-16T12:12:31.000Z</time>
      </trkpt>
      <trkpt lat="48.41796" lon="2.48871">
        <ele>100.59999847412</ele>
        <time>2019-11-16T12:12:32.000Z</time>
      </trkpt>
      <trkpt lat="48.41799" lon="2.48865">
        <ele>100.19999694824</ele>
        <time>2019-11-16T12:12:33.000Z</time>
      </trkpt>
      <trkpt lat="48.41801" lon="2.48859">
        <ele>99.400001525879</ele>
        <time>2019-11-16T12:12:34.000Z</time>
      </trkpt>
      <trkpt lat="48.41803" lon="2.48853">
        <ele>98.800003051758</ele>
        <time>2019-11-16T12:12:35.000Z</time>
      </trkpt>
      <trkpt lat="48.41808" lon="2.48846">
        <ele>98</ele>
        <time>2019-11-16T12:12:37.000Z</time>
      </trkpt>
      <trkpt lat="48.41813" lon="2.48854">
        <ele>97.400001525879</ele>
        <time>2019-11-16T12:12:39.000Z</time>
      </trkpt>
      <trkpt lat="48.41814" lon="2.48865">
        <ele>97.199996948242</ele>
        <time>2019-11-16T12:12:41.000Z</time>
      </trkpt>
      <trkpt lat="48.41816" lon="2.48873">
        <ele>97</ele>
        <time>2019-11-16T12:12:43.000Z</time>
      </trkpt>
      <trkpt lat="48.41814" lon="2.48893">
        <ele>97.800003051758</ele>
        <time>2019-11-16T12:12:48.000Z</time>
      </trkpt>
      <trkpt lat="48.41808" lon="2.48919">
        <ele>98.400001525879</ele>
        <time>2019-11-16T12:12:53.000Z</time>
      </trkpt>
      <trkpt lat="48.41799" lon="2.48935">
        <ele>99</ele>
        <time>2019-11-16T12:12:57.000Z</time>
      </trkpt>
      <trkpt lat="48.41796" lon="2.4896">
        <ele>100.19999694824</ele>
        <time>2019-11-16T12:13:02.000Z</time>
      </trkpt>
      <trkpt lat="48.41797" lon="2.48966">
        <ele>100.19999694824</ele>
        <time>2019-11-16T12:13:03.000Z</time>
      </trkpt>
      <trkpt lat="48.418" lon="2.48987">
        <ele>101</ele>
        <time>2019-11-16T12:13:07.000Z</time>
      </trkpt>
      <trkpt lat="48.41801" lon="2.48993">
        <ele>101.19999694824</ele>
        <time>2019-11-16T12:13:08.000Z</time>
      </trkpt>
      <trkpt lat="48.41804" lon="2.49015">
        <ele>102</ele>
        <time>2019-11-16T12:13:12.000Z</time>
      </trkpt>
      <trkpt lat="48.41806" lon="2.49025">
        <ele>102.19999694824</ele>
        <time>2019-11-16T12:13:14.000Z</time>
      </trkpt>
      <trkpt lat="48.41807" lon="2.49037">
        <ele>103.40000152588</ele>
        <time>2019-11-16T12:13:17.000Z</time>
      </trkpt>
      <trkpt lat="48.41806" lon="2.49043">
        <ele>103.59999847412</ele>
        <time>2019-11-16T12:13:19.000Z</time>
      </trkpt>
      <trkpt lat="48.41806" lon="2.49044">
        <ele>104</ele>
        <time>2019-11-16T12:13:21.000Z</time>
      </trkpt>
      <trkpt lat="48.41806" lon="2.49041">
        <ele>104</ele>
        <time>2019-11-16T12:13:22.000Z</time>
      </trkpt>
      <trkpt lat="48.41808" lon="2.49034">
        <ele>104</ele>
        <time>2019-11-16T12:13:25.000Z</time>
      </trkpt>
      <trkpt lat="48.41817" lon="2.49029">
        <ele>104</ele>
        <time>2019-11-16T12:13:29.000Z</time>
      </trkpt>
      <trkpt lat="48.4182" lon="2.49027">
        <ele>104.19999694824</ele>
        <time>2019-11-16T12:13:30.000Z</time>
      </trkpt>
      <trkpt lat="48.41823" lon="2.49024">
        <ele>104.40000152588</ele>
        <time>2019-11-16T12:13:31.000Z</time>
      </trkpt>
      <trkpt lat="48.41834" lon="2.49018">
        <ele>105.40000152588</ele>
        <time>2019-11-16T12:13:35.000Z</time>
      </trkpt>
      <trkpt lat="48.41837" lon="2.49017">
        <ele>105.80000305176</ele>
        <time>2019-11-16T12:13:36.000Z</time>
      </trkpt>
      <trkpt lat="48.4184" lon="2.49018">
        <ele>105.80000305176</ele>
        <time>2019-11-16T12:13:37.000Z</time>
      </trkpt>
      <trkpt lat="48.41851" lon="2.49021">
        <ele>105.80000305176</ele>
        <time>2019-11-16T12:13:40.000Z</time>
      </trkpt>
      <trkpt lat="48.41867" lon="2.49026">
        <ele>106.59999847412</ele>
        <time>2019-11-16T12:13:45.000Z</time>
      </trkpt>
      <trkpt lat="48.41879" lon="2.49033">
        <ele>107.19999694824</ele>
        <time>2019-11-16T12:13:50.000Z</time>
      </trkpt>
      <trkpt lat="48.41885" lon="2.49036">
        <ele>107.80000305176</ele>
        <time>2019-11-16T12:13:52.000Z</time>
      </trkpt>
      <trkpt lat="48.41898" lon="2.49046">
        <ele>108.40000152588</ele>
        <time>2019-11-16T12:13:56.000Z</time>
      </trkpt>
      <trkpt lat="48.41904" lon="2.49049">
        <ele>109</ele>
        <time>2019-11-16T12:13:58.000Z</time>
      </trkpt>
      <trkpt lat="48.41916" lon="2.49048">
        <ele>109.40000152588</ele>
        <time>2019-11-16T12:14:01.000Z</time>
      </trkpt>
      <trkpt lat="48.41928" lon="2.49036">
        <ele>110.19999694824</ele>
        <time>2019-11-16T12:14:05.000Z</time>
      </trkpt>
      <trkpt lat="48.41931" lon="2.49033">
        <ele>110.59999847412</ele>
        <time>2019-11-16T12:14:06.000Z</time>
      </trkpt>
      <trkpt lat="48.41941" lon="2.49016">
        <ele>111.19999694824</ele>
        <time>2019-11-16T12:14:10.000Z</time>
      </trkpt>
      <trkpt lat="48.41943" lon="2.49013">
        <ele>111.59999847412</ele>
        <time>2019-11-16T12:14:11.000Z</time>
      </trkpt>
      <trkpt lat="48.41949" lon="2.49003">
        <ele>112.40000152588</ele>
        <time>2019-11-16T12:14:14.000Z</time>
      </trkpt>
      <trkpt lat="48.4195" lon="2.48996">
        <ele>113</ele>
        <time>2019-11-16T12:14:16.000Z</time>
      </trkpt>
      <trkpt lat="48.4195" lon="2.48992">
        <ele>113.40000152588</ele>
        <time>2019-11-16T12:14:17.000Z</time>
      </trkpt>
      <trkpt lat="48.41951" lon="2.48982">
        <ele>114.40000152588</ele>
        <time>2019-11-16T12:14:19.000Z</time>
      </trkpt>
      <trkpt lat="48.41953" lon="2.48976">
        <ele>114.59999847412</ele>
        <time>2019-11-16T12:14:20.000Z</time>
      </trkpt>
      <trkpt lat="48.41956" lon="2.48966">
        <ele>115.19999694824</ele>
        <time>2019-11-16T12:14:22.000Z</time>
      </trkpt>
      <trkpt lat="48.41958" lon="2.48961">
        <ele>115.59999847412</ele>
        <time>2019-11-16T12:14:23.000Z</time>
      </trkpt>
      <trkpt lat="48.41963" lon="2.48939">
        <ele>116</ele>
        <time>2019-11-16T12:14:28.000Z</time>
      </trkpt>
      <trkpt lat="48.41968" lon="2.48927">
        <ele>116.80000305176</ele>
        <time>2019-11-16T12:14:31.000Z</time>
      </trkpt>
      <trkpt lat="48.41971" lon="2.48919">
        <ele>117.59999847412</ele>
        <time>2019-11-16T12:14:33.000Z</time>
      </trkpt>
      <trkpt lat="48.41972" lon="2.48915">
        <ele>118.40000152588</ele>
        <time>2019-11-16T12:14:34.000Z</time>
      </trkpt>
      <trkpt lat="48.41977" lon="2.48898">
        <ele>119.80000305176</ele>
        <time>2019-11-16T12:14:39.000Z</time>
      </trkpt>
      <trkpt lat="48.41976" lon="2.48891">
        <ele>121.19999694824</ele>
        <time>2019-11-16T12:14:42.000Z</time>
      </trkpt>
      <trkpt lat="48.41977" lon="2.4889">
        <ele>121.59999847412</ele>
        <time>2019-11-16T12:14:43.000Z</time>
      </trkpt>
      <trkpt lat="48.41979" lon="2.4889">
        <ele>121.80000305176</ele>
        <time>2019-11-16T12:14:44.000Z</time>
      </trkpt>
      <trkpt lat="48.41982" lon="2.48886">
        <ele>122.19999694824</ele>
        <time>2019-11-16T12:14:46.000Z</time>
      </trkpt>
      <trkpt lat="48.41984" lon="2.48883">
        <ele>122.19999694824</ele>
        <time>2019-11-16T12:14:47.000Z</time>
      </trkpt>
      <trkpt lat="48.41989" lon="2.48881">
        <ele>122.40000152588</ele>
        <time>2019-11-16T12:14:49.000Z</time>
      </trkpt>
      <trkpt lat="48.41994" lon="2.48877">
        <ele>122.80000305176</ele>
        <time>2019-11-16T12:14:51.000Z</time>
      </trkpt>
      <trkpt lat="48.41998" lon="2.48877">
        <ele>123.40000152588</ele>
        <time>2019-11-16T12:14:53.000Z</time>
      </trkpt>
      <trkpt lat="48.42003" lon="2.48878">
        <ele>124</ele>
        <time>2019-11-16T12:14:55.000Z</time>
      </trkpt>
      <trkpt lat="48.42007" lon="2.48877">
        <ele>124.40000152588</ele>
        <time>2019-11-16T12:14:57.000Z</time>
      </trkpt>
      <trkpt lat="48.42012" lon="2.48877">
        <ele>125.59999847412</ele>
        <time>2019-11-16T12:14:59.000Z</time>
      </trkpt>
      <trkpt lat="48.42014" lon="2.48876">
        <ele>125.80000305176</ele>
        <time>2019-11-16T12:15:00.000Z</time>
      </trkpt>
      <trkpt lat="48.42019" lon="2.48875">
        <ele>126.19999694824</ele>
        <time>2019-11-16T12:15:02.000Z</time>
      </trkpt>
      <trkpt lat="48.42024" lon="2.48877">
        <ele>126.80000305176</ele>
        <time>2019-11-16T12:15:04.000Z</time>
      </trkpt>
      <trkpt lat="48.4203" lon="2.48879">
        <ele>127.80000305176</ele>
        <time>2019-11-16T12:15:07.000Z</time>
      </trkpt>
      <trkpt lat="48.42037" lon="2.48885">
        <ele>129.19999694824</ele>
        <time>2019-11-16T12:15:11.000Z</time>
      </trkpt>
      <trkpt lat="48.42043" lon="2.48892">
        <ele>129.80000305176</ele>
        <time>2019-11-16T12:15:14.000Z</time>
      </trkpt>
      <trkpt lat="48.42049" lon="2.48899">
        <ele>130.19999694824</ele>
        <time>2019-11-16T12:15:17.000Z</time>
      </trkpt>
      <trkpt lat="48.42053" lon="2.4891">
        <ele>130</ele>
        <time>2019-11-16T12:15:20.000Z</time>
      </trkpt>
      <trkpt lat="48.42054" lon="2.48922">
        <ele>130.60000610352</ele>
        <time>2019-11-16T12:15:23.000Z</time>
      </trkpt>
      <trkpt lat="48.42055" lon="2.48925">
        <ele>130.60000610352</ele>
        <time>2019-11-16T12:15:24.000Z</time>
      </trkpt>
      <trkpt lat="48.42056" lon="2.48939">
        <ele>131.19999694824</ele>
        <time>2019-11-16T12:15:28.000Z</time>
      </trkpt>
      <trkpt lat="48.42056" lon="2.48942">
        <ele>131.60000610352</ele>
        <time>2019-11-16T12:15:29.000Z</time>
      </trkpt>
      <trkpt lat="48.42055" lon="2.48947">
        <ele>132.39999389648</ele>
        <time>2019-11-16T12:15:31.000Z</time>
      </trkpt>
      <trkpt lat="48.42053" lon="2.48954">
        <ele>132.80000305176</ele>
        <time>2019-11-16T12:15:33.000Z</time>
      </trkpt>
      <trkpt lat="48.42051" lon="2.48969">
        <ele>133.39999389648</ele>
        <time>2019-11-16T12:15:37.000Z</time>
      </trkpt>
      <trkpt lat="48.4205" lon="2.48973">
        <ele>133.39999389648</ele>
        <time>2019-11-16T12:15:38.000Z</time>
      </trkpt>
      <trkpt lat="48.4205" lon="2.48981">
        <ele>134.60000610352</ele>
        <time>2019-11-16T12:15:41.000Z</time>
      </trkpt>
      <trkpt lat="48.42049" lon="2.48987">
        <ele>135</ele>
        <time>2019-11-16T12:15:43.000Z</time>
      </trkpt>
      <trkpt lat="48.42052" lon="2.48996">
        <ele>135.39999389648</ele>
        <time>2019-11-16T12:15:47.000Z</time>
      </trkpt>
      <trkpt lat="48.42053" lon="2.48999">
        <ele>135.60000610352</ele>
        <time>2019-11-16T12:15:48.000Z</time>
      </trkpt>
      <trkpt lat="48.42057" lon="2.49003">
        <ele>135.80000305176</ele>
        <time>2019-11-16T12:15:51.000Z</time>
      </trkpt>
      <trkpt lat="48.42054" lon="2.49017">
        <ele>135.80000305176</ele>
        <time>2019-11-16T12:15:55.000Z</time>
      </trkpt>
      <trkpt lat="48.42053" lon="2.49024">
        <ele>135.80000305176</ele>
        <time>2019-11-16T12:15:57.000Z</time>
      </trkpt>
      <trkpt lat="48.42049" lon="2.49037">
        <ele>135.60000610352</ele>
        <time>2019-11-16T12:16:01.000Z</time>
      </trkpt>
      <trkpt lat="48.42045" lon="2.49057">
        <ele>135.60000610352</ele>
        <time>2019-11-16T12:16:07.000Z</time>
      </trkpt>
      <trkpt lat="48.42043" lon="2.49081">
        <ele>135.39999389648</ele>
        <time>2019-11-16T12:16:13.000Z</time>
      </trkpt>
      <trkpt lat="48.42044" lon="2.49114">
        <ele>135.19999694824</ele>
        <time>2019-11-16T12:16:21.000Z</time>
      </trkpt>
      <trkpt lat="48.42041" lon="2.49132">
        <ele>135.39999389648</ele>
        <time>2019-11-16T12:16:26.000Z</time>
      </trkpt>
      <trkpt lat="48.42035" lon="2.49154">
        <ele>135.80000305176</ele>
        <time>2019-11-16T12:16:32.000Z</time>
      </trkpt>
      <trkpt lat="48.42028" lon="2.49175">
        <ele>135.39999389648</ele>
        <time>2019-11-16T12:16:39.000Z</time>
      </trkpt>
      <trkpt lat="48.4202" lon="2.49188">
        <ele>135</ele>
        <time>2019-11-16T12:16:46.000Z</time>
      </trkpt>
      <trkpt lat="48.42019" lon="2.49191">
        <ele>135.19999694824</ele>
        <time>2019-11-16T12:16:48.000Z</time>
      </trkpt>
      <trkpt lat="48.42017" lon="2.49198">
        <ele>135.39999389648</ele>
        <time>2019-11-16T12:16:51.000Z</time>
      </trkpt>
      <trkpt lat="48.42012" lon="2.49208">
        <ele>135.39999389648</ele>
        <time>2019-11-16T12:16:54.000Z</time>
      </trkpt>
      <trkpt lat="48.42008" lon="2.49216">
        <ele>135.39999389648</ele>
        <time>2019-11-16T12:16:56.000Z</time>
      </trkpt>
      <trkpt lat="48.42005" lon="2.49233">
        <ele>134.19999694824</ele>
        <time>2019-11-16T12:16:59.000Z</time>
      </trkpt>
      <trkpt lat="48.42006" lon="2.49239">
        <ele>134</ele>
        <time>2019-11-16T12:17:00.000Z</time>
      </trkpt>
      <trkpt lat="48.42005" lon="2.49248">
        <ele>134</ele>
        <time>2019-11-16T12:17:02.000Z</time>
      </trkpt>
      <trkpt lat="48.42" lon="2.49251">
        <ele>134.39999389648</ele>
        <time>2019-11-16T12:17:04.000Z</time>
      </trkpt>
      <trkpt lat="48.41993" lon="2.49258">
        <ele>135</ele>
        <time>2019-11-16T12:17:07.000Z</time>
      </trkpt>
      <trkpt lat="48.41987" lon="2.49269">
        <ele>135.19999694824</ele>
        <time>2019-11-16T12:17:11.000Z</time>
      </trkpt>
      <trkpt lat="48.41988" lon="2.49272">
        <ele>135.19999694824</ele>
        <time>2019-11-16T12:17:12.000Z</time>
      </trkpt>
      <trkpt lat="48.41987" lon="2.49286">
        <ele>135.19999694824</ele>
        <time>2019-11-16T12:17:16.000Z</time>
      </trkpt>
      <trkpt lat="48.41987" lon="2.49309">
        <ele>134.80000305176</ele>
        <time>2019-11-16T12:17:22.000Z</time>
      </trkpt>
      <trkpt lat="48.41987" lon="2.49325">
        <ele>133.80000305176</ele>
        <time>2019-11-16T12:17:25.000Z</time>
      </trkpt>
      <trkpt lat="48.41986" lon="2.49326">
        <ele>133.19999694824</ele>
        <time>2019-11-16T12:17:26.000Z</time>
      </trkpt>
      <trkpt lat="48.41985" lon="2.49327">
        <ele>132.60000610352</ele>
        <time>2019-11-16T12:17:27.000Z</time>
      </trkpt>
      <trkpt lat="48.41984" lon="2.49327">
        <ele>131.80000305176</ele>
        <time>2019-11-16T12:17:31.000Z</time>
      </trkpt>
      <trkpt lat="48.41985" lon="2.49326">
        <ele>131.60000610352</ele>
        <time>2019-11-16T12:17:35.000Z</time>
      </trkpt>
      <trkpt lat="48.41986" lon="2.49325">
        <ele>131.80000305176</ele>
        <time>2019-11-16T12:17:37.000Z</time>
      </trkpt>
      <trkpt lat="48.41987" lon="2.49323">
        <ele>132</ele>
        <time>2019-11-16T12:17:38.000Z</time>
      </trkpt>
      <trkpt lat="48.41994" lon="2.49324">
        <ele>132.39999389648</ele>
        <time>2019-11-16T12:17:42.000Z</time>
      </trkpt>
      <trkpt lat="48.41997" lon="2.49328">
        <ele>132.60000610352</ele>
        <time>2019-11-16T12:17:44.000Z</time>
      </trkpt>
      <trkpt lat="48.42" lon="2.49334">
        <ele>133.39999389648</ele>
        <time>2019-11-16T12:17:46.000Z</time>
      </trkpt>
      <trkpt lat="48.42001" lon="2.49336">
        <ele>133.80000305176</ele>
        <time>2019-11-16T12:17:47.000Z</time>
      </trkpt>
      <trkpt lat="48.42012" lon="2.4935">
        <ele>134.80000305176</ele>
        <time>2019-11-16T12:17:53.000Z</time>
      </trkpt>
      <trkpt lat="48.42024" lon="2.49368">
        <ele>135.60000610352</ele>
        <time>2019-11-16T12:17:59.000Z</time>
      </trkpt>
      <trkpt lat="48.42024" lon="2.49391">
        <ele>135.80000305176</ele>
        <time>2019-11-16T12:18:04.000Z</time>
      </trkpt>
      <trkpt lat="48.42022" lon="2.49401">
        <ele>135.80000305176</ele>
        <time>2019-11-16T12:18:07.000Z</time>
      </trkpt>
      <trkpt lat="48.42023" lon="2.49405">
        <ele>135.80000305176</ele>
        <time>2019-11-16T12:18:08.000Z</time>
      </trkpt>
      <trkpt lat="48.42024" lon="2.49407">
        <ele>135.80000305176</ele>
        <time>2019-11-16T12:18:09.000Z</time>
      </trkpt>
      <trkpt lat="48.42024" lon="2.49418">
        <ele>135.60000610352</ele>
        <time>2019-11-16T12:18:12.000Z</time>
      </trkpt>
      <trkpt lat="48.42024" lon="2.49422">
        <ele>135.39999389648</ele>
        <time>2019-11-16T12:18:13.000Z</time>
      </trkpt>
      <trkpt lat="48.42025" lon="2.49443">
        <ele>135.60000610352</ele>
        <time>2019-11-16T12:18:19.000Z</time>
      </trkpt>
      <trkpt lat="48.42026" lon="2.49466">
        <ele>135.80000305176</ele>
        <time>2019-11-16T12:18:25.000Z</time>
      </trkpt>
      <trkpt lat="48.42029" lon="2.49485">
        <ele>135.60000610352</ele>
        <time>2019-11-16T12:18:30.000Z</time>
      </trkpt>
      <trkpt lat="48.42032" lon="2.49489">
        <ele>135.39999389648</ele>
        <time>2019-11-16T12:18:32.000Z</time>
      </trkpt>
      <trkpt lat="48.42036" lon="2.49493">
        <ele>135.39999389648</ele>
        <time>2019-11-16T12:18:34.000Z</time>
      </trkpt>
      <trkpt lat="48.42046" lon="2.49506">
        <ele>135</ele>
        <time>2019-11-16T12:18:39.000Z</time>
      </trkpt>
      <trkpt lat="48.42047" lon="2.49511">
        <ele>134.60000610352</ele>
        <time>2019-11-16T12:18:40.000Z</time>
      </trkpt>
      <trkpt lat="48.4205" lon="2.4953">
        <ele>134.19999694824</ele>
        <time>2019-11-16T12:18:44.000Z</time>
      </trkpt>
      <trkpt lat="48.4205" lon="2.49565">
        <ele>134.19999694824</ele>
        <time>2019-11-16T12:18:51.000Z</time>
      </trkpt>
      <trkpt lat="48.4205" lon="2.49582">
        <ele>134</ele>
        <time>2019-11-16T12:18:55.000Z</time>
      </trkpt>
      <trkpt lat="48.42048" lon="2.49604">
        <ele>133.80000305176</ele>
        <time>2019-11-16T12:19:00.000Z</time>
      </trkpt>
      <trkpt lat="48.42047" lon="2.4961">
        <ele>133.60000610352</ele>
        <time>2019-11-16T12:19:01.000Z</time>
      </trkpt>
      <trkpt lat="48.42042" lon="2.49645">
        <ele>133.80000305176</ele>
        <time>2019-11-16T12:19:08.000Z</time>
      </trkpt>
      <trkpt lat="48.42035" lon="2.49682">
        <ele>133.80000305176</ele>
        <time>2019-11-16T12:19:15.000Z</time>
      </trkpt>
      <trkpt lat="48.42031" lon="2.49715">
        <ele>133.80000305176</ele>
        <time>2019-11-16T12:19:22.000Z</time>
      </trkpt>
      <trkpt lat="48.4203" lon="2.49734">
        <ele>133.60000610352</ele>
        <time>2019-11-16T12:19:27.000Z</time>
      </trkpt>
      <trkpt lat="48.42031" lon="2.49736">
        <ele>133.80000305176</ele>
        <time>2019-11-16T12:19:28.000Z</time>
      </trkpt>
      <trkpt lat="48.42039" lon="2.49737">
        <ele>134</ele>
        <time>2019-11-16T12:19:31.000Z</time>
      </trkpt>
      <trkpt lat="48.42043" lon="2.49737">
        <ele>133.80000305176</ele>
        <time>2019-11-16T12:19:32.000Z</time>
      </trkpt>
      <trkpt lat="48.42063" lon="2.4974">
        <ele>134</ele>
        <time>2019-11-16T12:19:37.000Z</time>
      </trkpt>
      <trkpt lat="48.42095" lon="2.49743">
        <ele>133.80000305176</ele>
        <time>2019-11-16T12:19:44.000Z</time>
      </trkpt>
      <trkpt lat="48.42108" lon="2.49749">
        <ele>133.60000610352</ele>
        <time>2019-11-16T12:19:47.000Z</time>
      </trkpt>
      <trkpt lat="48.42119" lon="2.4976">
        <ele>133.39999389648</ele>
        <time>2019-11-16T12:19:50.000Z</time>
      </trkpt>
      <trkpt lat="48.42127" lon="2.49772">
        <ele>133</ele>
        <time>2019-11-16T12:19:52.000Z</time>
      </trkpt>
      <trkpt lat="48.42128" lon="2.4978">
        <ele>132.80000305176</ele>
        <time>2019-11-16T12:19:53.000Z</time>
      </trkpt>
      <trkpt lat="48.42129" lon="2.49788">
        <ele>132.39999389648</ele>
        <time>2019-11-16T12:19:54.000Z</time>
      </trkpt>
      <trkpt lat="48.42123" lon="2.49813">
        <ele>131.80000305176</ele>
        <time>2019-11-16T12:19:58.000Z</time>
      </trkpt>
      <trkpt lat="48.42121" lon="2.49833">
        <ele>131.19999694824</ele>
        <time>2019-11-16T12:20:01.000Z</time>
      </trkpt>
      <trkpt lat="48.42124" lon="2.49842">
        <ele>130</ele>
        <time>2019-11-16T12:20:03.000Z</time>
      </trkpt>
      <trkpt lat="48.42126" lon="2.4985">
        <ele>129.60000610352</ele>
        <time>2019-11-16T12:20:04.000Z</time>
      </trkpt>
      <trkpt lat="48.4213" lon="2.49866">
        <ele>129</ele>
        <time>2019-11-16T12:20:06.000Z</time>
      </trkpt>
      <trkpt lat="48.42133" lon="2.49885">
        <ele>127.80000305176</ele>
        <time>2019-11-16T12:20:08.000Z</time>
      </trkpt>
      <trkpt lat="48.42133" lon="2.49896">
        <ele>127</ele>
        <time>2019-11-16T12:20:09.000Z</time>
      </trkpt>
      <trkpt lat="48.4213" lon="2.49906">
        <ele>126.19999694824</ele>
        <time>2019-11-16T12:20:10.000Z</time>
      </trkpt>
      <trkpt lat="48.42126" lon="2.49915">
        <ele>125</ele>
        <time>2019-11-16T12:20:11.000Z</time>
      </trkpt>
      <trkpt lat="48.42122" lon="2.49924">
        <ele>124.59999847412</ele>
        <time>2019-11-16T12:20:12.000Z</time>
      </trkpt>
      <trkpt lat="48.42117" lon="2.49944">
        <ele>124</ele>
        <time>2019-11-16T12:20:14.000Z</time>
      </trkpt>
      <trkpt lat="48.42116" lon="2.49955">
        <ele>123.40000152588</ele>
        <time>2019-11-16T12:20:15.000Z</time>
      </trkpt>
      <trkpt lat="48.42116" lon="2.49986">
        <ele>122.40000152588</ele>
        <time>2019-11-16T12:20:18.000Z</time>
      </trkpt>
      <trkpt lat="48.42115" lon="2.49994">
        <ele>122.40000152588</ele>
        <time>2019-11-16T12:20:19.000Z</time>
      </trkpt>
      <trkpt lat="48.42115" lon="2.5">
        <ele>122.40000152588</ele>
        <time>2019-11-16T12:20:20.000Z</time>
      </trkpt>
      <trkpt lat="48.42114" lon="2.5001">
        <ele>123</ele>
        <time>2019-11-16T12:20:22.000Z</time>
      </trkpt>
      <trkpt lat="48.42113" lon="2.50017">
        <ele>123.59999847412</ele>
        <time>2019-11-16T12:20:24.000Z</time>
      </trkpt>
      <trkpt lat="48.42109" lon="2.50027">
        <ele>125</ele>
        <time>2019-11-16T12:20:27.000Z</time>
      </trkpt>
      <trkpt lat="48.42108" lon="2.5003">
        <ele>126.19999694824</ele>
        <time>2019-11-16T12:20:30.000Z</time>
      </trkpt>
      <trkpt lat="48.42107" lon="2.50033">
        <ele>126.80000305176</ele>
        <time>2019-11-16T12:20:31.000Z</time>
      </trkpt>
      <trkpt lat="48.42107" lon="2.50034">
        <ele>127.19999694824</ele>
        <time>2019-11-16T12:20:33.000Z</time>
      </trkpt>
      <trkpt lat="48.42106" lon="2.50042">
        <ele>128.19999694824</ele>
        <time>2019-11-16T12:20:38.000Z</time>
      </trkpt>
      <trkpt lat="48.42106" lon="2.50046">
        <ele>128.39999389648</ele>
        <time>2019-11-16T12:20:39.000Z</time>
      </trkpt>
      <trkpt lat="48.42105" lon="2.50048">
        <ele>128.60000610352</ele>
        <time>2019-11-16T12:20:40.000Z</time>
      </trkpt>
      <trkpt lat="48.42103" lon="2.5005">
        <ele>128.80000305176</ele>
        <time>2019-11-16T12:20:41.000Z</time>
      </trkpt>
      <trkpt lat="48.42101" lon="2.50056">
        <ele>129.39999389648</ele>
        <time>2019-11-16T12:20:43.000Z</time>
      </trkpt>
      <trkpt lat="48.42101" lon="2.50059">
        <ele>129.80000305176</ele>
        <time>2019-11-16T12:20:44.000Z</time>
      </trkpt>
      <trkpt lat="48.42098" lon="2.50064">
        <ele>130.80000305176</ele>
        <time>2019-11-16T12:20:46.000Z</time>
      </trkpt>
      <trkpt lat="48.42096" lon="2.50066">
        <ele>131.19999694824</ele>
        <time>2019-11-16T12:20:47.000Z</time>
      </trkpt>
      <trkpt lat="48.42092" lon="2.5007">
        <ele>132</ele>
        <time>2019-11-16T12:20:49.000Z</time>
      </trkpt>
      <trkpt lat="48.42089" lon="2.50073">
        <ele>132.39999389648</ele>
        <time>2019-11-16T12:20:50.000Z</time>
      </trkpt>
      <trkpt lat="48.42082" lon="2.50087">
        <ele>133.19999694824</ele>
        <time>2019-11-16T12:20:55.000Z</time>
      </trkpt>
      <trkpt lat="48.42081" lon="2.5009">
        <ele>133.19999694824</ele>
        <time>2019-11-16T12:20:56.000Z</time>
      </trkpt>
      <trkpt lat="48.42074" lon="2.50115">
        <ele>133.39999389648</ele>
        <time>2019-11-16T12:21:01.000Z</time>
      </trkpt>
      <trkpt lat="48.42073" lon="2.50132">
        <ele>133.80000305176</ele>
        <time>2019-11-16T12:21:04.000Z</time>
      </trkpt>
      <trkpt lat="48.42073" lon="2.50142">
        <ele>134</ele>
        <time>2019-11-16T12:21:06.000Z</time>
      </trkpt>
      <trkpt lat="48.42076" lon="2.50159">
        <ele>134.39999389648</ele>
        <time>2019-11-16T12:21:09.000Z</time>
      </trkpt>
      <trkpt lat="48.42079" lon="2.50169">
        <ele>134.39999389648</ele>
        <time>2019-11-16T12:21:11.000Z</time>
      </trkpt>
      <trkpt lat="48.42086" lon="2.50199">
        <ele>134.80000305176</ele>
        <time>2019-11-16T12:21:16.000Z</time>
      </trkpt>
      <trkpt lat="48.42093" lon="2.50221">
        <ele>134.19999694824</ele>
        <time>2019-11-16T12:21:20.000Z</time>
      </trkpt>
      <trkpt lat="48.42097" lon="2.50252">
        <ele>134</ele>
        <time>2019-11-16T12:21:25.000Z</time>
      </trkpt>
      <trkpt lat="48.42095" lon="2.50269">
        <ele>134.60000610352</ele>
        <time>2019-11-16T12:21:28.000Z</time>
      </trkpt>
      <trkpt lat="48.42093" lon="2.50275">
        <ele>134.60000610352</ele>
        <time>2019-11-16T12:21:29.000Z</time>
      </trkpt>
      <trkpt lat="48.4209" lon="2.50291">
        <ele>135</ele>
        <time>2019-11-16T12:21:32.000Z</time>
      </trkpt>
      <trkpt lat="48.42091" lon="2.50297">
        <ele>135</ele>
        <time>2019-11-16T12:21:33.000Z</time>
      </trkpt>
      <trkpt lat="48.42098" lon="2.5032">
        <ele>135</ele>
        <time>2019-11-16T12:21:37.000Z</time>
      </trkpt>
      <trkpt lat="48.42101" lon="2.50333">
        <ele>135</ele>
        <time>2019-11-16T12:21:39.000Z</time>
      </trkpt>
      <trkpt lat="48.42105" lon="2.50353">
        <ele>135</ele>
        <time>2019-11-16T12:21:42.000Z</time>
      </trkpt>
      <trkpt lat="48.42103" lon="2.50372">
        <ele>135.19999694824</ele>
        <time>2019-11-16T12:21:45.000Z</time>
      </trkpt>
      <trkpt lat="48.42103" lon="2.50378">
        <ele>135.19999694824</ele>
        <time>2019-11-16T12:21:46.000Z</time>
      </trkpt>
      <trkpt lat="48.42104" lon="2.50399">
        <ele>135.19999694824</ele>
        <time>2019-11-16T12:21:50.000Z</time>
      </trkpt>
      <trkpt lat="48.421" lon="2.50421">
        <ele>135.19999694824</ele>
        <time>2019-11-16T12:21:54.000Z</time>
      </trkpt>
      <trkpt lat="48.42093" lon="2.50443">
        <ele>135.19999694824</ele>
        <time>2019-11-16T12:21:59.000Z</time>
      </trkpt>
      <trkpt lat="48.42084" lon="2.50472">
        <ele>135.19999694824</ele>
        <time>2019-11-16T12:22:04.000Z</time>
      </trkpt>
      <trkpt lat="48.42079" lon="2.5048">
        <ele>135.39999389648</ele>
        <time>2019-11-16T12:22:06.000Z</time>
      </trkpt>
      <trkpt lat="48.42075" lon="2.50488">
        <ele>135.19999694824</ele>
        <time>2019-11-16T12:22:08.000Z</time>
      </trkpt>
      <trkpt lat="48.42073" lon="2.50498">
        <ele>135</ele>
        <time>2019-11-16T12:22:11.000Z</time>
      </trkpt>
      <trkpt lat="48.42072" lon="2.50502">
        <ele>135</ele>
        <time>2019-11-16T12:22:12.000Z</time>
      </trkpt>
      <trkpt lat="48.42069" lon="2.50518">
        <ele>135.80000305176</ele>
        <time>2019-11-16T12:22:16.000Z</time>
      </trkpt>
      <trkpt lat="48.42069" lon="2.50523">
        <ele>135.39999389648</ele>
        <time>2019-11-16T12:22:18.000Z</time>
      </trkpt>
      <trkpt lat="48.42067" lon="2.5055">
        <ele>135.19999694824</ele>
        <time>2019-11-16T12:22:25.000Z</time>
      </trkpt>
      <trkpt lat="48.42068" lon="2.50583">
        <ele>135</ele>
        <time>2019-11-16T12:22:32.000Z</time>
      </trkpt>
      <trkpt lat="48.42067" lon="2.50609">
        <ele>135.19999694824</ele>
        <time>2019-11-16T12:22:38.000Z</time>
      </trkpt>
      <trkpt lat="48.42058" lon="2.50637">
        <ele>135.19999694824</ele>
        <time>2019-11-16T12:22:43.000Z</time>
      </trkpt>
      <trkpt lat="48.42056" lon="2.50647">
        <ele>135.19999694824</ele>
        <time>2019-11-16T12:22:45.000Z</time>
      </trkpt>
      <trkpt lat="48.42053" lon="2.50654">
        <ele>135.19999694824</ele>
        <time>2019-11-16T12:22:47.000Z</time>
      </trkpt>
      <trkpt lat="48.42059" lon="2.50666">
        <ele>135</ele>
        <time>2019-11-16T12:22:51.000Z</time>
      </trkpt>
      <trkpt lat="48.42071" lon="2.50668">
        <ele>134.60000610352</ele>
        <time>2019-11-16T12:22:55.000Z</time>
      </trkpt>
      <trkpt lat="48.42075" lon="2.50668">
        <ele>134</ele>
        <time>2019-11-16T12:22:56.000Z</time>
      </trkpt>
      <trkpt lat="48.4208" lon="2.50672">
        <ele>132.60000610352</ele>
        <time>2019-11-16T12:22:58.000Z</time>
      </trkpt>
      <trkpt lat="48.42081" lon="2.50674">
        <ele>131.39999389648</ele>
        <time>2019-11-16T12:22:59.000Z</time>
      </trkpt>
      <trkpt lat="48.42083" lon="2.50676">
        <ele>130</ele>
        <time>2019-11-16T12:23:02.000Z</time>
      </trkpt>
      <trkpt lat="48.42085" lon="2.50676">
        <ele>128.80000305176</ele>
        <time>2019-11-16T12:23:04.000Z</time>
      </trkpt>
      <trkpt lat="48.42086" lon="2.50676">
        <ele>128</ele>
        <time>2019-11-16T12:23:10.000Z</time>
      </trkpt>
      <trkpt lat="48.42086" lon="2.50676">
        <ele>128.19999694824</ele>
        <time>2019-11-16T12:23:20.000Z</time>
      </trkpt>
      <trkpt lat="48.42086" lon="2.50676">
        <ele>128.39999389648</ele>
        <time>2019-11-16T12:23:26.000Z</time>
      </trkpt>
      <trkpt lat="48.42088" lon="2.50678">
        <ele>128</ele>
        <time>2019-11-16T12:23:33.000Z</time>
      </trkpt>
      <trkpt lat="48.42089" lon="2.50678">
        <ele>127.80000305176</ele>
        <time>2019-11-16T12:23:35.000Z</time>
      </trkpt>
      <trkpt lat="48.42089" lon="2.50678">
        <ele>127.59999847412</ele>
        <time>2019-11-16T12:23:39.000Z</time>
      </trkpt>
      <trkpt lat="48.42089" lon="2.50677">
        <ele>127.59999847412</ele>
        <time>2019-11-16T12:23:48.000Z</time>
      </trkpt>
      <trkpt lat="48.42097" lon="2.50678">
        <ele>127</ele>
        <time>2019-11-16T12:23:51.000Z</time>
      </trkpt>
      <trkpt lat="48.42103" lon="2.50678">
        <ele>126</ele>
        <time>2019-11-16T12:23:52.000Z</time>
      </trkpt>
      <trkpt lat="48.42109" lon="2.50677">
        <ele>124.59999847412</ele>
        <time>2019-11-16T12:23:53.000Z</time>
      </trkpt>
      <trkpt lat="48.42116" lon="2.50675">
        <ele>122.80000305176</ele>
        <time>2019-11-16T12:23:54.000Z</time>
      </trkpt>
      <trkpt lat="48.42121" lon="2.50671">
        <ele>121.19999694824</ele>
        <time>2019-11-16T12:23:55.000Z</time>
      </trkpt>
      <trkpt lat="48.42125" lon="2.50668">
        <ele>119.40000152588</ele>
        <time>2019-11-16T12:23:56.000Z</time>
      </trkpt>
      <trkpt lat="48.42129" lon="2.50668">
        <ele>117.80000305176</ele>
        <time>2019-11-16T12:23:57.000Z</time>
      </trkpt>
      <trkpt lat="48.42132" lon="2.50665">
        <ele>116.19999694824</ele>
        <time>2019-11-16T12:23:58.000Z</time>
      </trkpt>
      <trkpt lat="48.42136" lon="2.50666">
        <ele>114.80000305176</ele>
        <time>2019-11-16T12:23:59.000Z</time>
      </trkpt>
      <trkpt lat="48.42139" lon="2.50666">
        <ele>113.59999847412</ele>
        <time>2019-11-16T12:24:00.000Z</time>
      </trkpt>
      <trkpt lat="48.42144" lon="2.50667">
        <ele>112</ele>
        <time>2019-11-16T12:24:02.000Z</time>
      </trkpt>
      <trkpt lat="48.42153" lon="2.50662">
        <ele>110.59999847412</ele>
        <time>2019-11-16T12:24:04.000Z</time>
      </trkpt>
      <trkpt lat="48.42162" lon="2.50657">
        <ele>109.40000152588</ele>
        <time>2019-11-16T12:24:06.000Z</time>
      </trkpt>
      <trkpt lat="48.42176" lon="2.50645">
        <ele>108.59999847412</ele>
        <time>2019-11-16T12:24:10.000Z</time>
      </trkpt>
      <trkpt lat="48.42178" lon="2.50644">
        <ele>110.19999694824</ele>
        <time>2019-11-16T12:24:13.000Z</time>
      </trkpt>
      <trkpt lat="48.42178" lon="2.50644">
        <ele>110.40000152588</ele>
        <time>2019-11-16T12:24:15.000Z</time>
      </trkpt>
      <trkpt lat="48.42179" lon="2.50643">
        <ele>110.40000152588</ele>
        <time>2019-11-16T12:24:22.000Z</time>
      </trkpt>
      <trkpt lat="48.42179" lon="2.50643">
        <ele>111</ele>
        <time>2019-11-16T12:24:32.000Z</time>
      </trkpt>
      <trkpt lat="48.4218" lon="2.50643">
        <ele>111</ele>
        <time>2019-11-16T12:24:33.000Z</time>
      </trkpt>
      <trkpt lat="48.42186" lon="2.50644">
        <ele>110.59999847412</ele>
        <time>2019-11-16T12:24:37.000Z</time>
      </trkpt>
      <trkpt lat="48.42189" lon="2.50642">
        <ele>110.80000305176</ele>
        <time>2019-11-16T12:24:41.000Z</time>
      </trkpt>
      <trkpt lat="48.4219" lon="2.50642">
        <ele>110.80000305176</ele>
        <time>2019-11-16T12:24:43.000Z</time>
      </trkpt>
      <trkpt lat="48.42194" lon="2.5064">
        <ele>110.40000152588</ele>
        <time>2019-11-16T12:24:45.000Z</time>
      </trkpt>
      <trkpt lat="48.42196" lon="2.5064">
        <ele>110</ele>
        <time>2019-11-16T12:24:47.000Z</time>
      </trkpt>
      <trkpt lat="48.422" lon="2.50641">
        <ele>109.59999847412</ele>
        <time>2019-11-16T12:24:48.000Z</time>
      </trkpt>
      <trkpt lat="48.42204" lon="2.50638">
        <ele>108.80000305176</ele>
        <time>2019-11-16T12:24:49.000Z</time>
      </trkpt>
      <trkpt lat="48.42212" lon="2.50637">
        <ele>107.19999694824</ele>
        <time>2019-11-16T12:24:51.000Z</time>
      </trkpt>
      <trkpt lat="48.42217" lon="2.50637">
        <ele>106.40000152588</ele>
        <time>2019-11-16T12:24:52.000Z</time>
      </trkpt>
      <trkpt lat="48.4222" lon="2.50637">
        <ele>105.59999847412</ele>
        <time>2019-11-16T12:24:53.000Z</time>
      </trkpt>
      <trkpt lat="48.42226" lon="2.50637">
        <ele>104.40000152588</ele>
        <time>2019-11-16T12:24:55.000Z</time>
      </trkpt>
      <trkpt lat="48.4223" lon="2.50636">
        <ele>103.80000305176</ele>
        <time>2019-11-16T12:24:56.000Z</time>
      </trkpt>
      <trkpt lat="48.42236" lon="2.50636">
        <ele>103.19999694824</ele>
        <time>2019-11-16T12:24:57.000Z</time>
      </trkpt>
      <trkpt lat="48.42245" lon="2.50645">
        <ele>101.40000152588</ele>
        <time>2019-11-16T12:24:59.000Z</time>
      </trkpt>
      <trkpt lat="48.42249" lon="2.50651">
        <ele>99.599998474121</ele>
        <time>2019-11-16T12:25:00.000Z</time>
      </trkpt>
      <trkpt lat="48.42249" lon="2.50664">
        <ele>99</ele>
        <time>2019-11-16T12:25:02.000Z</time>
      </trkpt>
      <trkpt lat="48.42244" lon="2.50681">
        <ele>98.599998474121</ele>
        <time>2019-11-16T12:25:05.000Z</time>
      </trkpt>
      <trkpt lat="48.4224" lon="2.50686">
        <ele>98.400001525879</ele>
        <time>2019-11-16T12:25:06.000Z</time>
      </trkpt>
      <trkpt lat="48.42236" lon="2.50693">
        <ele>98</ele>
        <time>2019-11-16T12:25:07.000Z</time>
      </trkpt>
      <trkpt lat="48.42233" lon="2.50699">
        <ele>97.599998474121</ele>
        <time>2019-11-16T12:25:08.000Z</time>
      </trkpt>
      <trkpt lat="48.42226" lon="2.5072">
        <ele>96.400001525879</ele>
        <time>2019-11-16T12:25:11.000Z</time>
      </trkpt>
      <trkpt lat="48.42224" lon="2.50728">
        <ele>95.800003051758</ele>
        <time>2019-11-16T12:25:12.000Z</time>
      </trkpt>
      <trkpt lat="48.42219" lon="2.50757">
        <ele>95.400001525879</ele>
        <time>2019-11-16T12:25:16.000Z</time>
      </trkpt>
      <trkpt lat="48.42219" lon="2.50766">
        <ele>95.199996948242</ele>
        <time>2019-11-16T12:25:17.000Z</time>
      </trkpt>
      <trkpt lat="48.42213" lon="2.50826">
        <ele>94.800003051758</ele>
        <time>2019-11-16T12:25:24.000Z</time>
      </trkpt>
      <trkpt lat="48.42212" lon="2.50859">
        <ele>94.199996948242</ele>
        <time>2019-11-16T12:25:28.000Z</time>
      </trkpt>
      <trkpt lat="48.4221" lon="2.50876">
        <ele>94.199996948242</ele>
        <time>2019-11-16T12:25:30.000Z</time>
      </trkpt>
      <trkpt lat="48.42209" lon="2.50885">
        <ele>94</ele>
        <time>2019-11-16T12:25:31.000Z</time>
      </trkpt>
      <trkpt lat="48.42203" lon="2.50933">
        <ele>93.199996948242</ele>
        <time>2019-11-16T12:25:37.000Z</time>
      </trkpt>
      <trkpt lat="48.42203" lon="2.50941">
        <ele>93.199996948242</ele>
        <time>2019-11-16T12:25:38.000Z</time>
      </trkpt>
      <trkpt lat="48.42201" lon="2.50971">
        <ele>93.199996948242</ele>
        <time>2019-11-16T12:25:42.000Z</time>
      </trkpt>
      <trkpt lat="48.422" lon="2.50986">
        <ele>92.800003051758</ele>
        <time>2019-11-16T12:25:44.000Z</time>
      </trkpt>
      <trkpt lat="48.42198" lon="2.50995">
        <ele>92.800003051758</ele>
        <time>2019-11-16T12:25:45.000Z</time>
      </trkpt>
      <trkpt lat="48.42195" lon="2.51013">
        <ele>92.599998474121</ele>
        <time>2019-11-16T12:25:47.000Z</time>
      </trkpt>
      <trkpt lat="48.42185" lon="2.51054">
        <ele>91.599998474121</ele>
        <time>2019-11-16T12:25:52.000Z</time>
      </trkpt>
      <trkpt lat="48.42183" lon="2.51061">
        <ele>91.599998474121</ele>
        <time>2019-11-16T12:25:53.000Z</time>
      </trkpt>
      <trkpt lat="48.42179" lon="2.51068">
        <ele>91.599998474121</ele>
        <time>2019-11-16T12:25:54.000Z</time>
      </trkpt>
      <trkpt lat="48.42169" lon="2.51092">
        <ele>92.400001525879</ele>
        <time>2019-11-16T12:25:58.000Z</time>
      </trkpt>
      <trkpt lat="48.42168" lon="2.51099">
        <ele>92.400001525879</ele>
        <time>2019-11-16T12:25:59.000Z</time>
      </trkpt>
      <trkpt lat="48.4217" lon="2.51116">
        <ele>92.199996948242</ele>
        <time>2019-11-16T12:26:01.000Z</time>
      </trkpt>
      <trkpt lat="48.42174" lon="2.51132">
        <ele>91.800003051758</ele>
        <time>2019-11-16T12:26:03.000Z</time>
      </trkpt>
      <trkpt lat="48.42176" lon="2.51146">
        <ele>91.400001525879</ele>
        <time>2019-11-16T12:26:05.000Z</time>
      </trkpt>
      <trkpt lat="48.42176" lon="2.51154">
        <ele>91.199996948242</ele>
        <time>2019-11-16T12:26:06.000Z</time>
      </trkpt>
      <trkpt lat="48.42174" lon="2.5117">
        <ele>90.599998474121</ele>
        <time>2019-11-16T12:26:08.000Z</time>
      </trkpt>
      <trkpt lat="48.4217" lon="2.5119">
        <ele>89.800003051758</ele>
        <time>2019-11-16T12:26:11.000Z</time>
      </trkpt>
      <trkpt lat="48.42165" lon="2.51201">
        <ele>90</ele>
        <time>2019-11-16T12:26:13.000Z</time>
      </trkpt>
      <trkpt lat="48.42156" lon="2.51211">
        <ele>90.199996948242</ele>
        <time>2019-11-16T12:26:15.000Z</time>
      </trkpt>
      <trkpt lat="48.42153" lon="2.51216">
        <ele>90.199996948242</ele>
        <time>2019-11-16T12:26:16.000Z</time>
      </trkpt>
      <trkpt lat="48.42147" lon="2.51237">
        <ele>90</ele>
        <time>2019-11-16T12:26:19.000Z</time>
      </trkpt>
      <trkpt lat="48.42144" lon="2.51252">
        <ele>90</ele>
        <time>2019-11-16T12:26:21.000Z</time>
      </trkpt>
      <trkpt lat="48.4214" lon="2.51273">
        <ele>89.599998474121</ele>
        <time>2019-11-16T12:26:24.000Z</time>
      </trkpt>
      <trkpt lat="48.42139" lon="2.51281">
        <ele>89.400001525879</ele>
        <time>2019-11-16T12:26:25.000Z</time>
      </trkpt>
      <trkpt lat="48.42137" lon="2.51319">
        <ele>89</ele>
        <time>2019-11-16T12:26:29.000Z</time>
      </trkpt>
      <trkpt lat="48.42131" lon="2.5138">
        <ele>88.400001525879</ele>
        <time>2019-11-16T12:26:36.000Z</time>
      </trkpt>
      <trkpt lat="48.42126" lon="2.51407">
        <ele>88.400001525879</ele>
        <time>2019-11-16T12:26:39.000Z</time>
      </trkpt>
      <trkpt lat="48.42121" lon="2.51425">
        <ele>88.599998474121</ele>
        <time>2019-11-16T12:26:41.000Z</time>
      </trkpt>
      <trkpt lat="48.42106" lon="2.51448">
        <ele>88.599998474121</ele>
        <time>2019-11-16T12:26:45.000Z</time>
      </trkpt>
      <trkpt lat="48.42096" lon="2.51477">
        <ele>89.199996948242</ele>
        <time>2019-11-16T12:26:49.000Z</time>
      </trkpt>
      <trkpt lat="48.42094" lon="2.51506">
        <ele>88.800003051758</ele>
        <time>2019-11-16T12:26:53.000Z</time>
      </trkpt>
      <trkpt lat="48.42095" lon="2.51514">
        <ele>88.599998474121</ele>
        <time>2019-11-16T12:26:54.000Z</time>
      </trkpt>
      <trkpt lat="48.421" lon="2.51537">
        <ele>88.599998474121</ele>
        <time>2019-11-16T12:26:57.000Z</time>
      </trkpt>
      <trkpt lat="48.42101" lon="2.51576">
        <ele>88.599998474121</ele>
        <time>2019-11-16T12:27:02.000Z</time>
      </trkpt>
      <trkpt lat="48.42098" lon="2.51624">
        <ele>88.400001525879</ele>
        <time>2019-11-16T12:27:08.000Z</time>
      </trkpt>
      <trkpt lat="48.42091" lon="2.51672">
        <ele>88.199996948242</ele>
        <time>2019-11-16T12:27:14.000Z</time>
      </trkpt>
      <trkpt lat="48.42089" lon="2.51688">
        <ele>88</ele>
        <time>2019-11-16T12:27:16.000Z</time>
      </trkpt>
      <trkpt lat="48.42085" lon="2.51713">
        <ele>87.800003051758</ele>
        <time>2019-11-16T12:27:19.000Z</time>
      </trkpt>
      <trkpt lat="48.42082" lon="2.51728">
        <ele>87.599998474121</ele>
        <time>2019-11-16T12:27:21.000Z</time>
      </trkpt>
      <trkpt lat="48.42072" lon="2.51746">
        <ele>87.400001525879</ele>
        <time>2019-11-16T12:27:24.000Z</time>
      </trkpt>
      <trkpt lat="48.42064" lon="2.5174">
        <ele>87</ele>
        <time>2019-11-16T12:27:27.000Z</time>
      </trkpt>
      <trkpt lat="48.42056" lon="2.51729">
        <ele>87.199996948242</ele>
        <time>2019-11-16T12:27:30.000Z</time>
      </trkpt>
      <trkpt lat="48.42051" lon="2.51716">
        <ele>87.800003051758</ele>
        <time>2019-11-16T12:27:33.000Z</time>
      </trkpt>
      <trkpt lat="48.42045" lon="2.51705">
        <ele>88.400001525879</ele>
        <time>2019-11-16T12:27:36.000Z</time>
      </trkpt>
      <trkpt lat="48.42043" lon="2.51701">
        <ele>88.599998474121</ele>
        <time>2019-11-16T12:27:37.000Z</time>
      </trkpt>
      <trkpt lat="48.42033" lon="2.51689">
        <ele>89.599998474121</ele>
        <time>2019-11-16T12:27:41.000Z</time>
      </trkpt>
      <trkpt lat="48.42026" lon="2.51679">
        <ele>90.199996948242</ele>
        <time>2019-11-16T12:27:44.000Z</time>
      </trkpt>
      <trkpt lat="48.42022" lon="2.51672">
        <ele>90.800003051758</ele>
        <time>2019-11-16T12:27:46.000Z</time>
      </trkpt>
      <trkpt lat="48.42015" lon="2.5166">
        <ele>91.800003051758</ele>
        <time>2019-11-16T12:27:49.000Z</time>
      </trkpt>
      <trkpt lat="48.42014" lon="2.51656">
        <ele>92</ele>
        <time>2019-11-16T12:27:50.000Z</time>
      </trkpt>
      <trkpt lat="48.42008" lon="2.51637">
        <ele>93</ele>
        <time>2019-11-16T12:27:54.000Z</time>
      </trkpt>
      <trkpt lat="48.42008" lon="2.51634">
        <ele>93.199996948242</ele>
        <time>2019-11-16T12:27:55.000Z</time>
      </trkpt>
      <trkpt lat="48.42006" lon="2.5162">
        <ele>94.400001525879</ele>
        <time>2019-11-16T12:27:58.000Z</time>
      </trkpt>
      <trkpt lat="48.42003" lon="2.51611">
        <ele>95.400001525879</ele>
        <time>2019-11-16T12:28:01.000Z</time>
      </trkpt>
      <trkpt lat="48.41996" lon="2.51603">
        <ele>96.599998474121</ele>
        <time>2019-11-16T12:28:04.000Z</time>
      </trkpt>
      <trkpt lat="48.4199" lon="2.51594">
        <ele>97.800003051758</ele>
        <time>2019-11-16T12:28:07.000Z</time>
      </trkpt>
      <trkpt lat="48.4198" lon="2.51586">
        <ele>98.800003051758</ele>
        <time>2019-11-16T12:28:11.000Z</time>
      </trkpt>
      <trkpt lat="48.41975" lon="2.51582">
        <ele>99.599998474121</ele>
        <time>2019-11-16T12:28:13.000Z</time>
      </trkpt>
      <trkpt lat="48.41973" lon="2.5158">
        <ele>99.800003051758</ele>
        <time>2019-11-16T12:28:14.000Z</time>
      </trkpt>
      <trkpt lat="48.41966" lon="2.51573">
        <ele>101.19999694824</ele>
        <time>2019-11-16T12:28:18.000Z</time>
      </trkpt>
      <trkpt lat="48.41964" lon="2.51571">
        <ele>101.80000305176</ele>
        <time>2019-11-16T12:28:19.000Z</time>
      </trkpt>
      <trkpt lat="48.4196" lon="2.51566">
        <ele>102.19999694824</ele>
        <time>2019-11-16T12:28:21.000Z</time>
      </trkpt>
      <trkpt lat="48.41956" lon="2.51563">
        <ele>103.40000152588</ele>
        <time>2019-11-16T12:28:24.000Z</time>
      </trkpt>
      <trkpt lat="48.41952" lon="2.51562">
        <ele>103.80000305176</ele>
        <time>2019-11-16T12:28:26.000Z</time>
      </trkpt>
      <trkpt lat="48.41948" lon="2.51561">
        <ele>104.40000152588</ele>
        <time>2019-11-16T12:28:28.000Z</time>
      </trkpt>
      <trkpt lat="48.41943" lon="2.5156">
        <ele>105.40000152588</ele>
        <time>2019-11-16T12:28:31.000Z</time>
      </trkpt>
      <trkpt lat="48.41937" lon="2.51559">
        <ele>107</ele>
        <time>2019-11-16T12:28:35.000Z</time>
      </trkpt>
      <trkpt lat="48.41933" lon="2.51558">
        <ele>108.40000152588</ele>
        <time>2019-11-16T12:28:37.000Z</time>
      </trkpt>
      <trkpt lat="48.41932" lon="2.51557">
        <ele>108.59999847412</ele>
        <time>2019-11-16T12:28:38.000Z</time>
      </trkpt>
      <trkpt lat="48.41929" lon="2.51555">
        <ele>109.59999847412</ele>
        <time>2019-11-16T12:28:41.000Z</time>
      </trkpt>
      <trkpt lat="48.41924" lon="2.51553">
        <ele>110.80000305176</ele>
        <time>2019-11-16T12:28:44.000Z</time>
      </trkpt>
      <trkpt lat="48.41922" lon="2.51552">
        <ele>111</ele>
        <time>2019-11-16T12:28:45.000Z</time>
      </trkpt>
      <trkpt lat="48.41917" lon="2.5155">
        <ele>112.19999694824</ele>
        <time>2019-11-16T12:28:48.000Z</time>
      </trkpt>
      <trkpt lat="48.41913" lon="2.51547">
        <ele>113.40000152588</ele>
        <time>2019-11-16T12:28:51.000Z</time>
      </trkpt>
      <trkpt lat="48.41912" lon="2.51545">
        <ele>113.80000305176</ele>
        <time>2019-11-16T12:28:52.000Z</time>
      </trkpt>
      <trkpt lat="48.41909" lon="2.51543">
        <ele>114.59999847412</ele>
        <time>2019-11-16T12:28:54.000Z</time>
      </trkpt>
      <trkpt lat="48.41903" lon="2.51539">
        <ele>116</ele>
        <time>2019-11-16T12:28:58.000Z</time>
      </trkpt>
      <trkpt lat="48.419" lon="2.51537">
        <ele>117.40000152588</ele>
        <time>2019-11-16T12:29:00.000Z</time>
      </trkpt>
      <trkpt lat="48.41899" lon="2.51534">
        <ele>117.80000305176</ele>
        <time>2019-11-16T12:29:01.000Z</time>
      </trkpt>
      <trkpt lat="48.41897" lon="2.51531">
        <ele>118</ele>
        <time>2019-11-16T12:29:03.000Z</time>
      </trkpt>
      <trkpt lat="48.41895" lon="2.51527">
        <ele>118.59999847412</ele>
        <time>2019-11-16T12:29:05.000Z</time>
      </trkpt>
      <trkpt lat="48.41894" lon="2.51521">
        <ele>119.59999847412</ele>
        <time>2019-11-16T12:29:07.000Z</time>
      </trkpt>
      <trkpt lat="48.41894" lon="2.51519">
        <ele>120</ele>
        <time>2019-11-16T12:29:08.000Z</time>
      </trkpt>
      <trkpt lat="48.41893" lon="2.51514">
        <ele>120.80000305176</ele>
        <time>2019-11-16T12:29:10.000Z</time>
      </trkpt>
      <trkpt lat="48.41892" lon="2.51512">
        <ele>121.59999847412</ele>
        <time>2019-11-16T12:29:12.000Z</time>
      </trkpt>
      <trkpt lat="48.41891" lon="2.5151">
        <ele>122</ele>
        <time>2019-11-16T12:29:13.000Z</time>
      </trkpt>
      <trkpt lat="48.41888" lon="2.51504">
        <ele>123.40000152588</ele>
        <time>2019-11-16T12:29:16.000Z</time>
      </trkpt>
      <trkpt lat="48.41886" lon="2.51501">
        <ele>124.19999694824</ele>
        <time>2019-11-16T12:29:18.000Z</time>
      </trkpt>
      <trkpt lat="48.41885" lon="2.51501">
        <ele>124.59999847412</ele>
        <time>2019-11-16T12:29:19.000Z</time>
      </trkpt>
      <trkpt lat="48.41884" lon="2.51498">
        <ele>125.59999847412</ele>
        <time>2019-11-16T12:29:22.000Z</time>
      </trkpt>
      <trkpt lat="48.41884" lon="2.51499">
        <ele>125.80000305176</ele>
        <time>2019-11-16T12:29:23.000Z</time>
      </trkpt>
      <trkpt lat="48.41883" lon="2.51496">
        <ele>127</ele>
        <time>2019-11-16T12:29:25.000Z</time>
      </trkpt>
      <trkpt lat="48.41877" lon="2.51488">
        <ele>127.59999847412</ele>
        <time>2019-11-16T12:29:29.000Z</time>
      </trkpt>
      <trkpt lat="48.41876" lon="2.51487">
        <ele>128</ele>
        <time>2019-11-16T12:29:30.000Z</time>
      </trkpt>
      <trkpt lat="48.41866" lon="2.51473">
        <ele>127.80000305176</ele>
        <time>2019-11-16T12:29:36.000Z</time>
      </trkpt>
      <trkpt lat="48.41856" lon="2.51465">
        <ele>127.80000305176</ele>
        <time>2019-11-16T12:29:42.000Z</time>
      </trkpt>
      <trkpt lat="48.41849" lon="2.51462">
        <ele>129</ele>
        <time>2019-11-16T12:29:47.000Z</time>
      </trkpt>
      <trkpt lat="48.41847" lon="2.51461">
        <ele>130</ele>
        <time>2019-11-16T12:29:48.000Z</time>
      </trkpt>
      <trkpt lat="48.41846" lon="2.5146">
        <ele>130.19999694824</ele>
        <time>2019-11-16T12:29:49.000Z</time>
      </trkpt>
      <trkpt lat="48.41841" lon="2.51452">
        <ele>131</ele>
        <time>2019-11-16T12:29:53.000Z</time>
      </trkpt>
      <trkpt lat="48.41832" lon="2.51447">
        <ele>130.60000610352</ele>
        <time>2019-11-16T12:29:56.000Z</time>
      </trkpt>
      <trkpt lat="48.4183" lon="2.51438">
        <ele>130.80000305176</ele>
        <time>2019-11-16T12:29:59.000Z</time>
      </trkpt>
      <trkpt lat="48.4183" lon="2.51435">
        <ele>131</ele>
        <time>2019-11-16T12:30:00.000Z</time>
      </trkpt>
      <trkpt lat="48.41829" lon="2.51433">
        <ele>131.60000610352</ele>
        <time>2019-11-16T12:30:01.000Z</time>
      </trkpt>
      <trkpt lat="48.41829" lon="2.51431">
        <ele>132</ele>
        <time>2019-11-16T12:30:02.000Z</time>
      </trkpt>
      <trkpt lat="48.41828" lon="2.51425">
        <ele>132.39999389648</ele>
        <time>2019-11-16T12:30:04.000Z</time>
      </trkpt>
      <trkpt lat="48.41829" lon="2.51422">
        <ele>132.60000610352</ele>
        <time>2019-11-16T12:30:05.000Z</time>
      </trkpt>
      <trkpt lat="48.41827" lon="2.51406">
        <ele>133.39999389648</ele>
        <time>2019-11-16T12:30:09.000Z</time>
      </trkpt>
      <trkpt lat="48.41826" lon="2.51399">
        <ele>134</ele>
        <time>2019-11-16T12:30:11.000Z</time>
      </trkpt>
      <trkpt lat="48.41829" lon="2.51391">
        <ele>134.60000610352</ele>
        <time>2019-11-16T12:30:14.000Z</time>
      </trkpt>
      <trkpt lat="48.41842" lon="2.51389">
        <ele>133.80000305176</ele>
        <time>2019-11-16T12:30:18.000Z</time>
      </trkpt>
      <trkpt lat="48.41845" lon="2.51388">
        <ele>133.60000610352</ele>
        <time>2019-11-16T12:30:19.000Z</time>
      </trkpt>
      <trkpt lat="48.41857" lon="2.51373">
        <ele>133.19999694824</ele>
        <time>2019-11-16T12:30:23.000Z</time>
      </trkpt>
      <trkpt lat="48.4186" lon="2.51363">
        <ele>133</ele>
        <time>2019-11-16T12:30:24.000Z</time>
      </trkpt>
      <trkpt lat="48.41862" lon="2.51355">
        <ele>132.60000610352</ele>
        <time>2019-11-16T12:30:25.000Z</time>
      </trkpt>
      <trkpt lat="48.41863" lon="2.51348">
        <ele>132.39999389648</ele>
        <time>2019-11-16T12:30:26.000Z</time>
      </trkpt>
      <trkpt lat="48.41866" lon="2.51331">
        <ele>132.80000305176</ele>
        <time>2019-11-16T12:30:29.000Z</time>
      </trkpt>
      <trkpt lat="48.41867" lon="2.51325">
        <ele>133</ele>
        <time>2019-11-16T12:30:30.000Z</time>
      </trkpt>
      <trkpt lat="48.41874" lon="2.51296">
        <ele>133.39999389648</ele>
        <time>2019-11-16T12:30:34.000Z</time>
      </trkpt>
      <trkpt lat="48.41876" lon="2.51289">
        <ele>133.19999694824</ele>
        <time>2019-11-16T12:30:35.000Z</time>
      </trkpt>
      <trkpt lat="48.41881" lon="2.51269">
        <ele>133.39999389648</ele>
        <time>2019-11-16T12:30:38.000Z</time>
      </trkpt>
      <trkpt lat="48.41884" lon="2.51263">
        <ele>133.60000610352</ele>
        <time>2019-11-16T12:30:39.000Z</time>
      </trkpt>
      <trkpt lat="48.41889" lon="2.51247">
        <ele>133.39999389648</ele>
        <time>2019-11-16T12:30:42.000Z</time>
      </trkpt>
      <trkpt lat="48.41889" lon="2.51238">
        <ele>133.80000305176</ele>
        <time>2019-11-16T12:30:44.000Z</time>
      </trkpt>
      <trkpt lat="48.4189" lon="2.51235">
        <ele>133.80000305176</ele>
        <time>2019-11-16T12:30:45.000Z</time>
      </trkpt>
      <trkpt lat="48.41895" lon="2.51212">
        <ele>134.19999694824</ele>
        <time>2019-11-16T12:30:49.000Z</time>
      </trkpt>
      <trkpt lat="48.41896" lon="2.51206">
        <ele>134</ele>
        <time>2019-11-16T12:30:50.000Z</time>
      </trkpt>
      <trkpt lat="48.41898" lon="2.51183">
        <ele>134</ele>
        <time>2019-11-16T12:30:54.000Z</time>
      </trkpt>
      <trkpt lat="48.41903" lon="2.51165">
        <ele>134.19999694824</ele>
        <time>2019-11-16T12:30:57.000Z</time>
      </trkpt>
      <trkpt lat="48.41906" lon="2.51153">
        <ele>134.19999694824</ele>
        <time>2019-11-16T12:30:59.000Z</time>
      </trkpt>
      <trkpt lat="48.41912" lon="2.51131">
        <ele>134</ele>
        <time>2019-11-16T12:31:03.000Z</time>
      </trkpt>
      <trkpt lat="48.41917" lon="2.51106">
        <ele>134.19999694824</ele>
        <time>2019-11-16T12:31:07.000Z</time>
      </trkpt>
      <trkpt lat="48.41923" lon="2.51082">
        <ele>134.39999389648</ele>
        <time>2019-11-16T12:31:11.000Z</time>
      </trkpt>
      <trkpt lat="48.41924" lon="2.51075">
        <ele>134.39999389648</ele>
        <time>2019-11-16T12:31:12.000Z</time>
      </trkpt>
      <trkpt lat="48.41926" lon="2.51054">
        <ele>134.19999694824</ele>
        <time>2019-11-16T12:31:15.000Z</time>
      </trkpt>
      <trkpt lat="48.41931" lon="2.51042">
        <ele>133.80000305176</ele>
        <time>2019-11-16T12:31:17.000Z</time>
      </trkpt>
      <trkpt lat="48.41935" lon="2.51025">
        <ele>134</ele>
        <time>2019-11-16T12:31:20.000Z</time>
      </trkpt>
      <trkpt lat="48.41937" lon="2.5102">
        <ele>134</ele>
        <time>2019-11-16T12:31:21.000Z</time>
      </trkpt>
      <trkpt lat="48.41947" lon="2.50981">
        <ele>134</ele>
        <time>2019-11-16T12:31:27.000Z</time>
      </trkpt>
      <trkpt lat="48.41949" lon="2.50968">
        <ele>134</ele>
        <time>2019-11-16T12:31:29.000Z</time>
      </trkpt>
      <trkpt lat="48.41951" lon="2.50954">
        <ele>134.19999694824</ele>
        <time>2019-11-16T12:31:31.000Z</time>
      </trkpt>
      <trkpt lat="48.41959" lon="2.50913">
        <ele>134.60000610352</ele>
        <time>2019-11-16T12:31:37.000Z</time>
      </trkpt>
      <trkpt lat="48.4196" lon="2.50906">
        <ele>134.60000610352</ele>
        <time>2019-11-16T12:31:38.000Z</time>
      </trkpt>
      <trkpt lat="48.41965" lon="2.50884">
        <ele>134.60000610352</ele>
        <time>2019-11-16T12:31:41.000Z</time>
      </trkpt>
      <trkpt lat="48.41966" lon="2.50872">
        <ele>134.39999389648</ele>
        <time>2019-11-16T12:31:43.000Z</time>
      </trkpt>
      <trkpt lat="48.41965" lon="2.50869">
        <ele>134.39999389648</ele>
        <time>2019-11-16T12:31:46.000Z</time>
      </trkpt>
      <trkpt lat="48.41967" lon="2.50864">
        <ele>134.39999389648</ele>
        <time>2019-11-16T12:31:47.000Z</time>
      </trkpt>
      <trkpt lat="48.41971" lon="2.50856">
        <ele>133.80000305176</ele>
        <time>2019-11-16T12:31:49.000Z</time>
      </trkpt>
      <trkpt lat="48.41974" lon="2.50835">
        <ele>133</ele>
        <time>2019-11-16T12:31:52.000Z</time>
      </trkpt>
      <trkpt lat="48.41975" lon="2.50821">
        <ele>132.39999389648</ele>
        <time>2019-11-16T12:31:54.000Z</time>
      </trkpt>
      <trkpt lat="48.41975" lon="2.5081">
        <ele>132.19999694824</ele>
        <time>2019-11-16T12:31:56.000Z</time>
      </trkpt>
      <trkpt lat="48.41978" lon="2.50806">
        <ele>132.60000610352</ele>
        <time>2019-11-16T12:31:57.000Z</time>
      </trkpt>
      <trkpt lat="48.41983" lon="2.50801">
        <ele>133.39999389648</ele>
        <time>2019-11-16T12:31:59.000Z</time>
      </trkpt>
      <trkpt lat="48.41985" lon="2.50798">
        <ele>133.80000305176</ele>
        <time>2019-11-16T12:32:00.000Z</time>
      </trkpt>
      <trkpt lat="48.41989" lon="2.50784">
        <ele>134.60000610352</ele>
        <time>2019-11-16T12:32:03.000Z</time>
      </trkpt>
      <trkpt lat="48.41989" lon="2.50778">
        <ele>134.60000610352</ele>
        <time>2019-11-16T12:32:04.000Z</time>
      </trkpt>
      <trkpt lat="48.41995" lon="2.50757">
        <ele>134.39999389648</ele>
        <time>2019-11-16T12:32:08.000Z</time>
      </trkpt>
      <trkpt lat="48.41995" lon="2.50751">
        <ele>134.39999389648</ele>
        <time>2019-11-16T12:32:09.000Z</time>
      </trkpt>
      <trkpt lat="48.41999" lon="2.5073">
        <ele>135</ele>
        <time>2019-11-16T12:32:13.000Z</time>
      </trkpt>
      <trkpt lat="48.42" lon="2.50725">
        <ele>135.19999694824</ele>
        <time>2019-11-16T12:32:14.000Z</time>
      </trkpt>
      <trkpt lat="48.42006" lon="2.50701">
        <ele>135.39999389648</ele>
        <time>2019-11-16T12:32:19.000Z</time>
      </trkpt>
      <trkpt lat="48.42003" lon="2.50698">
        <ele>135.19999694824</ele>
        <time>2019-11-16T12:32:22.000Z</time>
      </trkpt>
      <trkpt lat="48.41986" lon="2.50701">
        <ele>135.60000610352</ele>
        <time>2019-11-16T12:32:27.000Z</time>
      </trkpt>
      <trkpt lat="48.41969" lon="2.50705">
        <ele>135.80000305176</ele>
        <time>2019-11-16T12:32:31.000Z</time>
      </trkpt>
      <trkpt lat="48.41959" lon="2.50708">
        <ele>135.80000305176</ele>
        <time>2019-11-16T12:32:33.000Z</time>
      </trkpt>
      <trkpt lat="48.41922" lon="2.50719">
        <ele>135.80000305176</ele>
        <time>2019-11-16T12:32:40.000Z</time>
      </trkpt>
      <trkpt lat="48.41909" lon="2.50726">
        <ele>136.19999694824</ele>
        <time>2019-11-16T12:32:43.000Z</time>
      </trkpt>
      <trkpt lat="48.41904" lon="2.50726">
        <ele>136.39999389648</ele>
        <time>2019-11-16T12:32:44.000Z</time>
      </trkpt>
      <trkpt lat="48.4189" lon="2.5073">
        <ele>136.60000610352</ele>
        <time>2019-11-16T12:32:47.000Z</time>
      </trkpt>
      <trkpt lat="48.4188" lon="2.50732">
        <ele>137</ele>
        <time>2019-11-16T12:32:49.000Z</time>
      </trkpt>
      <trkpt lat="48.41876" lon="2.50733">
        <ele>137.19999694824</ele>
        <time>2019-11-16T12:32:50.000Z</time>
      </trkpt>
      <trkpt lat="48.41867" lon="2.50738">
        <ele>137.19999694824</ele>
        <time>2019-11-16T12:32:52.000Z</time>
      </trkpt>
      <trkpt lat="48.41853" lon="2.50743">
        <ele>137.60000610352</ele>
        <time>2019-11-16T12:32:55.000Z</time>
      </trkpt>
      <trkpt lat="48.41849" lon="2.50743">
        <ele>137.80000305176</ele>
        <time>2019-11-16T12:32:56.000Z</time>
      </trkpt>
      <trkpt lat="48.41835" lon="2.50748">
        <ele>138.19999694824</ele>
        <time>2019-11-16T12:32:59.000Z</time>
      </trkpt>
      <trkpt lat="48.41826" lon="2.50752">
        <ele>138.39999389648</ele>
        <time>2019-11-16T12:33:01.000Z</time>
      </trkpt>
      <trkpt lat="48.41797" lon="2.50762">
        <ele>139.19999694824</ele>
        <time>2019-11-16T12:33:08.000Z</time>
      </trkpt>
      <trkpt lat="48.41789" lon="2.50764">
        <ele>139.39999389648</ele>
        <time>2019-11-16T12:33:10.000Z</time>
      </trkpt>
      <trkpt lat="48.41767" lon="2.50771">
        <ele>139.39999389648</ele>
        <time>2019-11-16T12:33:15.000Z</time>
      </trkpt>
      <trkpt lat="48.41752" lon="2.50777">
        <ele>139.60000610352</ele>
        <time>2019-11-16T12:33:18.000Z</time>
      </trkpt>
      <trkpt lat="48.41735" lon="2.50781">
        <ele>139.80000305176</ele>
        <time>2019-11-16T12:33:21.000Z</time>
      </trkpt>
      <trkpt lat="48.41714" lon="2.50789">
        <ele>140.19999694824</ele>
        <time>2019-11-16T12:33:26.000Z</time>
      </trkpt>
      <trkpt lat="48.41707" lon="2.50789">
        <ele>140.19999694824</ele>
        <time>2019-11-16T12:33:28.000Z</time>
      </trkpt>
      <trkpt lat="48.41701" lon="2.50782">
        <ele>140</ele>
        <time>2019-11-16T12:33:30.000Z</time>
      </trkpt>
      <trkpt lat="48.41701" lon="2.50768">
        <ele>140</ele>
        <time>2019-11-16T12:33:33.000Z</time>
      </trkpt>
      <trkpt lat="48.41704" lon="2.50731">
        <ele>140</ele>
        <time>2019-11-16T12:33:39.000Z</time>
      </trkpt>
      <trkpt lat="48.41703" lon="2.50722">
        <ele>139.80000305176</ele>
        <time>2019-11-16T12:33:40.000Z</time>
      </trkpt>
      <trkpt lat="48.41703" lon="2.50699">
        <ele>139.80000305176</ele>
        <time>2019-11-16T12:33:43.000Z</time>
      </trkpt>
      <trkpt lat="48.41707" lon="2.50653">
        <ele>139.19999694824</ele>
        <time>2019-11-16T12:33:49.000Z</time>
      </trkpt>
      <trkpt lat="48.41708" lon="2.50645">
        <ele>139</ele>
        <time>2019-11-16T12:33:50.000Z</time>
      </trkpt>
      <trkpt lat="48.4171" lon="2.50638">
        <ele>139</ele>
        <time>2019-11-16T12:33:51.000Z</time>
      </trkpt>
      <trkpt lat="48.41712" lon="2.50612">
        <ele>138.80000305176</ele>
        <time>2019-11-16T12:33:54.000Z</time>
      </trkpt>
      <trkpt lat="48.41715" lon="2.50572">
        <ele>138.60000610352</ele>
        <time>2019-11-16T12:33:59.000Z</time>
      </trkpt>
      <trkpt lat="48.41715" lon="2.50548">
        <ele>138.80000305176</ele>
        <time>2019-11-16T12:34:02.000Z</time>
      </trkpt>
      <trkpt lat="48.41716" lon="2.50516">
        <ele>138.80000305176</ele>
        <time>2019-11-16T12:34:06.000Z</time>
      </trkpt>
      <trkpt lat="48.41717" lon="2.505">
        <ele>139.39999389648</ele>
        <time>2019-11-16T12:34:08.000Z</time>
      </trkpt>
      <trkpt lat="48.4172" lon="2.50459">
        <ele>138.80000305176</ele>
        <time>2019-11-16T12:34:13.000Z</time>
      </trkpt>
      <trkpt lat="48.41724" lon="2.50418">
        <ele>138.39999389648</ele>
        <time>2019-11-16T12:34:18.000Z</time>
      </trkpt>
      <trkpt lat="48.41728" lon="2.50381">
        <ele>138.19999694824</ele>
        <time>2019-11-16T12:34:22.000Z</time>
      </trkpt>
      <trkpt lat="48.41728" lon="2.50372">
        <ele>138.19999694824</ele>
        <time>2019-11-16T12:34:23.000Z</time>
      </trkpt>
      <trkpt lat="48.41731" lon="2.50342">
        <ele>137</ele>
        <time>2019-11-16T12:34:26.000Z</time>
      </trkpt>
      <trkpt lat="48.41734" lon="2.50313">
        <ele>136.80000305176</ele>
        <time>2019-11-16T12:34:29.000Z</time>
      </trkpt>
      <trkpt lat="48.41738" lon="2.5026">
        <ele>137.19999694824</ele>
        <time>2019-11-16T12:34:35.000Z</time>
      </trkpt>
      <trkpt lat="48.41743" lon="2.50204">
        <ele>137.80000305176</ele>
        <time>2019-11-16T12:34:42.000Z</time>
      </trkpt>
      <trkpt lat="48.41745" lon="2.50196">
        <ele>137.80000305176</ele>
        <time>2019-11-16T12:34:43.000Z</time>
      </trkpt>
      <trkpt lat="48.41744" lon="2.50183">
        <ele>138</ele>
        <time>2019-11-16T12:34:46.000Z</time>
      </trkpt>
      <trkpt lat="48.41741" lon="2.50181">
        <ele>138.19999694824</ele>
        <time>2019-11-16T12:34:47.000Z</time>
      </trkpt>
      <trkpt lat="48.41723" lon="2.5017">
        <ele>138</ele>
        <time>2019-11-16T12:34:52.000Z</time>
      </trkpt>
      <trkpt lat="48.41705" lon="2.50162">
        <ele>138</ele>
        <time>2019-11-16T12:34:57.000Z</time>
      </trkpt>
      <trkpt lat="48.41697" lon="2.50157">
        <ele>138.19999694824</ele>
        <time>2019-11-16T12:35:00.000Z</time>
      </trkpt>
      <trkpt lat="48.41695" lon="2.50154">
        <ele>138.19999694824</ele>
        <time>2019-11-16T12:35:01.000Z</time>
      </trkpt>
      <trkpt lat="48.41691" lon="2.50151">
        <ele>138.39999389648</ele>
        <time>2019-11-16T12:35:04.000Z</time>
      </trkpt>
      <trkpt lat="48.41689" lon="2.50151">
        <ele>138.60000610352</ele>
        <time>2019-11-16T12:35:05.000Z</time>
      </trkpt>
      <trkpt lat="48.41682" lon="2.50158">
        <ele>138.80000305176</ele>
        <time>2019-11-16T12:35:08.000Z</time>
      </trkpt>
      <trkpt lat="48.4168" lon="2.50159">
        <ele>139</ele>
        <time>2019-11-16T12:35:09.000Z</time>
      </trkpt>
      <trkpt lat="48.41678" lon="2.50157">
        <ele>139.19999694824</ele>
        <time>2019-11-16T12:35:10.000Z</time>
      </trkpt>
      <trkpt lat="48.41672" lon="2.50158">
        <ele>139.39999389648</ele>
        <time>2019-11-16T12:35:13.000Z</time>
      </trkpt>
      <trkpt lat="48.4167" lon="2.50157">
        <ele>140.19999694824</ele>
        <time>2019-11-16T12:35:15.000Z</time>
      </trkpt>
      <trkpt lat="48.4167" lon="2.50157">
        <ele>140.60000610352</ele>
        <time>2019-11-16T12:35:18.000Z</time>
      </trkpt>
      <trkpt lat="48.4167" lon="2.50157">
        <ele>140.39999389648</ele>
        <time>2019-11-16T12:35:23.000Z</time>
      </trkpt>
      <trkpt lat="48.41669" lon="2.50159">
        <ele>140.19999694824</ele>
        <time>2019-11-16T12:35:25.000Z</time>
      </trkpt>
      <trkpt lat="48.41669" lon="2.50157">
        <ele>140.60000610352</ele>
        <time>2019-11-16T12:35:27.000Z</time>
      </trkpt>
      <trkpt lat="48.41668" lon="2.50156">
        <ele>140.60000610352</ele>
        <time>2019-11-16T12:35:34.000Z</time>
      </trkpt>
      <trkpt lat="48.41668" lon="2.50156">
        <ele>140.39999389648</ele>
        <time>2019-11-16T12:35:51.000Z</time>
      </trkpt>
      <trkpt lat="48.41668" lon="2.50156">
        <ele>140.39999389648</ele>
        <time>2019-11-16T12:36:08.000Z</time>
      </trkpt>
      <trkpt lat="48.41669" lon="2.50157">
        <ele>140</ele>
        <time>2019-11-16T12:36:12.000Z</time>
      </trkpt>
      <trkpt lat="48.41671" lon="2.50156">
        <ele>140</ele>
        <time>2019-11-16T12:36:14.000Z</time>
      </trkpt>
      <trkpt lat="48.41674" lon="2.50156">
        <ele>140</ele>
        <time>2019-11-16T12:36:16.000Z</time>
      </trkpt>
      <trkpt lat="48.41678" lon="2.50152">
        <ele>139.60000610352</ele>
        <time>2019-11-16T12:36:18.000Z</time>
      </trkpt>
      <trkpt lat="48.41681" lon="2.50147">
        <ele>139</ele>
        <time>2019-11-16T12:36:20.000Z</time>
      </trkpt>
      <trkpt lat="48.41684" lon="2.50144">
        <ele>138.39999389648</ele>
        <time>2019-11-16T12:36:22.000Z</time>
      </trkpt>
      <trkpt lat="48.41683" lon="2.50138">
        <ele>138</ele>
        <time>2019-11-16T12:36:24.000Z</time>
      </trkpt>
      <trkpt lat="48.41682" lon="2.50132">
        <ele>137.19999694824</ele>
        <time>2019-11-16T12:36:26.000Z</time>
      </trkpt>
      <trkpt lat="48.41679" lon="2.5013">
        <ele>136.80000305176</ele>
        <time>2019-11-16T12:36:28.000Z</time>
      </trkpt>
      <trkpt lat="48.41678" lon="2.50127">
        <ele>136.60000610352</ele>
        <time>2019-11-16T12:36:29.000Z</time>
      </trkpt>
      <trkpt lat="48.41676" lon="2.50124">
        <ele>136.19999694824</ele>
        <time>2019-11-16T12:36:30.000Z</time>
      </trkpt>
      <trkpt lat="48.41673" lon="2.50121">
        <ele>135.80000305176</ele>
        <time>2019-11-16T12:36:31.000Z</time>
      </trkpt>
      <trkpt lat="48.41669" lon="2.50113">
        <ele>134.60000610352</ele>
        <time>2019-11-16T12:36:33.000Z</time>
      </trkpt>
      <trkpt lat="48.41666" lon="2.50108">
        <ele>134</ele>
        <time>2019-11-16T12:36:34.000Z</time>
      </trkpt>
      <trkpt lat="48.41664" lon="2.50107">
        <ele>133</ele>
        <time>2019-11-16T12:36:35.000Z</time>
      </trkpt>
      <trkpt lat="48.41658" lon="2.50101">
        <ele>131.60000610352</ele>
        <time>2019-11-16T12:36:37.000Z</time>
      </trkpt>
      <trkpt lat="48.41656" lon="2.50097">
        <ele>130.19999694824</ele>
        <time>2019-11-16T12:36:38.000Z</time>
      </trkpt>
      <trkpt lat="48.41652" lon="2.50086">
        <ele>128.80000305176</ele>
        <time>2019-11-16T12:36:40.000Z</time>
      </trkpt>
      <trkpt lat="48.41648" lon="2.50087">
        <ele>128.19999694824</ele>
        <time>2019-11-16T12:36:41.000Z</time>
      </trkpt>
      <trkpt lat="48.41645" lon="2.50085">
        <ele>127.59999847412</ele>
        <time>2019-11-16T12:36:42.000Z</time>
      </trkpt>
      <trkpt lat="48.41639" lon="2.50079">
        <ele>126.19999694824</ele>
        <time>2019-11-16T12:36:44.000Z</time>
      </trkpt>
      <trkpt lat="48.41636" lon="2.50077">
        <ele>125.59999847412</ele>
        <time>2019-11-16T12:36:45.000Z</time>
      </trkpt>
      <trkpt lat="48.41634" lon="2.50078">
        <ele>125</ele>
        <time>2019-11-16T12:36:46.000Z</time>
      </trkpt>
      <trkpt lat="48.4163" lon="2.50082">
        <ele>123.80000305176</ele>
        <time>2019-11-16T12:36:48.000Z</time>
      </trkpt>
      <trkpt lat="48.41628" lon="2.50081">
        <ele>122.80000305176</ele>
        <time>2019-11-16T12:36:50.000Z</time>
      </trkpt>
      <trkpt lat="48.41625" lon="2.50079">
        <ele>122.40000152588</ele>
        <time>2019-11-16T12:36:51.000Z</time>
      </trkpt>
      <trkpt lat="48.4162" lon="2.50076">
        <ele>121.19999694824</ele>
        <time>2019-11-16T12:36:53.000Z</time>
      </trkpt>
      <trkpt lat="48.41617" lon="2.50077">
        <ele>119.59999847412</ele>
        <time>2019-11-16T12:36:55.000Z</time>
      </trkpt>
      <trkpt lat="48.41617" lon="2.50077">
        <ele>119.19999694824</ele>
        <time>2019-11-16T12:36:56.000Z</time>
      </trkpt>
      <trkpt lat="48.41615" lon="2.50079">
        <ele>118.19999694824</ele>
        <time>2019-11-16T12:36:58.000Z</time>
      </trkpt>
      <trkpt lat="48.41615" lon="2.5008">
        <ele>117.59999847412</ele>
        <time>2019-11-16T12:37:00.000Z</time>
      </trkpt>
      <trkpt lat="48.41614" lon="2.50082">
        <ele>117.40000152588</ele>
        <time>2019-11-16T12:37:01.000Z</time>
      </trkpt>
      <trkpt lat="48.41613" lon="2.50082">
        <ele>117.19999694824</ele>
        <time>2019-11-16T12:37:02.000Z</time>
      </trkpt>
      <trkpt lat="48.41609" lon="2.50082">
        <ele>117</ele>
        <time>2019-11-16T12:37:03.000Z</time>
      </trkpt>
      <trkpt lat="48.41601" lon="2.5008">
        <ele>116.19999694824</ele>
        <time>2019-11-16T12:37:05.000Z</time>
      </trkpt>
      <trkpt lat="48.4159" lon="2.50083">
        <ele>115</ele>
        <time>2019-11-16T12:37:07.000Z</time>
      </trkpt>
      <trkpt lat="48.41585" lon="2.50078">
        <ele>114</ele>
        <time>2019-11-16T12:37:09.000Z</time>
      </trkpt>
      <trkpt lat="48.41582" lon="2.50073">
        <ele>113.59999847412</ele>
        <time>2019-11-16T12:37:10.000Z</time>
      </trkpt>
      <trkpt lat="48.41573" lon="2.50066">
        <ele>111.80000305176</ele>
        <time>2019-11-16T12:37:12.000Z</time>
      </trkpt>
      <trkpt lat="48.41569" lon="2.50064">
        <ele>110.59999847412</ele>
        <time>2019-11-16T12:37:13.000Z</time>
      </trkpt>
      <trkpt lat="48.41566" lon="2.50065">
        <ele>109.59999847412</ele>
        <time>2019-11-16T12:37:14.000Z</time>
      </trkpt>
      <trkpt lat="48.41563" lon="2.50068">
        <ele>108.80000305176</ele>
        <time>2019-11-16T12:37:15.000Z</time>
      </trkpt>
      <trkpt lat="48.41559" lon="2.5007">
        <ele>108.19999694824</ele>
        <time>2019-11-16T12:37:16.000Z</time>
      </trkpt>
      <trkpt lat="48.41548" lon="2.50067">
        <ele>107</ele>
        <time>2019-11-16T12:37:18.000Z</time>
      </trkpt>
      <trkpt lat="48.41541" lon="2.50067">
        <ele>106.40000152588</ele>
        <time>2019-11-16T12:37:19.000Z</time>
      </trkpt>
      <trkpt lat="48.41536" lon="2.50069">
        <ele>105.80000305176</ele>
        <time>2019-11-16T12:37:20.000Z</time>
      </trkpt>
      <trkpt lat="48.4153" lon="2.5007">
        <ele>105</ele>
        <time>2019-11-16T12:37:21.000Z</time>
      </trkpt>
      <trkpt lat="48.41523" lon="2.5007">
        <ele>104.59999847412</ele>
        <time>2019-11-16T12:37:22.000Z</time>
      </trkpt>
      <trkpt lat="48.41517" lon="2.50069">
        <ele>104.19999694824</ele>
        <time>2019-11-16T12:37:23.000Z</time>
      </trkpt>
      <trkpt lat="48.41503" lon="2.50064">
        <ele>103.19999694824</ele>
        <time>2019-11-16T12:37:25.000Z</time>
      </trkpt>
      <trkpt lat="48.41489" lon="2.50057">
        <ele>101.80000305176</ele>
        <time>2019-11-16T12:37:27.000Z</time>
      </trkpt>
      <trkpt lat="48.41484" lon="2.50053">
        <ele>101.59999847412</ele>
        <time>2019-11-16T12:37:28.000Z</time>
      </trkpt>
      <trkpt lat="48.41478" lon="2.5005">
        <ele>101.40000152588</ele>
        <time>2019-11-16T12:37:29.000Z</time>
      </trkpt>
      <trkpt lat="48.41467" lon="2.50047">
        <ele>100.80000305176</ele>
        <time>2019-11-16T12:37:31.000Z</time>
      </trkpt>
      <trkpt lat="48.41453" lon="2.50042">
        <ele>100</ele>
        <time>2019-11-16T12:37:34.000Z</time>
      </trkpt>
      <trkpt lat="48.41449" lon="2.50042">
        <ele>100</ele>
        <time>2019-11-16T12:37:35.000Z</time>
      </trkpt>
      <trkpt lat="48.41446" lon="2.50048">
        <ele>99.599998474121</ele>
        <time>2019-11-16T12:37:37.000Z</time>
      </trkpt>
      <trkpt lat="48.41446" lon="2.50054">
        <ele>99.599998474121</ele>
        <time>2019-11-16T12:37:38.000Z</time>
      </trkpt>
      <trkpt lat="48.41449" lon="2.50063">
        <ele>100</ele>
        <time>2019-11-16T12:37:40.000Z</time>
      </trkpt>
      <trkpt lat="48.41452" lon="2.50078">
        <ele>100.80000305176</ele>
        <time>2019-11-16T12:37:43.000Z</time>
      </trkpt>
      <trkpt lat="48.41456" lon="2.50096">
        <ele>101.40000152588</ele>
        <time>2019-11-16T12:37:47.000Z</time>
      </trkpt>
      <trkpt lat="48.41457" lon="2.501">
        <ele>102</ele>
        <time>2019-11-16T12:37:48.000Z</time>
      </trkpt>
      <trkpt lat="48.41458" lon="2.50108">
        <ele>103.40000152588</ele>
        <time>2019-11-16T12:37:50.000Z</time>
      </trkpt>
      <trkpt lat="48.4146" lon="2.50116">
        <ele>104</ele>
        <time>2019-11-16T12:37:52.000Z</time>
      </trkpt>
      <trkpt lat="48.4146" lon="2.50124">
        <ele>104.59999847412</ele>
        <time>2019-11-16T12:37:54.000Z</time>
      </trkpt>
      <trkpt lat="48.41461" lon="2.50138">
        <ele>105.80000305176</ele>
        <time>2019-11-16T12:37:57.000Z</time>
      </trkpt>
      <trkpt lat="48.41461" lon="2.50149">
        <ele>106.40000152588</ele>
        <time>2019-11-16T12:37:59.000Z</time>
      </trkpt>
      <trkpt lat="48.41461" lon="2.50153">
        <ele>106.80000305176</ele>
        <time>2019-11-16T12:38:00.000Z</time>
      </trkpt>
      <trkpt lat="48.41461" lon="2.50166">
        <ele>108</ele>
        <time>2019-11-16T12:38:04.000Z</time>
      </trkpt>
      <trkpt lat="48.4146" lon="2.50174">
        <ele>109</ele>
        <time>2019-11-16T12:38:07.000Z</time>
      </trkpt>
      <trkpt lat="48.41458" lon="2.50187">
        <ele>109.80000305176</ele>
        <time>2019-11-16T12:38:11.000Z</time>
      </trkpt>
      <trkpt lat="48.41458" lon="2.50193">
        <ele>110.19999694824</ele>
        <time>2019-11-16T12:38:13.000Z</time>
      </trkpt>
      <trkpt lat="48.41453" lon="2.50205">
        <ele>111.40000152588</ele>
        <time>2019-11-16T12:38:17.000Z</time>
      </trkpt>
      <trkpt lat="48.41449" lon="2.50224">
        <ele>112.40000152588</ele>
        <time>2019-11-16T12:38:21.000Z</time>
      </trkpt>
      <trkpt lat="48.41448" lon="2.50232">
        <ele>112.80000305176</ele>
        <time>2019-11-16T12:38:23.000Z</time>
      </trkpt>
      <trkpt lat="48.41448" lon="2.50245">
        <ele>113.40000152588</ele>
        <time>2019-11-16T12:38:26.000Z</time>
      </trkpt>
      <trkpt lat="48.4145" lon="2.5026">
        <ele>114</ele>
        <time>2019-11-16T12:38:29.000Z</time>
      </trkpt>
      <trkpt lat="48.41454" lon="2.50278">
        <ele>114.40000152588</ele>
        <time>2019-11-16T12:38:32.000Z</time>
      </trkpt>
      <trkpt lat="48.41459" lon="2.50302">
        <ele>114.80000305176</ele>
        <time>2019-11-16T12:38:36.000Z</time>
      </trkpt>
      <trkpt lat="48.41459" lon="2.50318">
        <ele>115.59999847412</ele>
        <time>2019-11-16T12:38:39.000Z</time>
      </trkpt>
      <trkpt lat="48.41459" lon="2.50334">
        <ele>116.40000152588</ele>
        <time>2019-11-16T12:38:42.000Z</time>
      </trkpt>
      <trkpt lat="48.41459" lon="2.50339">
        <ele>116.80000305176</ele>
        <time>2019-11-16T12:38:43.000Z</time>
      </trkpt>
      <trkpt lat="48.41458" lon="2.50362">
        <ele>118</ele>
        <time>2019-11-16T12:38:47.000Z</time>
      </trkpt>
      <trkpt lat="48.41458" lon="2.50368">
        <ele>118.19999694824</ele>
        <time>2019-11-16T12:38:48.000Z</time>
      </trkpt>
      <trkpt lat="48.41454" lon="2.50393">
        <ele>119</ele>
        <time>2019-11-16T12:38:52.000Z</time>
      </trkpt>
      <trkpt lat="48.41453" lon="2.50405">
        <ele>119.19999694824</ele>
        <time>2019-11-16T12:38:54.000Z</time>
      </trkpt>
      <trkpt lat="48.41453" lon="2.50431">
        <ele>119.40000152588</ele>
        <time>2019-11-16T12:38:58.000Z</time>
      </trkpt>
      <trkpt lat="48.41456" lon="2.50444">
        <ele>119.80000305176</ele>
        <time>2019-11-16T12:39:00.000Z</time>
      </trkpt>
      <trkpt lat="48.41458" lon="2.5045">
        <ele>120.19999694824</ele>
        <time>2019-11-16T12:39:01.000Z</time>
      </trkpt>
      <trkpt lat="48.4146" lon="2.50457">
        <ele>120.19999694824</ele>
        <time>2019-11-16T12:39:02.000Z</time>
      </trkpt>
      <trkpt lat="48.41466" lon="2.50483">
        <ele>121.19999694824</ele>
        <time>2019-11-16T12:39:06.000Z</time>
      </trkpt>
      <trkpt lat="48.4147" lon="2.50508">
        <ele>122.19999694824</ele>
        <time>2019-11-16T12:39:10.000Z</time>
      </trkpt>
      <trkpt lat="48.41474" lon="2.50534">
        <ele>123.40000152588</ele>
        <time>2019-11-16T12:39:14.000Z</time>
      </trkpt>
      <trkpt lat="48.4148" lon="2.50568">
        <ele>124.59999847412</ele>
        <time>2019-11-16T12:39:19.000Z</time>
      </trkpt>
      <trkpt lat="48.41482" lon="2.50575">
        <ele>124.59999847412</ele>
        <time>2019-11-16T12:39:20.000Z</time>
      </trkpt>
      <trkpt lat="48.41484" lon="2.50581">
        <ele>124.59999847412</ele>
        <time>2019-11-16T12:39:21.000Z</time>
      </trkpt>
      <trkpt lat="48.41485" lon="2.50594">
        <ele>125</ele>
        <time>2019-11-16T12:39:23.000Z</time>
      </trkpt>
      <trkpt lat="48.41486" lon="2.50608">
        <ele>125.40000152588</ele>
        <time>2019-11-16T12:39:25.000Z</time>
      </trkpt>
      <trkpt lat="48.41487" lon="2.50616">
        <ele>125.59999847412</ele>
        <time>2019-11-16T12:39:26.000Z</time>
      </trkpt>
      <trkpt lat="48.41492" lon="2.50642">
        <ele>126.80000305176</ele>
        <time>2019-11-16T12:39:30.000Z</time>
      </trkpt>
      <trkpt lat="48.41494" lon="2.50648">
        <ele>127</ele>
        <time>2019-11-16T12:39:31.000Z</time>
      </trkpt>
      <trkpt lat="48.41501" lon="2.50681">
        <ele>128</ele>
        <time>2019-11-16T12:39:36.000Z</time>
      </trkpt>
      <trkpt lat="48.41503" lon="2.50694">
        <ele>128.60000610352</ele>
        <time>2019-11-16T12:39:38.000Z</time>
      </trkpt>
      <trkpt lat="48.41504" lon="2.50705">
        <ele>129</ele>
        <time>2019-11-16T12:39:40.000Z</time>
      </trkpt>
      <trkpt lat="48.41506" lon="2.50721">
        <ele>130</ele>
        <time>2019-11-16T12:39:43.000Z</time>
      </trkpt>
      <trkpt lat="48.41507" lon="2.50728">
        <ele>130.19999694824</ele>
        <time>2019-11-16T12:39:44.000Z</time>
      </trkpt>
      <trkpt lat="48.41505" lon="2.50747">
        <ele>131</ele>
        <time>2019-11-16T12:39:47.000Z</time>
      </trkpt>
      <trkpt lat="48.41502" lon="2.50757">
        <ele>131.60000610352</ele>
        <time>2019-11-16T12:39:49.000Z</time>
      </trkpt>
      <trkpt lat="48.41496" lon="2.50773">
        <ele>132.60000610352</ele>
        <time>2019-11-16T12:39:52.000Z</time>
      </trkpt>
      <trkpt lat="48.41494" lon="2.50779">
        <ele>132.80000305176</ele>
        <time>2019-11-16T12:39:53.000Z</time>
      </trkpt>
      <trkpt lat="48.41484" lon="2.50808">
        <ele>133.80000305176</ele>
        <time>2019-11-16T12:39:58.000Z</time>
      </trkpt>
      <trkpt lat="48.41479" lon="2.50822">
        <ele>134.39999389648</ele>
        <time>2019-11-16T12:40:02.000Z</time>
      </trkpt>
      <trkpt lat="48.41475" lon="2.50821">
        <ele>135</ele>
        <time>2019-11-16T12:40:04.000Z</time>
      </trkpt>
      <trkpt lat="48.41469" lon="2.50818">
        <ele>135</ele>
        <time>2019-11-16T12:40:06.000Z</time>
      </trkpt>
      <trkpt lat="48.41448" lon="2.50803">
        <ele>135</ele>
        <time>2019-11-16T12:40:12.000Z</time>
      </trkpt>
      <trkpt lat="48.41435" lon="2.50788">
        <ele>135.80000305176</ele>
        <time>2019-11-16T12:40:16.000Z</time>
      </trkpt>
      <trkpt lat="48.41431" lon="2.50785">
        <ele>136</ele>
        <time>2019-11-16T12:40:17.000Z</time>
      </trkpt>
      <trkpt lat="48.41408" lon="2.50775">
        <ele>137.19999694824</ele>
        <time>2019-11-16T12:40:23.000Z</time>
      </trkpt>
      <trkpt lat="48.41395" lon="2.50762">
        <ele>138.39999389648</ele>
        <time>2019-11-16T12:40:27.000Z</time>
      </trkpt>
      <trkpt lat="48.41393" lon="2.50759">
        <ele>138.39999389648</ele>
        <time>2019-11-16T12:40:28.000Z</time>
      </trkpt>
      <trkpt lat="48.41374" lon="2.50737">
        <ele>139.19999694824</ele>
        <time>2019-11-16T12:40:34.000Z</time>
      </trkpt>
      <trkpt lat="48.41362" lon="2.50719">
        <ele>139.39999389648</ele>
        <time>2019-11-16T12:40:38.000Z</time>
      </trkpt>
      <trkpt lat="48.41357" lon="2.50709">
        <ele>139.60000610352</ele>
        <time>2019-11-16T12:40:40.000Z</time>
      </trkpt>
      <trkpt lat="48.41341" lon="2.50687">
        <ele>140.39999389648</ele>
        <time>2019-11-16T12:40:45.000Z</time>
      </trkpt>
      <trkpt lat="48.41325" lon="2.50683">
        <ele>140</ele>
        <time>2019-11-16T12:40:49.000Z</time>
      </trkpt>
      <trkpt lat="48.41302" lon="2.50676">
        <ele>138.39999389648</ele>
        <time>2019-11-16T12:40:53.000Z</time>
      </trkpt>
      <trkpt lat="48.41296" lon="2.50674">
        <ele>138</ele>
        <time>2019-11-16T12:40:54.000Z</time>
      </trkpt>
      <trkpt lat="48.41291" lon="2.50671">
        <ele>137.60000610352</ele>
        <time>2019-11-16T12:40:55.000Z</time>
      </trkpt>
      <trkpt lat="48.41282" lon="2.50664">
        <ele>137.39999389648</ele>
        <time>2019-11-16T12:40:57.000Z</time>
      </trkpt>
      <trkpt lat="48.41277" lon="2.5066">
        <ele>137.19999694824</ele>
        <time>2019-11-16T12:40:58.000Z</time>
      </trkpt>
      <trkpt lat="48.4127" lon="2.50654">
        <ele>137.39999389648</ele>
        <time>2019-11-16T12:41:00.000Z</time>
      </trkpt>
      <trkpt lat="48.41259" lon="2.50646">
        <ele>138.60000610352</ele>
        <time>2019-11-16T12:41:03.000Z</time>
      </trkpt>
      <trkpt lat="48.41244" lon="2.50637">
        <ele>139.60000610352</ele>
        <time>2019-11-16T12:41:07.000Z</time>
      </trkpt>
      <trkpt lat="48.4124" lon="2.50635">
        <ele>139.80000305176</ele>
        <time>2019-11-16T12:41:08.000Z</time>
      </trkpt>
      <trkpt lat="48.41229" lon="2.50629">
        <ele>140</ele>
        <time>2019-11-16T12:41:11.000Z</time>
      </trkpt>
      <trkpt lat="48.41219" lon="2.50615">
        <ele>140.60000610352</ele>
        <time>2019-11-16T12:41:15.000Z</time>
      </trkpt>
      <trkpt lat="48.41214" lon="2.50605">
        <ele>140.39999389648</ele>
        <time>2019-11-16T12:41:17.000Z</time>
      </trkpt>
      <trkpt lat="48.41207" lon="2.50599">
        <ele>140.19999694824</ele>
        <time>2019-11-16T12:41:19.000Z</time>
      </trkpt>
      <trkpt lat="48.41197" lon="2.50601">
        <ele>140</ele>
        <time>2019-11-16T12:41:22.000Z</time>
      </trkpt>
      <trkpt lat="48.41173" lon="2.50605">
        <ele>139.19999694824</ele>
        <time>2019-11-16T12:41:29.000Z</time>
      </trkpt>
      <trkpt lat="48.41151" lon="2.50603">
        <ele>139.19999694824</ele>
        <time>2019-11-16T12:41:35.000Z</time>
      </trkpt>
      <trkpt lat="48.41148" lon="2.50604">
        <ele>139.19999694824</ele>
        <time>2019-11-16T12:41:36.000Z</time>
      </trkpt>
      <trkpt lat="48.41141" lon="2.50604">
        <ele>138.80000305176</ele>
        <time>2019-11-16T12:41:38.000Z</time>
      </trkpt>
      <trkpt lat="48.41137" lon="2.50599">
        <ele>138.60000610352</ele>
        <time>2019-11-16T12:41:40.000Z</time>
      </trkpt>
      <trkpt lat="48.41134" lon="2.50596">
        <ele>138.80000305176</ele>
        <time>2019-11-16T12:41:42.000Z</time>
      </trkpt>
      <trkpt lat="48.41132" lon="2.50595">
        <ele>139</ele>
        <time>2019-11-16T12:41:47.000Z</time>
      </trkpt>
      <trkpt lat="48.41132" lon="2.50595">
        <ele>139.19999694824</ele>
        <time>2019-11-16T12:42:01.000Z</time>
      </trkpt>
      <trkpt lat="48.41132" lon="2.50595">
        <ele>139.19999694824</ele>
        <time>2019-11-16T12:42:14.000Z</time>
      </trkpt>
      <trkpt lat="48.41132" lon="2.50595">
        <ele>139</ele>
        <time>2019-11-16T12:42:23.000Z</time>
      </trkpt>
      <trkpt lat="48.41132" lon="2.50595">
        <ele>138.19999694824</ele>
        <time>2019-11-16T12:42:33.000Z</time>
      </trkpt>
      <trkpt lat="48.41132" lon="2.50595">
        <ele>139</ele>
        <time>2019-11-16T12:42:38.000Z</time>
      </trkpt>
      <trkpt lat="48.41133" lon="2.50595">
        <ele>139</ele>
        <time>2019-11-16T12:42:40.000Z</time>
      </trkpt>
      <trkpt lat="48.41135" lon="2.50596">
        <ele>139</ele>
        <time>2019-11-16T12:42:43.000Z</time>
      </trkpt>
      <trkpt lat="48.41138" lon="2.50597">
        <ele>138.80000305176</ele>
        <time>2019-11-16T12:42:45.000Z</time>
      </trkpt>
      <trkpt lat="48.41143" lon="2.50611">
        <ele>138.80000305176</ele>
        <time>2019-11-16T12:42:49.000Z</time>
      </trkpt>
      <trkpt lat="48.41147" lon="2.50632">
        <ele>138.39999389648</ele>
        <time>2019-11-16T12:42:53.000Z</time>
      </trkpt>
      <trkpt lat="48.41151" lon="2.50643">
        <ele>137.60000610352</ele>
        <time>2019-11-16T12:42:56.000Z</time>
      </trkpt>
      <trkpt lat="48.41158" lon="2.50658">
        <ele>137.19999694824</ele>
        <time>2019-11-16T12:42:59.000Z</time>
      </trkpt>
      <trkpt lat="48.41165" lon="2.50685">
        <ele>137</ele>
        <time>2019-11-16T12:43:03.000Z</time>
      </trkpt>
      <trkpt lat="48.41172" lon="2.50699">
        <ele>137.19999694824</ele>
        <time>2019-11-16T12:43:06.000Z</time>
      </trkpt>
      <trkpt lat="48.41175" lon="2.50702">
        <ele>137.39999389648</ele>
        <time>2019-11-16T12:43:07.000Z</time>
      </trkpt>
      <trkpt lat="48.41186" lon="2.50716">
        <ele>138.39999389648</ele>
        <time>2019-11-16T12:43:11.000Z</time>
      </trkpt>
      <trkpt lat="48.41195" lon="2.5073">
        <ele>138.39999389648</ele>
        <time>2019-11-16T12:43:14.000Z</time>
      </trkpt>
      <trkpt lat="48.41199" lon="2.50735">
        <ele>138.39999389648</ele>
        <time>2019-11-16T12:43:15.000Z</time>
      </trkpt>
      <trkpt lat="48.412" lon="2.5074">
        <ele>138.19999694824</ele>
        <time>2019-11-16T12:43:16.000Z</time>
      </trkpt>
      <trkpt lat="48.41207" lon="2.50758">
        <ele>136.80000305176</ele>
        <time>2019-11-16T12:43:20.000Z</time>
      </trkpt>
      <trkpt lat="48.41211" lon="2.50762">
        <ele>136.60000610352</ele>
        <time>2019-11-16T12:43:21.000Z</time>
      </trkpt>
      <trkpt lat="48.41221" lon="2.50768">
        <ele>136.60000610352</ele>
        <time>2019-11-16T12:43:24.000Z</time>
      </trkpt>
      <trkpt lat="48.41238" lon="2.5078">
        <ele>135.80000305176</ele>
        <time>2019-11-16T12:43:29.000Z</time>
      </trkpt>
      <trkpt lat="48.41242" lon="2.50783">
        <ele>136.19999694824</ele>
        <time>2019-11-16T12:43:31.000Z</time>
      </trkpt>
      <trkpt lat="48.4125" lon="2.50782">
        <ele>137.39999389648</ele>
        <time>2019-11-16T12:43:34.000Z</time>
      </trkpt>
      <trkpt lat="48.41259" lon="2.50787">
        <ele>137.60000610352</ele>
        <time>2019-11-16T12:43:37.000Z</time>
      </trkpt>
      <trkpt lat="48.41261" lon="2.50791">
        <ele>137.80000305176</ele>
        <time>2019-11-16T12:43:38.000Z</time>
      </trkpt>
      <trkpt lat="48.41268" lon="2.50806">
        <ele>139</ele>
        <time>2019-11-16T12:43:42.000Z</time>
      </trkpt>
      <trkpt lat="48.41281" lon="2.50802">
        <ele>139.80000305176</ele>
        <time>2019-11-16T12:43:47.000Z</time>
      </trkpt>
      <trkpt lat="48.41283" lon="2.508">
        <ele>140.19999694824</ele>
        <time>2019-11-16T12:43:48.000Z</time>
      </trkpt>
      <trkpt lat="48.41289" lon="2.50801">
        <ele>140.60000610352</ele>
        <time>2019-11-16T12:43:50.000Z</time>
      </trkpt>
      <trkpt lat="48.41306" lon="2.50808">
        <ele>140.80000305176</ele>
        <time>2019-11-16T12:43:55.000Z</time>
      </trkpt>
      <trkpt lat="48.4131" lon="2.50809">
        <ele>140.80000305176</ele>
        <time>2019-11-16T12:43:56.000Z</time>
      </trkpt>
      <trkpt lat="48.41332" lon="2.50815">
        <ele>140.39999389648</ele>
        <time>2019-11-16T12:44:01.000Z</time>
      </trkpt>
      <trkpt lat="48.41342" lon="2.50829">
        <ele>140.19999694824</ele>
        <time>2019-11-16T12:44:04.000Z</time>
      </trkpt>
      <trkpt lat="48.41345" lon="2.50836">
        <ele>140.19999694824</ele>
        <time>2019-11-16T12:44:05.000Z</time>
      </trkpt>
      <trkpt lat="48.41351" lon="2.50857">
        <ele>139.80000305176</ele>
        <time>2019-11-16T12:44:08.000Z</time>
      </trkpt>
      <trkpt lat="48.41356" lon="2.50868">
        <ele>139.80000305176</ele>
        <time>2019-11-16T12:44:10.000Z</time>
      </trkpt>
      <trkpt lat="48.41356" lon="2.5089">
        <ele>140.19999694824</ele>
        <time>2019-11-16T12:44:14.000Z</time>
      </trkpt>
      <trkpt lat="48.41351" lon="2.5091">
        <ele>139.80000305176</ele>
        <time>2019-11-16T12:44:17.000Z</time>
      </trkpt>
      <trkpt lat="48.4135" lon="2.50916">
        <ele>139.60000610352</ele>
        <time>2019-11-16T12:44:18.000Z</time>
      </trkpt>
      <trkpt lat="48.41345" lon="2.50926">
        <ele>139.60000610352</ele>
        <time>2019-11-16T12:44:21.000Z</time>
      </trkpt>
      <trkpt lat="48.41339" lon="2.50926">
        <ele>139.19999694824</ele>
        <time>2019-11-16T12:44:24.000Z</time>
      </trkpt>
      <trkpt lat="48.41334" lon="2.50928">
        <ele>138.80000305176</ele>
        <time>2019-11-16T12:44:27.000Z</time>
      </trkpt>
      <trkpt lat="48.41329" lon="2.5093">
        <ele>137.39999389648</ele>
        <time>2019-11-16T12:44:29.000Z</time>
      </trkpt>
      <trkpt lat="48.41326" lon="2.50931">
        <ele>135.60000610352</ele>
        <time>2019-11-16T12:44:31.000Z</time>
      </trkpt>
      <trkpt lat="48.41324" lon="2.50932">
        <ele>134.60000610352</ele>
        <time>2019-11-16T12:44:32.000Z</time>
      </trkpt>
      <trkpt lat="48.41322" lon="2.50932">
        <ele>133.39999389648</ele>
        <time>2019-11-16T12:44:33.000Z</time>
      </trkpt>
      <trkpt lat="48.4132" lon="2.50931">
        <ele>132.39999389648</ele>
        <time>2019-11-16T12:44:34.000Z</time>
      </trkpt>
      <trkpt lat="48.41318" lon="2.50931">
        <ele>131.60000610352</ele>
        <time>2019-11-16T12:44:35.000Z</time>
      </trkpt>
      <trkpt lat="48.41316" lon="2.50931">
        <ele>130.60000610352</ele>
        <time>2019-11-16T12:44:36.000Z</time>
      </trkpt>
      <trkpt lat="48.41314" lon="2.50932">
        <ele>129.39999389648</ele>
        <time>2019-11-16T12:44:37.000Z</time>
      </trkpt>
      <trkpt lat="48.41311" lon="2.50934">
        <ele>128</ele>
        <time>2019-11-16T12:44:38.000Z</time>
      </trkpt>
      <trkpt lat="48.41309" lon="2.50935">
        <ele>126.80000305176</ele>
        <time>2019-11-16T12:44:39.000Z</time>
      </trkpt>
      <trkpt lat="48.41305" lon="2.50935">
        <ele>124</ele>
        <time>2019-11-16T12:44:40.000Z</time>
      </trkpt>
      <trkpt lat="48.41302" lon="2.50936">
        <ele>122.40000152588</ele>
        <time>2019-11-16T12:44:41.000Z</time>
      </trkpt>
      <trkpt lat="48.41297" lon="2.50937">
        <ele>120.40000152588</ele>
        <time>2019-11-16T12:44:42.000Z</time>
      </trkpt>
      <trkpt lat="48.41293" lon="2.50938">
        <ele>118.80000305176</ele>
        <time>2019-11-16T12:44:43.000Z</time>
      </trkpt>
      <trkpt lat="48.41288" lon="2.50941">
        <ele>117</ele>
        <time>2019-11-16T12:44:44.000Z</time>
      </trkpt>
      <trkpt lat="48.41282" lon="2.50943">
        <ele>115.80000305176</ele>
        <time>2019-11-16T12:44:45.000Z</time>
      </trkpt>
      <trkpt lat="48.41276" lon="2.50946">
        <ele>114.80000305176</ele>
        <time>2019-11-16T12:44:46.000Z</time>
      </trkpt>
      <trkpt lat="48.4127" lon="2.50949">
        <ele>113.59999847412</ele>
        <time>2019-11-16T12:44:47.000Z</time>
      </trkpt>
      <trkpt lat="48.41264" lon="2.50952">
        <ele>112.59999847412</ele>
        <time>2019-11-16T12:44:48.000Z</time>
      </trkpt>
      <trkpt lat="48.41257" lon="2.50957">
        <ele>111.80000305176</ele>
        <time>2019-11-16T12:44:49.000Z</time>
      </trkpt>
      <trkpt lat="48.41251" lon="2.50962">
        <ele>111.19999694824</ele>
        <time>2019-11-16T12:44:50.000Z</time>
      </trkpt>
      <trkpt lat="48.41244" lon="2.50967">
        <ele>110.40000152588</ele>
        <time>2019-11-16T12:44:51.000Z</time>
      </trkpt>
      <trkpt lat="48.41237" lon="2.50972">
        <ele>110.19999694824</ele>
        <time>2019-11-16T12:44:52.000Z</time>
      </trkpt>
      <trkpt lat="48.41224" lon="2.50982">
        <ele>109.19999694824</ele>
        <time>2019-11-16T12:44:54.000Z</time>
      </trkpt>
      <trkpt lat="48.41216" lon="2.50986">
        <ele>108.59999847412</ele>
        <time>2019-11-16T12:44:55.000Z</time>
      </trkpt>
      <trkpt lat="48.41203" lon="2.50993">
        <ele>108</ele>
        <time>2019-11-16T12:44:57.000Z</time>
      </trkpt>
      <trkpt lat="48.41192" lon="2.51002">
        <ele>107</ele>
        <time>2019-11-16T12:44:59.000Z</time>
      </trkpt>
      <trkpt lat="48.41174" lon="2.5102">
        <ele>105.40000152588</ele>
        <time>2019-11-16T12:45:02.000Z</time>
      </trkpt>
      <trkpt lat="48.41163" lon="2.51033">
        <ele>104.19999694824</ele>
        <time>2019-11-16T12:45:04.000Z</time>
      </trkpt>
      <trkpt lat="48.4116" lon="2.51042">
        <ele>103.80000305176</ele>
        <time>2019-11-16T12:45:05.000Z</time>
      </trkpt>
      <trkpt lat="48.41154" lon="2.51071">
        <ele>103.19999694824</ele>
        <time>2019-11-16T12:45:08.000Z</time>
      </trkpt>
      <trkpt lat="48.41154" lon="2.51078">
        <ele>103</ele>
        <time>2019-11-16T12:45:09.000Z</time>
      </trkpt>
      <trkpt lat="48.41155" lon="2.5108">
        <ele>103</ele>
        <time>2019-11-16T12:45:10.000Z</time>
      </trkpt>
      <trkpt lat="48.41159" lon="2.51084">
        <ele>102.80000305176</ele>
        <time>2019-11-16T12:45:12.000Z</time>
      </trkpt>
      <trkpt lat="48.41171" lon="2.51087">
        <ele>102.80000305176</ele>
        <time>2019-11-16T12:45:17.000Z</time>
      </trkpt>
      <trkpt lat="48.41174" lon="2.51087">
        <ele>102.80000305176</ele>
        <time>2019-11-16T12:45:18.000Z</time>
      </trkpt>
      <trkpt lat="48.41184" lon="2.5109">
        <ele>103.19999694824</ele>
        <time>2019-11-16T12:45:21.000Z</time>
      </trkpt>
      <trkpt lat="48.41189" lon="2.51095">
        <ele>103.19999694824</ele>
        <time>2019-11-16T12:45:23.000Z</time>
      </trkpt>
      <trkpt lat="48.41191" lon="2.51099">
        <ele>103.19999694824</ele>
        <time>2019-11-16T12:45:24.000Z</time>
      </trkpt>
      <trkpt lat="48.41197" lon="2.51113">
        <ele>104</ele>
        <time>2019-11-16T12:45:28.000Z</time>
      </trkpt>
      <trkpt lat="48.41199" lon="2.51116">
        <ele>104.40000152588</ele>
        <time>2019-11-16T12:45:29.000Z</time>
      </trkpt>
      <trkpt lat="48.41206" lon="2.51121">
        <ele>105.59999847412</ele>
        <time>2019-11-16T12:45:33.000Z</time>
      </trkpt>
      <trkpt lat="48.41208" lon="2.51123">
        <ele>106</ele>
        <time>2019-11-16T12:45:34.000Z</time>
      </trkpt>
      <trkpt lat="48.4121" lon="2.51128">
        <ele>106.59999847412</ele>
        <time>2019-11-16T12:45:36.000Z</time>
      </trkpt>
      <trkpt lat="48.4121" lon="2.5113">
        <ele>107.19999694824</ele>
        <time>2019-11-16T12:45:37.000Z</time>
      </trkpt>
      <trkpt lat="48.4121" lon="2.5113">
        <ele>107.59999847412</ele>
        <time>2019-11-16T12:45:38.000Z</time>
      </trkpt>
      <trkpt lat="48.4121" lon="2.51134">
        <ele>107.80000305176</ele>
        <time>2019-11-16T12:45:39.000Z</time>
      </trkpt>
      <trkpt lat="48.4121" lon="2.51134">
        <ele>108.80000305176</ele>
        <time>2019-11-16T12:45:44.000Z</time>
      </trkpt>
      <trkpt lat="48.41211" lon="2.51134">
        <ele>108.59999847412</ele>
        <time>2019-11-16T12:45:51.000Z</time>
      </trkpt>
      <trkpt lat="48.41212" lon="2.51134">
        <ele>108.80000305176</ele>
        <time>2019-11-16T12:45:52.000Z</time>
      </trkpt>
      <trkpt lat="48.41218" lon="2.51134">
        <ele>108.80000305176</ele>
        <time>2019-11-16T12:45:56.000Z</time>
      </trkpt>
      <trkpt lat="48.41223" lon="2.51138">
        <ele>109.40000152588</ele>
        <time>2019-11-16T12:46:01.000Z</time>
      </trkpt>
      <trkpt lat="48.41224" lon="2.51139">
        <ele>110</ele>
        <time>2019-11-16T12:46:03.000Z</time>
      </trkpt>
      <trkpt lat="48.41226" lon="2.51144">
        <ele>110.19999694824</ele>
        <time>2019-11-16T12:46:06.000Z</time>
      </trkpt>
      <trkpt lat="48.4123" lon="2.51152">
        <ele>111</ele>
        <time>2019-11-16T12:46:10.000Z</time>
      </trkpt>
      <trkpt lat="48.41231" lon="2.51154">
        <ele>111.59999847412</ele>
        <time>2019-11-16T12:46:11.000Z</time>
      </trkpt>
      <trkpt lat="48.41235" lon="2.51155">
        <ele>112.19999694824</ele>
        <time>2019-11-16T12:46:13.000Z</time>
      </trkpt>
      <trkpt lat="48.4124" lon="2.51153">
        <ele>113.40000152588</ele>
        <time>2019-11-16T12:46:16.000Z</time>
      </trkpt>
      <trkpt lat="48.41246" lon="2.51156">
        <ele>114.40000152588</ele>
        <time>2019-11-16T12:46:19.000Z</time>
      </trkpt>
      <trkpt lat="48.41249" lon="2.51159">
        <ele>115</ele>
        <time>2019-11-16T12:46:21.000Z</time>
      </trkpt>
      <trkpt lat="48.41251" lon="2.5116">
        <ele>115.59999847412</ele>
        <time>2019-11-16T12:46:22.000Z</time>
      </trkpt>
      <trkpt lat="48.41256" lon="2.51159">
        <ele>117</ele>
        <time>2019-11-16T12:46:25.000Z</time>
      </trkpt>
      <trkpt lat="48.41261" lon="2.51161">
        <ele>118.19999694824</ele>
        <time>2019-11-16T12:46:28.000Z</time>
      </trkpt>
      <trkpt lat="48.41266" lon="2.51166">
        <ele>119.40000152588</ele>
        <time>2019-11-16T12:46:31.000Z</time>
      </trkpt>
      <trkpt lat="48.41275" lon="2.51177">
        <ele>120.59999847412</ele>
        <time>2019-11-16T12:46:37.000Z</time>
      </trkpt>
      <trkpt lat="48.41281" lon="2.51188">
        <ele>121.80000305176</ele>
        <time>2019-11-16T12:46:42.000Z</time>
      </trkpt>
      <trkpt lat="48.41285" lon="2.51192">
        <ele>122.19999694824</ele>
        <time>2019-11-16T12:46:44.000Z</time>
      </trkpt>
      <trkpt lat="48.41294" lon="2.51204">
        <ele>123</ele>
        <time>2019-11-16T12:46:49.000Z</time>
      </trkpt>
      <trkpt lat="48.41295" lon="2.51207">
        <ele>123</ele>
        <time>2019-11-16T12:46:50.000Z</time>
      </trkpt>
      <trkpt lat="48.41299" lon="2.51214">
        <ele>124.19999694824</ele>
        <time>2019-11-16T12:46:53.000Z</time>
      </trkpt>
      <trkpt lat="48.41302" lon="2.51216">
        <ele>124.59999847412</ele>
        <time>2019-11-16T12:46:55.000Z</time>
      </trkpt>
      <trkpt lat="48.41309" lon="2.51219">
        <ele>124.59999847412</ele>
        <time>2019-11-16T12:46:58.000Z</time>
      </trkpt>
      <trkpt lat="48.41314" lon="2.51218">
        <ele>125</ele>
        <time>2019-11-16T12:47:00.000Z</time>
      </trkpt>
      <trkpt lat="48.41317" lon="2.51217">
        <ele>125.40000152588</ele>
        <time>2019-11-16T12:47:01.000Z</time>
      </trkpt>
      <trkpt lat="48.41324" lon="2.51216">
        <ele>126.40000152588</ele>
        <time>2019-11-16T12:47:04.000Z</time>
      </trkpt>
      <trkpt lat="48.41325" lon="2.51217">
        <ele>126.80000305176</ele>
        <time>2019-11-16T12:47:05.000Z</time>
      </trkpt>
      <trkpt lat="48.4133" lon="2.51217">
        <ele>127.59999847412</ele>
        <time>2019-11-16T12:47:08.000Z</time>
      </trkpt>
      <trkpt lat="48.41333" lon="2.51215">
        <ele>128.19999694824</ele>
        <time>2019-11-16T12:47:10.000Z</time>
      </trkpt>
      <trkpt lat="48.41335" lon="2.51211">
        <ele>129</ele>
        <time>2019-11-16T12:47:12.000Z</time>
      </trkpt>
      <trkpt lat="48.41337" lon="2.51208">
        <ele>130.19999694824</ele>
        <time>2019-11-16T12:47:14.000Z</time>
      </trkpt>
      <trkpt lat="48.41341" lon="2.51202">
        <ele>131.60000610352</ele>
        <time>2019-11-16T12:47:17.000Z</time>
      </trkpt>
      <trkpt lat="48.41346" lon="2.51198">
        <ele>132.60000610352</ele>
        <time>2019-11-16T12:47:20.000Z</time>
      </trkpt>
      <trkpt lat="48.4135" lon="2.51195">
        <ele>133.60000610352</ele>
        <time>2019-11-16T12:47:23.000Z</time>
      </trkpt>
      <trkpt lat="48.41357" lon="2.51189">
        <ele>134.60000610352</ele>
        <time>2019-11-16T12:47:27.000Z</time>
      </trkpt>
      <trkpt lat="48.41359" lon="2.51185">
        <ele>135.80000305176</ele>
        <time>2019-11-16T12:47:29.000Z</time>
      </trkpt>
      <trkpt lat="48.41359" lon="2.51182">
        <ele>137.19999694824</ele>
        <time>2019-11-16T12:47:31.000Z</time>
      </trkpt>
      <trkpt lat="48.4136" lon="2.51178">
        <ele>138.39999389648</ele>
        <time>2019-11-16T12:47:33.000Z</time>
      </trkpt>
      <trkpt lat="48.41359" lon="2.51176">
        <ele>138.60000610352</ele>
        <time>2019-11-16T12:47:34.000Z</time>
      </trkpt>
      <trkpt lat="48.4136" lon="2.51174">
        <ele>139</ele>
        <time>2019-11-16T12:47:35.000Z</time>
      </trkpt>
      <trkpt lat="48.41358" lon="2.51168">
        <ele>139.39999389648</ele>
        <time>2019-11-16T12:47:38.000Z</time>
      </trkpt>
      <trkpt lat="48.41359" lon="2.51166">
        <ele>139.80000305176</ele>
        <time>2019-11-16T12:47:40.000Z</time>
      </trkpt>
      <trkpt lat="48.41361" lon="2.51164">
        <ele>139.60000610352</ele>
        <time>2019-11-16T12:47:42.000Z</time>
      </trkpt>
      <trkpt lat="48.41362" lon="2.51158">
        <ele>139.60000610352</ele>
        <time>2019-11-16T12:47:44.000Z</time>
      </trkpt>
      <trkpt lat="48.41367" lon="2.51143">
        <ele>140</ele>
        <time>2019-11-16T12:47:49.000Z</time>
      </trkpt>
      <trkpt lat="48.41373" lon="2.51129">
        <ele>140.60000610352</ele>
        <time>2019-11-16T12:47:53.000Z</time>
      </trkpt>
      <trkpt lat="48.41375" lon="2.51121">
        <ele>140.60000610352</ele>
        <time>2019-11-16T12:47:55.000Z</time>
      </trkpt>
      <trkpt lat="48.41375" lon="2.51117">
        <ele>140.39999389648</ele>
        <time>2019-11-16T12:47:56.000Z</time>
      </trkpt>
      <trkpt lat="48.41374" lon="2.51104">
        <ele>140.39999389648</ele>
        <time>2019-11-16T12:47:59.000Z</time>
      </trkpt>
      <trkpt lat="48.41375" lon="2.511">
        <ele>140.19999694824</ele>
        <time>2019-11-16T12:48:00.000Z</time>
      </trkpt>
      <trkpt lat="48.41377" lon="2.51089">
        <ele>140.19999694824</ele>
        <time>2019-11-16T12:48:03.000Z</time>
      </trkpt>
      <trkpt lat="48.41381" lon="2.51071">
        <ele>140.60000610352</ele>
        <time>2019-11-16T12:48:08.000Z</time>
      </trkpt>
      <trkpt lat="48.41379" lon="2.51062">
        <ele>140.60000610352</ele>
        <time>2019-11-16T12:48:11.000Z</time>
      </trkpt>
      <trkpt lat="48.41379" lon="2.51063">
        <ele>140.60000610352</ele>
        <time>2019-11-16T12:48:12.000Z</time>
      </trkpt>
      <trkpt lat="48.41377" lon="2.51059">
        <ele>140.60000610352</ele>
        <time>2019-11-16T12:48:14.000Z</time>
      </trkpt>
      <trkpt lat="48.41374" lon="2.5105">
        <ele>141</ele>
        <time>2019-11-16T12:48:17.000Z</time>
      </trkpt>
      <trkpt lat="48.41374" lon="2.51035">
        <ele>140.80000305176</ele>
        <time>2019-11-16T12:48:21.000Z</time>
      </trkpt>
      <trkpt lat="48.41369" lon="2.51025">
        <ele>140.39999389648</ele>
        <time>2019-11-16T12:48:24.000Z</time>
      </trkpt>
      <trkpt lat="48.41368" lon="2.51016">
        <ele>139.80000305176</ele>
        <time>2019-11-16T12:48:27.000Z</time>
      </trkpt>
      <trkpt lat="48.41368" lon="2.51012">
        <ele>139.39999389648</ele>
        <time>2019-11-16T12:48:28.000Z</time>
      </trkpt>
      <trkpt lat="48.41369" lon="2.51003">
        <ele>139.60000610352</ele>
        <time>2019-11-16T12:48:30.000Z</time>
      </trkpt>
      <trkpt lat="48.41372" lon="2.50996">
        <ele>140</ele>
        <time>2019-11-16T12:48:32.000Z</time>
      </trkpt>
      <trkpt lat="48.41368" lon="2.50985">
        <ele>140</ele>
        <time>2019-11-16T12:48:35.000Z</time>
      </trkpt>
      <trkpt lat="48.41364" lon="2.5098">
        <ele>140</ele>
        <time>2019-11-16T12:48:37.000Z</time>
      </trkpt>
      <trkpt lat="48.41359" lon="2.5097">
        <ele>140.19999694824</ele>
        <time>2019-11-16T12:48:40.000Z</time>
      </trkpt>
      <trkpt lat="48.41357" lon="2.50965">
        <ele>140.39999389648</ele>
        <time>2019-11-16T12:48:42.000Z</time>
      </trkpt>
      <trkpt lat="48.41354" lon="2.50957">
        <ele>140.80000305176</ele>
        <time>2019-11-16T12:48:45.000Z</time>
      </trkpt>
      <trkpt lat="48.41352" lon="2.50953">
        <ele>140.60000610352</ele>
        <time>2019-11-16T12:48:46.000Z</time>
      </trkpt>
      <trkpt lat="48.41345" lon="2.50937">
        <ele>140.19999694824</ele>
        <time>2019-11-16T12:48:50.000Z</time>
      </trkpt>
      <trkpt lat="48.41346" lon="2.50923">
        <ele>139.80000305176</ele>
        <time>2019-11-16T12:48:53.000Z</time>
      </trkpt>
      <trkpt lat="48.41349" lon="2.50921">
        <ele>139.39999389648</ele>
        <time>2019-11-16T12:48:54.000Z</time>
      </trkpt>
      <trkpt lat="48.41352" lon="2.50917">
        <ele>139.19999694824</ele>
        <time>2019-11-16T12:48:57.000Z</time>
      </trkpt>
      <trkpt lat="48.41353" lon="2.50916">
        <ele>139.19999694824</ele>
        <time>2019-11-16T12:48:58.000Z</time>
      </trkpt>
      <trkpt lat="48.41359" lon="2.50913">
        <ele>139.39999389648</ele>
        <time>2019-11-16T12:49:01.000Z</time>
      </trkpt>
      <trkpt lat="48.41366" lon="2.50907">
        <ele>140.39999389648</ele>
        <time>2019-11-16T12:49:04.000Z</time>
      </trkpt>
      <trkpt lat="48.41383" lon="2.509">
        <ele>140.19999694824</ele>
        <time>2019-11-16T12:49:10.000Z</time>
      </trkpt>
      <trkpt lat="48.41396" lon="2.50895">
        <ele>140</ele>
        <time>2019-11-16T12:49:13.000Z</time>
      </trkpt>
      <trkpt lat="48.41401" lon="2.50893">
        <ele>140</ele>
        <time>2019-11-16T12:49:14.000Z</time>
      </trkpt>
      <trkpt lat="48.41418" lon="2.50888">
        <ele>139.39999389648</ele>
        <time>2019-11-16T12:49:17.000Z</time>
      </trkpt>
      <trkpt lat="48.41423" lon="2.50885">
        <ele>139.19999694824</ele>
        <time>2019-11-16T12:49:18.000Z</time>
      </trkpt>
      <trkpt lat="48.41442" lon="2.50877">
        <ele>138.60000610352</ele>
        <time>2019-11-16T12:49:22.000Z</time>
      </trkpt>
      <trkpt lat="48.41447" lon="2.50876">
        <ele>138.39999389648</ele>
        <time>2019-11-16T12:49:23.000Z</time>
      </trkpt>
      <trkpt lat="48.41461" lon="2.50871">
        <ele>138.39999389648</ele>
        <time>2019-11-16T12:49:26.000Z</time>
      </trkpt>
      <trkpt lat="48.41478" lon="2.50866">
        <ele>137.39999389648</ele>
        <time>2019-11-16T12:49:29.000Z</time>
      </trkpt>
      <trkpt lat="48.41489" lon="2.50862">
        <ele>137.19999694824</ele>
        <time>2019-11-16T12:49:31.000Z</time>
      </trkpt>
      <trkpt lat="48.41503" lon="2.50857">
        <ele>136.39999389648</ele>
        <time>2019-11-16T12:49:34.000Z</time>
      </trkpt>
      <trkpt lat="48.41526" lon="2.5085">
        <ele>137.60000610352</ele>
        <time>2019-11-16T12:49:40.000Z</time>
      </trkpt>
      <trkpt lat="48.41544" lon="2.50843">
        <ele>137.80000305176</ele>
        <time>2019-11-16T12:49:45.000Z</time>
      </trkpt>
      <trkpt lat="48.41552" lon="2.5084">
        <ele>138.19999694824</ele>
        <time>2019-11-16T12:49:47.000Z</time>
      </trkpt>
      <trkpt lat="48.41564" lon="2.50838">
        <ele>138.60000610352</ele>
        <time>2019-11-16T12:49:50.000Z</time>
      </trkpt>
      <trkpt lat="48.41589" lon="2.50828">
        <ele>139</ele>
        <time>2019-11-16T12:49:56.000Z</time>
      </trkpt>
      <trkpt lat="48.41617" lon="2.50819">
        <ele>139</ele>
        <time>2019-11-16T12:50:02.000Z</time>
      </trkpt>
      <trkpt lat="48.41627" lon="2.50815">
        <ele>139.19999694824</ele>
        <time>2019-11-16T12:50:04.000Z</time>
      </trkpt>
      <trkpt lat="48.41637" lon="2.50811">
        <ele>139</ele>
        <time>2019-11-16T12:50:06.000Z</time>
      </trkpt>
      <trkpt lat="48.41658" lon="2.50804">
        <ele>139.39999389648</ele>
        <time>2019-11-16T12:50:11.000Z</time>
      </trkpt>
      <trkpt lat="48.4168" lon="2.50797">
        <ele>139.60000610352</ele>
        <time>2019-11-16T12:50:16.000Z</time>
      </trkpt>
      <trkpt lat="48.41686" lon="2.5081">
        <ele>140</ele>
        <time>2019-11-16T12:50:19.000Z</time>
      </trkpt>
      <trkpt lat="48.41686" lon="2.50824">
        <ele>140</ele>
        <time>2019-11-16T12:50:21.000Z</time>
      </trkpt>
      <trkpt lat="48.41683" lon="2.50856">
        <ele>139.39999389648</ele>
        <time>2019-11-16T12:50:25.000Z</time>
      </trkpt>
      <trkpt lat="48.4168" lon="2.50899">
        <ele>138.80000305176</ele>
        <time>2019-11-16T12:50:30.000Z</time>
      </trkpt>
      <trkpt lat="48.41678" lon="2.50932">
        <ele>139</ele>
        <time>2019-11-16T12:50:34.000Z</time>
      </trkpt>
      <trkpt lat="48.41677" lon="2.50941">
        <ele>139.19999694824</ele>
        <time>2019-11-16T12:50:35.000Z</time>
      </trkpt>
      <trkpt lat="48.41673" lon="2.51009">
        <ele>138.80000305176</ele>
        <time>2019-11-16T12:50:43.000Z</time>
      </trkpt>
      <trkpt lat="48.4167" lon="2.51053">
        <ele>138.19999694824</ele>
        <time>2019-11-16T12:50:48.000Z</time>
      </trkpt>
      <trkpt lat="48.41669" lon="2.51061">
        <ele>138.19999694824</ele>
        <time>2019-11-16T12:50:49.000Z</time>
      </trkpt>
      <trkpt lat="48.41663" lon="2.51124">
        <ele>138.19999694824</ele>
        <time>2019-11-16T12:50:56.000Z</time>
      </trkpt>
      <trkpt lat="48.41662" lon="2.51133">
        <ele>138.19999694824</ele>
        <time>2019-11-16T12:50:57.000Z</time>
      </trkpt>
      <trkpt lat="48.41656" lon="2.51198">
        <ele>138.19999694824</ele>
        <time>2019-11-16T12:51:04.000Z</time>
      </trkpt>
      <trkpt lat="48.41649" lon="2.5125">
        <ele>138.80000305176</ele>
        <time>2019-11-16T12:51:10.000Z</time>
      </trkpt>
      <trkpt lat="48.41647" lon="2.51267">
        <ele>139.19999694824</ele>
        <time>2019-11-16T12:51:12.000Z</time>
      </trkpt>
      <trkpt lat="48.41643" lon="2.51293">
        <ele>139.39999389648</ele>
        <time>2019-11-16T12:51:15.000Z</time>
      </trkpt>
      <trkpt lat="48.41638" lon="2.51336">
        <ele>139.80000305176</ele>
        <time>2019-11-16T12:51:20.000Z</time>
      </trkpt>
      <trkpt lat="48.41637" lon="2.51354">
        <ele>140</ele>
        <time>2019-11-16T12:51:22.000Z</time>
      </trkpt>
      <trkpt lat="48.41634" lon="2.51389">
        <ele>139.80000305176</ele>
        <time>2019-11-16T12:51:26.000Z</time>
      </trkpt>
      <trkpt lat="48.41633" lon="2.51408">
        <ele>140</ele>
        <time>2019-11-16T12:51:28.000Z</time>
      </trkpt>
      <trkpt lat="48.41629" lon="2.51475">
        <ele>139.39999389648</ele>
        <time>2019-11-16T12:51:35.000Z</time>
      </trkpt>
      <trkpt lat="48.41625" lon="2.51535">
        <ele>138.60000610352</ele>
        <time>2019-11-16T12:51:41.000Z</time>
      </trkpt>
      <trkpt lat="48.41624" lon="2.51546">
        <ele>138.19999694824</ele>
        <time>2019-11-16T12:51:42.000Z</time>
      </trkpt>
      <trkpt lat="48.41622" lon="2.51567">
        <ele>137.60000610352</ele>
        <time>2019-11-16T12:51:44.000Z</time>
      </trkpt>
      <trkpt lat="48.41624" lon="2.51589">
        <ele>137.39999389648</ele>
        <time>2019-11-16T12:51:46.000Z</time>
      </trkpt>
      <trkpt lat="48.41634" lon="2.51631">
        <ele>137.19999694824</ele>
        <time>2019-11-16T12:51:50.000Z</time>
      </trkpt>
      <trkpt lat="48.41638" lon="2.51641">
        <ele>136.80000305176</ele>
        <time>2019-11-16T12:51:51.000Z</time>
      </trkpt>
      <trkpt lat="48.41662" lon="2.51699">
        <ele>136</ele>
        <time>2019-11-16T12:51:57.000Z</time>
      </trkpt>
      <trkpt lat="48.41676" lon="2.51739">
        <ele>135.39999389648</ele>
        <time>2019-11-16T12:52:01.000Z</time>
      </trkpt>
      <trkpt lat="48.4168" lon="2.5176">
        <ele>135.80000305176</ele>
        <time>2019-11-16T12:52:03.000Z</time>
      </trkpt>
      <trkpt lat="48.41683" lon="2.51781">
        <ele>135.80000305176</ele>
        <time>2019-11-16T12:52:05.000Z</time>
      </trkpt>
      <trkpt lat="48.4169" lon="2.51799">
        <ele>135.60000610352</ele>
        <time>2019-11-16T12:52:07.000Z</time>
      </trkpt>
      <trkpt lat="48.41708" lon="2.51817">
        <ele>135.80000305176</ele>
        <time>2019-11-16T12:52:10.000Z</time>
      </trkpt>
      <trkpt lat="48.41735" lon="2.51838">
        <ele>135</ele>
        <time>2019-11-16T12:52:14.000Z</time>
      </trkpt>
      <trkpt lat="48.41755" lon="2.51855">
        <ele>134.19999694824</ele>
        <time>2019-11-16T12:52:17.000Z</time>
      </trkpt>
      <trkpt lat="48.41761" lon="2.51861">
        <ele>133.80000305176</ele>
        <time>2019-11-16T12:52:18.000Z</time>
      </trkpt>
      <trkpt lat="48.41767" lon="2.51869">
        <ele>133.80000305176</ele>
        <time>2019-11-16T12:52:19.000Z</time>
      </trkpt>
      <trkpt lat="48.41775" lon="2.51887">
        <ele>133.60000610352</ele>
        <time>2019-11-16T12:52:21.000Z</time>
      </trkpt>
      <trkpt lat="48.4178" lon="2.51914">
        <ele>133.80000305176</ele>
        <time>2019-11-16T12:52:24.000Z</time>
      </trkpt>
      <trkpt lat="48.41779" lon="2.51931">
        <ele>133.80000305176</ele>
        <time>2019-11-16T12:52:26.000Z</time>
      </trkpt>
      <trkpt lat="48.41779" lon="2.51958">
        <ele>133.60000610352</ele>
        <time>2019-11-16T12:52:29.000Z</time>
      </trkpt>
      <trkpt lat="48.4178" lon="2.51967">
        <ele>133.80000305176</ele>
        <time>2019-11-16T12:52:30.000Z</time>
      </trkpt>
      <trkpt lat="48.4178" lon="2.51995">
        <ele>133.60000610352</ele>
        <time>2019-11-16T12:52:33.000Z</time>
      </trkpt>
      <trkpt lat="48.41779" lon="2.52005">
        <ele>133.60000610352</ele>
        <time>2019-11-16T12:52:34.000Z</time>
      </trkpt>
      <trkpt lat="48.41775" lon="2.52046">
        <ele>133.39999389648</ele>
        <time>2019-11-16T12:52:38.000Z</time>
      </trkpt>
      <trkpt lat="48.41776" lon="2.52057">
        <ele>133.19999694824</ele>
        <time>2019-11-16T12:52:39.000Z</time>
      </trkpt>
      <trkpt lat="48.41779" lon="2.52079">
        <ele>132.60000610352</ele>
        <time>2019-11-16T12:52:41.000Z</time>
      </trkpt>
      <trkpt lat="48.41782" lon="2.52101">
        <ele>131.60000610352</ele>
        <time>2019-11-16T12:52:43.000Z</time>
      </trkpt>
      <trkpt lat="48.41782" lon="2.52112">
        <ele>131.39999389648</ele>
        <time>2019-11-16T12:52:44.000Z</time>
      </trkpt>
      <trkpt lat="48.41781" lon="2.52144">
        <ele>130.80000305176</ele>
        <time>2019-11-16T12:52:47.000Z</time>
      </trkpt>
      <trkpt lat="48.41779" lon="2.52155">
        <ele>130.39999389648</ele>
        <time>2019-11-16T12:52:48.000Z</time>
      </trkpt>
      <trkpt lat="48.41777" lon="2.52165">
        <ele>129.80000305176</ele>
        <time>2019-11-16T12:52:49.000Z</time>
      </trkpt>
      <trkpt lat="48.41774" lon="2.52175">
        <ele>129.19999694824</ele>
        <time>2019-11-16T12:52:50.000Z</time>
      </trkpt>
      <trkpt lat="48.41764" lon="2.52189">
        <ele>128.60000610352</ele>
        <time>2019-11-16T12:52:52.000Z</time>
      </trkpt>
      <trkpt lat="48.41756" lon="2.52198">
        <ele>129.19999694824</ele>
        <time>2019-11-16T12:52:54.000Z</time>
      </trkpt>
      <trkpt lat="48.41747" lon="2.52204">
        <ele>129.80000305176</ele>
        <time>2019-11-16T12:52:56.000Z</time>
      </trkpt>
      <trkpt lat="48.41742" lon="2.52205">
        <ele>130.19999694824</ele>
        <time>2019-11-16T12:52:57.000Z</time>
      </trkpt>
      <trkpt lat="48.41728" lon="2.52203">
        <ele>131.19999694824</ele>
        <time>2019-11-16T12:53:00.000Z</time>
      </trkpt>
      <trkpt lat="48.41702" lon="2.52205">
        <ele>132</ele>
        <time>2019-11-16T12:53:06.000Z</time>
      </trkpt>
      <trkpt lat="48.41695" lon="2.52206">
        <ele>132.39999389648</ele>
        <time>2019-11-16T12:53:08.000Z</time>
      </trkpt>
      <trkpt lat="48.41688" lon="2.52205">
        <ele>132.39999389648</ele>
        <time>2019-11-16T12:53:10.000Z</time>
      </trkpt>
      <trkpt lat="48.41684" lon="2.52204">
        <ele>132.60000610352</ele>
        <time>2019-11-16T12:53:11.000Z</time>
      </trkpt>
      <trkpt lat="48.41665" lon="2.52202">
        <ele>132.80000305176</ele>
        <time>2019-11-16T12:53:16.000Z</time>
      </trkpt>
      <trkpt lat="48.41657" lon="2.52202">
        <ele>133.39999389648</ele>
        <time>2019-11-16T12:53:18.000Z</time>
      </trkpt>
      <trkpt lat="48.41646" lon="2.52204">
        <ele>134.19999694824</ele>
        <time>2019-11-16T12:53:21.000Z</time>
      </trkpt>
      <trkpt lat="48.41639" lon="2.52205">
        <ele>134.60000610352</ele>
        <time>2019-11-16T12:53:23.000Z</time>
      </trkpt>
      <trkpt lat="48.41628" lon="2.52214">
        <ele>134.60000610352</ele>
        <time>2019-11-16T12:53:26.000Z</time>
      </trkpt>
      <trkpt lat="48.41612" lon="2.52234">
        <ele>135.80000305176</ele>
        <time>2019-11-16T12:53:32.000Z</time>
      </trkpt>
      <trkpt lat="48.416" lon="2.52255">
        <ele>136.19999694824</ele>
        <time>2019-11-16T12:53:37.000Z</time>
      </trkpt>
      <trkpt lat="48.41577" lon="2.52271">
        <ele>136.39999389648</ele>
        <time>2019-11-16T12:53:44.000Z</time>
      </trkpt>
      <trkpt lat="48.41558" lon="2.52272">
        <ele>136.19999694824</ele>
        <time>2019-11-16T12:53:50.000Z</time>
      </trkpt>
      <trkpt lat="48.41553" lon="2.52272">
        <ele>136</ele>
        <time>2019-11-16T12:53:52.000Z</time>
      </trkpt>
      <trkpt lat="48.41547" lon="2.52273">
        <ele>136.19999694824</ele>
        <time>2019-11-16T12:53:54.000Z</time>
      </trkpt>
      <trkpt lat="48.41538" lon="2.52287">
        <ele>136</ele>
        <time>2019-11-16T12:53:58.000Z</time>
      </trkpt>
      <trkpt lat="48.41536" lon="2.52295">
        <ele>136.19999694824</ele>
        <time>2019-11-16T12:54:02.000Z</time>
      </trkpt>
      <trkpt lat="48.41536" lon="2.52296">
        <ele>136.39999389648</ele>
        <time>2019-11-16T12:54:03.000Z</time>
      </trkpt>
      <trkpt lat="48.41538" lon="2.523">
        <ele>136.19999694824</ele>
        <time>2019-11-16T12:54:06.000Z</time>
      </trkpt>
      <trkpt lat="48.41538" lon="2.52299">
        <ele>135.80000305176</ele>
        <time>2019-11-16T12:54:10.000Z</time>
      </trkpt>
      <trkpt lat="48.41539" lon="2.523">
        <ele>136.19999694824</ele>
        <time>2019-11-16T12:54:27.000Z</time>
      </trkpt>
      <trkpt lat="48.41537" lon="2.52299">
        <ele>136</ele>
        <time>2019-11-16T12:54:30.000Z</time>
      </trkpt>
      <trkpt lat="48.41535" lon="2.52299">
        <ele>135.80000305176</ele>
        <time>2019-11-16T12:54:32.000Z</time>
      </trkpt>
      <trkpt lat="48.41525" lon="2.52297">
        <ele>136</ele>
        <time>2019-11-16T12:54:37.000Z</time>
      </trkpt>
      <trkpt lat="48.4152" lon="2.52296">
        <ele>136</ele>
        <time>2019-11-16T12:54:39.000Z</time>
      </trkpt>
      <trkpt lat="48.41507" lon="2.52291">
        <ele>136</ele>
        <time>2019-11-16T12:54:44.000Z</time>
      </trkpt>
      <trkpt lat="48.41494" lon="2.52286">
        <ele>135.60000610352</ele>
        <time>2019-11-16T12:54:50.000Z</time>
      </trkpt>
      <trkpt lat="48.41479" lon="2.52288">
        <ele>135</ele>
        <time>2019-11-16T12:54:56.000Z</time>
      </trkpt>
      <trkpt lat="48.41464" lon="2.52283">
        <ele>134.80000305176</ele>
        <time>2019-11-16T12:55:01.000Z</time>
      </trkpt>
      <trkpt lat="48.41459" lon="2.52278">
        <ele>134.80000305176</ele>
        <time>2019-11-16T12:55:03.000Z</time>
      </trkpt>
      <trkpt lat="48.41453" lon="2.52272">
        <ele>134.60000610352</ele>
        <time>2019-11-16T12:55:05.000Z</time>
      </trkpt>
      <trkpt lat="48.41446" lon="2.52267">
        <ele>134.39999389648</ele>
        <time>2019-11-16T12:55:07.000Z</time>
      </trkpt>
      <trkpt lat="48.41439" lon="2.52255">
        <ele>134.60000610352</ele>
        <time>2019-11-16T12:55:10.000Z</time>
      </trkpt>
      <trkpt lat="48.41438" lon="2.52232">
        <ele>135</ele>
        <time>2019-11-16T12:55:15.000Z</time>
      </trkpt>
      <trkpt lat="48.41438" lon="2.52224">
        <ele>135.19999694824</ele>
        <time>2019-11-16T12:55:17.000Z</time>
      </trkpt>
      <trkpt lat="48.41438" lon="2.52211">
        <ele>135.39999389648</ele>
        <time>2019-11-16T12:55:20.000Z</time>
      </trkpt>
      <trkpt lat="48.41438" lon="2.52194">
        <ele>135.19999694824</ele>
        <time>2019-11-16T12:55:24.000Z</time>
      </trkpt>
      <trkpt lat="48.41434" lon="2.52188">
        <ele>135.60000610352</ele>
        <time>2019-11-16T12:55:26.000Z</time>
      </trkpt>
      <trkpt lat="48.41432" lon="2.52186">
        <ele>135.80000305176</ele>
        <time>2019-11-16T12:55:27.000Z</time>
      </trkpt>
      <trkpt lat="48.41428" lon="2.52179">
        <ele>135.80000305176</ele>
        <time>2019-11-16T12:55:29.000Z</time>
      </trkpt>
      <trkpt lat="48.41418" lon="2.52162">
        <ele>136</ele>
        <time>2019-11-16T12:55:34.000Z</time>
      </trkpt>
      <trkpt lat="48.41408" lon="2.52147">
        <ele>135.60000610352</ele>
        <time>2019-11-16T12:55:39.000Z</time>
      </trkpt>
      <trkpt lat="48.41405" lon="2.52144">
        <ele>135.39999389648</ele>
        <time>2019-11-16T12:55:41.000Z</time>
      </trkpt>
      <trkpt lat="48.41407" lon="2.52141">
        <ele>135.39999389648</ele>
        <time>2019-11-16T12:55:43.000Z</time>
      </trkpt>
      <trkpt lat="48.41412" lon="2.52129">
        <ele>135.39999389648</ele>
        <time>2019-11-16T12:55:48.000Z</time>
      </trkpt>
      <trkpt lat="48.41411" lon="2.52112">
        <ele>134.39999389648</ele>
        <time>2019-11-16T12:55:52.000Z</time>
      </trkpt>
      <trkpt lat="48.41411" lon="2.52095">
        <ele>132.60000610352</ele>
        <time>2019-11-16T12:55:54.000Z</time>
      </trkpt>
      <trkpt lat="48.41414" lon="2.52078">
        <ele>131.39999389648</ele>
        <time>2019-11-16T12:55:56.000Z</time>
      </trkpt>
      <trkpt lat="48.41417" lon="2.52049">
        <ele>130.19999694824</ele>
        <time>2019-11-16T12:55:59.000Z</time>
      </trkpt>
      <trkpt lat="48.41419" lon="2.5204">
        <ele>129.80000305176</ele>
        <time>2019-11-16T12:56:00.000Z</time>
      </trkpt>
      <trkpt lat="48.4142" lon="2.52033">
        <ele>129.39999389648</ele>
        <time>2019-11-16T12:56:01.000Z</time>
      </trkpt>
      <trkpt lat="48.41415" lon="2.52023">
        <ele>129.19999694824</ele>
        <time>2019-11-16T12:56:03.000Z</time>
      </trkpt>
      <trkpt lat="48.41411" lon="2.52017">
        <ele>128.60000610352</ele>
        <time>2019-11-16T12:56:04.000Z</time>
      </trkpt>
      <trkpt lat="48.41409" lon="2.52011">
        <ele>128</ele>
        <time>2019-11-16T12:56:05.000Z</time>
      </trkpt>
      <trkpt lat="48.41409" lon="2.52006">
        <ele>126.80000305176</ele>
        <time>2019-11-16T12:56:07.000Z</time>
      </trkpt>
      <trkpt lat="48.4141" lon="2.52003">
        <ele>125.80000305176</ele>
        <time>2019-11-16T12:56:09.000Z</time>
      </trkpt>
      <trkpt lat="48.41411" lon="2.51998">
        <ele>125.19999694824</ele>
        <time>2019-11-16T12:56:11.000Z</time>
      </trkpt>
      <trkpt lat="48.41411" lon="2.51994">
        <ele>124.80000305176</ele>
        <time>2019-11-16T12:56:12.000Z</time>
      </trkpt>
      <trkpt lat="48.41411" lon="2.51988">
        <ele>123.59999847412</ele>
        <time>2019-11-16T12:56:14.000Z</time>
      </trkpt>
      <trkpt lat="48.4141" lon="2.51981">
        <ele>122.19999694824</ele>
        <time>2019-11-16T12:56:16.000Z</time>
      </trkpt>
      <trkpt lat="48.41406" lon="2.51968">
        <ele>119.59999847412</ele>
        <time>2019-11-16T12:56:18.000Z</time>
      </trkpt>
      <trkpt lat="48.41404" lon="2.51961">
        <ele>118.59999847412</ele>
        <time>2019-11-16T12:56:19.000Z</time>
      </trkpt>
      <trkpt lat="48.41401" lon="2.51953">
        <ele>117.80000305176</ele>
        <time>2019-11-16T12:56:20.000Z</time>
      </trkpt>
      <trkpt lat="48.414" lon="2.51945">
        <ele>117</ele>
        <time>2019-11-16T12:56:21.000Z</time>
      </trkpt>
      <trkpt lat="48.41398" lon="2.51936">
        <ele>116.19999694824</ele>
        <time>2019-11-16T12:56:22.000Z</time>
      </trkpt>
      <trkpt lat="48.41395" lon="2.5193">
        <ele>115.40000152588</ele>
        <time>2019-11-16T12:56:23.000Z</time>
      </trkpt>
      <trkpt lat="48.41392" lon="2.51925">
        <ele>114.59999847412</ele>
        <time>2019-11-16T12:56:24.000Z</time>
      </trkpt>
      <trkpt lat="48.41381" lon="2.51909">
        <ele>113.40000152588</ele>
        <time>2019-11-16T12:56:27.000Z</time>
      </trkpt>
      <trkpt lat="48.41377" lon="2.51905">
        <ele>113</ele>
        <time>2019-11-16T12:56:28.000Z</time>
      </trkpt>
      <trkpt lat="48.41373" lon="2.519">
        <ele>112.80000305176</ele>
        <time>2019-11-16T12:56:29.000Z</time>
      </trkpt>
      <trkpt lat="48.41362" lon="2.51893">
        <ele>112.19999694824</ele>
        <time>2019-11-16T12:56:32.000Z</time>
      </trkpt>
      <trkpt lat="48.41353" lon="2.51885">
        <ele>111.80000305176</ele>
        <time>2019-11-16T12:56:34.000Z</time>
      </trkpt>
      <trkpt lat="48.4135" lon="2.5188">
        <ele>111.19999694824</ele>
        <time>2019-11-16T12:56:35.000Z</time>
      </trkpt>
      <trkpt lat="48.41348" lon="2.51874">
        <ele>110.80000305176</ele>
        <time>2019-11-16T12:56:36.000Z</time>
      </trkpt>
      <trkpt lat="48.4135" lon="2.51855">
        <ele>110.40000152588</ele>
        <time>2019-11-16T12:56:39.000Z</time>
      </trkpt>
      <trkpt lat="48.41353" lon="2.51841">
        <ele>110.19999694824</ele>
        <time>2019-11-16T12:56:42.000Z</time>
      </trkpt>
      <trkpt lat="48.41354" lon="2.51837">
        <ele>110</ele>
        <time>2019-11-16T12:56:43.000Z</time>
      </trkpt>
      <trkpt lat="48.41354" lon="2.51823">
        <ele>110.19999694824</ele>
        <time>2019-11-16T12:56:46.000Z</time>
      </trkpt>
      <trkpt lat="48.41351" lon="2.51819">
        <ele>110.19999694824</ele>
        <time>2019-11-16T12:56:47.000Z</time>
      </trkpt>
      <trkpt lat="48.41337" lon="2.51809">
        <ele>110.40000152588</ele>
        <time>2019-11-16T12:56:51.000Z</time>
      </trkpt>
      <trkpt lat="48.41326" lon="2.518">
        <ele>110.80000305176</ele>
        <time>2019-11-16T12:56:54.000Z</time>
      </trkpt>
      <trkpt lat="48.41323" lon="2.51795">
        <ele>110.80000305176</ele>
        <time>2019-11-16T12:56:55.000Z</time>
      </trkpt>
      <trkpt lat="48.41313" lon="2.5178">
        <ele>111.40000152588</ele>
        <time>2019-11-16T12:56:59.000Z</time>
      </trkpt>
      <trkpt lat="48.4131" lon="2.51775">
        <ele>111.59999847412</ele>
        <time>2019-11-16T12:57:00.000Z</time>
      </trkpt>
      <trkpt lat="48.41298" lon="2.51757">
        <ele>111.19999694824</ele>
        <time>2019-11-16T12:57:03.000Z</time>
      </trkpt>
      <trkpt lat="48.41287" lon="2.51742">
        <ele>108.80000305176</ele>
        <time>2019-11-16T12:57:06.000Z</time>
      </trkpt>
      <trkpt lat="48.41279" lon="2.51727">
        <ele>107.40000152588</ele>
        <time>2019-11-16T12:57:08.000Z</time>
      </trkpt>
      <trkpt lat="48.41269" lon="2.51711">
        <ele>105.59999847412</ele>
        <time>2019-11-16T12:57:10.000Z</time>
      </trkpt>
      <trkpt lat="48.41263" lon="2.51703">
        <ele>104.80000305176</ele>
        <time>2019-11-16T12:57:11.000Z</time>
      </trkpt>
      <trkpt lat="48.41256" lon="2.51699">
        <ele>104</ele>
        <time>2019-11-16T12:57:12.000Z</time>
      </trkpt>
      <trkpt lat="48.41249" lon="2.51697">
        <ele>103.40000152588</ele>
        <time>2019-11-16T12:57:13.000Z</time>
      </trkpt>
      <trkpt lat="48.41242" lon="2.51696">
        <ele>102.80000305176</ele>
        <time>2019-11-16T12:57:14.000Z</time>
      </trkpt>
      <trkpt lat="48.41227" lon="2.51695">
        <ele>102</ele>
        <time>2019-11-16T12:57:16.000Z</time>
      </trkpt>
      <trkpt lat="48.41221" lon="2.51696">
        <ele>101.59999847412</ele>
        <time>2019-11-16T12:57:17.000Z</time>
      </trkpt>
      <trkpt lat="48.41214" lon="2.51697">
        <ele>101.40000152588</ele>
        <time>2019-11-16T12:57:18.000Z</time>
      </trkpt>
      <trkpt lat="48.41196" lon="2.51706">
        <ele>100.59999847412</ele>
        <time>2019-11-16T12:57:21.000Z</time>
      </trkpt>
      <trkpt lat="48.41189" lon="2.51711">
        <ele>98.400001525879</ele>
        <time>2019-11-16T12:57:24.000Z</time>
      </trkpt>
      <trkpt lat="48.41186" lon="2.51712">
        <ele>100.59999847412</ele>
        <time>2019-11-16T12:57:27.000Z</time>
      </trkpt>
      <trkpt lat="48.41187" lon="2.51712">
        <ele>100.19999694824</ele>
        <time>2019-11-16T12:57:29.000Z</time>
      </trkpt>
      <trkpt lat="48.41201" lon="2.51709">
        <ele>100.19999694824</ele>
        <time>2019-11-16T12:57:35.000Z</time>
      </trkpt>
      <trkpt lat="48.41215" lon="2.51704">
        <ele>100.59999847412</ele>
        <time>2019-11-16T12:57:39.000Z</time>
      </trkpt>
      <trkpt lat="48.41224" lon="2.51693">
        <ele>101.40000152588</ele>
        <time>2019-11-16T12:57:43.000Z</time>
      </trkpt>
      <trkpt lat="48.41225" lon="2.5169">
        <ele>101.59999847412</ele>
        <time>2019-11-16T12:57:44.000Z</time>
      </trkpt>
      <trkpt lat="48.41236" lon="2.51676">
        <ele>102.59999847412</ele>
        <time>2019-11-16T12:57:49.000Z</time>
      </trkpt>
      <trkpt lat="48.4124" lon="2.51674">
        <ele>103</ele>
        <time>2019-11-16T12:57:50.000Z</time>
      </trkpt>
      <trkpt lat="48.41248" lon="2.5166">
        <ele>103.59999847412</ele>
        <time>2019-11-16T12:57:54.000Z</time>
      </trkpt>
      <trkpt lat="48.4125" lon="2.51651">
        <ele>104</ele>
        <time>2019-11-16T12:57:56.000Z</time>
      </trkpt>
      <trkpt lat="48.41257" lon="2.51636">
        <ele>105</ele>
        <time>2019-11-16T12:58:00.000Z</time>
      </trkpt>
      <trkpt lat="48.41258" lon="2.51633">
        <ele>105.40000152588</ele>
        <time>2019-11-16T12:58:01.000Z</time>
      </trkpt>
      <trkpt lat="48.4126" lon="2.51624">
        <ele>105.59999847412</ele>
        <time>2019-11-16T12:58:04.000Z</time>
      </trkpt>
      <trkpt lat="48.41259" lon="2.51621">
        <ele>106</ele>
        <time>2019-11-16T12:58:05.000Z</time>
      </trkpt>
      <trkpt lat="48.41256" lon="2.51617">
        <ele>106.80000305176</ele>
        <time>2019-11-16T12:58:07.000Z</time>
      </trkpt>
      <trkpt lat="48.41256" lon="2.51609">
        <ele>107.80000305176</ele>
        <time>2019-11-16T12:58:10.000Z</time>
      </trkpt>
      <trkpt lat="48.41257" lon="2.51607">
        <ele>108.19999694824</ele>
        <time>2019-11-16T12:58:11.000Z</time>
      </trkpt>
      <trkpt lat="48.41261" lon="2.51599">
        <ele>109.19999694824</ele>
        <time>2019-11-16T12:58:15.000Z</time>
      </trkpt>
      <trkpt lat="48.41266" lon="2.51594">
        <ele>110.59999847412</ele>
        <time>2019-11-16T12:58:18.000Z</time>
      </trkpt>
      <trkpt lat="48.41271" lon="2.51588">
        <ele>111.80000305176</ele>
        <time>2019-11-16T12:58:21.000Z</time>
      </trkpt>
      <trkpt lat="48.41277" lon="2.51583">
        <ele>112.80000305176</ele>
        <time>2019-11-16T12:58:24.000Z</time>
      </trkpt>
      <trkpt lat="48.41283" lon="2.51576">
        <ele>114</ele>
        <time>2019-11-16T12:58:27.000Z</time>
      </trkpt>
      <trkpt lat="48.41284" lon="2.51576">
        <ele>114.40000152588</ele>
        <time>2019-11-16T12:58:28.000Z</time>
      </trkpt>
      <trkpt lat="48.41288" lon="2.51575">
        <ele>115</ele>
        <time>2019-11-16T12:58:30.000Z</time>
      </trkpt>
      <trkpt lat="48.4129" lon="2.51574">
        <ele>115.19999694824</ele>
        <time>2019-11-16T12:58:32.000Z</time>
      </trkpt>
      <trkpt lat="48.4129" lon="2.51572">
        <ele>115.40000152588</ele>
        <time>2019-11-16T12:58:33.000Z</time>
      </trkpt>
      <trkpt lat="48.41293" lon="2.51569">
        <ele>115.59999847412</ele>
        <time>2019-11-16T12:58:35.000Z</time>
      </trkpt>
      <trkpt lat="48.41297" lon="2.51566">
        <ele>116</ele>
        <time>2019-11-16T12:58:37.000Z</time>
      </trkpt>
      <trkpt lat="48.41301" lon="2.51565">
        <ele>117.19999694824</ele>
        <time>2019-11-16T12:58:39.000Z</time>
      </trkpt>
      <trkpt lat="48.41304" lon="2.51562">
        <ele>117.80000305176</ele>
        <time>2019-11-16T12:58:41.000Z</time>
      </trkpt>
      <trkpt lat="48.41305" lon="2.5156">
        <ele>118.59999847412</ele>
        <time>2019-11-16T12:58:42.000Z</time>
      </trkpt>
      <trkpt lat="48.41309" lon="2.51556">
        <ele>119.80000305176</ele>
        <time>2019-11-16T12:58:44.000Z</time>
      </trkpt>
      <trkpt lat="48.41312" lon="2.51555">
        <ele>120.59999847412</ele>
        <time>2019-11-16T12:58:46.000Z</time>
      </trkpt>
      <trkpt lat="48.41314" lon="2.51554">
        <ele>121</ele>
        <time>2019-11-16T12:58:47.000Z</time>
      </trkpt>
      <trkpt lat="48.41317" lon="2.51551">
        <ele>121.59999847412</ele>
        <time>2019-11-16T12:58:49.000Z</time>
      </trkpt>
      <trkpt lat="48.41319" lon="2.51551">
        <ele>122</ele>
        <time>2019-11-16T12:58:50.000Z</time>
      </trkpt>
      <trkpt lat="48.41321" lon="2.51551">
        <ele>122.40000152588</ele>
        <time>2019-11-16T12:58:52.000Z</time>
      </trkpt>
      <trkpt lat="48.41324" lon="2.51551">
        <ele>123.40000152588</ele>
        <time>2019-11-16T12:58:54.000Z</time>
      </trkpt>
      <trkpt lat="48.41327" lon="2.51552">
        <ele>124.40000152588</ele>
        <time>2019-11-16T12:58:57.000Z</time>
      </trkpt>
      <trkpt lat="48.41326" lon="2.51552">
        <ele>124.80000305176</ele>
        <time>2019-11-16T12:58:58.000Z</time>
      </trkpt>
      <trkpt lat="48.41328" lon="2.51552">
        <ele>125.59999847412</ele>
        <time>2019-11-16T12:59:00.000Z</time>
      </trkpt>
      <trkpt lat="48.41332" lon="2.51552">
        <ele>126.80000305176</ele>
        <time>2019-11-16T12:59:04.000Z</time>
      </trkpt>
      <trkpt lat="48.41334" lon="2.5155">
        <ele>127.80000305176</ele>
        <time>2019-11-16T12:59:08.000Z</time>
      </trkpt>
      <trkpt lat="48.41335" lon="2.51547">
        <ele>127.80000305176</ele>
        <time>2019-11-16T12:59:09.000Z</time>
      </trkpt>
      <trkpt lat="48.41337" lon="2.51545">
        <ele>129</ele>
        <time>2019-11-16T12:59:14.000Z</time>
      </trkpt>
      <trkpt lat="48.41338" lon="2.51545">
        <ele>129.39999389648</ele>
        <time>2019-11-16T12:59:16.000Z</time>
      </trkpt>
      <trkpt lat="48.4134" lon="2.51546">
        <ele>130.19999694824</ele>
        <time>2019-11-16T12:59:19.000Z</time>
      </trkpt>
      <trkpt lat="48.41341" lon="2.51547">
        <ele>131</ele>
        <time>2019-11-16T12:59:22.000Z</time>
      </trkpt>
      <trkpt lat="48.41342" lon="2.51547">
        <ele>131.19999694824</ele>
        <time>2019-11-16T12:59:23.000Z</time>
      </trkpt>
      <trkpt lat="48.41343" lon="2.51549">
        <ele>132.39999389648</ele>
        <time>2019-11-16T12:59:27.000Z</time>
      </trkpt>
      <trkpt lat="48.41342" lon="2.5155">
        <ele>132.39999389648</ele>
        <time>2019-11-16T12:59:28.000Z</time>
      </trkpt>
      <trkpt lat="48.41342" lon="2.51554">
        <ele>132.80000305176</ele>
        <time>2019-11-16T12:59:31.000Z</time>
      </trkpt>
      <trkpt lat="48.41342" lon="2.51558">
        <ele>133.19999694824</ele>
        <time>2019-11-16T12:59:35.000Z</time>
      </trkpt>
      <trkpt lat="48.41342" lon="2.51563">
        <ele>133.39999389648</ele>
        <time>2019-11-16T12:59:38.000Z</time>
      </trkpt>
      <trkpt lat="48.41343" lon="2.51564">
        <ele>133.60000610352</ele>
        <time>2019-11-16T12:59:40.000Z</time>
      </trkpt>
      <trkpt lat="48.41343" lon="2.51564">
        <ele>133.60000610352</ele>
        <time>2019-11-16T12:59:41.000Z</time>
      </trkpt>
      <trkpt lat="48.41349" lon="2.51569">
        <ele>133.60000610352</ele>
        <time>2019-11-16T12:59:46.000Z</time>
      </trkpt>
      <trkpt lat="48.41351" lon="2.51571">
        <ele>133.39999389648</ele>
        <time>2019-11-16T12:59:47.000Z</time>
      </trkpt>
      <trkpt lat="48.41362" lon="2.51576">
        <ele>132.80000305176</ele>
        <time>2019-11-16T12:59:51.000Z</time>
      </trkpt>
      <trkpt lat="48.41364" lon="2.51576">
        <ele>133</ele>
        <time>2019-11-16T12:59:52.000Z</time>
      </trkpt>
      <trkpt lat="48.41373" lon="2.51572">
        <ele>134.19999694824</ele>
        <time>2019-11-16T12:59:56.000Z</time>
      </trkpt>
      <trkpt lat="48.41374" lon="2.5157">
        <ele>134.60000610352</ele>
        <time>2019-11-16T12:59:57.000Z</time>
      </trkpt>
      <trkpt lat="48.41381" lon="2.51558">
        <ele>135.60000610352</ele>
        <time>2019-11-16T13:00:02.000Z</time>
      </trkpt>
      <trkpt lat="48.41386" lon="2.51542">
        <ele>136.60000610352</ele>
        <time>2019-11-16T13:00:08.000Z</time>
      </trkpt>
      <trkpt lat="48.41398" lon="2.51525">
        <ele>136.80000305176</ele>
        <time>2019-11-16T13:00:13.000Z</time>
      </trkpt>
      <trkpt lat="48.414" lon="2.51521">
        <ele>137</ele>
        <time>2019-11-16T13:00:14.000Z</time>
      </trkpt>
      <trkpt lat="48.41411" lon="2.515">
        <ele>137.39999389648</ele>
        <time>2019-11-16T13:00:19.000Z</time>
      </trkpt>
      <trkpt lat="48.41412" lon="2.51495">
        <ele>137.39999389648</ele>
        <time>2019-11-16T13:00:20.000Z</time>
      </trkpt>
      <trkpt lat="48.41413" lon="2.51479">
        <ele>137.19999694824</ele>
        <time>2019-11-16T13:00:23.000Z</time>
      </trkpt>
      <trkpt lat="48.41413" lon="2.51473">
        <ele>137.39999389648</ele>
        <time>2019-11-16T13:00:24.000Z</time>
      </trkpt>
      <trkpt lat="48.41413" lon="2.51438">
        <ele>137.39999389648</ele>
        <time>2019-11-16T13:00:30.000Z</time>
      </trkpt>
      <trkpt lat="48.41414" lon="2.51404">
        <ele>136.39999389648</ele>
        <time>2019-11-16T13:00:35.000Z</time>
      </trkpt>
      <trkpt lat="48.41412" lon="2.51391">
        <ele>135.80000305176</ele>
        <time>2019-11-16T13:00:37.000Z</time>
      </trkpt>
      <trkpt lat="48.41413" lon="2.51386">
        <ele>135.39999389648</ele>
        <time>2019-11-16T13:00:38.000Z</time>
      </trkpt>
      <trkpt lat="48.4142" lon="2.51384">
        <ele>135.19999694824</ele>
        <time>2019-11-16T13:00:40.000Z</time>
      </trkpt>
      <trkpt lat="48.41432" lon="2.51383">
        <ele>136</ele>
        <time>2019-11-16T13:00:44.000Z</time>
      </trkpt>
      <trkpt lat="48.41436" lon="2.51385">
        <ele>136.60000610352</ele>
        <time>2019-11-16T13:00:48.000Z</time>
      </trkpt>
      <trkpt lat="48.41436" lon="2.51385">
        <ele>136.60000610352</ele>
        <time>2019-11-16T13:00:53.000Z</time>
      </trkpt>
      <trkpt lat="48.41435" lon="2.51385">
        <ele>136.60000610352</ele>
        <time>2019-11-16T13:00:54.000Z</time>
      </trkpt>
      <trkpt lat="48.41434" lon="2.51378">
        <ele>136.39999389648</ele>
        <time>2019-11-16T13:00:57.000Z</time>
      </trkpt>
      <trkpt lat="48.41438" lon="2.51374">
        <ele>136</ele>
        <time>2019-11-16T13:01:00.000Z</time>
      </trkpt>
      <trkpt lat="48.41445" lon="2.51377">
        <ele>136.60000610352</ele>
        <time>2019-11-16T13:01:05.000Z</time>
      </trkpt>
      <trkpt lat="48.41448" lon="2.51377">
        <ele>137</ele>
        <time>2019-11-16T13:01:07.000Z</time>
      </trkpt>
      <trkpt lat="48.41451" lon="2.51379">
        <ele>137.19999694824</ele>
        <time>2019-11-16T13:01:09.000Z</time>
      </trkpt>
      <trkpt lat="48.41454" lon="2.5138">
        <ele>137</ele>
        <time>2019-11-16T13:01:10.000Z</time>
      </trkpt>
      <trkpt lat="48.41464" lon="2.51372">
        <ele>137.60000610352</ele>
        <time>2019-11-16T13:01:15.000Z</time>
      </trkpt>
      <trkpt lat="48.41474" lon="2.51362">
        <ele>138.19999694824</ele>
        <time>2019-11-16T13:01:19.000Z</time>
      </trkpt>
      <trkpt lat="48.41482" lon="2.51355">
        <ele>138.60000610352</ele>
        <time>2019-11-16T13:01:22.000Z</time>
      </trkpt>
      <trkpt lat="48.41499" lon="2.51342">
        <ele>139</ele>
        <time>2019-11-16T13:01:28.000Z</time>
      </trkpt>
      <trkpt lat="48.41504" lon="2.51334">
        <ele>139.39999389648</ele>
        <time>2019-11-16T13:01:30.000Z</time>
      </trkpt>
      <trkpt lat="48.4151" lon="2.51324">
        <ele>139.39999389648</ele>
        <time>2019-11-16T13:01:33.000Z</time>
      </trkpt>
      <trkpt lat="48.41531" lon="2.51299">
        <ele>139.60000610352</ele>
        <time>2019-11-16T13:01:40.000Z</time>
      </trkpt>
      <trkpt lat="48.41557" lon="2.51282">
        <ele>139.60000610352</ele>
        <time>2019-11-16T13:01:47.000Z</time>
      </trkpt>
      <trkpt lat="48.41574" lon="2.51275">
        <ele>139.80000305176</ele>
        <time>2019-11-16T13:01:51.000Z</time>
      </trkpt>
      <trkpt lat="48.41582" lon="2.51271">
        <ele>139.60000610352</ele>
        <time>2019-11-16T13:01:53.000Z</time>
      </trkpt>
      <trkpt lat="48.41605" lon="2.51255">
        <ele>139.39999389648</ele>
        <time>2019-11-16T13:01:59.000Z</time>
      </trkpt>
      <trkpt lat="48.4162" lon="2.5125">
        <ele>139</ele>
        <time>2019-11-16T13:02:03.000Z</time>
      </trkpt>
      <trkpt lat="48.41638" lon="2.51247">
        <ele>139.19999694824</ele>
        <time>2019-11-16T13:02:09.000Z</time>
      </trkpt>
      <trkpt lat="48.41643" lon="2.5125">
        <ele>139.19999694824</ele>
        <time>2019-11-16T13:02:12.000Z</time>
      </trkpt>
      <trkpt lat="48.41644" lon="2.51255">
        <ele>139</ele>
        <time>2019-11-16T13:02:13.000Z</time>
      </trkpt>
      <trkpt lat="48.41642" lon="2.5128">
        <ele>139.19999694824</ele>
        <time>2019-11-16T13:02:17.000Z</time>
      </trkpt>
      <trkpt lat="48.41642" lon="2.51297">
        <ele>139.39999389648</ele>
        <time>2019-11-16T13:02:19.000Z</time>
      </trkpt>
      <trkpt lat="48.4164" lon="2.51312">
        <ele>139.60000610352</ele>
        <time>2019-11-16T13:02:21.000Z</time>
      </trkpt>
      <trkpt lat="48.41639" lon="2.51319">
        <ele>139.60000610352</ele>
        <time>2019-11-16T13:02:22.000Z</time>
      </trkpt>
      <trkpt lat="48.41637" lon="2.51369">
        <ele>140.19999694824</ele>
        <time>2019-11-16T13:02:28.000Z</time>
      </trkpt>
      <trkpt lat="48.41635" lon="2.51393">
        <ele>137.19999694824</ele>
        <time>2019-11-16T13:02:31.000Z</time>
      </trkpt>
      <trkpt lat="48.41634" lon="2.5141">
        <ele>136.19999694824</ele>
        <time>2019-11-16T13:02:33.000Z</time>
      </trkpt>
      <trkpt lat="48.41634" lon="2.51419">
        <ele>138.19999694824</ele>
        <time>2019-11-16T13:02:34.000Z</time>
      </trkpt>
      <trkpt lat="48.41633" lon="2.51427">
        <ele>139.80000305176</ele>
        <time>2019-11-16T13:02:35.000Z</time>
      </trkpt>
      <trkpt lat="48.41631" lon="2.51452">
        <ele>138.19999694824</ele>
        <time>2019-11-16T13:02:38.000Z</time>
      </trkpt>
      <trkpt lat="48.41628" lon="2.51488">
        <ele>139.39999389648</ele>
        <time>2019-11-16T13:02:42.000Z</time>
      </trkpt>
      <trkpt lat="48.41627" lon="2.51497">
        <ele>138.60000610352</ele>
        <time>2019-11-16T13:02:43.000Z</time>
      </trkpt>
      <trkpt lat="48.41626" lon="2.51516">
        <ele>138</ele>
        <time>2019-11-16T13:02:45.000Z</time>
      </trkpt>
      <trkpt lat="48.41625" lon="2.51525">
        <ele>137.80000305176</ele>
        <time>2019-11-16T13:02:46.000Z</time>
      </trkpt>
      <trkpt lat="48.41623" lon="2.51545">
        <ele>137.19999694824</ele>
        <time>2019-11-16T13:02:48.000Z</time>
      </trkpt>
      <trkpt lat="48.41623" lon="2.51555">
        <ele>137</ele>
        <time>2019-11-16T13:02:49.000Z</time>
      </trkpt>
      <trkpt lat="48.41625" lon="2.51587">
        <ele>136.60000610352</ele>
        <time>2019-11-16T13:02:52.000Z</time>
      </trkpt>
      <trkpt lat="48.41627" lon="2.51597">
        <ele>136.39999389648</ele>
        <time>2019-11-16T13:02:53.000Z</time>
      </trkpt>
      <trkpt lat="48.41639" lon="2.51632">
        <ele>136.39999389648</ele>
        <time>2019-11-16T13:02:57.000Z</time>
      </trkpt>
      <trkpt lat="48.41643" lon="2.51642">
        <ele>136.19999694824</ele>
        <time>2019-11-16T13:02:58.000Z</time>
      </trkpt>
      <trkpt lat="48.41653" lon="2.51667">
        <ele>135.80000305176</ele>
        <time>2019-11-16T13:03:01.000Z</time>
      </trkpt>
      <trkpt lat="48.4166" lon="2.51686">
        <ele>135.80000305176</ele>
        <time>2019-11-16T13:03:03.000Z</time>
      </trkpt>
      <trkpt lat="48.41663" lon="2.51696">
        <ele>135.80000305176</ele>
        <time>2019-11-16T13:03:04.000Z</time>
      </trkpt>
      <trkpt lat="48.41675" lon="2.51736">
        <ele>135.39999389648</ele>
        <time>2019-11-16T13:03:08.000Z</time>
      </trkpt>
      <trkpt lat="48.41676" lon="2.51746">
        <ele>135.39999389648</ele>
        <time>2019-11-16T13:03:09.000Z</time>
      </trkpt>
      <trkpt lat="48.41682" lon="2.51779">
        <ele>135.60000610352</ele>
        <time>2019-11-16T13:03:13.000Z</time>
      </trkpt>
      <trkpt lat="48.41682" lon="2.51781">
        <ele>135.80000305176</ele>
        <time>2019-11-16T13:03:16.000Z</time>
      </trkpt>
      <trkpt lat="48.41678" lon="2.5176">
        <ele>135.80000305176</ele>
        <time>2019-11-16T13:03:20.000Z</time>
      </trkpt>
      <trkpt lat="48.41682" lon="2.51742">
        <ele>135.80000305176</ele>
        <time>2019-11-16T13:03:24.000Z</time>
      </trkpt>
      <trkpt lat="48.41683" lon="2.5174">
        <ele>135.80000305176</ele>
        <time>2019-11-16T13:03:25.000Z</time>
      </trkpt>
      <trkpt lat="48.41686" lon="2.51739">
        <ele>135.80000305176</ele>
        <time>2019-11-16T13:03:27.000Z</time>
      </trkpt>
      <trkpt lat="48.41688" lon="2.51739">
        <ele>135.80000305176</ele>
        <time>2019-11-16T13:03:32.000Z</time>
      </trkpt>
      <trkpt lat="48.41688" lon="2.51739">
        <ele>135.80000305176</ele>
        <time>2019-11-16T13:03:40.000Z</time>
      </trkpt>
      <trkpt lat="48.41688" lon="2.51739">
        <ele>135.39999389648</ele>
        <time>2019-11-16T13:03:52.000Z</time>
      </trkpt>
      <trkpt lat="48.41688" lon="2.51739">
        <ele>136</ele>
        <time>2019-11-16T13:04:05.000Z</time>
      </trkpt>
      <trkpt lat="48.41687" lon="2.51739">
        <ele>136</ele>
        <time>2019-11-16T13:04:06.000Z</time>
      </trkpt>
      <trkpt lat="48.41679" lon="2.51744">
        <ele>135.80000305176</ele>
        <time>2019-11-16T13:04:10.000Z</time>
      </trkpt>
      <trkpt lat="48.41678" lon="2.51764">
        <ele>135.80000305176</ele>
        <time>2019-11-16T13:04:14.000Z</time>
      </trkpt>
      <trkpt lat="48.41678" lon="2.51771">
        <ele>135.60000610352</ele>
        <time>2019-11-16T13:04:15.000Z</time>
      </trkpt>
      <trkpt lat="48.4168" lon="2.51779">
        <ele>135.39999389648</ele>
        <time>2019-11-16T13:04:16.000Z</time>
      </trkpt>
      <trkpt lat="48.41684" lon="2.51792">
        <ele>135</ele>
        <time>2019-11-16T13:04:18.000Z</time>
      </trkpt>
      <trkpt lat="48.41702" lon="2.51813">
        <ele>135</ele>
        <time>2019-11-16T13:04:22.000Z</time>
      </trkpt>
      <trkpt lat="48.41713" lon="2.51822">
        <ele>134.80000305176</ele>
        <time>2019-11-16T13:04:24.000Z</time>
      </trkpt>
      <trkpt lat="48.41736" lon="2.51841">
        <ele>134.19999694824</ele>
        <time>2019-11-16T13:04:28.000Z</time>
      </trkpt>
      <trkpt lat="48.41753" lon="2.51857">
        <ele>133.60000610352</ele>
        <time>2019-11-16T13:04:31.000Z</time>
      </trkpt>
      <trkpt lat="48.4177" lon="2.51875">
        <ele>133.19999694824</ele>
        <time>2019-11-16T13:04:34.000Z</time>
      </trkpt>
      <trkpt lat="48.41774" lon="2.51901">
        <ele>133</ele>
        <time>2019-11-16T13:04:37.000Z</time>
      </trkpt>
      <trkpt lat="48.41775" lon="2.51919">
        <ele>133.19999694824</ele>
        <time>2019-11-16T13:04:39.000Z</time>
      </trkpt>
      <trkpt lat="48.41776" lon="2.51955">
        <ele>133</ele>
        <time>2019-11-16T13:04:43.000Z</time>
      </trkpt>
      <trkpt lat="48.41777" lon="2.51974">
        <ele>133</ele>
        <time>2019-11-16T13:04:45.000Z</time>
      </trkpt>
      <trkpt lat="48.41777" lon="2.51992">
        <ele>132.80000305176</ele>
        <time>2019-11-16T13:04:47.000Z</time>
      </trkpt>
      <trkpt lat="48.41776" lon="2.52002">
        <ele>132.80000305176</ele>
        <time>2019-11-16T13:04:48.000Z</time>
      </trkpt>
      <trkpt lat="48.4177" lon="2.5204">
        <ele>132.60000610352</ele>
        <time>2019-11-16T13:04:52.000Z</time>
      </trkpt>
      <trkpt lat="48.4177" lon="2.5205">
        <ele>132.60000610352</ele>
        <time>2019-11-16T13:04:53.000Z</time>
      </trkpt>
      <trkpt lat="48.41769" lon="2.52059">
        <ele>132.39999389648</ele>
        <time>2019-11-16T13:04:54.000Z</time>
      </trkpt>
      <trkpt lat="48.41774" lon="2.5209">
        <ele>131.60000610352</ele>
        <time>2019-11-16T13:04:57.000Z</time>
      </trkpt>
      <trkpt lat="48.41776" lon="2.521">
        <ele>131.19999694824</ele>
        <time>2019-11-16T13:04:58.000Z</time>
      </trkpt>
      <trkpt lat="48.41778" lon="2.52131">
        <ele>130.39999389648</ele>
        <time>2019-11-16T13:05:01.000Z</time>
      </trkpt>
      <trkpt lat="48.41777" lon="2.52141">
        <ele>130</ele>
        <time>2019-11-16T13:05:02.000Z</time>
      </trkpt>
      <trkpt lat="48.41772" lon="2.52171">
        <ele>129</ele>
        <time>2019-11-16T13:05:05.000Z</time>
      </trkpt>
      <trkpt lat="48.41768" lon="2.5218">
        <ele>128.39999389648</ele>
        <time>2019-11-16T13:05:06.000Z</time>
      </trkpt>
      <trkpt lat="48.41756" lon="2.52198">
        <ele>128.60000610352</ele>
        <time>2019-11-16T13:05:09.000Z</time>
      </trkpt>
      <trkpt lat="48.41737" lon="2.52206">
        <ele>130</ele>
        <time>2019-11-16T13:05:13.000Z</time>
      </trkpt>
      <trkpt lat="48.41727" lon="2.52204">
        <ele>130.80000305176</ele>
        <time>2019-11-16T13:05:15.000Z</time>
      </trkpt>
      <trkpt lat="48.41722" lon="2.52203">
        <ele>131</ele>
        <time>2019-11-16T13:05:16.000Z</time>
      </trkpt>
      <trkpt lat="48.41711" lon="2.52203">
        <ele>131.19999694824</ele>
        <time>2019-11-16T13:05:18.000Z</time>
      </trkpt>
      <trkpt lat="48.41692" lon="2.52216">
        <ele>131.19999694824</ele>
        <time>2019-11-16T13:05:23.000Z</time>
      </trkpt>
      <trkpt lat="48.41688" lon="2.52229">
        <ele>131.60000610352</ele>
        <time>2019-11-16T13:05:25.000Z</time>
      </trkpt>
      <trkpt lat="48.41684" lon="2.52245">
        <ele>131.80000305176</ele>
        <time>2019-11-16T13:05:27.000Z</time>
      </trkpt>
      <trkpt lat="48.4168" lon="2.52262">
        <ele>132.19999694824</ele>
        <time>2019-11-16T13:05:29.000Z</time>
      </trkpt>
      <trkpt lat="48.41677" lon="2.52269">
        <ele>132.39999389648</ele>
        <time>2019-11-16T13:05:30.000Z</time>
      </trkpt>
      <trkpt lat="48.41672" lon="2.52284">
        <ele>133</ele>
        <time>2019-11-16T13:05:32.000Z</time>
      </trkpt>
      <trkpt lat="48.41666" lon="2.52304">
        <ele>133.60000610352</ele>
        <time>2019-11-16T13:05:35.000Z</time>
      </trkpt>
      <trkpt lat="48.41659" lon="2.5233">
        <ele>134.60000610352</ele>
        <time>2019-11-16T13:05:39.000Z</time>
      </trkpt>
      <trkpt lat="48.41658" lon="2.52337">
        <ele>134.80000305176</ele>
        <time>2019-11-16T13:05:40.000Z</time>
      </trkpt>
      <trkpt lat="48.41645" lon="2.52375">
        <ele>133.80000305176</ele>
        <time>2019-11-16T13:05:45.000Z</time>
      </trkpt>
      <trkpt lat="48.41637" lon="2.52401">
        <ele>133.60000610352</ele>
        <time>2019-11-16T13:05:48.000Z</time>
      </trkpt>
      <trkpt lat="48.41622" lon="2.52438">
        <ele>133.19999694824</ele>
        <time>2019-11-16T13:05:53.000Z</time>
      </trkpt>
      <trkpt lat="48.41609" lon="2.52464">
        <ele>133</ele>
        <time>2019-11-16T13:05:57.000Z</time>
      </trkpt>
      <trkpt lat="48.41616" lon="2.52486">
        <ele>133.39999389648</ele>
        <time>2019-11-16T13:06:00.000Z</time>
      </trkpt>
      <trkpt lat="48.4162" lon="2.52506">
        <ele>134</ele>
        <time>2019-11-16T13:06:03.000Z</time>
      </trkpt>
      <trkpt lat="48.41613" lon="2.52525">
        <ele>134.80000305176</ele>
        <time>2019-11-16T13:06:06.000Z</time>
      </trkpt>
      <trkpt lat="48.41609" lon="2.52531">
        <ele>134.80000305176</ele>
        <time>2019-11-16T13:06:07.000Z</time>
      </trkpt>
      <trkpt lat="48.41604" lon="2.52544">
        <ele>135</ele>
        <time>2019-11-16T13:06:09.000Z</time>
      </trkpt>
      <trkpt lat="48.41596" lon="2.52563">
        <ele>134.80000305176</ele>
        <time>2019-11-16T13:06:12.000Z</time>
      </trkpt>
      <trkpt lat="48.4158" lon="2.52609">
        <ele>135.60000610352</ele>
        <time>2019-11-16T13:06:19.000Z</time>
      </trkpt>
      <trkpt lat="48.41577" lon="2.52614">
        <ele>135.60000610352</ele>
        <time>2019-11-16T13:06:20.000Z</time>
      </trkpt>
      <trkpt lat="48.4157" lon="2.52619">
        <ele>135.60000610352</ele>
        <time>2019-11-16T13:06:22.000Z</time>
      </trkpt>
      <trkpt lat="48.41565" lon="2.52627">
        <ele>135.60000610352</ele>
        <time>2019-11-16T13:06:24.000Z</time>
      </trkpt>
      <trkpt lat="48.41561" lon="2.52634">
        <ele>135.80000305176</ele>
        <time>2019-11-16T13:06:26.000Z</time>
      </trkpt>
      <trkpt lat="48.41558" lon="2.52637">
        <ele>136</ele>
        <time>2019-11-16T13:06:27.000Z</time>
      </trkpt>
      <trkpt lat="48.41544" lon="2.52663">
        <ele>136.39999389648</ele>
        <time>2019-11-16T13:06:33.000Z</time>
      </trkpt>
      <trkpt lat="48.41543" lon="2.52671">
        <ele>136.39999389648</ele>
        <time>2019-11-16T13:06:35.000Z</time>
      </trkpt>
      <trkpt lat="48.41545" lon="2.52678">
        <ele>136.39999389648</ele>
        <time>2019-11-16T13:06:37.000Z</time>
      </trkpt>
      <trkpt lat="48.41552" lon="2.52699">
        <ele>136.60000610352</ele>
        <time>2019-11-16T13:06:42.000Z</time>
      </trkpt>
      <trkpt lat="48.41558" lon="2.52713">
        <ele>136.80000305176</ele>
        <time>2019-11-16T13:06:47.000Z</time>
      </trkpt>
      <trkpt lat="48.41554" lon="2.5273">
        <ele>136.39999389648</ele>
        <time>2019-11-16T13:06:51.000Z</time>
      </trkpt>
      <trkpt lat="48.41547" lon="2.5274">
        <ele>136.39999389648</ele>
        <time>2019-11-16T13:06:56.000Z</time>
      </trkpt>
      <trkpt lat="48.41546" lon="2.52741">
        <ele>136</ele>
        <time>2019-11-16T13:07:00.000Z</time>
      </trkpt>
      <trkpt lat="48.41545" lon="2.52741">
        <ele>135.80000305176</ele>
        <time>2019-11-16T13:07:18.000Z</time>
      </trkpt>
      <trkpt lat="48.41546" lon="2.52741">
        <ele>135.80000305176</ele>
        <time>2019-11-16T13:07:19.000Z</time>
      </trkpt>
      <trkpt lat="48.41542" lon="2.52749">
        <ele>136</ele>
        <time>2019-11-16T13:07:25.000Z</time>
      </trkpt>
      <trkpt lat="48.41541" lon="2.52755">
        <ele>135.80000305176</ele>
        <time>2019-11-16T13:07:30.000Z</time>
      </trkpt>
      <trkpt lat="48.41542" lon="2.52756">
        <ele>135.80000305176</ele>
        <time>2019-11-16T13:07:31.000Z</time>
      </trkpt>
      <trkpt lat="48.41543" lon="2.52757">
        <ele>136</ele>
        <time>2019-11-16T13:07:34.000Z</time>
      </trkpt>
      <trkpt lat="48.41543" lon="2.5276">
        <ele>135.80000305176</ele>
        <time>2019-11-16T13:07:39.000Z</time>
      </trkpt>
      <trkpt lat="48.41542" lon="2.52763">
        <ele>135.80000305176</ele>
        <time>2019-11-16T13:07:44.000Z</time>
      </trkpt>
      <trkpt lat="48.41543" lon="2.52767">
        <ele>136</ele>
        <time>2019-11-16T13:07:46.000Z</time>
      </trkpt>
      <trkpt lat="48.41543" lon="2.52772">
        <ele>135.80000305176</ele>
        <time>2019-11-16T13:07:48.000Z</time>
      </trkpt>
      <trkpt lat="48.41544" lon="2.52788">
        <ele>136</ele>
        <time>2019-11-16T13:07:52.000Z</time>
      </trkpt>
      <trkpt lat="48.41544" lon="2.52793">
        <ele>136</ele>
        <time>2019-11-16T13:07:53.000Z</time>
      </trkpt>
      <trkpt lat="48.41543" lon="2.52801">
        <ele>135.39999389648</ele>
        <time>2019-11-16T13:07:56.000Z</time>
      </trkpt>
      <trkpt lat="48.41542" lon="2.52803">
        <ele>135.39999389648</ele>
        <time>2019-11-16T13:07:57.000Z</time>
      </trkpt>
      <trkpt lat="48.41531" lon="2.52811">
        <ele>135.39999389648</ele>
        <time>2019-11-16T13:08:01.000Z</time>
      </trkpt>
      <trkpt lat="48.41524" lon="2.52815">
        <ele>135.80000305176</ele>
        <time>2019-11-16T13:08:04.000Z</time>
      </trkpt>
      <trkpt lat="48.41522" lon="2.52817">
        <ele>135.80000305176</ele>
        <time>2019-11-16T13:08:05.000Z</time>
      </trkpt>
      <trkpt lat="48.41512" lon="2.52823">
        <ele>136.39999389648</ele>
        <time>2019-11-16T13:08:11.000Z</time>
      </trkpt>
      <trkpt lat="48.41506" lon="2.52833">
        <ele>136.39999389648</ele>
        <time>2019-11-16T13:08:16.000Z</time>
      </trkpt>
      <trkpt lat="48.41505" lon="2.52835">
        <ele>136.39999389648</ele>
        <time>2019-11-16T13:08:17.000Z</time>
      </trkpt>
      <trkpt lat="48.41501" lon="2.52838">
        <ele>135.39999389648</ele>
        <time>2019-11-16T13:08:21.000Z</time>
      </trkpt>
      <trkpt lat="48.41495" lon="2.52841">
        <ele>135</ele>
        <time>2019-11-16T13:08:24.000Z</time>
      </trkpt>
      <trkpt lat="48.4149" lon="2.52846">
        <ele>134.39999389648</ele>
        <time>2019-11-16T13:08:26.000Z</time>
      </trkpt>
      <trkpt lat="48.41487" lon="2.52847">
        <ele>133.80000305176</ele>
        <time>2019-11-16T13:08:27.000Z</time>
      </trkpt>
      <trkpt lat="48.41484" lon="2.52845">
        <ele>133.39999389648</ele>
        <time>2019-11-16T13:08:29.000Z</time>
      </trkpt>
      <trkpt lat="48.41482" lon="2.52847">
        <ele>132.80000305176</ele>
        <time>2019-11-16T13:08:31.000Z</time>
      </trkpt>
      <trkpt lat="48.4148" lon="2.52848">
        <ele>132.39999389648</ele>
        <time>2019-11-16T13:08:32.000Z</time>
      </trkpt>
      <trkpt lat="48.41478" lon="2.5285">
        <ele>132</ele>
        <time>2019-11-16T13:08:33.000Z</time>
      </trkpt>
      <trkpt lat="48.41478" lon="2.52853">
        <ele>131.80000305176</ele>
        <time>2019-11-16T13:08:34.000Z</time>
      </trkpt>
      <trkpt lat="48.41479" lon="2.52863">
        <ele>130.19999694824</ele>
        <time>2019-11-16T13:08:37.000Z</time>
      </trkpt>
      <trkpt lat="48.41482" lon="2.52871">
        <ele>128.80000305176</ele>
        <time>2019-11-16T13:08:39.000Z</time>
      </trkpt>
      <trkpt lat="48.41488" lon="2.52876">
        <ele>127.19999694824</ele>
        <time>2019-11-16T13:08:41.000Z</time>
      </trkpt>
      <trkpt lat="48.41494" lon="2.52882">
        <ele>125.80000305176</ele>
        <time>2019-11-16T13:08:42.000Z</time>
      </trkpt>
      <trkpt lat="48.41498" lon="2.52887">
        <ele>124.19999694824</ele>
        <time>2019-11-16T13:08:43.000Z</time>
      </trkpt>
      <trkpt lat="48.41502" lon="2.52893">
        <ele>121</ele>
        <time>2019-11-16T13:08:44.000Z</time>
      </trkpt>
      <trkpt lat="48.41503" lon="2.529">
        <ele>119.80000305176</ele>
        <time>2019-11-16T13:08:45.000Z</time>
      </trkpt>
      <trkpt lat="48.41503" lon="2.52907">
        <ele>118.59999847412</ele>
        <time>2019-11-16T13:08:46.000Z</time>
      </trkpt>
      <trkpt lat="48.41503" lon="2.52915">
        <ele>117.40000152588</ele>
        <time>2019-11-16T13:08:47.000Z</time>
      </trkpt>
      <trkpt lat="48.41505" lon="2.52923">
        <ele>116.40000152588</ele>
        <time>2019-11-16T13:08:48.000Z</time>
      </trkpt>
      <trkpt lat="48.41504" lon="2.52927">
        <ele>115.40000152588</ele>
        <time>2019-11-16T13:08:49.000Z</time>
      </trkpt>
      <trkpt lat="48.41502" lon="2.52931">
        <ele>114.59999847412</ele>
        <time>2019-11-16T13:08:50.000Z</time>
      </trkpt>
      <trkpt lat="48.415" lon="2.52935">
        <ele>113.80000305176</ele>
        <time>2019-11-16T13:08:51.000Z</time>
      </trkpt>
      <trkpt lat="48.415" lon="2.5294">
        <ele>113.19999694824</ele>
        <time>2019-11-16T13:08:52.000Z</time>
      </trkpt>
      <trkpt lat="48.415" lon="2.52945">
        <ele>112.80000305176</ele>
        <time>2019-11-16T13:08:53.000Z</time>
      </trkpt>
      <trkpt lat="48.41502" lon="2.52951">
        <ele>112</ele>
        <time>2019-11-16T13:08:55.000Z</time>
      </trkpt>
      <trkpt lat="48.41502" lon="2.52952">
        <ele>111.59999847412</ele>
        <time>2019-11-16T13:08:56.000Z</time>
      </trkpt>
      <trkpt lat="48.41509" lon="2.5297">
        <ele>111</ele>
        <time>2019-11-16T13:09:01.000Z</time>
      </trkpt>
      <trkpt lat="48.41509" lon="2.52977">
        <ele>110.80000305176</ele>
        <time>2019-11-16T13:09:02.000Z</time>
      </trkpt>
      <trkpt lat="48.41509" lon="2.52983">
        <ele>110.40000152588</ele>
        <time>2019-11-16T13:09:03.000Z</time>
      </trkpt>
      <trkpt lat="48.41509" lon="2.52997">
        <ele>109.40000152588</ele>
        <time>2019-11-16T13:09:05.000Z</time>
      </trkpt>
      <trkpt lat="48.4151" lon="2.53005">
        <ele>108.80000305176</ele>
        <time>2019-11-16T13:09:06.000Z</time>
      </trkpt>
      <trkpt lat="48.41512" lon="2.53012">
        <ele>108.19999694824</ele>
        <time>2019-11-16T13:09:07.000Z</time>
      </trkpt>
      <trkpt lat="48.41511" lon="2.53019">
        <ele>106.80000305176</ele>
        <time>2019-11-16T13:09:08.000Z</time>
      </trkpt>
      <trkpt lat="48.41507" lon="2.53029">
        <ele>106</ele>
        <time>2019-11-16T13:09:10.000Z</time>
      </trkpt>
      <trkpt lat="48.41507" lon="2.53034">
        <ele>105.59999847412</ele>
        <time>2019-11-16T13:09:11.000Z</time>
      </trkpt>
      <trkpt lat="48.41505" lon="2.53045">
        <ele>104.40000152588</ele>
        <time>2019-11-16T13:09:13.000Z</time>
      </trkpt>
      <trkpt lat="48.41507" lon="2.53055">
        <ele>103.80000305176</ele>
        <time>2019-11-16T13:09:15.000Z</time>
      </trkpt>
      <trkpt lat="48.41509" lon="2.53064">
        <ele>103.80000305176</ele>
        <time>2019-11-16T13:09:17.000Z</time>
      </trkpt>
      <trkpt lat="48.4151" lon="2.53069">
        <ele>103.40000152588</ele>
        <time>2019-11-16T13:09:18.000Z</time>
      </trkpt>
      <trkpt lat="48.41512" lon="2.5309">
        <ele>102</ele>
        <time>2019-11-16T13:09:22.000Z</time>
      </trkpt>
      <trkpt lat="48.41512" lon="2.53097">
        <ele>101.59999847412</ele>
        <time>2019-11-16T13:09:23.000Z</time>
      </trkpt>
      <trkpt lat="48.41508" lon="2.53103">
        <ele>101</ele>
        <time>2019-11-16T13:09:24.000Z</time>
      </trkpt>
      <trkpt lat="48.41505" lon="2.5311">
        <ele>100.40000152588</ele>
        <time>2019-11-16T13:09:25.000Z</time>
      </trkpt>
      <trkpt lat="48.41502" lon="2.53119">
        <ele>99.800003051758</ele>
        <time>2019-11-16T13:09:26.000Z</time>
      </trkpt>
      <trkpt lat="48.415" lon="2.53128">
        <ele>99.199996948242</ele>
        <time>2019-11-16T13:09:27.000Z</time>
      </trkpt>
      <trkpt lat="48.41498" lon="2.53137">
        <ele>98.599998474121</ele>
        <time>2019-11-16T13:09:28.000Z</time>
      </trkpt>
      <trkpt lat="48.41497" lon="2.53146">
        <ele>98.199996948242</ele>
        <time>2019-11-16T13:09:29.000Z</time>
      </trkpt>
      <trkpt lat="48.41496" lon="2.53154">
        <ele>97.599998474121</ele>
        <time>2019-11-16T13:09:30.000Z</time>
      </trkpt>
      <trkpt lat="48.41495" lon="2.5317">
        <ele>95.400001525879</ele>
        <time>2019-11-16T13:09:32.000Z</time>
      </trkpt>
      <trkpt lat="48.41494" lon="2.53186">
        <ele>94.199996948242</ele>
        <time>2019-11-16T13:09:34.000Z</time>
      </trkpt>
      <trkpt lat="48.41493" lon="2.53196">
        <ele>93.800003051758</ele>
        <time>2019-11-16T13:09:35.000Z</time>
      </trkpt>
      <trkpt lat="48.4149" lon="2.53214">
        <ele>92.599998474121</ele>
        <time>2019-11-16T13:09:37.000Z</time>
      </trkpt>
      <trkpt lat="48.41488" lon="2.53232">
        <ele>91.599998474121</ele>
        <time>2019-11-16T13:09:39.000Z</time>
      </trkpt>
      <trkpt lat="48.41486" lon="2.53241">
        <ele>91</ele>
        <time>2019-11-16T13:09:40.000Z</time>
      </trkpt>
      <trkpt lat="48.41484" lon="2.53251">
        <ele>90.199996948242</ele>
        <time>2019-11-16T13:09:41.000Z</time>
      </trkpt>
      <trkpt lat="48.4148" lon="2.53271">
        <ele>89.199996948242</ele>
        <time>2019-11-16T13:09:43.000Z</time>
      </trkpt>
      <trkpt lat="48.41476" lon="2.53292">
        <ele>88.599998474121</ele>
        <time>2019-11-16T13:09:45.000Z</time>
      </trkpt>
      <trkpt lat="48.41476" lon="2.53302">
        <ele>88.400001525879</ele>
        <time>2019-11-16T13:09:46.000Z</time>
      </trkpt>
      <trkpt lat="48.41477" lon="2.53312">
        <ele>88</ele>
        <time>2019-11-16T13:09:47.000Z</time>
      </trkpt>
      <trkpt lat="48.41482" lon="2.53329">
        <ele>87.199996948242</ele>
        <time>2019-11-16T13:09:49.000Z</time>
      </trkpt>
      <trkpt lat="48.41487" lon="2.53341">
        <ele>87</ele>
        <time>2019-11-16T13:09:51.000Z</time>
      </trkpt>
      <trkpt lat="48.41493" lon="2.5335">
        <ele>87.199996948242</ele>
        <time>2019-11-16T13:09:53.000Z</time>
      </trkpt>
      <trkpt lat="48.41496" lon="2.53356">
        <ele>87.400001525879</ele>
        <time>2019-11-16T13:09:54.000Z</time>
      </trkpt>
      <trkpt lat="48.41502" lon="2.53367">
        <ele>87.400001525879</ele>
        <time>2019-11-16T13:09:56.000Z</time>
      </trkpt>
      <trkpt lat="48.4151" lon="2.53378">
        <ele>87</ele>
        <time>2019-11-16T13:09:58.000Z</time>
      </trkpt>
      <trkpt lat="48.41513" lon="2.53383">
        <ele>86.800003051758</ele>
        <time>2019-11-16T13:09:59.000Z</time>
      </trkpt>
      <trkpt lat="48.41528" lon="2.53406">
        <ele>86.400001525879</ele>
        <time>2019-11-16T13:10:03.000Z</time>
      </trkpt>
      <trkpt lat="48.41545" lon="2.53427">
        <ele>85.599998474121</ele>
        <time>2019-11-16T13:10:07.000Z</time>
      </trkpt>
      <trkpt lat="48.41553" lon="2.53437">
        <ele>85.599998474121</ele>
        <time>2019-11-16T13:10:09.000Z</time>
      </trkpt>
      <trkpt lat="48.41563" lon="2.53452">
        <ele>85.800003051758</ele>
        <time>2019-11-16T13:10:12.000Z</time>
      </trkpt>
      <trkpt lat="48.41573" lon="2.5347">
        <ele>85.400001525879</ele>
        <time>2019-11-16T13:10:15.000Z</time>
      </trkpt>
      <trkpt lat="48.41586" lon="2.53477">
        <ele>85</ele>
        <time>2019-11-16T13:10:18.000Z</time>
      </trkpt>
      <trkpt lat="48.4159" lon="2.5348">
        <ele>84.599998474121</ele>
        <time>2019-11-16T13:10:19.000Z</time>
      </trkpt>
      <trkpt lat="48.41601" lon="2.53483">
        <ele>84.199996948242</ele>
        <time>2019-11-16T13:10:21.000Z</time>
      </trkpt>
      <trkpt lat="48.41611" lon="2.53485">
        <ele>84</ele>
        <time>2019-11-16T13:10:23.000Z</time>
      </trkpt>
      <trkpt lat="48.41616" lon="2.53488">
        <ele>83.599998474121</ele>
        <time>2019-11-16T13:10:24.000Z</time>
      </trkpt>
      <trkpt lat="48.41625" lon="2.53492">
        <ele>83.199996948242</ele>
        <time>2019-11-16T13:10:26.000Z</time>
      </trkpt>
      <trkpt lat="48.41627" lon="2.53503">
        <ele>83</ele>
        <time>2019-11-16T13:10:28.000Z</time>
      </trkpt>
      <trkpt lat="48.41619" lon="2.53512">
        <ele>82.599998474121</ele>
        <time>2019-11-16T13:10:31.000Z</time>
      </trkpt>
      <trkpt lat="48.41616" lon="2.53516">
        <ele>82.599998474121</ele>
        <time>2019-11-16T13:10:32.000Z</time>
      </trkpt>
      <trkpt lat="48.41602" lon="2.53532">
        <ele>83</ele>
        <time>2019-11-16T13:10:37.000Z</time>
      </trkpt>
      <trkpt lat="48.41588" lon="2.53548">
        <ele>83</ele>
        <time>2019-11-16T13:10:42.000Z</time>
      </trkpt>
      <trkpt lat="48.4157" lon="2.5357">
        <ele>83.400001525879</ele>
        <time>2019-11-16T13:10:48.000Z</time>
      </trkpt>
      <trkpt lat="48.41555" lon="2.53586">
        <ele>83.400001525879</ele>
        <time>2019-11-16T13:10:52.000Z</time>
      </trkpt>
      <trkpt lat="48.41551" lon="2.53591">
        <ele>83.400001525879</ele>
        <time>2019-11-16T13:10:53.000Z</time>
      </trkpt>
      <trkpt lat="48.41542" lon="2.53607">
        <ele>83.599998474121</ele>
        <time>2019-11-16T13:10:56.000Z</time>
      </trkpt>
      <trkpt lat="48.41537" lon="2.53618">
        <ele>83.599998474121</ele>
        <time>2019-11-16T13:10:58.000Z</time>
      </trkpt>
      <trkpt lat="48.41523" lon="2.53642">
        <ele>83.599998474121</ele>
        <time>2019-11-16T13:11:02.000Z</time>
      </trkpt>
      <trkpt lat="48.41512" lon="2.53645">
        <ele>83.599998474121</ele>
        <time>2019-11-16T13:11:04.000Z</time>
      </trkpt>
      <trkpt lat="48.41506" lon="2.53645">
        <ele>83.800003051758</ele>
        <time>2019-11-16T13:11:05.000Z</time>
      </trkpt>
      <trkpt lat="48.41501" lon="2.53644">
        <ele>84</ele>
        <time>2019-11-16T13:11:06.000Z</time>
      </trkpt>
      <trkpt lat="48.41484" lon="2.53638">
        <ele>84.800003051758</ele>
        <time>2019-11-16T13:11:09.000Z</time>
      </trkpt>
      <trkpt lat="48.41468" lon="2.53633">
        <ele>85.199996948242</ele>
        <time>2019-11-16T13:11:12.000Z</time>
      </trkpt>
      <trkpt lat="48.41447" lon="2.53631">
        <ele>85.800003051758</ele>
        <time>2019-11-16T13:11:16.000Z</time>
      </trkpt>
      <trkpt lat="48.41436" lon="2.53629">
        <ele>86</ele>
        <time>2019-11-16T13:11:18.000Z</time>
      </trkpt>
      <trkpt lat="48.41422" lon="2.53631">
        <ele>86.400001525879</ele>
        <time>2019-11-16T13:11:21.000Z</time>
      </trkpt>
      <trkpt lat="48.41414" lon="2.53637">
        <ele>87</ele>
        <time>2019-11-16T13:11:23.000Z</time>
      </trkpt>
      <trkpt lat="48.41407" lon="2.53646">
        <ele>87.199996948242</ele>
        <time>2019-11-16T13:11:25.000Z</time>
      </trkpt>
      <trkpt lat="48.41397" lon="2.53659">
        <ele>88</ele>
        <time>2019-11-16T13:11:28.000Z</time>
      </trkpt>
      <trkpt lat="48.41382" lon="2.5368">
        <ele>89</ele>
        <time>2019-11-16T13:11:33.000Z</time>
      </trkpt>
      <trkpt lat="48.41379" lon="2.53682">
        <ele>89.400001525879</ele>
        <time>2019-11-16T13:11:34.000Z</time>
      </trkpt>
      <trkpt lat="48.41372" lon="2.53685">
        <ele>90.199996948242</ele>
        <time>2019-11-16T13:11:36.000Z</time>
      </trkpt>
      <trkpt lat="48.41367" lon="2.53687">
        <ele>90.800003051758</ele>
        <time>2019-11-16T13:11:38.000Z</time>
      </trkpt>
      <trkpt lat="48.41361" lon="2.5369">
        <ele>91.599998474121</ele>
        <time>2019-11-16T13:11:40.000Z</time>
      </trkpt>
      <trkpt lat="48.41353" lon="2.53696">
        <ele>92.800003051758</ele>
        <time>2019-11-16T13:11:43.000Z</time>
      </trkpt>
      <trkpt lat="48.41345" lon="2.53702">
        <ele>94</ele>
        <time>2019-11-16T13:11:46.000Z</time>
      </trkpt>
      <trkpt lat="48.41338" lon="2.53708">
        <ele>95</ele>
        <time>2019-11-16T13:11:49.000Z</time>
      </trkpt>
      <trkpt lat="48.41331" lon="2.53714">
        <ele>96.199996948242</ele>
        <time>2019-11-16T13:11:52.000Z</time>
      </trkpt>
      <trkpt lat="48.41327" lon="2.53719">
        <ele>97</ele>
        <time>2019-11-16T13:11:54.000Z</time>
      </trkpt>
      <trkpt lat="48.41325" lon="2.53722">
        <ele>97.400001525879</ele>
        <time>2019-11-16T13:11:55.000Z</time>
      </trkpt>
      <trkpt lat="48.41321" lon="2.53727">
        <ele>98.599998474121</ele>
        <time>2019-11-16T13:11:57.000Z</time>
      </trkpt>
      <trkpt lat="48.41315" lon="2.53735">
        <ele>99.800003051758</ele>
        <time>2019-11-16T13:12:00.000Z</time>
      </trkpt>
      <trkpt lat="48.4131" lon="2.53744">
        <ele>101</ele>
        <time>2019-11-16T13:12:03.000Z</time>
      </trkpt>
      <trkpt lat="48.41306" lon="2.53749">
        <ele>102</ele>
        <time>2019-11-16T13:12:06.000Z</time>
      </trkpt>
      <trkpt lat="48.41294" lon="2.53762">
        <ele>102.19999694824</ele>
        <time>2019-11-16T13:12:12.000Z</time>
      </trkpt>
      <trkpt lat="48.41276" lon="2.53771">
        <ele>101</ele>
        <time>2019-11-16T13:12:16.000Z</time>
      </trkpt>
      <trkpt lat="48.4127" lon="2.53774">
        <ele>100.40000152588</ele>
        <time>2019-11-16T13:12:17.000Z</time>
      </trkpt>
      <trkpt lat="48.41264" lon="2.53777">
        <ele>100</ele>
        <time>2019-11-16T13:12:18.000Z</time>
      </trkpt>
      <trkpt lat="48.41259" lon="2.53782">
        <ele>99.199996948242</ele>
        <time>2019-11-16T13:12:19.000Z</time>
      </trkpt>
      <trkpt lat="48.41253" lon="2.53788">
        <ele>97.800003051758</ele>
        <time>2019-11-16T13:12:20.000Z</time>
      </trkpt>
      <trkpt lat="48.41235" lon="2.53807">
        <ele>96.599998474121</ele>
        <time>2019-11-16T13:12:23.000Z</time>
      </trkpt>
      <trkpt lat="48.41223" lon="2.53819">
        <ele>96.199996948242</ele>
        <time>2019-11-16T13:12:25.000Z</time>
      </trkpt>
      <trkpt lat="48.41219" lon="2.53828">
        <ele>95.800003051758</ele>
        <time>2019-11-16T13:12:26.000Z</time>
      </trkpt>
      <trkpt lat="48.41214" lon="2.53835">
        <ele>95.400001525879</ele>
        <time>2019-11-16T13:12:27.000Z</time>
      </trkpt>
      <trkpt lat="48.41199" lon="2.53869">
        <ele>94.400001525879</ele>
        <time>2019-11-16T13:12:31.000Z</time>
      </trkpt>
      <trkpt lat="48.41194" lon="2.53875">
        <ele>94.199996948242</ele>
        <time>2019-11-16T13:12:32.000Z</time>
      </trkpt>
      <trkpt lat="48.41182" lon="2.5388">
        <ele>93.400001525879</ele>
        <time>2019-11-16T13:12:34.000Z</time>
      </trkpt>
      <trkpt lat="48.41175" lon="2.53882">
        <ele>92.800003051758</ele>
        <time>2019-11-16T13:12:35.000Z</time>
      </trkpt>
      <trkpt lat="48.41162" lon="2.53886">
        <ele>92</ele>
        <time>2019-11-16T13:12:37.000Z</time>
      </trkpt>
      <trkpt lat="48.41141" lon="2.53889">
        <ele>90.800003051758</ele>
        <time>2019-11-16T13:12:40.000Z</time>
      </trkpt>
      <trkpt lat="48.41133" lon="2.53891">
        <ele>90.400001525879</ele>
        <time>2019-11-16T13:12:41.000Z</time>
      </trkpt>
      <trkpt lat="48.41125" lon="2.53893">
        <ele>89.800003051758</ele>
        <time>2019-11-16T13:12:42.000Z</time>
      </trkpt>
      <trkpt lat="48.41111" lon="2.53896">
        <ele>88.199996948242</ele>
        <time>2019-11-16T13:12:44.000Z</time>
      </trkpt>
      <trkpt lat="48.41105" lon="2.539">
        <ele>87.800003051758</ele>
        <time>2019-11-16T13:12:45.000Z</time>
      </trkpt>
      <trkpt lat="48.41099" lon="2.53906">
        <ele>87.599998474121</ele>
        <time>2019-11-16T13:12:46.000Z</time>
      </trkpt>
      <trkpt lat="48.41085" lon="2.53925">
        <ele>87.400001525879</ele>
        <time>2019-11-16T13:12:49.000Z</time>
      </trkpt>
      <trkpt lat="48.41079" lon="2.53929">
        <ele>87.199996948242</ele>
        <time>2019-11-16T13:12:50.000Z</time>
      </trkpt>
      <trkpt lat="48.41055" lon="2.53941">
        <ele>86.599998474121</ele>
        <time>2019-11-16T13:12:54.000Z</time>
      </trkpt>
      <trkpt lat="48.41049" lon="2.53943">
        <ele>86.400001525879</ele>
        <time>2019-11-16T13:12:55.000Z</time>
      </trkpt>
      <trkpt lat="48.41036" lon="2.53946">
        <ele>86</ele>
        <time>2019-11-16T13:12:57.000Z</time>
      </trkpt>
      <trkpt lat="48.40999" lon="2.53955">
        <ele>86</ele>
        <time>2019-11-16T13:13:03.000Z</time>
      </trkpt>
      <trkpt lat="48.40957" lon="2.53967">
        <ele>86</ele>
        <time>2019-11-16T13:13:10.000Z</time>
      </trkpt>
      <trkpt lat="48.40915" lon="2.53974">
        <ele>86.199996948242</ele>
        <time>2019-11-16T13:13:17.000Z</time>
      </trkpt>
      <trkpt lat="48.40875" lon="2.53988">
        <ele>86.400001525879</ele>
        <time>2019-11-16T13:13:24.000Z</time>
      </trkpt>
      <trkpt lat="48.40865" lon="2.53993">
        <ele>86.400001525879</ele>
        <time>2019-11-16T13:13:26.000Z</time>
      </trkpt>
      <trkpt lat="48.40848" lon="2.54001">
        <ele>86.599998474121</ele>
        <time>2019-11-16T13:13:29.000Z</time>
      </trkpt>
      <trkpt lat="48.40807" lon="2.54025">
        <ele>85.400001525879</ele>
        <time>2019-11-16T13:13:36.000Z</time>
      </trkpt>
      <trkpt lat="48.40789" lon="2.54037">
        <ele>85</ele>
        <time>2019-11-16T13:13:39.000Z</time>
      </trkpt>
      <trkpt lat="48.40766" lon="2.54052">
        <ele>84.199996948242</ele>
        <time>2019-11-16T13:13:43.000Z</time>
      </trkpt>
      <trkpt lat="48.40738" lon="2.54072">
        <ele>83.800003051758</ele>
        <time>2019-11-16T13:13:48.000Z</time>
      </trkpt>
      <trkpt lat="48.40721" lon="2.54083">
        <ele>84.199996948242</ele>
        <time>2019-11-16T13:13:51.000Z</time>
      </trkpt>
      <trkpt lat="48.40704" lon="2.54094">
        <ele>84.400001525879</ele>
        <time>2019-11-16T13:13:54.000Z</time>
      </trkpt>
      <trkpt lat="48.40688" lon="2.54103">
        <ele>85</ele>
        <time>2019-11-16T13:13:57.000Z</time>
      </trkpt>
      <trkpt lat="48.40653" lon="2.54124">
        <ele>84.800003051758</ele>
        <time>2019-11-16T13:14:03.000Z</time>
      </trkpt>
      <trkpt lat="48.40625" lon="2.54144">
        <ele>84.800003051758</ele>
        <time>2019-11-16T13:14:08.000Z</time>
      </trkpt>
      <trkpt lat="48.40623" lon="2.5415">
        <ele>85</ele>
        <time>2019-11-16T13:14:09.000Z</time>
      </trkpt>
      <trkpt lat="48.4062" lon="2.54169">
        <ele>85.199996948242</ele>
        <time>2019-11-16T13:14:12.000Z</time>
      </trkpt>
      <trkpt lat="48.40621" lon="2.54177">
        <ele>85.199996948242</ele>
        <time>2019-11-16T13:14:13.000Z</time>
      </trkpt>
      <trkpt lat="48.40622" lon="2.54211">
        <ele>85.400001525879</ele>
        <time>2019-11-16T13:14:17.000Z</time>
      </trkpt>
      <trkpt lat="48.40629" lon="2.54264">
        <ele>85</ele>
        <time>2019-11-16T13:14:23.000Z</time>
      </trkpt>
      <trkpt lat="48.40631" lon="2.54272">
        <ele>85</ele>
        <time>2019-11-16T13:14:24.000Z</time>
      </trkpt>
      <trkpt lat="48.40638" lon="2.54298">
        <ele>84.599998474121</ele>
        <time>2019-11-16T13:14:27.000Z</time>
      </trkpt>
      <trkpt lat="48.40652" lon="2.54347">
        <ele>84.599998474121</ele>
        <time>2019-11-16T13:14:33.000Z</time>
      </trkpt>
      <trkpt lat="48.40668" lon="2.5439">
        <ele>84.800003051758</ele>
        <time>2019-11-16T13:14:39.000Z</time>
      </trkpt>
      <trkpt lat="48.40673" lon="2.5442">
        <ele>85.199996948242</ele>
        <time>2019-11-16T13:14:43.000Z</time>
      </trkpt>
      <trkpt lat="48.40674" lon="2.54428">
        <ele>85.199996948242</ele>
        <time>2019-11-16T13:14:44.000Z</time>
      </trkpt>
      <trkpt lat="48.40677" lon="2.54462">
        <ele>85.400001525879</ele>
        <time>2019-11-16T13:14:48.000Z</time>
      </trkpt>
      <trkpt lat="48.40678" lon="2.54488">
        <ele>85.400001525879</ele>
        <time>2019-11-16T13:14:51.000Z</time>
      </trkpt>
      <trkpt lat="48.40678" lon="2.54557">
        <ele>85.400001525879</ele>
        <time>2019-11-16T13:14:59.000Z</time>
      </trkpt>
      <trkpt lat="48.40679" lon="2.54601">
        <ele>84.800003051758</ele>
        <time>2019-11-16T13:15:04.000Z</time>
      </trkpt>
      <trkpt lat="48.40677" lon="2.54608">
        <ele>84.800003051758</ele>
        <time>2019-11-16T13:15:05.000Z</time>
      </trkpt>
      <trkpt lat="48.4067" lon="2.54631">
        <ele>84.800003051758</ele>
        <time>2019-11-16T13:15:08.000Z</time>
      </trkpt>
      <trkpt lat="48.40665" lon="2.54645">
        <ele>84.599998474121</ele>
        <time>2019-11-16T13:15:10.000Z</time>
      </trkpt>
      <trkpt lat="48.40657" lon="2.54669">
        <ele>84.599998474121</ele>
        <time>2019-11-16T13:15:13.000Z</time>
      </trkpt>
      <trkpt lat="48.40655" lon="2.54686">
        <ele>84.400001525879</ele>
        <time>2019-11-16T13:15:15.000Z</time>
      </trkpt>
      <trkpt lat="48.40655" lon="2.54705">
        <ele>84.400001525879</ele>
        <time>2019-11-16T13:15:17.000Z</time>
      </trkpt>
      <trkpt lat="48.40654" lon="2.54723">
        <ele>84</ele>
        <time>2019-11-16T13:15:19.000Z</time>
      </trkpt>
      <trkpt lat="48.4065" lon="2.5473">
        <ele>83.800003051758</ele>
        <time>2019-11-16T13:15:20.000Z</time>
      </trkpt>
      <trkpt lat="48.40642" lon="2.54741">
        <ele>83.599998474121</ele>
        <time>2019-11-16T13:15:22.000Z</time>
      </trkpt>
      <trkpt lat="48.40612" lon="2.5477">
        <ele>83.599998474121</ele>
        <time>2019-11-16T13:15:28.000Z</time>
      </trkpt>
      <trkpt lat="48.40578" lon="2.54806">
        <ele>83.400001525879</ele>
        <time>2019-11-16T13:15:35.000Z</time>
      </trkpt>
      <trkpt lat="48.4054" lon="2.54848">
        <ele>83.599998474121</ele>
        <time>2019-11-16T13:15:43.000Z</time>
      </trkpt>
      <trkpt lat="48.40517" lon="2.54873">
        <ele>83.199996948242</ele>
        <time>2019-11-16T13:15:48.000Z</time>
      </trkpt>
      <trkpt lat="48.40508" lon="2.54883">
        <ele>83.199996948242</ele>
        <time>2019-11-16T13:15:50.000Z</time>
      </trkpt>
      <trkpt lat="48.40497" lon="2.54903">
        <ele>83.199996948242</ele>
        <time>2019-11-16T13:15:53.000Z</time>
      </trkpt>
      <trkpt lat="48.40492" lon="2.54919">
        <ele>83.199996948242</ele>
        <time>2019-11-16T13:15:55.000Z</time>
      </trkpt>
      <trkpt lat="48.40477" lon="2.54972">
        <ele>83.800003051758</ele>
        <time>2019-11-16T13:16:02.000Z</time>
      </trkpt>
      <trkpt lat="48.40473" lon="2.54992">
        <ele>84.199996948242</ele>
        <time>2019-11-16T13:16:05.000Z</time>
      </trkpt>
      <trkpt lat="48.40468" lon="2.55007">
        <ele>84</ele>
        <time>2019-11-16T13:16:07.000Z</time>
      </trkpt>
      <trkpt lat="48.40448" lon="2.55032">
        <ele>83.400001525879</ele>
        <time>2019-11-16T13:16:11.000Z</time>
      </trkpt>
      <trkpt lat="48.40443" lon="2.55038">
        <ele>83.400001525879</ele>
        <time>2019-11-16T13:16:12.000Z</time>
      </trkpt>
      <trkpt lat="48.4044" lon="2.55044">
        <ele>83.599998474121</ele>
        <time>2019-11-16T13:16:13.000Z</time>
      </trkpt>
      <trkpt lat="48.40433" lon="2.55058">
        <ele>83.800003051758</ele>
        <time>2019-11-16T13:16:15.000Z</time>
      </trkpt>
      <trkpt lat="48.40431" lon="2.55066">
        <ele>84.199996948242</ele>
        <time>2019-11-16T13:16:16.000Z</time>
      </trkpt>
      <trkpt lat="48.40425" lon="2.55096">
        <ele>85</ele>
        <time>2019-11-16T13:16:20.000Z</time>
      </trkpt>
      <trkpt lat="48.40422" lon="2.55112">
        <ele>85.400001525879</ele>
        <time>2019-11-16T13:16:22.000Z</time>
      </trkpt>
      <trkpt lat="48.40413" lon="2.55165">
        <ele>84.400001525879</ele>
        <time>2019-11-16T13:16:28.000Z</time>
      </trkpt>
      <trkpt lat="48.40409" lon="2.55181">
        <ele>84.400001525879</ele>
        <time>2019-11-16T13:16:30.000Z</time>
      </trkpt>
      <trkpt lat="48.40402" lon="2.55207">
        <ele>84.599998474121</ele>
        <time>2019-11-16T13:16:33.000Z</time>
      </trkpt>
      <trkpt lat="48.40392" lon="2.55246">
        <ele>85</ele>
        <time>2019-11-16T13:16:38.000Z</time>
      </trkpt>
      <trkpt lat="48.40389" lon="2.55272">
        <ele>86</ele>
        <time>2019-11-16T13:16:42.000Z</time>
      </trkpt>
      <trkpt lat="48.40388" lon="2.55277">
        <ele>86.599998474121</ele>
        <time>2019-11-16T13:16:43.000Z</time>
      </trkpt>
      <trkpt lat="48.40381" lon="2.55316">
        <ele>85.599998474121</ele>
        <time>2019-11-16T13:16:49.000Z</time>
      </trkpt>
      <trkpt lat="48.40373" lon="2.55343">
        <ele>85.800003051758</ele>
        <time>2019-11-16T13:16:52.000Z</time>
      </trkpt>
      <trkpt lat="48.40367" lon="2.55358">
        <ele>85.800003051758</ele>
        <time>2019-11-16T13:16:54.000Z</time>
      </trkpt>
      <trkpt lat="48.40353" lon="2.55369">
        <ele>86.400001525879</ele>
        <time>2019-11-16T13:16:57.000Z</time>
      </trkpt>
      <trkpt lat="48.40348" lon="2.55372">
        <ele>86.800003051758</ele>
        <time>2019-11-16T13:16:58.000Z</time>
      </trkpt>
      <trkpt lat="48.40344" lon="2.55375">
        <ele>87.199996948242</ele>
        <time>2019-11-16T13:16:59.000Z</time>
      </trkpt>
      <trkpt lat="48.40338" lon="2.55382">
        <ele>88.400001525879</ele>
        <time>2019-11-16T13:17:01.000Z</time>
      </trkpt>
      <trkpt lat="48.40336" lon="2.55388">
        <ele>88.800003051758</ele>
        <time>2019-11-16T13:17:02.000Z</time>
      </trkpt>
      <trkpt lat="48.40334" lon="2.55394">
        <ele>89.400001525879</ele>
        <time>2019-11-16T13:17:03.000Z</time>
      </trkpt>
      <trkpt lat="48.40329" lon="2.55403">
        <ele>90.400001525879</ele>
        <time>2019-11-16T13:17:05.000Z</time>
      </trkpt>
      <trkpt lat="48.40324" lon="2.55409">
        <ele>91.199996948242</ele>
        <time>2019-11-16T13:17:07.000Z</time>
      </trkpt>
      <trkpt lat="48.4032" lon="2.55412">
        <ele>91.400001525879</ele>
        <time>2019-11-16T13:17:08.000Z</time>
      </trkpt>
      <trkpt lat="48.40313" lon="2.55415">
        <ele>92.800003051758</ele>
        <time>2019-11-16T13:17:10.000Z</time>
      </trkpt>
      <trkpt lat="48.40305" lon="2.5542">
        <ele>93.599998474121</ele>
        <time>2019-11-16T13:17:13.000Z</time>
      </trkpt>
      <trkpt lat="48.40303" lon="2.55421">
        <ele>93.800003051758</ele>
        <time>2019-11-16T13:17:14.000Z</time>
      </trkpt>
      <trkpt lat="48.4029" lon="2.55423">
        <ele>94.199996948242</ele>
        <time>2019-11-16T13:17:19.000Z</time>
      </trkpt>
      <trkpt lat="48.40272" lon="2.5542">
        <ele>92.400001525879</ele>
        <time>2019-11-16T13:17:22.000Z</time>
      </trkpt>
      <trkpt lat="48.40253" lon="2.55437">
        <ele>91</ele>
        <time>2019-11-16T13:17:25.000Z</time>
      </trkpt>
      <trkpt lat="48.40244" lon="2.55448">
        <ele>90.199996948242</ele>
        <time>2019-11-16T13:17:28.000Z</time>
      </trkpt>
      <trkpt lat="48.40241" lon="2.5545">
        <ele>90</ele>
        <time>2019-11-16T13:17:29.000Z</time>
      </trkpt>
      <trkpt lat="48.40239" lon="2.55462">
        <ele>89.400001525879</ele>
        <time>2019-11-16T13:17:32.000Z</time>
      </trkpt>
      <trkpt lat="48.40238" lon="2.55466">
        <ele>89.599998474121</ele>
        <time>2019-11-16T13:17:36.000Z</time>
      </trkpt>
      <trkpt lat="48.40238" lon="2.55481">
        <ele>89.400001525879</ele>
        <time>2019-11-16T13:17:41.000Z</time>
      </trkpt>
      <trkpt lat="48.40242" lon="2.55494">
        <ele>89.400001525879</ele>
        <time>2019-11-16T13:17:43.000Z</time>
      </trkpt>
      <trkpt lat="48.40244" lon="2.55501">
        <ele>89.599998474121</ele>
        <time>2019-11-16T13:17:44.000Z</time>
      </trkpt>
      <trkpt lat="48.40262" lon="2.55544">
        <ele>89.199996948242</ele>
        <time>2019-11-16T13:17:50.000Z</time>
      </trkpt>
      <trkpt lat="48.40267" lon="2.55558">
        <ele>89.400001525879</ele>
        <time>2019-11-16T13:17:52.000Z</time>
      </trkpt>
      <trkpt lat="48.40276" lon="2.55581">
        <ele>89.400001525879</ele>
        <time>2019-11-16T13:17:55.000Z</time>
      </trkpt>
      <trkpt lat="48.40299" lon="2.55633">
        <ele>89</ele>
        <time>2019-11-16T13:18:02.000Z</time>
      </trkpt>
      <trkpt lat="48.40303" lon="2.5564">
        <ele>88.800003051758</ele>
        <time>2019-11-16T13:18:03.000Z</time>
      </trkpt>
      <trkpt lat="48.4033" lon="2.55689">
        <ele>88</ele>
        <time>2019-11-16T13:18:10.000Z</time>
      </trkpt>
      <trkpt lat="48.40334" lon="2.55697">
        <ele>88</ele>
        <time>2019-11-16T13:18:11.000Z</time>
      </trkpt>
      <trkpt lat="48.40334" lon="2.55707">
        <ele>87.800003051758</ele>
        <time>2019-11-16T13:18:12.000Z</time>
      </trkpt>
      <trkpt lat="48.40331" lon="2.55716">
        <ele>87.599998474121</ele>
        <time>2019-11-16T13:18:13.000Z</time>
      </trkpt>
      <trkpt lat="48.40316" lon="2.55735">
        <ele>86.599998474121</ele>
        <time>2019-11-16T13:18:16.000Z</time>
      </trkpt>
      <trkpt lat="48.40302" lon="2.55746">
        <ele>85.599998474121</ele>
        <time>2019-11-16T13:18:18.000Z</time>
      </trkpt>
      <trkpt lat="48.40295" lon="2.55751">
        <ele>85.199996948242</ele>
        <time>2019-11-16T13:18:19.000Z</time>
      </trkpt>
      <trkpt lat="48.40281" lon="2.5576">
        <ele>84.400001525879</ele>
        <time>2019-11-16T13:18:21.000Z</time>
      </trkpt>
      <trkpt lat="48.40274" lon="2.55765">
        <ele>83.599998474121</ele>
        <time>2019-11-16T13:18:22.000Z</time>
      </trkpt>
      <trkpt lat="48.40248" lon="2.55784">
        <ele>82.599998474121</ele>
        <time>2019-11-16T13:18:26.000Z</time>
      </trkpt>
      <trkpt lat="48.40243" lon="2.55788">
        <ele>82.599998474121</ele>
        <time>2019-11-16T13:18:27.000Z</time>
      </trkpt>
      <trkpt lat="48.4024" lon="2.55795">
        <ele>82.599998474121</ele>
        <time>2019-11-16T13:18:28.000Z</time>
      </trkpt>
      <trkpt lat="48.40236" lon="2.55811">
        <ele>82.800003051758</ele>
        <time>2019-11-16T13:18:30.000Z</time>
      </trkpt>
      <trkpt lat="48.40235" lon="2.55845">
        <ele>82.800003051758</ele>
        <time>2019-11-16T13:18:34.000Z</time>
      </trkpt>
      <trkpt lat="48.40235" lon="2.55853">
        <ele>83</ele>
        <time>2019-11-16T13:18:35.000Z</time>
      </trkpt>
      <trkpt lat="48.40237" lon="2.5586">
        <ele>83</ele>
        <time>2019-11-16T13:18:36.000Z</time>
      </trkpt>
      <trkpt lat="48.40239" lon="2.55881">
        <ele>83.400001525879</ele>
        <time>2019-11-16T13:18:39.000Z</time>
      </trkpt>
      <trkpt lat="48.40239" lon="2.55887">
        <ele>83.400001525879</ele>
        <time>2019-11-16T13:18:40.000Z</time>
      </trkpt>
      <trkpt lat="48.40241" lon="2.55902">
        <ele>83.400001525879</ele>
        <time>2019-11-16T13:18:42.000Z</time>
      </trkpt>
      <trkpt lat="48.40246" lon="2.55921">
        <ele>83.199996948242</ele>
        <time>2019-11-16T13:18:45.000Z</time>
      </trkpt>
      <trkpt lat="48.40251" lon="2.55942">
        <ele>83.400001525879</ele>
        <time>2019-11-16T13:18:48.000Z</time>
      </trkpt>
      <trkpt lat="48.40255" lon="2.55957">
        <ele>83.199996948242</ele>
        <time>2019-11-16T13:18:50.000Z</time>
      </trkpt>
      <trkpt lat="48.40268" lon="2.56016">
        <ele>82.800003051758</ele>
        <time>2019-11-16T13:18:58.000Z</time>
      </trkpt>
      <trkpt lat="48.40277" lon="2.56059">
        <ele>83.400001525879</ele>
        <time>2019-11-16T13:19:05.000Z</time>
      </trkpt>
      <trkpt lat="48.40278" lon="2.56059">
        <ele>83.199996948242</ele>
        <time>2019-11-16T13:19:08.000Z</time>
      </trkpt>
      <trkpt lat="48.40283" lon="2.56068">
        <ele>83.599998474121</ele>
        <time>2019-11-16T13:19:12.000Z</time>
      </trkpt>
      <trkpt lat="48.40293" lon="2.56088">
        <ele>83.400001525879</ele>
        <time>2019-11-16T13:19:16.000Z</time>
      </trkpt>
      <trkpt lat="48.40303" lon="2.56114">
        <ele>83</ele>
        <time>2019-11-16T13:19:20.000Z</time>
      </trkpt>
      <trkpt lat="48.40306" lon="2.56121">
        <ele>83</ele>
        <time>2019-11-16T13:19:21.000Z</time>
      </trkpt>
      <trkpt lat="48.40324" lon="2.56167">
        <ele>83.599998474121</ele>
        <time>2019-11-16T13:19:27.000Z</time>
      </trkpt>
      <trkpt lat="48.40327" lon="2.56175">
        <ele>83.800003051758</ele>
        <time>2019-11-16T13:19:28.000Z</time>
      </trkpt>
      <trkpt lat="48.4034" lon="2.56214">
        <ele>83.800003051758</ele>
        <time>2019-11-16T13:19:33.000Z</time>
      </trkpt>
      <trkpt lat="48.40354" lon="2.56261">
        <ele>83.599998474121</ele>
        <time>2019-11-16T13:19:39.000Z</time>
      </trkpt>
      <trkpt lat="48.40359" lon="2.56276">
        <ele>83.400001525879</ele>
        <time>2019-11-16T13:19:41.000Z</time>
      </trkpt>
      <trkpt lat="48.40371" lon="2.56306">
        <ele>83.800003051758</ele>
        <time>2019-11-16T13:19:45.000Z</time>
      </trkpt>
      <trkpt lat="48.40383" lon="2.56333">
        <ele>84.199996948242</ele>
        <time>2019-11-16T13:19:49.000Z</time>
      </trkpt>
      <trkpt lat="48.40392" lon="2.56353">
        <ele>84.199996948242</ele>
        <time>2019-11-16T13:19:52.000Z</time>
      </trkpt>
      <trkpt lat="48.4041" lon="2.56388">
        <ele>84</ele>
        <time>2019-11-16T13:19:57.000Z</time>
      </trkpt>
      <trkpt lat="48.40424" lon="2.56424">
        <ele>83.800003051758</ele>
        <time>2019-11-16T13:20:02.000Z</time>
      </trkpt>
      <trkpt lat="48.4043" lon="2.56438">
        <ele>84</ele>
        <time>2019-11-16T13:20:04.000Z</time>
      </trkpt>
      <trkpt lat="48.4044" lon="2.56459">
        <ele>84</ele>
        <time>2019-11-16T13:20:07.000Z</time>
      </trkpt>
      <trkpt lat="48.40451" lon="2.5648">
        <ele>83.800003051758</ele>
        <time>2019-11-16T13:20:10.000Z</time>
      </trkpt>
      <trkpt lat="48.40467" lon="2.56521">
        <ele>84.199996948242</ele>
        <time>2019-11-16T13:20:16.000Z</time>
      </trkpt>
      <trkpt lat="48.40484" lon="2.56559">
        <ele>84.599998474121</ele>
        <time>2019-11-16T13:20:22.000Z</time>
      </trkpt>
      <trkpt lat="48.40506" lon="2.56603">
        <ele>84.400001525879</ele>
        <time>2019-11-16T13:20:28.000Z</time>
      </trkpt>
      <trkpt lat="48.40515" lon="2.56626">
        <ele>84.400001525879</ele>
        <time>2019-11-16T13:20:31.000Z</time>
      </trkpt>
      <trkpt lat="48.40523" lon="2.5665">
        <ele>84.599998474121</ele>
        <time>2019-11-16T13:20:34.000Z</time>
      </trkpt>
      <trkpt lat="48.40539" lon="2.56689">
        <ele>84.199996948242</ele>
        <time>2019-11-16T13:20:39.000Z</time>
      </trkpt>
      <trkpt lat="48.40547" lon="2.56712">
        <ele>84.599998474121</ele>
        <time>2019-11-16T13:20:42.000Z</time>
      </trkpt>
      <trkpt lat="48.40555" lon="2.56736">
        <ele>84.400001525879</ele>
        <time>2019-11-16T13:20:45.000Z</time>
      </trkpt>
      <trkpt lat="48.40575" lon="2.56786">
        <ele>84.599998474121</ele>
        <time>2019-11-16T13:20:52.000Z</time>
      </trkpt>
      <trkpt lat="48.4059" lon="2.5682">
        <ele>84.599998474121</ele>
        <time>2019-11-16T13:20:57.000Z</time>
      </trkpt>
      <trkpt lat="48.40592" lon="2.56828">
        <ele>84.599998474121</ele>
        <time>2019-11-16T13:20:58.000Z</time>
      </trkpt>
      <trkpt lat="48.40596" lon="2.56843">
        <ele>84.800003051758</ele>
        <time>2019-11-16T13:21:00.000Z</time>
      </trkpt>
      <trkpt lat="48.40602" lon="2.56867">
        <ele>85</ele>
        <time>2019-11-16T13:21:03.000Z</time>
      </trkpt>
      <trkpt lat="48.40605" lon="2.56874">
        <ele>84.800003051758</ele>
        <time>2019-11-16T13:21:04.000Z</time>
      </trkpt>
      <trkpt lat="48.40606" lon="2.56882">
        <ele>84.800003051758</ele>
        <time>2019-11-16T13:21:05.000Z</time>
      </trkpt>
      <trkpt lat="48.40617" lon="2.56913">
        <ele>84.800003051758</ele>
        <time>2019-11-16T13:21:09.000Z</time>
      </trkpt>
      <trkpt lat="48.40618" lon="2.56921">
        <ele>85.199996948242</ele>
        <time>2019-11-16T13:21:10.000Z</time>
      </trkpt>
      <trkpt lat="48.4062" lon="2.56942">
        <ele>85.199996948242</ele>
        <time>2019-11-16T13:21:13.000Z</time>
      </trkpt>
      <trkpt lat="48.40625" lon="2.56957">
        <ele>85.199996948242</ele>
        <time>2019-11-16T13:21:15.000Z</time>
      </trkpt>
      <trkpt lat="48.4063" lon="2.56972">
        <ele>85.199996948242</ele>
        <time>2019-11-16T13:21:17.000Z</time>
      </trkpt>
      <trkpt lat="48.4064" lon="2.57011">
        <ele>85</ele>
        <time>2019-11-16T13:21:22.000Z</time>
      </trkpt>
      <trkpt lat="48.40641" lon="2.57019">
        <ele>85.199996948242</ele>
        <time>2019-11-16T13:21:23.000Z</time>
      </trkpt>
      <trkpt lat="48.40645" lon="2.57034">
        <ele>85.199996948242</ele>
        <time>2019-11-16T13:21:25.000Z</time>
      </trkpt>
      <trkpt lat="48.40652" lon="2.57055">
        <ele>85.199996948242</ele>
        <time>2019-11-16T13:21:28.000Z</time>
      </trkpt>
      <trkpt lat="48.40655" lon="2.57061">
        <ele>85.199996948242</ele>
        <time>2019-11-16T13:21:29.000Z</time>
      </trkpt>
      <trkpt lat="48.4067" lon="2.57097">
        <ele>86</ele>
        <time>2019-11-16T13:21:35.000Z</time>
      </trkpt>
      <trkpt lat="48.40673" lon="2.57103">
        <ele>86.199996948242</ele>
        <time>2019-11-16T13:21:36.000Z</time>
      </trkpt>
      <trkpt lat="48.40677" lon="2.57117">
        <ele>86</ele>
        <time>2019-11-16T13:21:38.000Z</time>
      </trkpt>
      <trkpt lat="48.40685" lon="2.57134">
        <ele>86.199996948242</ele>
        <time>2019-11-16T13:21:41.000Z</time>
      </trkpt>
      <trkpt lat="48.40688" lon="2.5714">
        <ele>86</ele>
        <time>2019-11-16T13:21:42.000Z</time>
      </trkpt>
      <trkpt lat="48.40703" lon="2.5717">
        <ele>86.199996948242</ele>
        <time>2019-11-16T13:21:47.000Z</time>
      </trkpt>
      <trkpt lat="48.40715" lon="2.57203">
        <ele>86.400001525879</ele>
        <time>2019-11-16T13:21:52.000Z</time>
      </trkpt>
      <trkpt lat="48.40718" lon="2.57218">
        <ele>86.400001525879</ele>
        <time>2019-11-16T13:21:54.000Z</time>
      </trkpt>
      <trkpt lat="48.40723" lon="2.57231">
        <ele>86.599998474121</ele>
        <time>2019-11-16T13:21:56.000Z</time>
      </trkpt>
      <trkpt lat="48.40726" lon="2.57236">
        <ele>86.199996948242</ele>
        <time>2019-11-16T13:21:57.000Z</time>
      </trkpt>
      <trkpt lat="48.40734" lon="2.57256">
        <ele>86.199996948242</ele>
        <time>2019-11-16T13:22:00.000Z</time>
      </trkpt>
      <trkpt lat="48.40751" lon="2.57303">
        <ele>86.199996948242</ele>
        <time>2019-11-16T13:22:07.000Z</time>
      </trkpt>
      <trkpt lat="48.40765" lon="2.57343">
        <ele>85.599998474121</ele>
        <time>2019-11-16T13:22:13.000Z</time>
      </trkpt>
      <trkpt lat="48.40779" lon="2.57388">
        <ele>85.199996948242</ele>
        <time>2019-11-16T13:22:20.000Z</time>
      </trkpt>
      <trkpt lat="48.40781" lon="2.57395">
        <ele>85.199996948242</ele>
        <time>2019-11-16T13:22:21.000Z</time>
      </trkpt>
      <trkpt lat="48.4079" lon="2.57424">
        <ele>85</ele>
        <time>2019-11-16T13:22:25.000Z</time>
      </trkpt>
      <trkpt lat="48.40792" lon="2.5743">
        <ele>85</ele>
        <time>2019-11-16T13:22:26.000Z</time>
      </trkpt>
      <trkpt lat="48.40793" lon="2.57437">
        <ele>85</ele>
        <time>2019-11-16T13:22:27.000Z</time>
      </trkpt>
      <trkpt lat="48.40798" lon="2.57455">
        <ele>85.400001525879</ele>
        <time>2019-11-16T13:22:30.000Z</time>
      </trkpt>
      <trkpt lat="48.40803" lon="2.57466">
        <ele>85.599998474121</ele>
        <time>2019-11-16T13:22:32.000Z</time>
      </trkpt>
      <trkpt lat="48.40805" lon="2.57471">
        <ele>85.400001525879</ele>
        <time>2019-11-16T13:22:33.000Z</time>
      </trkpt>
      <trkpt lat="48.40816" lon="2.575">
        <ele>85.400001525879</ele>
        <time>2019-11-16T13:22:39.000Z</time>
      </trkpt>
      <trkpt lat="48.40829" lon="2.57524">
        <ele>85.199996948242</ele>
        <time>2019-11-16T13:22:44.000Z</time>
      </trkpt>
      <trkpt lat="48.40841" lon="2.57547">
        <ele>84.800003051758</ele>
        <time>2019-11-16T13:22:48.000Z</time>
      </trkpt>
      <trkpt lat="48.40848" lon="2.57557">
        <ele>85</ele>
        <time>2019-11-16T13:22:50.000Z</time>
      </trkpt>
      <trkpt lat="48.40854" lon="2.57567">
        <ele>85.199996948242</ele>
        <time>2019-11-16T13:22:52.000Z</time>
      </trkpt>
      <trkpt lat="48.40858" lon="2.57581">
        <ele>85.199996948242</ele>
        <time>2019-11-16T13:22:54.000Z</time>
      </trkpt>
      <trkpt lat="48.40867" lon="2.57617">
        <ele>85.800003051758</ele>
        <time>2019-11-16T13:23:00.000Z</time>
      </trkpt>
      <trkpt lat="48.40879" lon="2.57648">
        <ele>86</ele>
        <time>2019-11-16T13:23:06.000Z</time>
      </trkpt>
      <trkpt lat="48.40888" lon="2.57672">
        <ele>86</ele>
        <time>2019-11-16T13:23:10.000Z</time>
      </trkpt>
      <trkpt lat="48.40891" lon="2.57679">
        <ele>86.199996948242</ele>
        <time>2019-11-16T13:23:11.000Z</time>
      </trkpt>
      <trkpt lat="48.409" lon="2.57706">
        <ele>86.400001525879</ele>
        <time>2019-11-16T13:23:15.000Z</time>
      </trkpt>
      <trkpt lat="48.40904" lon="2.57712">
        <ele>86.400001525879</ele>
        <time>2019-11-16T13:23:16.000Z</time>
      </trkpt>
      <trkpt lat="48.40918" lon="2.57732">
        <ele>86.400001525879</ele>
        <time>2019-11-16T13:23:20.000Z</time>
      </trkpt>
      <trkpt lat="48.40925" lon="2.5774">
        <ele>86.400001525879</ele>
        <time>2019-11-16T13:23:22.000Z</time>
      </trkpt>
      <trkpt lat="48.40933" lon="2.5775">
        <ele>86.800003051758</ele>
        <time>2019-11-16T13:23:24.000Z</time>
      </trkpt>
      <trkpt lat="48.40943" lon="2.57766">
        <ele>87.199996948242</ele>
        <time>2019-11-16T13:23:27.000Z</time>
      </trkpt>
      <trkpt lat="48.40947" lon="2.57771">
        <ele>87.199996948242</ele>
        <time>2019-11-16T13:23:28.000Z</time>
      </trkpt>
      <trkpt lat="48.4097" lon="2.57815">
        <ele>87.599998474121</ele>
        <time>2019-11-16T13:23:36.000Z</time>
      </trkpt>
      <trkpt lat="48.40981" lon="2.57847">
        <ele>87.199996948242</ele>
        <time>2019-11-16T13:23:41.000Z</time>
      </trkpt>
      <trkpt lat="48.40985" lon="2.57852">
        <ele>87</ele>
        <time>2019-11-16T13:23:42.000Z</time>
      </trkpt>
      <trkpt lat="48.40997" lon="2.57863">
        <ele>86.800003051758</ele>
        <time>2019-11-16T13:23:45.000Z</time>
      </trkpt>
      <trkpt lat="48.41004" lon="2.57872">
        <ele>87</ele>
        <time>2019-11-16T13:23:47.000Z</time>
      </trkpt>
      <trkpt lat="48.41014" lon="2.57888">
        <ele>87</ele>
        <time>2019-11-16T13:23:50.000Z</time>
      </trkpt>
      <trkpt lat="48.41018" lon="2.57904">
        <ele>87</ele>
        <time>2019-11-16T13:23:53.000Z</time>
      </trkpt>
      <trkpt lat="48.41017" lon="2.57908">
        <ele>86.800003051758</ele>
        <time>2019-11-16T13:23:54.000Z</time>
      </trkpt>
      <trkpt lat="48.41011" lon="2.57912">
        <ele>86.800003051758</ele>
        <time>2019-11-16T13:23:57.000Z</time>
      </trkpt>
      <trkpt lat="48.40995" lon="2.57917">
        <ele>86.800003051758</ele>
        <time>2019-11-16T13:24:02.000Z</time>
      </trkpt>
      <trkpt lat="48.40978" lon="2.57923">
        <ele>87.400001525879</ele>
        <time>2019-11-16T13:24:07.000Z</time>
      </trkpt>
      <trkpt lat="48.40973" lon="2.57933">
        <ele>87.599998474121</ele>
        <time>2019-11-16T13:24:09.000Z</time>
      </trkpt>
      <trkpt lat="48.40972" lon="2.5794">
        <ele>87.599998474121</ele>
        <time>2019-11-16T13:24:10.000Z</time>
      </trkpt>
      <trkpt lat="48.40963" lon="2.57978">
        <ele>88.199996948242</ele>
        <time>2019-11-16T13:24:17.000Z</time>
      </trkpt>
      <trkpt lat="48.40956" lon="2.57996">
        <ele>89.199996948242</ele>
        <time>2019-11-16T13:24:21.000Z</time>
      </trkpt>
      <trkpt lat="48.40954" lon="2.58005">
        <ele>89.400001525879</ele>
        <time>2019-11-16T13:24:23.000Z</time>
      </trkpt>
      <trkpt lat="48.40946" lon="2.58026">
        <ele>90.199996948242</ele>
        <time>2019-11-16T13:24:28.000Z</time>
      </trkpt>
      <trkpt lat="48.40945" lon="2.5804">
        <ele>91.199996948242</ele>
        <time>2019-11-16T13:24:32.000Z</time>
      </trkpt>
      <trkpt lat="48.40946" lon="2.58042">
        <ele>91.400001525879</ele>
        <time>2019-11-16T13:24:33.000Z</time>
      </trkpt>
      <trkpt lat="48.40947" lon="2.5806">
        <ele>92</ele>
        <time>2019-11-16T13:24:38.000Z</time>
      </trkpt>
      <trkpt lat="48.40948" lon="2.58069">
        <ele>92.199996948242</ele>
        <time>2019-11-16T13:24:40.000Z</time>
      </trkpt>
      <trkpt lat="48.40949" lon="2.58073">
        <ele>92.400001525879</ele>
        <time>2019-11-16T13:24:41.000Z</time>
      </trkpt>
      <trkpt lat="48.40949" lon="2.58076">
        <ele>92.800003051758</ele>
        <time>2019-11-16T13:24:42.000Z</time>
      </trkpt>
      <trkpt lat="48.40949" lon="2.58078">
        <ele>92.800003051758</ele>
        <time>2019-11-16T13:24:43.000Z</time>
      </trkpt>
      <trkpt lat="48.4095" lon="2.58082">
        <ele>93.599998474121</ele>
        <time>2019-11-16T13:24:47.000Z</time>
      </trkpt>
      <trkpt lat="48.4095" lon="2.58082">
        <ele>93.800003051758</ele>
        <time>2019-11-16T13:24:48.000Z</time>
      </trkpt>
      <trkpt lat="48.40947" lon="2.58078">
        <ele>93.199996948242</ele>
        <time>2019-11-16T13:24:54.000Z</time>
      </trkpt>
      <trkpt lat="48.40945" lon="2.58064">
        <ele>92.800003051758</ele>
        <time>2019-11-16T13:24:58.000Z</time>
      </trkpt>
      <trkpt lat="48.40944" lon="2.5806">
        <ele>92.599998474121</ele>
        <time>2019-11-16T13:24:59.000Z</time>
      </trkpt>
      <trkpt lat="48.40936" lon="2.58048">
        <ele>91.800003051758</ele>
        <time>2019-11-16T13:25:03.000Z</time>
      </trkpt>
      <trkpt lat="48.40931" lon="2.58047">
        <ele>91.400001525879</ele>
        <time>2019-11-16T13:25:05.000Z</time>
      </trkpt>
      <trkpt lat="48.40928" lon="2.58051">
        <ele>91.199996948242</ele>
        <time>2019-11-16T13:25:06.000Z</time>
      </trkpt>
      <trkpt lat="48.40924" lon="2.58059">
        <ele>91.400001525879</ele>
        <time>2019-11-16T13:25:08.000Z</time>
      </trkpt>
      <trkpt lat="48.40917" lon="2.58075">
        <ele>92.199996948242</ele>
        <time>2019-11-16T13:25:12.000Z</time>
      </trkpt>
      <trkpt lat="48.40915" lon="2.58078">
        <ele>92.400001525879</ele>
        <time>2019-11-16T13:25:13.000Z</time>
      </trkpt>
      <trkpt lat="48.40907" lon="2.58092">
        <ele>93</ele>
        <time>2019-11-16T13:25:17.000Z</time>
      </trkpt>
      <trkpt lat="48.40905" lon="2.58096">
        <ele>93.599998474121</ele>
        <time>2019-11-16T13:25:19.000Z</time>
      </trkpt>
      <trkpt lat="48.40902" lon="2.58102">
        <ele>94</ele>
        <time>2019-11-16T13:25:21.000Z</time>
      </trkpt>
      <trkpt lat="48.40896" lon="2.58119">
        <ele>94.400001525879</ele>
        <time>2019-11-16T13:25:26.000Z</time>
      </trkpt>
      <trkpt lat="48.40894" lon="2.58127">
        <ele>94.800003051758</ele>
        <time>2019-11-16T13:25:28.000Z</time>
      </trkpt>
      <trkpt lat="48.40888" lon="2.58153">
        <ele>95</ele>
        <time>2019-11-16T13:25:34.000Z</time>
      </trkpt>
      <trkpt lat="48.40887" lon="2.5817">
        <ele>95.800003051758</ele>
        <time>2019-11-16T13:25:39.000Z</time>
      </trkpt>
      <trkpt lat="48.40888" lon="2.58172">
        <ele>96</ele>
        <time>2019-11-16T13:25:40.000Z</time>
      </trkpt>
      <trkpt lat="48.40889" lon="2.58172">
        <ele>96</ele>
        <time>2019-11-16T13:25:41.000Z</time>
      </trkpt>
      <trkpt lat="48.40896" lon="2.58174">
        <ele>96</ele>
        <time>2019-11-16T13:25:45.000Z</time>
      </trkpt>
      <trkpt lat="48.40909" lon="2.58185">
        <ele>97</ele>
        <time>2019-11-16T13:25:50.000Z</time>
      </trkpt>
      <trkpt lat="48.40914" lon="2.58196">
        <ele>98.400001525879</ele>
        <time>2019-11-16T13:25:54.000Z</time>
      </trkpt>
      <trkpt lat="48.40916" lon="2.58205">
        <ele>99</ele>
        <time>2019-11-16T13:25:56.000Z</time>
      </trkpt>
      <trkpt lat="48.40917" lon="2.5821">
        <ele>99.199996948242</ele>
        <time>2019-11-16T13:25:57.000Z</time>
      </trkpt>
      <trkpt lat="48.40918" lon="2.58213">
        <ele>99.800003051758</ele>
        <time>2019-11-16T13:25:58.000Z</time>
      </trkpt>
      <trkpt lat="48.40919" lon="2.58216">
        <ele>101</ele>
        <time>2019-11-16T13:25:59.000Z</time>
      </trkpt>
      <trkpt lat="48.40921" lon="2.58222">
        <ele>101.59999847412</ele>
        <time>2019-11-16T13:26:01.000Z</time>
      </trkpt>
      <trkpt lat="48.40922" lon="2.58224">
        <ele>101.59999847412</ele>
        <time>2019-11-16T13:26:02.000Z</time>
      </trkpt>
      <trkpt lat="48.40926" lon="2.58226">
        <ele>102</ele>
        <time>2019-11-16T13:26:04.000Z</time>
      </trkpt>
      <trkpt lat="48.40927" lon="2.58227">
        <ele>102.19999694824</ele>
        <time>2019-11-16T13:26:05.000Z</time>
      </trkpt>
      <trkpt lat="48.4093" lon="2.5823">
        <ele>102.80000305176</ele>
        <time>2019-11-16T13:26:07.000Z</time>
      </trkpt>
      <trkpt lat="48.40943" lon="2.58249">
        <ele>101</ele>
        <time>2019-11-16T13:26:11.000Z</time>
      </trkpt>
      <trkpt lat="48.40949" lon="2.5826">
        <ele>100</ele>
        <time>2019-11-16T13:26:12.000Z</time>
      </trkpt>
      <trkpt lat="48.40955" lon="2.58269">
        <ele>98.400001525879</ele>
        <time>2019-11-16T13:26:13.000Z</time>
      </trkpt>
      <trkpt lat="48.4096" lon="2.58279">
        <ele>96.800003051758</ele>
        <time>2019-11-16T13:26:14.000Z</time>
      </trkpt>
      <trkpt lat="48.40964" lon="2.5829">
        <ele>95.400001525879</ele>
        <time>2019-11-16T13:26:15.000Z</time>
      </trkpt>
      <trkpt lat="48.40971" lon="2.58309">
        <ele>93.599998474121</ele>
        <time>2019-11-16T13:26:17.000Z</time>
      </trkpt>
      <trkpt lat="48.40974" lon="2.58319">
        <ele>93.199996948242</ele>
        <time>2019-11-16T13:26:18.000Z</time>
      </trkpt>
      <trkpt lat="48.40976" lon="2.58338">
        <ele>93.199996948242</ele>
        <time>2019-11-16T13:26:21.000Z</time>
      </trkpt>
      <trkpt lat="48.40971" lon="2.58344">
        <ele>95.199996948242</ele>
        <time>2019-11-16T13:26:24.000Z</time>
      </trkpt>
      <trkpt lat="48.40969" lon="2.58346">
        <ele>95.800003051758</ele>
        <time>2019-11-16T13:26:25.000Z</time>
      </trkpt>
      <trkpt lat="48.40967" lon="2.58349">
        <ele>96.199996948242</ele>
        <time>2019-11-16T13:26:26.000Z</time>
      </trkpt>
      <trkpt lat="48.40962" lon="2.58357">
        <ele>97.400001525879</ele>
        <time>2019-11-16T13:26:29.000Z</time>
      </trkpt>
      <trkpt lat="48.40959" lon="2.58361">
        <ele>98</ele>
        <time>2019-11-16T13:26:31.000Z</time>
      </trkpt>
      <trkpt lat="48.40956" lon="2.58361">
        <ele>98.199996948242</ele>
        <time>2019-11-16T13:26:32.000Z</time>
      </trkpt>
      <trkpt lat="48.40954" lon="2.58362">
        <ele>98.599998474121</ele>
        <time>2019-11-16T13:26:33.000Z</time>
      </trkpt>
      <trkpt lat="48.40954" lon="2.58362">
        <ele>99</ele>
        <time>2019-11-16T13:26:34.000Z</time>
      </trkpt>
      <trkpt lat="48.4095" lon="2.58364">
        <ele>100</ele>
        <time>2019-11-16T13:26:36.000Z</time>
      </trkpt>
      <trkpt lat="48.40949" lon="2.58365">
        <ele>100.59999847412</ele>
        <time>2019-11-16T13:26:37.000Z</time>
      </trkpt>
      <trkpt lat="48.40945" lon="2.58367">
        <ele>101.40000152588</ele>
        <time>2019-11-16T13:26:39.000Z</time>
      </trkpt>
      <trkpt lat="48.40944" lon="2.5837">
        <ele>101.80000305176</ele>
        <time>2019-11-16T13:26:41.000Z</time>
      </trkpt>
      <trkpt lat="48.40944" lon="2.58377">
        <ele>102</ele>
        <time>2019-11-16T13:26:44.000Z</time>
      </trkpt>
      <trkpt lat="48.40941" lon="2.58387">
        <ele>102.59999847412</ele>
        <time>2019-11-16T13:26:47.000Z</time>
      </trkpt>
      <trkpt lat="48.40939" lon="2.58391">
        <ele>103.19999694824</ele>
        <time>2019-11-16T13:26:49.000Z</time>
      </trkpt>
      <trkpt lat="48.40938" lon="2.58393">
        <ele>103.80000305176</ele>
        <time>2019-11-16T13:26:50.000Z</time>
      </trkpt>
      <trkpt lat="48.40938" lon="2.58395">
        <ele>104.19999694824</ele>
        <time>2019-11-16T13:26:51.000Z</time>
      </trkpt>
      <trkpt lat="48.40937" lon="2.5841">
        <ele>103.80000305176</ele>
        <time>2019-11-16T13:26:54.000Z</time>
      </trkpt>
      <trkpt lat="48.40931" lon="2.58438">
        <ele>102.40000152588</ele>
        <time>2019-11-16T13:26:58.000Z</time>
      </trkpt>
      <trkpt lat="48.40929" lon="2.58456">
        <ele>101.19999694824</ele>
        <time>2019-11-16T13:27:00.000Z</time>
      </trkpt>
      <trkpt lat="48.40924" lon="2.58474">
        <ele>100</ele>
        <time>2019-11-16T13:27:02.000Z</time>
      </trkpt>
      <trkpt lat="48.40921" lon="2.58488">
        <ele>99</ele>
        <time>2019-11-16T13:27:04.000Z</time>
      </trkpt>
      <trkpt lat="48.40919" lon="2.58496">
        <ele>98.599998474121</ele>
        <time>2019-11-16T13:27:05.000Z</time>
      </trkpt>
      <trkpt lat="48.40916" lon="2.58505">
        <ele>98.199996948242</ele>
        <time>2019-11-16T13:27:06.000Z</time>
      </trkpt>
      <trkpt lat="48.40913" lon="2.58512">
        <ele>97.599998474121</ele>
        <time>2019-11-16T13:27:07.000Z</time>
      </trkpt>
      <trkpt lat="48.40906" lon="2.58521">
        <ele>97.199996948242</ele>
        <time>2019-11-16T13:27:09.000Z</time>
      </trkpt>
      <trkpt lat="48.40892" lon="2.58525">
        <ele>98.599998474121</ele>
        <time>2019-11-16T13:27:13.000Z</time>
      </trkpt>
      <trkpt lat="48.40889" lon="2.58526">
        <ele>98.599998474121</ele>
        <time>2019-11-16T13:27:14.000Z</time>
      </trkpt>
      <trkpt lat="48.40886" lon="2.58526">
        <ele>98.599998474121</ele>
        <time>2019-11-16T13:27:15.000Z</time>
      </trkpt>
      <trkpt lat="48.40869" lon="2.58532">
        <ele>99.800003051758</ele>
        <time>2019-11-16T13:27:20.000Z</time>
      </trkpt>
      <trkpt lat="48.40866" lon="2.58535">
        <ele>100</ele>
        <time>2019-11-16T13:27:21.000Z</time>
      </trkpt>
      <trkpt lat="48.40861" lon="2.58548">
        <ele>100.59999847412</ele>
        <time>2019-11-16T13:27:24.000Z</time>
      </trkpt>
      <trkpt lat="48.4086" lon="2.58552">
        <ele>101</ele>
        <time>2019-11-16T13:27:25.000Z</time>
      </trkpt>
      <trkpt lat="48.40856" lon="2.58561">
        <ele>101.40000152588</ele>
        <time>2019-11-16T13:27:27.000Z</time>
      </trkpt>
      <trkpt lat="48.40854" lon="2.58568">
        <ele>101.59999847412</ele>
        <time>2019-11-16T13:27:29.000Z</time>
      </trkpt>
      <trkpt lat="48.40849" lon="2.58579">
        <ele>102</ele>
        <time>2019-11-16T13:27:32.000Z</time>
      </trkpt>
      <trkpt lat="48.40841" lon="2.58589">
        <ele>103</ele>
        <time>2019-11-16T13:27:35.000Z</time>
      </trkpt>
      <trkpt lat="48.40823" lon="2.58606">
        <ele>103.80000305176</ele>
        <time>2019-11-16T13:27:41.000Z</time>
      </trkpt>
      <trkpt lat="48.40818" lon="2.58616">
        <ele>104.19999694824</ele>
        <time>2019-11-16T13:27:43.000Z</time>
      </trkpt>
      <trkpt lat="48.40811" lon="2.58628">
        <ele>104.80000305176</ele>
        <time>2019-11-16T13:27:46.000Z</time>
      </trkpt>
      <trkpt lat="48.408" lon="2.58634">
        <ele>105.40000152588</ele>
        <time>2019-11-16T13:27:49.000Z</time>
      </trkpt>
      <trkpt lat="48.40796" lon="2.58637">
        <ele>105.59999847412</ele>
        <time>2019-11-16T13:27:50.000Z</time>
      </trkpt>
      <trkpt lat="48.40783" lon="2.58651">
        <ele>106.40000152588</ele>
        <time>2019-11-16T13:27:55.000Z</time>
      </trkpt>
      <trkpt lat="48.40772" lon="2.58662">
        <ele>107.59999847412</ele>
        <time>2019-11-16T13:27:59.000Z</time>
      </trkpt>
      <trkpt lat="48.4077" lon="2.58665">
        <ele>107.80000305176</ele>
        <time>2019-11-16T13:28:00.000Z</time>
      </trkpt>
      <trkpt lat="48.40769" lon="2.58669">
        <ele>108.19999694824</ele>
        <time>2019-11-16T13:28:01.000Z</time>
      </trkpt>
      <trkpt lat="48.40768" lon="2.58679">
        <ele>108.59999847412</ele>
        <time>2019-11-16T13:28:03.000Z</time>
      </trkpt>
      <trkpt lat="48.40767" lon="2.58683">
        <ele>108.80000305176</ele>
        <time>2019-11-16T13:28:04.000Z</time>
      </trkpt>
      <trkpt lat="48.4076" lon="2.5869">
        <ele>110.19999694824</ele>
        <time>2019-11-16T13:28:07.000Z</time>
      </trkpt>
      <trkpt lat="48.4075" lon="2.58692">
        <ele>110.80000305176</ele>
        <time>2019-11-16T13:28:10.000Z</time>
      </trkpt>
      <trkpt lat="48.40747" lon="2.58693">
        <ele>110.59999847412</ele>
        <time>2019-11-16T13:28:12.000Z</time>
      </trkpt>
      <trkpt lat="48.4074" lon="2.5871">
        <ele>110.59999847412</ele>
        <time>2019-11-16T13:28:16.000Z</time>
      </trkpt>
      <trkpt lat="48.40739" lon="2.58716">
        <ele>110.80000305176</ele>
        <time>2019-11-16T13:28:17.000Z</time>
      </trkpt>
      <trkpt lat="48.40732" lon="2.58742">
        <ele>110.19999694824</ele>
        <time>2019-11-16T13:28:21.000Z</time>
      </trkpt>
      <trkpt lat="48.40731" lon="2.58761">
        <ele>110.59999847412</ele>
        <time>2019-11-16T13:28:25.000Z</time>
      </trkpt>
      <trkpt lat="48.40733" lon="2.58768">
        <ele>111.19999694824</ele>
        <time>2019-11-16T13:28:27.000Z</time>
      </trkpt>
      <trkpt lat="48.40734" lon="2.58771">
        <ele>111.59999847412</ele>
        <time>2019-11-16T13:28:28.000Z</time>
      </trkpt>
      <trkpt lat="48.40737" lon="2.58772">
        <ele>112.19999694824</ele>
        <time>2019-11-16T13:28:29.000Z</time>
      </trkpt>
      <trkpt lat="48.40742" lon="2.58773">
        <ele>113</ele>
        <time>2019-11-16T13:28:31.000Z</time>
      </trkpt>
      <trkpt lat="48.40746" lon="2.58775">
        <ele>114.19999694824</ele>
        <time>2019-11-16T13:28:33.000Z</time>
      </trkpt>
      <trkpt lat="48.40748" lon="2.58776">
        <ele>114.80000305176</ele>
        <time>2019-11-16T13:28:34.000Z</time>
      </trkpt>
      <trkpt lat="48.4075" lon="2.5878">
        <ele>115.59999847412</ele>
        <time>2019-11-16T13:28:36.000Z</time>
      </trkpt>
      <trkpt lat="48.40751" lon="2.58783">
        <ele>116</ele>
        <time>2019-11-16T13:28:37.000Z</time>
      </trkpt>
      <trkpt lat="48.40753" lon="2.58788">
        <ele>117</ele>
        <time>2019-11-16T13:28:39.000Z</time>
      </trkpt>
      <trkpt lat="48.40754" lon="2.58794">
        <ele>118.40000152588</ele>
        <time>2019-11-16T13:28:41.000Z</time>
      </trkpt>
      <trkpt lat="48.40753" lon="2.58799">
        <ele>120</ele>
        <time>2019-11-16T13:28:43.000Z</time>
      </trkpt>
      <trkpt lat="48.40751" lon="2.58803">
        <ele>121.19999694824</ele>
        <time>2019-11-16T13:28:45.000Z</time>
      </trkpt>
      <trkpt lat="48.40748" lon="2.58806">
        <ele>122.19999694824</ele>
        <time>2019-11-16T13:28:47.000Z</time>
      </trkpt>
      <trkpt lat="48.40745" lon="2.58809">
        <ele>123</ele>
        <time>2019-11-16T13:28:49.000Z</time>
      </trkpt>
      <trkpt lat="48.40743" lon="2.58811">
        <ele>123.40000152588</ele>
        <time>2019-11-16T13:28:50.000Z</time>
      </trkpt>
      <trkpt lat="48.40738" lon="2.58815">
        <ele>123.80000305176</ele>
        <time>2019-11-16T13:28:53.000Z</time>
      </trkpt>
      <trkpt lat="48.40731" lon="2.58818">
        <ele>124.40000152588</ele>
        <time>2019-11-16T13:28:56.000Z</time>
      </trkpt>
      <trkpt lat="48.40723" lon="2.5882">
        <ele>125</ele>
        <time>2019-11-16T13:28:59.000Z</time>
      </trkpt>
      <trkpt lat="48.40718" lon="2.58822">
        <ele>125.59999847412</ele>
        <time>2019-11-16T13:29:01.000Z</time>
      </trkpt>
      <trkpt lat="48.40711" lon="2.58829">
        <ele>126.80000305176</ele>
        <time>2019-11-16T13:29:05.000Z</time>
      </trkpt>
      <trkpt lat="48.40706" lon="2.58837">
        <ele>127.40000152588</ele>
        <time>2019-11-16T13:29:08.000Z</time>
      </trkpt>
      <trkpt lat="48.40706" lon="2.58841">
        <ele>128</ele>
        <time>2019-11-16T13:29:09.000Z</time>
      </trkpt>
      <trkpt lat="48.40706" lon="2.58845">
        <ele>128.19999694824</ele>
        <time>2019-11-16T13:29:10.000Z</time>
      </trkpt>
      <trkpt lat="48.40706" lon="2.58848">
        <ele>129</ele>
        <time>2019-11-16T13:29:11.000Z</time>
      </trkpt>
      <trkpt lat="48.40706" lon="2.58861">
        <ele>130.19999694824</ele>
        <time>2019-11-16T13:29:15.000Z</time>
      </trkpt>
      <trkpt lat="48.40706" lon="2.58863">
        <ele>130.60000610352</ele>
        <time>2019-11-16T13:29:16.000Z</time>
      </trkpt>
      <trkpt lat="48.40708" lon="2.58868">
        <ele>131.19999694824</ele>
        <time>2019-11-16T13:29:19.000Z</time>
      </trkpt>
      <trkpt lat="48.40708" lon="2.58873">
        <ele>131.80000305176</ele>
        <time>2019-11-16T13:29:22.000Z</time>
      </trkpt>
      <trkpt lat="48.40709" lon="2.58875">
        <ele>131.80000305176</ele>
        <time>2019-11-16T13:29:23.000Z</time>
      </trkpt>
      <trkpt lat="48.40709" lon="2.5888">
        <ele>132.39999389648</ele>
        <time>2019-11-16T13:29:25.000Z</time>
      </trkpt>
      <trkpt lat="48.40709" lon="2.58885">
        <ele>133.19999694824</ele>
        <time>2019-11-16T13:29:27.000Z</time>
      </trkpt>
      <trkpt lat="48.40709" lon="2.58887">
        <ele>133.39999389648</ele>
        <time>2019-11-16T13:29:28.000Z</time>
      </trkpt>
      <trkpt lat="48.4071" lon="2.58892">
        <ele>133.80000305176</ele>
        <time>2019-11-16T13:29:30.000Z</time>
      </trkpt>
      <trkpt lat="48.4071" lon="2.58897">
        <ele>134.60000610352</ele>
        <time>2019-11-16T13:29:33.000Z</time>
      </trkpt>
      <trkpt lat="48.40709" lon="2.58903">
        <ele>135.19999694824</ele>
        <time>2019-11-16T13:29:36.000Z</time>
      </trkpt>
      <trkpt lat="48.40709" lon="2.5891">
        <ele>135.39999389648</ele>
        <time>2019-11-16T13:29:38.000Z</time>
      </trkpt>
      <trkpt lat="48.40714" lon="2.58924">
        <ele>135.60000610352</ele>
        <time>2019-11-16T13:29:43.000Z</time>
      </trkpt>
      <trkpt lat="48.40714" lon="2.58926">
        <ele>135.80000305176</ele>
        <time>2019-11-16T13:29:44.000Z</time>
      </trkpt>
      <trkpt lat="48.40713" lon="2.58934">
        <ele>135.80000305176</ele>
        <time>2019-11-16T13:29:47.000Z</time>
      </trkpt>
      <trkpt lat="48.40714" lon="2.5895">
        <ele>136</ele>
        <time>2019-11-16T13:29:52.000Z</time>
      </trkpt>
      <trkpt lat="48.40715" lon="2.58952">
        <ele>136.19999694824</ele>
        <time>2019-11-16T13:29:53.000Z</time>
      </trkpt>
      <trkpt lat="48.4072" lon="2.58961">
        <ele>136.39999389648</ele>
        <time>2019-11-16T13:29:57.000Z</time>
      </trkpt>
      <trkpt lat="48.40721" lon="2.58963">
        <ele>136.19999694824</ele>
        <time>2019-11-16T13:29:58.000Z</time>
      </trkpt>
      <trkpt lat="48.40722" lon="2.58967">
        <ele>135.60000610352</ele>
        <time>2019-11-16T13:30:00.000Z</time>
      </trkpt>
      <trkpt lat="48.40724" lon="2.58971">
        <ele>134.80000305176</ele>
        <time>2019-11-16T13:30:02.000Z</time>
      </trkpt>
      <trkpt lat="48.40725" lon="2.58974">
        <ele>134.39999389648</ele>
        <time>2019-11-16T13:30:03.000Z</time>
      </trkpt>
      <trkpt lat="48.40727" lon="2.58978">
        <ele>133.80000305176</ele>
        <time>2019-11-16T13:30:04.000Z</time>
      </trkpt>
      <trkpt lat="48.4073" lon="2.58984">
        <ele>132.80000305176</ele>
        <time>2019-11-16T13:30:05.000Z</time>
      </trkpt>
      <trkpt lat="48.40733" lon="2.58991">
        <ele>131.19999694824</ele>
        <time>2019-11-16T13:30:06.000Z</time>
      </trkpt>
      <trkpt lat="48.40736" lon="2.59">
        <ele>129.80000305176</ele>
        <time>2019-11-16T13:30:07.000Z</time>
      </trkpt>
      <trkpt lat="48.40739" lon="2.59011">
        <ele>128</ele>
        <time>2019-11-16T13:30:08.000Z</time>
      </trkpt>
      <trkpt lat="48.40741" lon="2.59024">
        <ele>126.40000152588</ele>
        <time>2019-11-16T13:30:09.000Z</time>
      </trkpt>
      <trkpt lat="48.40743" lon="2.59037">
        <ele>123.80000305176</ele>
        <time>2019-11-16T13:30:10.000Z</time>
      </trkpt>
      <trkpt lat="48.40746" lon="2.59049">
        <ele>121.19999694824</ele>
        <time>2019-11-16T13:30:11.000Z</time>
      </trkpt>
      <trkpt lat="48.40749" lon="2.5906">
        <ele>118.80000305176</ele>
        <time>2019-11-16T13:30:12.000Z</time>
      </trkpt>
      <trkpt lat="48.40753" lon="2.5907">
        <ele>117</ele>
        <time>2019-11-16T13:30:13.000Z</time>
      </trkpt>
      <trkpt lat="48.40757" lon="2.5908">
        <ele>115.80000305176</ele>
        <time>2019-11-16T13:30:14.000Z</time>
      </trkpt>
      <trkpt lat="48.40759" lon="2.59088">
        <ele>115</ele>
        <time>2019-11-16T13:30:15.000Z</time>
      </trkpt>
      <trkpt lat="48.4076" lon="2.59094">
        <ele>114.19999694824</ele>
        <time>2019-11-16T13:30:16.000Z</time>
      </trkpt>
      <trkpt lat="48.40762" lon="2.59109">
        <ele>114.59999847412</ele>
        <time>2019-11-16T13:30:20.000Z</time>
      </trkpt>
      <trkpt lat="48.40759" lon="2.59113">
        <ele>115.40000152588</ele>
        <time>2019-11-16T13:30:22.000Z</time>
      </trkpt>
      <trkpt lat="48.40757" lon="2.59118">
        <ele>116.80000305176</ele>
        <time>2019-11-16T13:30:24.000Z</time>
      </trkpt>
      <trkpt lat="48.40756" lon="2.59121">
        <ele>117</ele>
        <time>2019-11-16T13:30:25.000Z</time>
      </trkpt>
      <trkpt lat="48.40751" lon="2.59129">
        <ele>117.59999847412</ele>
        <time>2019-11-16T13:30:29.000Z</time>
      </trkpt>
      <trkpt lat="48.40749" lon="2.5913">
        <ele>117.80000305176</ele>
        <time>2019-11-16T13:30:30.000Z</time>
      </trkpt>
      <trkpt lat="48.40748" lon="2.59131">
        <ele>118.19999694824</ele>
        <time>2019-11-16T13:30:31.000Z</time>
      </trkpt>
      <trkpt lat="48.40743" lon="2.59134">
        <ele>119.59999847412</ele>
        <time>2019-11-16T13:30:34.000Z</time>
      </trkpt>
      <trkpt lat="48.4074" lon="2.59135">
        <ele>121</ele>
        <time>2019-11-16T13:30:36.000Z</time>
      </trkpt>
      <trkpt lat="48.40739" lon="2.59135">
        <ele>121.80000305176</ele>
        <time>2019-11-16T13:30:37.000Z</time>
      </trkpt>
      <trkpt lat="48.40739" lon="2.59135">
        <ele>122.59999847412</ele>
        <time>2019-11-16T13:30:38.000Z</time>
      </trkpt>
      <trkpt lat="48.40736" lon="2.59137">
        <ele>123.59999847412</ele>
        <time>2019-11-16T13:30:40.000Z</time>
      </trkpt>
      <trkpt lat="48.40733" lon="2.59138">
        <ele>124.59999847412</ele>
        <time>2019-11-16T13:30:42.000Z</time>
      </trkpt>
      <trkpt lat="48.40731" lon="2.59138">
        <ele>125.59999847412</ele>
        <time>2019-11-16T13:30:44.000Z</time>
      </trkpt>
      <trkpt lat="48.40729" lon="2.59138">
        <ele>126</ele>
        <time>2019-11-16T13:30:45.000Z</time>
      </trkpt>
      <trkpt lat="48.40727" lon="2.59138">
        <ele>127.59999847412</ele>
        <time>2019-11-16T13:30:48.000Z</time>
      </trkpt>
      <trkpt lat="48.40725" lon="2.59139">
        <ele>127.59999847412</ele>
        <time>2019-11-16T13:30:49.000Z</time>
      </trkpt>
      <trkpt lat="48.40724" lon="2.59139">
        <ele>128.60000610352</ele>
        <time>2019-11-16T13:30:52.000Z</time>
      </trkpt>
      <trkpt lat="48.40724" lon="2.5914">
        <ele>129.19999694824</ele>
        <time>2019-11-16T13:30:55.000Z</time>
      </trkpt>
      <trkpt lat="48.40723" lon="2.59141">
        <ele>129.80000305176</ele>
        <time>2019-11-16T13:30:59.000Z</time>
      </trkpt>
      <trkpt lat="48.40723" lon="2.59141">
        <ele>130</ele>
        <time>2019-11-16T13:31:01.000Z</time>
      </trkpt>
      <trkpt lat="48.40723" lon="2.59141">
        <ele>130.19999694824</ele>
        <time>2019-11-16T13:31:04.000Z</time>
      </trkpt>
      <trkpt lat="48.40719" lon="2.59145">
        <ele>130.19999694824</ele>
        <time>2019-11-16T13:31:07.000Z</time>
      </trkpt>
      <trkpt lat="48.40717" lon="2.59148">
        <ele>131</ele>
        <time>2019-11-16T13:31:10.000Z</time>
      </trkpt>
      <trkpt lat="48.40715" lon="2.5915">
        <ele>132</ele>
        <time>2019-11-16T13:31:12.000Z</time>
      </trkpt>
      <trkpt lat="48.40715" lon="2.59151">
        <ele>132.19999694824</ele>
        <time>2019-11-16T13:31:13.000Z</time>
      </trkpt>
      <trkpt lat="48.4071" lon="2.59156">
        <ele>132.60000610352</ele>
        <time>2019-11-16T13:31:17.000Z</time>
      </trkpt>
      <trkpt lat="48.40702" lon="2.59167">
        <ele>132</ele>
        <time>2019-11-16T13:31:22.000Z</time>
      </trkpt>
      <trkpt lat="48.40693" lon="2.59175">
        <ele>131.80000305176</ele>
        <time>2019-11-16T13:31:26.000Z</time>
      </trkpt>
      <trkpt lat="48.40688" lon="2.59175">
        <ele>131.60000610352</ele>
        <time>2019-11-16T13:31:27.000Z</time>
      </trkpt>
      <trkpt lat="48.40675" lon="2.59185">
        <ele>131.60000610352</ele>
        <time>2019-11-16T13:31:32.000Z</time>
      </trkpt>
      <trkpt lat="48.40671" lon="2.59189">
        <ele>131.60000610352</ele>
        <time>2019-11-16T13:31:35.000Z</time>
      </trkpt>
      <trkpt lat="48.40668" lon="2.5919">
        <ele>131.60000610352</ele>
        <time>2019-11-16T13:31:37.000Z</time>
      </trkpt>
      <trkpt lat="48.40664" lon="2.59197">
        <ele>131.19999694824</ele>
        <time>2019-11-16T13:31:42.000Z</time>
      </trkpt>
      <trkpt lat="48.40661" lon="2.59198">
        <ele>131</ele>
        <time>2019-11-16T13:31:43.000Z</time>
      </trkpt>
      <trkpt lat="48.40653" lon="2.59197">
        <ele>130.60000610352</ele>
        <time>2019-11-16T13:31:45.000Z</time>
      </trkpt>
      <trkpt lat="48.40644" lon="2.59196">
        <ele>129.80000305176</ele>
        <time>2019-11-16T13:31:48.000Z</time>
      </trkpt>
      <trkpt lat="48.40638" lon="2.59196">
        <ele>129</ele>
        <time>2019-11-16T13:31:50.000Z</time>
      </trkpt>
      <trkpt lat="48.40635" lon="2.59199">
        <ele>128.80000305176</ele>
        <time>2019-11-16T13:31:51.000Z</time>
      </trkpt>
      <trkpt lat="48.40634" lon="2.59204">
        <ele>128.60000610352</ele>
        <time>2019-11-16T13:31:53.000Z</time>
      </trkpt>
      <trkpt lat="48.40632" lon="2.59217">
        <ele>129.80000305176</ele>
        <time>2019-11-16T13:31:57.000Z</time>
      </trkpt>
      <trkpt lat="48.40632" lon="2.5922">
        <ele>130.19999694824</ele>
        <time>2019-11-16T13:31:58.000Z</time>
      </trkpt>
      <trkpt lat="48.40632" lon="2.59223">
        <ele>131.60000610352</ele>
        <time>2019-11-16T13:32:00.000Z</time>
      </trkpt>
      <trkpt lat="48.40632" lon="2.59226">
        <ele>132.60000610352</ele>
        <time>2019-11-16T13:32:03.000Z</time>
      </trkpt>
      <trkpt lat="48.40632" lon="2.59227">
        <ele>132.19999694824</ele>
        <time>2019-11-16T13:32:14.000Z</time>
      </trkpt>
      <trkpt lat="48.40632" lon="2.59227">
        <ele>132.60000610352</ele>
        <time>2019-11-16T13:32:30.000Z</time>
      </trkpt>
      <trkpt lat="48.40633" lon="2.59226">
        <ele>133.60000610352</ele>
        <time>2019-11-16T13:32:35.000Z</time>
      </trkpt>
      <trkpt lat="48.40633" lon="2.59226">
        <ele>133.80000305176</ele>
        <time>2019-11-16T13:32:36.000Z</time>
      </trkpt>
      <trkpt lat="48.40635" lon="2.59228">
        <ele>134.19999694824</ele>
        <time>2019-11-16T13:32:42.000Z</time>
      </trkpt>
      <trkpt lat="48.4064" lon="2.59234">
        <ele>134.60000610352</ele>
        <time>2019-11-16T13:32:49.000Z</time>
      </trkpt>
      <trkpt lat="48.40642" lon="2.59237">
        <ele>135</ele>
        <time>2019-11-16T13:32:50.000Z</time>
      </trkpt>
      <trkpt lat="48.40643" lon="2.5924">
        <ele>135.19999694824</ele>
        <time>2019-11-16T13:32:51.000Z</time>
      </trkpt>
      <trkpt lat="48.40645" lon="2.59243">
        <ele>135.80000305176</ele>
        <time>2019-11-16T13:32:53.000Z</time>
      </trkpt>
      <trkpt lat="48.40645" lon="2.59245">
        <ele>136</ele>
        <time>2019-11-16T13:32:54.000Z</time>
      </trkpt>
      <trkpt lat="48.40645" lon="2.59246">
        <ele>136.39999389648</ele>
        <time>2019-11-16T13:32:55.000Z</time>
      </trkpt>
      <trkpt lat="48.40645" lon="2.59254">
        <ele>137.19999694824</ele>
        <time>2019-11-16T13:32:58.000Z</time>
      </trkpt>
      <trkpt lat="48.40645" lon="2.59262">
        <ele>137.60000610352</ele>
        <time>2019-11-16T13:33:00.000Z</time>
      </trkpt>
      <trkpt lat="48.40645" lon="2.59276">
        <ele>137.60000610352</ele>
        <time>2019-11-16T13:33:03.000Z</time>
      </trkpt>
      <trkpt lat="48.40641" lon="2.59298">
        <ele>137.80000305176</ele>
        <time>2019-11-16T13:33:08.000Z</time>
      </trkpt>
      <trkpt lat="48.40636" lon="2.59321">
        <ele>137.19999694824</ele>
        <time>2019-11-16T13:33:12.000Z</time>
      </trkpt>
      <trkpt lat="48.40634" lon="2.59345">
        <ele>138</ele>
        <time>2019-11-16T13:33:16.000Z</time>
      </trkpt>
      <trkpt lat="48.40635" lon="2.59358">
        <ele>137.60000610352</ele>
        <time>2019-11-16T13:33:18.000Z</time>
      </trkpt>
      <trkpt lat="48.40639" lon="2.59379">
        <ele>137</ele>
        <time>2019-11-16T13:33:21.000Z</time>
      </trkpt>
      <trkpt lat="48.40641" lon="2.59393">
        <ele>136.80000305176</ele>
        <time>2019-11-16T13:33:23.000Z</time>
      </trkpt>
      <trkpt lat="48.40646" lon="2.59421">
        <ele>136.60000610352</ele>
        <time>2019-11-16T13:33:28.000Z</time>
      </trkpt>
      <trkpt lat="48.40651" lon="2.59433">
        <ele>136.39999389648</ele>
        <time>2019-11-16T13:33:32.000Z</time>
      </trkpt>
      <trkpt lat="48.40653" lon="2.59435">
        <ele>136.19999694824</ele>
        <time>2019-11-16T13:33:33.000Z</time>
      </trkpt>
      <trkpt lat="48.40657" lon="2.59439">
        <ele>135.60000610352</ele>
        <time>2019-11-16T13:33:35.000Z</time>
      </trkpt>
      <trkpt lat="48.40658" lon="2.59442">
        <ele>135</ele>
        <time>2019-11-16T13:33:36.000Z</time>
      </trkpt>
      <trkpt lat="48.40662" lon="2.59447">
        <ele>134</ele>
        <time>2019-11-16T13:33:39.000Z</time>
      </trkpt>
      <trkpt lat="48.40663" lon="2.59448">
        <ele>134</ele>
        <time>2019-11-16T13:33:40.000Z</time>
      </trkpt>
      <trkpt lat="48.40665" lon="2.5945">
        <ele>133.60000610352</ele>
        <time>2019-11-16T13:33:41.000Z</time>
      </trkpt>
      <trkpt lat="48.4067" lon="2.59451">
        <ele>132.39999389648</ele>
        <time>2019-11-16T13:33:43.000Z</time>
      </trkpt>
      <trkpt lat="48.40674" lon="2.59452">
        <ele>131.19999694824</ele>
        <time>2019-11-16T13:33:45.000Z</time>
      </trkpt>
      <trkpt lat="48.4068" lon="2.59457">
        <ele>130.39999389648</ele>
        <time>2019-11-16T13:33:48.000Z</time>
      </trkpt>
      <trkpt lat="48.40681" lon="2.59461">
        <ele>130.19999694824</ele>
        <time>2019-11-16T13:33:49.000Z</time>
      </trkpt>
      <trkpt lat="48.40685" lon="2.59495">
        <ele>130.80000305176</ele>
        <time>2019-11-16T13:33:55.000Z</time>
      </trkpt>
      <trkpt lat="48.40685" lon="2.59513">
        <ele>131.19999694824</ele>
        <time>2019-11-16T13:33:58.000Z</time>
      </trkpt>
      <trkpt lat="48.40685" lon="2.59519">
        <ele>131.39999389648</ele>
        <time>2019-11-16T13:33:59.000Z</time>
      </trkpt>
      <trkpt lat="48.40682" lon="2.59528">
        <ele>132.60000610352</ele>
        <time>2019-11-16T13:34:01.000Z</time>
      </trkpt>
      <trkpt lat="48.40678" lon="2.59536">
        <ele>132.80000305176</ele>
        <time>2019-11-16T13:34:03.000Z</time>
      </trkpt>
      <trkpt lat="48.40669" lon="2.59564">
        <ele>133.19999694824</ele>
        <time>2019-11-16T13:34:09.000Z</time>
      </trkpt>
      <trkpt lat="48.40665" lon="2.59569">
        <ele>133.19999694824</ele>
        <time>2019-11-16T13:34:10.000Z</time>
      </trkpt>
      <trkpt lat="48.40658" lon="2.59574">
        <ele>133.80000305176</ele>
        <time>2019-11-16T13:34:12.000Z</time>
      </trkpt>
      <trkpt lat="48.40653" lon="2.59575">
        <ele>134.19999694824</ele>
        <time>2019-11-16T13:34:13.000Z</time>
      </trkpt>
      <trkpt lat="48.40645" lon="2.59583">
        <ele>134.80000305176</ele>
        <time>2019-11-16T13:34:15.000Z</time>
      </trkpt>
      <trkpt lat="48.40642" lon="2.59594">
        <ele>135.19999694824</ele>
        <time>2019-11-16T13:34:17.000Z</time>
      </trkpt>
      <trkpt lat="48.40639" lon="2.59609">
        <ele>135.80000305176</ele>
        <time>2019-11-16T13:34:19.000Z</time>
      </trkpt>
      <trkpt lat="48.40637" lon="2.59616">
        <ele>136</ele>
        <time>2019-11-16T13:34:20.000Z</time>
      </trkpt>
      <trkpt lat="48.40632" lon="2.59639">
        <ele>136.19999694824</ele>
        <time>2019-11-16T13:34:23.000Z</time>
      </trkpt>
      <trkpt lat="48.40626" lon="2.5966">
        <ele>136</ele>
        <time>2019-11-16T13:34:27.000Z</time>
      </trkpt>
      <trkpt lat="48.40619" lon="2.59678">
        <ele>136</ele>
        <time>2019-11-16T13:34:31.000Z</time>
      </trkpt>
      <trkpt lat="48.40619" lon="2.59697">
        <ele>136.39999389648</ele>
        <time>2019-11-16T13:34:35.000Z</time>
      </trkpt>
      <trkpt lat="48.40618" lon="2.59718">
        <ele>136.60000610352</ele>
        <time>2019-11-16T13:34:40.000Z</time>
      </trkpt>
      <trkpt lat="48.40618" lon="2.59734">
        <ele>136.80000305176</ele>
        <time>2019-11-16T13:34:43.000Z</time>
      </trkpt>
      <trkpt lat="48.40613" lon="2.59748">
        <ele>136</ele>
        <time>2019-11-16T13:34:47.000Z</time>
      </trkpt>
      <trkpt lat="48.40616" lon="2.59764">
        <ele>136.39999389648</ele>
        <time>2019-11-16T13:34:51.000Z</time>
      </trkpt>
      <trkpt lat="48.40617" lon="2.59776">
        <ele>136.60000610352</ele>
        <time>2019-11-16T13:34:54.000Z</time>
      </trkpt>
      <trkpt lat="48.40616" lon="2.59779">
        <ele>136.60000610352</ele>
        <time>2019-11-16T13:34:55.000Z</time>
      </trkpt>
      <trkpt lat="48.40611" lon="2.59788">
        <ele>137</ele>
        <time>2019-11-16T13:34:58.000Z</time>
      </trkpt>
      <trkpt lat="48.40611" lon="2.59791">
        <ele>137</ele>
        <time>2019-11-16T13:34:59.000Z</time>
      </trkpt>
      <trkpt lat="48.40609" lon="2.59805">
        <ele>136.80000305176</ele>
        <time>2019-11-16T13:35:03.000Z</time>
      </trkpt>
      <trkpt lat="48.40605" lon="2.59811">
        <ele>136.80000305176</ele>
        <time>2019-11-16T13:35:05.000Z</time>
      </trkpt>
      <trkpt lat="48.406" lon="2.59821">
        <ele>137.39999389648</ele>
        <time>2019-11-16T13:35:08.000Z</time>
      </trkpt>
      <trkpt lat="48.40595" lon="2.59825">
        <ele>137.80000305176</ele>
        <time>2019-11-16T13:35:10.000Z</time>
      </trkpt>
      <trkpt lat="48.40592" lon="2.59827">
        <ele>138</ele>
        <time>2019-11-16T13:35:11.000Z</time>
      </trkpt>
      <trkpt lat="48.4059" lon="2.5983">
        <ele>138.19999694824</ele>
        <time>2019-11-16T13:35:12.000Z</time>
      </trkpt>
      <trkpt lat="48.40584" lon="2.59837">
        <ele>138.19999694824</ele>
        <time>2019-11-16T13:35:15.000Z</time>
      </trkpt>
      <trkpt lat="48.40582" lon="2.59841">
        <ele>138</ele>
        <time>2019-11-16T13:35:16.000Z</time>
      </trkpt>
      <trkpt lat="48.4058" lon="2.59844">
        <ele>138</ele>
        <time>2019-11-16T13:35:17.000Z</time>
      </trkpt>
      <trkpt lat="48.40574" lon="2.59853">
        <ele>138.39999389648</ele>
        <time>2019-11-16T13:35:20.000Z</time>
      </trkpt>
      <trkpt lat="48.40564" lon="2.59868">
        <ele>138.39999389648</ele>
        <time>2019-11-16T13:35:24.000Z</time>
      </trkpt>
      <trkpt lat="48.40548" lon="2.59891">
        <ele>138.19999694824</ele>
        <time>2019-11-16T13:35:28.000Z</time>
      </trkpt>
      <trkpt lat="48.40545" lon="2.59897">
        <ele>138.19999694824</ele>
        <time>2019-11-16T13:35:29.000Z</time>
      </trkpt>
      <trkpt lat="48.4053" lon="2.59918">
        <ele>137.80000305176</ele>
        <time>2019-11-16T13:35:33.000Z</time>
      </trkpt>
      <trkpt lat="48.40526" lon="2.59922">
        <ele>137.60000610352</ele>
        <time>2019-11-16T13:35:34.000Z</time>
      </trkpt>
      <trkpt lat="48.4051" lon="2.59933">
        <ele>137.80000305176</ele>
        <time>2019-11-16T13:35:38.000Z</time>
      </trkpt>
      <trkpt lat="48.40488" lon="2.59942">
        <ele>138.19999694824</ele>
        <time>2019-11-16T13:35:43.000Z</time>
      </trkpt>
      <trkpt lat="48.40484" lon="2.59944">
        <ele>138.39999389648</ele>
        <time>2019-11-16T13:35:44.000Z</time>
      </trkpt>
      <trkpt lat="48.40474" lon="2.59954">
        <ele>139</ele>
        <time>2019-11-16T13:35:47.000Z</time>
      </trkpt>
      <trkpt lat="48.40469" lon="2.59961">
        <ele>139.19999694824</ele>
        <time>2019-11-16T13:35:49.000Z</time>
      </trkpt>
      <trkpt lat="48.40455" lon="2.59968">
        <ele>139.19999694824</ele>
        <time>2019-11-16T13:35:53.000Z</time>
      </trkpt>
      <trkpt lat="48.40447" lon="2.59965">
        <ele>139</ele>
        <time>2019-11-16T13:35:55.000Z</time>
      </trkpt>
      <trkpt lat="48.40437" lon="2.59962">
        <ele>138.80000305176</ele>
        <time>2019-11-16T13:35:57.000Z</time>
      </trkpt>
      <trkpt lat="48.40427" lon="2.59954">
        <ele>138.19999694824</ele>
        <time>2019-11-16T13:35:59.000Z</time>
      </trkpt>
      <trkpt lat="48.40424" lon="2.59949">
        <ele>138</ele>
        <time>2019-11-16T13:36:00.000Z</time>
      </trkpt>
      <trkpt lat="48.40414" lon="2.59946">
        <ele>137.80000305176</ele>
        <time>2019-11-16T13:36:03.000Z</time>
      </trkpt>
      <trkpt lat="48.40406" lon="2.59957">
        <ele>138.19999694824</ele>
        <time>2019-11-16T13:36:07.000Z</time>
      </trkpt>
      <trkpt lat="48.40403" lon="2.59963">
        <ele>137</ele>
        <time>2019-11-16T13:36:11.000Z</time>
      </trkpt>
      <trkpt lat="48.40399" lon="2.59968">
        <ele>136</ele>
        <time>2019-11-16T13:36:13.000Z</time>
      </trkpt>
      <trkpt lat="48.40396" lon="2.59969">
        <ele>135.39999389648</ele>
        <time>2019-11-16T13:36:14.000Z</time>
      </trkpt>
      <trkpt lat="48.40388" lon="2.5997">
        <ele>134</ele>
        <time>2019-11-16T13:36:16.000Z</time>
      </trkpt>
      <trkpt lat="48.40383" lon="2.59969">
        <ele>133.60000610352</ele>
        <time>2019-11-16T13:36:17.000Z</time>
      </trkpt>
      <trkpt lat="48.40377" lon="2.59968">
        <ele>133</ele>
        <time>2019-11-16T13:36:18.000Z</time>
      </trkpt>
      <trkpt lat="48.40373" lon="2.59966">
        <ele>132.60000610352</ele>
        <time>2019-11-16T13:36:19.000Z</time>
      </trkpt>
      <trkpt lat="48.40362" lon="2.59962">
        <ele>132.19999694824</ele>
        <time>2019-11-16T13:36:22.000Z</time>
      </trkpt>
      <trkpt lat="48.40353" lon="2.59961">
        <ele>132.60000610352</ele>
        <time>2019-11-16T13:36:25.000Z</time>
      </trkpt>
      <trkpt lat="48.40351" lon="2.59959">
        <ele>133</ele>
        <time>2019-11-16T13:36:26.000Z</time>
      </trkpt>
      <trkpt lat="48.40344" lon="2.59957">
        <ele>134.39999389648</ele>
        <time>2019-11-16T13:36:29.000Z</time>
      </trkpt>
      <trkpt lat="48.40338" lon="2.59958">
        <ele>135.60000610352</ele>
        <time>2019-11-16T13:36:31.000Z</time>
      </trkpt>
      <trkpt lat="48.40334" lon="2.59958">
        <ele>137</ele>
        <time>2019-11-16T13:36:33.000Z</time>
      </trkpt>
      <trkpt lat="48.4033" lon="2.59957">
        <ele>138.19999694824</ele>
        <time>2019-11-16T13:36:35.000Z</time>
      </trkpt>
      <trkpt lat="48.40328" lon="2.59957">
        <ele>138.39999389648</ele>
        <time>2019-11-16T13:36:36.000Z</time>
      </trkpt>
      <trkpt lat="48.40323" lon="2.59959">
        <ele>138.80000305176</ele>
        <time>2019-11-16T13:36:38.000Z</time>
      </trkpt>
      <trkpt lat="48.4032" lon="2.59962">
        <ele>139.19999694824</ele>
        <time>2019-11-16T13:36:40.000Z</time>
      </trkpt>
      <trkpt lat="48.40318" lon="2.59964">
        <ele>139.19999694824</ele>
        <time>2019-11-16T13:36:41.000Z</time>
      </trkpt>
      <trkpt lat="48.40301" lon="2.59971">
        <ele>139.60000610352</ele>
        <time>2019-11-16T13:36:47.000Z</time>
      </trkpt>
      <trkpt lat="48.40297" lon="2.59977">
        <ele>139.80000305176</ele>
        <time>2019-11-16T13:36:49.000Z</time>
      </trkpt>
      <trkpt lat="48.40297" lon="2.59984">
        <ele>139.60000610352</ele>
        <time>2019-11-16T13:36:51.000Z</time>
      </trkpt>
      <trkpt lat="48.40295" lon="2.59994">
        <ele>139.39999389648</ele>
        <time>2019-11-16T13:36:54.000Z</time>
      </trkpt>
      <trkpt lat="48.40285" lon="2.60005">
        <ele>139.39999389648</ele>
        <time>2019-11-16T13:36:59.000Z</time>
      </trkpt>
      <trkpt lat="48.40276" lon="2.60014">
        <ele>139.19999694824</ele>
        <time>2019-11-16T13:37:04.000Z</time>
      </trkpt>
      <trkpt lat="48.40273" lon="2.60025">
        <ele>139</ele>
        <time>2019-11-16T13:37:07.000Z</time>
      </trkpt>
      <trkpt lat="48.4027" lon="2.60032">
        <ele>139</ele>
        <time>2019-11-16T13:37:09.000Z</time>
      </trkpt>
      <trkpt lat="48.40266" lon="2.60046">
        <ele>138.60000610352</ele>
        <time>2019-11-16T13:37:12.000Z</time>
      </trkpt>
      <trkpt lat="48.40261" lon="2.60054">
        <ele>138.39999389648</ele>
        <time>2019-11-16T13:37:14.000Z</time>
      </trkpt>
      <trkpt lat="48.40257" lon="2.60055">
        <ele>137.80000305176</ele>
        <time>2019-11-16T13:37:15.000Z</time>
      </trkpt>
      <trkpt lat="48.40247" lon="2.60053">
        <ele>136</ele>
        <time>2019-11-16T13:37:17.000Z</time>
      </trkpt>
      <trkpt lat="48.40242" lon="2.6005">
        <ele>135</ele>
        <time>2019-11-16T13:37:18.000Z</time>
      </trkpt>
      <trkpt lat="48.40236" lon="2.60048">
        <ele>133.80000305176</ele>
        <time>2019-11-16T13:37:19.000Z</time>
      </trkpt>
      <trkpt lat="48.40228" lon="2.60048">
        <ele>132.60000610352</ele>
        <time>2019-11-16T13:37:21.000Z</time>
      </trkpt>
      <trkpt lat="48.40226" lon="2.60048">
        <ele>132.19999694824</ele>
        <time>2019-11-16T13:37:22.000Z</time>
      </trkpt>
      <trkpt lat="48.40215" lon="2.60054">
        <ele>133.39999389648</ele>
        <time>2019-11-16T13:37:28.000Z</time>
      </trkpt>
      <trkpt lat="48.40214" lon="2.60055">
        <ele>133.80000305176</ele>
        <time>2019-11-16T13:37:29.000Z</time>
      </trkpt>
      <trkpt lat="48.40212" lon="2.60056">
        <ele>134</ele>
        <time>2019-11-16T13:37:30.000Z</time>
      </trkpt>
      <trkpt lat="48.40207" lon="2.60062">
        <ele>135</ele>
        <time>2019-11-16T13:37:33.000Z</time>
      </trkpt>
      <trkpt lat="48.40204" lon="2.60061">
        <ele>135.80000305176</ele>
        <time>2019-11-16T13:37:35.000Z</time>
      </trkpt>
      <trkpt lat="48.40202" lon="2.6006">
        <ele>136</ele>
        <time>2019-11-16T13:37:36.000Z</time>
      </trkpt>
      <trkpt lat="48.40201" lon="2.60059">
        <ele>136.19999694824</ele>
        <time>2019-11-16T13:37:37.000Z</time>
      </trkpt>
      <trkpt lat="48.40197" lon="2.60056">
        <ele>136.80000305176</ele>
        <time>2019-11-16T13:37:39.000Z</time>
      </trkpt>
      <trkpt lat="48.40191" lon="2.6005">
        <ele>137.19999694824</ele>
        <time>2019-11-16T13:37:42.000Z</time>
      </trkpt>
      <trkpt lat="48.4019" lon="2.60046">
        <ele>137.39999389648</ele>
        <time>2019-11-16T13:37:43.000Z</time>
      </trkpt>
      <trkpt lat="48.40189" lon="2.60043">
        <ele>137.60000610352</ele>
        <time>2019-11-16T13:37:44.000Z</time>
      </trkpt>
      <trkpt lat="48.40182" lon="2.60022">
        <ele>137.60000610352</ele>
        <time>2019-11-16T13:37:49.000Z</time>
      </trkpt>
      <trkpt lat="48.40176" lon="2.59999">
        <ele>137.80000305176</ele>
        <time>2019-11-16T13:37:54.000Z</time>
      </trkpt>
      <trkpt lat="48.40171" lon="2.59968">
        <ele>138</ele>
        <time>2019-11-16T13:38:00.000Z</time>
      </trkpt>
      <trkpt lat="48.40164" lon="2.59935">
        <ele>137.19999694824</ele>
        <time>2019-11-16T13:38:06.000Z</time>
      </trkpt>
      <trkpt lat="48.4016" lon="2.59911">
        <ele>137.39999389648</ele>
        <time>2019-11-16T13:38:11.000Z</time>
      </trkpt>
      <trkpt lat="48.40155" lon="2.59883">
        <ele>137.19999694824</ele>
        <time>2019-11-16T13:38:16.000Z</time>
      </trkpt>
      <trkpt lat="48.40149" lon="2.59858">
        <ele>137.19999694824</ele>
        <time>2019-11-16T13:38:21.000Z</time>
      </trkpt>
      <trkpt lat="48.40137" lon="2.59833">
        <ele>137.19999694824</ele>
        <time>2019-11-16T13:38:27.000Z</time>
      </trkpt>
      <trkpt lat="48.40123" lon="2.5983">
        <ele>136</ele>
        <time>2019-11-16T13:38:31.000Z</time>
      </trkpt>
      <trkpt lat="48.4012" lon="2.59829">
        <ele>135.80000305176</ele>
        <time>2019-11-16T13:38:32.000Z</time>
      </trkpt>
      <trkpt lat="48.40116" lon="2.59828">
        <ele>137</ele>
        <time>2019-11-16T13:38:33.000Z</time>
      </trkpt>
      <trkpt lat="48.40096" lon="2.59821">
        <ele>137.19999694824</ele>
        <time>2019-11-16T13:38:38.000Z</time>
      </trkpt>
      <trkpt lat="48.40073" lon="2.59818">
        <ele>137</ele>
        <time>2019-11-16T13:38:43.000Z</time>
      </trkpt>
      <trkpt lat="48.40068" lon="2.59819">
        <ele>137</ele>
        <time>2019-11-16T13:38:44.000Z</time>
      </trkpt>
      <trkpt lat="48.40059" lon="2.59821">
        <ele>136.80000305176</ele>
        <time>2019-11-16T13:38:46.000Z</time>
      </trkpt>
      <trkpt lat="48.4005" lon="2.59822">
        <ele>136.39999389648</ele>
        <time>2019-11-16T13:38:48.000Z</time>
      </trkpt>
      <trkpt lat="48.40047" lon="2.5982">
        <ele>135.80000305176</ele>
        <time>2019-11-16T13:38:49.000Z</time>
      </trkpt>
      <trkpt lat="48.40043" lon="2.59807">
        <ele>135.60000610352</ele>
        <time>2019-11-16T13:38:51.000Z</time>
      </trkpt>
      <trkpt lat="48.4004" lon="2.59793">
        <ele>135.39999389648</ele>
        <time>2019-11-16T13:38:53.000Z</time>
      </trkpt>
      <trkpt lat="48.4004" lon="2.59785">
        <ele>135.39999389648</ele>
        <time>2019-11-16T13:38:54.000Z</time>
      </trkpt>
      <trkpt lat="48.40038" lon="2.59772">
        <ele>135.39999389648</ele>
        <time>2019-11-16T13:38:56.000Z</time>
      </trkpt>
      <trkpt lat="48.40033" lon="2.5975">
        <ele>135.19999694824</ele>
        <time>2019-11-16T13:39:00.000Z</time>
      </trkpt>
      <trkpt lat="48.40032" lon="2.59739">
        <ele>135.39999389648</ele>
        <time>2019-11-16T13:39:02.000Z</time>
      </trkpt>
      <trkpt lat="48.40028" lon="2.59712">
        <ele>135.39999389648</ele>
        <time>2019-11-16T13:39:07.000Z</time>
      </trkpt>
      <trkpt lat="48.40022" lon="2.59686">
        <ele>135.60000610352</ele>
        <time>2019-11-16T13:39:11.000Z</time>
      </trkpt>
      <trkpt lat="48.40021" lon="2.5968">
        <ele>135.39999389648</ele>
        <time>2019-11-16T13:39:12.000Z</time>
      </trkpt>
      <trkpt lat="48.40016" lon="2.59638">
        <ele>134.80000305176</ele>
        <time>2019-11-16T13:39:18.000Z</time>
      </trkpt>
      <trkpt lat="48.40015" lon="2.59623">
        <ele>135</ele>
        <time>2019-11-16T13:39:20.000Z</time>
      </trkpt>
      <trkpt lat="48.40014" lon="2.59596">
        <ele>135.19999694824</ele>
        <time>2019-11-16T13:39:24.000Z</time>
      </trkpt>
      <trkpt lat="48.40014" lon="2.5959">
        <ele>135</ele>
        <time>2019-11-16T13:39:25.000Z</time>
      </trkpt>
      <trkpt lat="48.40014" lon="2.59562">
        <ele>135</ele>
        <time>2019-11-16T13:39:29.000Z</time>
      </trkpt>
      <trkpt lat="48.40016" lon="2.59548">
        <ele>134.80000305176</ele>
        <time>2019-11-16T13:39:31.000Z</time>
      </trkpt>
      <trkpt lat="48.40023" lon="2.59522">
        <ele>135.19999694824</ele>
        <time>2019-11-16T13:39:35.000Z</time>
      </trkpt>
      <trkpt lat="48.4003" lon="2.59496">
        <ele>135.19999694824</ele>
        <time>2019-11-16T13:39:39.000Z</time>
      </trkpt>
      <trkpt lat="48.40033" lon="2.59485">
        <ele>135.19999694824</ele>
        <time>2019-11-16T13:39:41.000Z</time>
      </trkpt>
      <trkpt lat="48.40026" lon="2.59477">
        <ele>135.39999389648</ele>
        <time>2019-11-16T13:39:44.000Z</time>
      </trkpt>
      <trkpt lat="48.40011" lon="2.59477">
        <ele>134.80000305176</ele>
        <time>2019-11-16T13:39:49.000Z</time>
      </trkpt>
      <trkpt lat="48.40003" lon="2.59478">
        <ele>133.60000610352</ele>
        <time>2019-11-16T13:39:52.000Z</time>
      </trkpt>
      <trkpt lat="48.40001" lon="2.59478">
        <ele>133.39999389648</ele>
        <time>2019-11-16T13:39:53.000Z</time>
      </trkpt>
      <trkpt lat="48.39999" lon="2.59481">
        <ele>132.39999389648</ele>
        <time>2019-11-16T13:39:56.000Z</time>
      </trkpt>
      <trkpt lat="48.39992" lon="2.5949">
        <ele>131.19999694824</ele>
        <time>2019-11-16T13:40:01.000Z</time>
      </trkpt>
      <trkpt lat="48.3999" lon="2.59492">
        <ele>130</ele>
        <time>2019-11-16T13:40:04.000Z</time>
      </trkpt>
      <trkpt lat="48.3999" lon="2.59491">
        <ele>130</ele>
        <time>2019-11-16T13:40:05.000Z</time>
      </trkpt>
      <trkpt lat="48.39995" lon="2.59487">
        <ele>130</ele>
        <time>2019-11-16T13:40:09.000Z</time>
      </trkpt>
      <trkpt lat="48.39997" lon="2.59486">
        <ele>130.19999694824</ele>
        <time>2019-11-16T13:40:10.000Z</time>
      </trkpt>
      <trkpt lat="48.4" lon="2.59483">
        <ele>131</ele>
        <time>2019-11-16T13:40:14.000Z</time>
      </trkpt>
      <trkpt lat="48.40001" lon="2.59482">
        <ele>131.80000305176</ele>
        <time>2019-11-16T13:40:18.000Z</time>
      </trkpt>
      <trkpt lat="48.40002" lon="2.59481">
        <ele>131.80000305176</ele>
        <time>2019-11-16T13:40:19.000Z</time>
      </trkpt>
      <trkpt lat="48.40004" lon="2.59481">
        <ele>132.19999694824</ele>
        <time>2019-11-16T13:40:21.000Z</time>
      </trkpt>
      <trkpt lat="48.40007" lon="2.59481">
        <ele>132.19999694824</ele>
        <time>2019-11-16T13:40:24.000Z</time>
      </trkpt>
      <trkpt lat="48.4001" lon="2.59479">
        <ele>133</ele>
        <time>2019-11-16T13:40:29.000Z</time>
      </trkpt>
      <trkpt lat="48.40011" lon="2.59477">
        <ele>133.19999694824</ele>
        <time>2019-11-16T13:40:31.000Z</time>
      </trkpt>
      <trkpt lat="48.40013" lon="2.59475">
        <ele>134</ele>
        <time>2019-11-16T13:40:35.000Z</time>
      </trkpt>
      <trkpt lat="48.40018" lon="2.59474">
        <ele>134</ele>
        <time>2019-11-16T13:40:40.000Z</time>
      </trkpt>
      <trkpt lat="48.40019" lon="2.59474">
        <ele>134.19999694824</ele>
        <time>2019-11-16T13:40:41.000Z</time>
      </trkpt>
      <trkpt lat="48.40021" lon="2.59474">
        <ele>134.60000610352</ele>
        <time>2019-11-16T13:40:43.000Z</time>
      </trkpt>
      <trkpt lat="48.40023" lon="2.59475">
        <ele>134.60000610352</ele>
        <time>2019-11-16T13:40:46.000Z</time>
      </trkpt>
      <trkpt lat="48.40026" lon="2.59477">
        <ele>134.80000305176</ele>
        <time>2019-11-16T13:40:48.000Z</time>
      </trkpt>
      <trkpt lat="48.40031" lon="2.5948">
        <ele>135.19999694824</ele>
        <time>2019-11-16T13:40:51.000Z</time>
      </trkpt>
      <trkpt lat="48.40032" lon="2.5948">
        <ele>135.19999694824</ele>
        <time>2019-11-16T13:40:52.000Z</time>
      </trkpt>
      <trkpt lat="48.40032" lon="2.59476">
        <ele>135.19999694824</ele>
        <time>2019-11-16T13:40:54.000Z</time>
      </trkpt>
      <trkpt lat="48.40031" lon="2.59476">
        <ele>135.39999389648</ele>
        <time>2019-11-16T13:40:55.000Z</time>
      </trkpt>
      <trkpt lat="48.4003" lon="2.59475">
        <ele>135.39999389648</ele>
        <time>2019-11-16T13:40:56.000Z</time>
      </trkpt>
      <trkpt lat="48.40028" lon="2.59475">
        <ele>135.39999389648</ele>
        <time>2019-11-16T13:40:57.000Z</time>
      </trkpt>
      <trkpt lat="48.40024" lon="2.59476">
        <ele>135</ele>
        <time>2019-11-16T13:41:00.000Z</time>
      </trkpt>
      <trkpt lat="48.40022" lon="2.59476">
        <ele>135</ele>
        <time>2019-11-16T13:41:01.000Z</time>
      </trkpt>
      <trkpt lat="48.40015" lon="2.59475">
        <ele>135</ele>
        <time>2019-11-16T13:41:04.000Z</time>
      </trkpt>
      <trkpt lat="48.40012" lon="2.59476">
        <ele>134.80000305176</ele>
        <time>2019-11-16T13:41:05.000Z</time>
      </trkpt>
      <trkpt lat="48.40002" lon="2.59478">
        <ele>134.19999694824</ele>
        <time>2019-11-16T13:41:08.000Z</time>
      </trkpt>
      <trkpt lat="48.39997" lon="2.59481">
        <ele>133.60000610352</ele>
        <time>2019-11-16T13:41:10.000Z</time>
      </trkpt>
      <trkpt lat="48.39994" lon="2.59483">
        <ele>133</ele>
        <time>2019-11-16T13:41:11.000Z</time>
      </trkpt>
      <trkpt lat="48.3999" lon="2.59487">
        <ele>131.39999389648</ele>
        <time>2019-11-16T13:41:13.000Z</time>
      </trkpt>
      <trkpt lat="48.39986" lon="2.59488">
        <ele>130.80000305176</ele>
        <time>2019-11-16T13:41:14.000Z</time>
      </trkpt>
      <trkpt lat="48.39981" lon="2.59488">
        <ele>130</ele>
        <time>2019-11-16T13:41:15.000Z</time>
      </trkpt>
      <trkpt lat="48.39969" lon="2.59488">
        <ele>128.60000610352</ele>
        <time>2019-11-16T13:41:17.000Z</time>
      </trkpt>
      <trkpt lat="48.39964" lon="2.59488">
        <ele>128.19999694824</ele>
        <time>2019-11-16T13:41:18.000Z</time>
      </trkpt>
      <trkpt lat="48.39959" lon="2.5949">
        <ele>127.59999847412</ele>
        <time>2019-11-16T13:41:19.000Z</time>
      </trkpt>
      <trkpt lat="48.3995" lon="2.59493">
        <ele>126.40000152588</ele>
        <time>2019-11-16T13:41:21.000Z</time>
      </trkpt>
      <trkpt lat="48.39944" lon="2.59494">
        <ele>125.80000305176</ele>
        <time>2019-11-16T13:41:22.000Z</time>
      </trkpt>
      <trkpt lat="48.39937" lon="2.59495">
        <ele>125.19999694824</ele>
        <time>2019-11-16T13:41:23.000Z</time>
      </trkpt>
      <trkpt lat="48.3993" lon="2.59492">
        <ele>124.80000305176</ele>
        <time>2019-11-16T13:41:24.000Z</time>
      </trkpt>
      <trkpt lat="48.39925" lon="2.59487">
        <ele>124.40000152588</ele>
        <time>2019-11-16T13:41:25.000Z</time>
      </trkpt>
      <trkpt lat="48.3992" lon="2.59481">
        <ele>124.19999694824</ele>
        <time>2019-11-16T13:41:26.000Z</time>
      </trkpt>
      <trkpt lat="48.3991" lon="2.59472">
        <ele>123.80000305176</ele>
        <time>2019-11-16T13:41:28.000Z</time>
      </trkpt>
      <trkpt lat="48.39906" lon="2.59467">
        <ele>123.59999847412</ele>
        <time>2019-11-16T13:41:29.000Z</time>
      </trkpt>
      <trkpt lat="48.39892" lon="2.59454">
        <ele>122.80000305176</ele>
        <time>2019-11-16T13:41:32.000Z</time>
      </trkpt>
      <trkpt lat="48.39878" lon="2.59444">
        <ele>122.40000152588</ele>
        <time>2019-11-16T13:41:35.000Z</time>
      </trkpt>
      <trkpt lat="48.39855" lon="2.5944">
        <ele>122.59999847412</ele>
        <time>2019-11-16T13:41:41.000Z</time>
      </trkpt>
      <trkpt lat="48.39838" lon="2.59439">
        <ele>123.80000305176</ele>
        <time>2019-11-16T13:41:46.000Z</time>
      </trkpt>
      <trkpt lat="48.39836" lon="2.59439">
        <ele>124</ele>
        <time>2019-11-16T13:41:47.000Z</time>
      </trkpt>
      <trkpt lat="48.39832" lon="2.59441">
        <ele>125</ele>
        <time>2019-11-16T13:41:49.000Z</time>
      </trkpt>
      <trkpt lat="48.3983" lon="2.59442">
        <ele>125.40000152588</ele>
        <time>2019-11-16T13:41:50.000Z</time>
      </trkpt>
      <trkpt lat="48.39826" lon="2.59443">
        <ele>126.40000152588</ele>
        <time>2019-11-16T13:41:52.000Z</time>
      </trkpt>
      <trkpt lat="48.39822" lon="2.59444">
        <ele>127.59999847412</ele>
        <time>2019-11-16T13:41:54.000Z</time>
      </trkpt>
      <trkpt lat="48.39821" lon="2.59446">
        <ele>128</ele>
        <time>2019-11-16T13:41:55.000Z</time>
      </trkpt>
      <trkpt lat="48.3982" lon="2.59448">
        <ele>128.39999389648</ele>
        <time>2019-11-16T13:41:56.000Z</time>
      </trkpt>
      <trkpt lat="48.39818" lon="2.5945">
        <ele>128.80000305176</ele>
        <time>2019-11-16T13:41:57.000Z</time>
      </trkpt>
      <trkpt lat="48.39818" lon="2.5945">
        <ele>130.19999694824</ele>
        <time>2019-11-16T13:41:59.000Z</time>
      </trkpt>
      <trkpt lat="48.39817" lon="2.59451">
        <ele>131.19999694824</ele>
        <time>2019-11-16T13:42:01.000Z</time>
      </trkpt>
      <trkpt lat="48.39817" lon="2.59451">
        <ele>131.39999389648</ele>
        <time>2019-11-16T13:42:08.000Z</time>
      </trkpt>
      <trkpt lat="48.39814" lon="2.59448">
        <ele>132.39999389648</ele>
        <time>2019-11-16T13:42:11.000Z</time>
      </trkpt>
      <trkpt lat="48.39814" lon="2.59446">
        <ele>132.60000610352</ele>
        <time>2019-11-16T13:42:12.000Z</time>
      </trkpt>
      <trkpt lat="48.39814" lon="2.59445">
        <ele>132.80000305176</ele>
        <time>2019-11-16T13:42:13.000Z</time>
      </trkpt>
      <trkpt lat="48.39813" lon="2.5944">
        <ele>133.39999389648</ele>
        <time>2019-11-16T13:42:16.000Z</time>
      </trkpt>
      <trkpt lat="48.39812" lon="2.59437">
        <ele>133.60000610352</ele>
        <time>2019-11-16T13:42:18.000Z</time>
      </trkpt>
      <trkpt lat="48.3981" lon="2.59433">
        <ele>134.80000305176</ele>
        <time>2019-11-16T13:42:21.000Z</time>
      </trkpt>
      <trkpt lat="48.39809" lon="2.59431">
        <ele>135</ele>
        <time>2019-11-16T13:42:22.000Z</time>
      </trkpt>
      <trkpt lat="48.39808" lon="2.5943">
        <ele>134.80000305176</ele>
        <time>2019-11-16T13:42:23.000Z</time>
      </trkpt>
      <trkpt lat="48.39807" lon="2.59431">
        <ele>135.60000610352</ele>
        <time>2019-11-16T13:42:27.000Z</time>
      </trkpt>
      <trkpt lat="48.39807" lon="2.59431">
        <ele>135.80000305176</ele>
        <time>2019-11-16T13:42:29.000Z</time>
      </trkpt>
      <trkpt lat="48.39803" lon="2.5943">
        <ele>135.80000305176</ele>
        <time>2019-11-16T13:42:33.000Z</time>
      </trkpt>
      <trkpt lat="48.398" lon="2.59424">
        <ele>136.60000610352</ele>
        <time>2019-11-16T13:42:38.000Z</time>
      </trkpt>
      <trkpt lat="48.39797" lon="2.59416">
        <ele>136.60000610352</ele>
        <time>2019-11-16T13:42:42.000Z</time>
      </trkpt>
      <trkpt lat="48.39796" lon="2.59413">
        <ele>136.60000610352</ele>
        <time>2019-11-16T13:42:43.000Z</time>
      </trkpt>
      <trkpt lat="48.39791" lon="2.59403">
        <ele>136</ele>
        <time>2019-11-16T13:42:47.000Z</time>
      </trkpt>
      <trkpt lat="48.39789" lon="2.594">
        <ele>136</ele>
        <time>2019-11-16T13:42:48.000Z</time>
      </trkpt>
      <trkpt lat="48.3978" lon="2.59392">
        <ele>135.39999389648</ele>
        <time>2019-11-16T13:42:52.000Z</time>
      </trkpt>
      <trkpt lat="48.39777" lon="2.5939">
        <ele>135.19999694824</ele>
        <time>2019-11-16T13:42:53.000Z</time>
      </trkpt>
      <trkpt lat="48.39772" lon="2.59383">
        <ele>135.19999694824</ele>
        <time>2019-11-16T13:42:57.000Z</time>
      </trkpt>
      <trkpt lat="48.39768" lon="2.59381">
        <ele>135</ele>
        <time>2019-11-16T13:42:59.000Z</time>
      </trkpt>
      <trkpt lat="48.39764" lon="2.5938">
        <ele>134.60000610352</ele>
        <time>2019-11-16T13:43:02.000Z</time>
      </trkpt>
      <trkpt lat="48.3976" lon="2.59381">
        <ele>133.60000610352</ele>
        <time>2019-11-16T13:43:07.000Z</time>
      </trkpt>
      <trkpt lat="48.3976" lon="2.59381">
        <ele>132.80000305176</ele>
        <time>2019-11-16T13:43:09.000Z</time>
      </trkpt>
      <trkpt lat="48.3976" lon="2.59381">
        <ele>132.60000610352</ele>
        <time>2019-11-16T13:43:11.000Z</time>
      </trkpt>
      <trkpt lat="48.39758" lon="2.59379">
        <ele>132</ele>
        <time>2019-11-16T13:43:16.000Z</time>
      </trkpt>
      <trkpt lat="48.39756" lon="2.59379">
        <ele>131.39999389648</ele>
        <time>2019-11-16T13:43:20.000Z</time>
      </trkpt>
      <trkpt lat="48.39755" lon="2.59378">
        <ele>131.19999694824</ele>
        <time>2019-11-16T13:43:22.000Z</time>
      </trkpt>
      <trkpt lat="48.39754" lon="2.59377">
        <ele>131.19999694824</ele>
        <time>2019-11-16T13:43:23.000Z</time>
      </trkpt>
      <trkpt lat="48.39752" lon="2.59374">
        <ele>130.60000610352</ele>
        <time>2019-11-16T13:43:27.000Z</time>
      </trkpt>
      <trkpt lat="48.39749" lon="2.59372">
        <ele>130.19999694824</ele>
        <time>2019-11-16T13:43:28.000Z</time>
      </trkpt>
      <trkpt lat="48.3974" lon="2.59364">
        <ele>128.80000305176</ele>
        <time>2019-11-16T13:43:31.000Z</time>
      </trkpt>
      <trkpt lat="48.39734" lon="2.59362">
        <ele>127.59999847412</ele>
        <time>2019-11-16T13:43:33.000Z</time>
      </trkpt>
      <trkpt lat="48.39727" lon="2.59361">
        <ele>126.40000152588</ele>
        <time>2019-11-16T13:43:35.000Z</time>
      </trkpt>
      <trkpt lat="48.39722" lon="2.59364">
        <ele>125</ele>
        <time>2019-11-16T13:43:37.000Z</time>
      </trkpt>
      <trkpt lat="48.3972" lon="2.59363">
        <ele>124</ele>
        <time>2019-11-16T13:43:38.000Z</time>
      </trkpt>
      <trkpt lat="48.39718" lon="2.59363">
        <ele>123.59999847412</ele>
        <time>2019-11-16T13:43:39.000Z</time>
      </trkpt>
      <trkpt lat="48.39715" lon="2.59363">
        <ele>122.80000305176</ele>
        <time>2019-11-16T13:43:41.000Z</time>
      </trkpt>
      <trkpt lat="48.39713" lon="2.59366">
        <ele>122.19999694824</ele>
        <time>2019-11-16T13:43:43.000Z</time>
      </trkpt>
      <trkpt lat="48.39711" lon="2.59367">
        <ele>122</ele>
        <time>2019-11-16T13:43:44.000Z</time>
      </trkpt>
      <trkpt lat="48.3971" lon="2.59368">
        <ele>121.59999847412</ele>
        <time>2019-11-16T13:43:45.000Z</time>
      </trkpt>
      <trkpt lat="48.39707" lon="2.59369">
        <ele>120.59999847412</ele>
        <time>2019-11-16T13:43:48.000Z</time>
      </trkpt>
      <trkpt lat="48.39706" lon="2.59369">
        <ele>120</ele>
        <time>2019-11-16T13:43:49.000Z</time>
      </trkpt>
      <trkpt lat="48.39705" lon="2.59368">
        <ele>119.40000152588</ele>
        <time>2019-11-16T13:43:50.000Z</time>
      </trkpt>
      <trkpt lat="48.39704" lon="2.59367">
        <ele>119</ele>
        <time>2019-11-16T13:43:51.000Z</time>
      </trkpt>
      <trkpt lat="48.39703" lon="2.59366">
        <ele>118.40000152588</ele>
        <time>2019-11-16T13:43:52.000Z</time>
      </trkpt>
      <trkpt lat="48.397" lon="2.59363">
        <ele>116.80000305176</ele>
        <time>2019-11-16T13:43:54.000Z</time>
      </trkpt>
      <trkpt lat="48.39696" lon="2.59361">
        <ele>115.80000305176</ele>
        <time>2019-11-16T13:43:55.000Z</time>
      </trkpt>
      <trkpt lat="48.39693" lon="2.5936">
        <ele>114.59999847412</ele>
        <time>2019-11-16T13:43:56.000Z</time>
      </trkpt>
      <trkpt lat="48.3969" lon="2.59359">
        <ele>113.40000152588</ele>
        <time>2019-11-16T13:43:57.000Z</time>
      </trkpt>
      <trkpt lat="48.39688" lon="2.59358">
        <ele>112.40000152588</ele>
        <time>2019-11-16T13:43:58.000Z</time>
      </trkpt>
      <trkpt lat="48.39685" lon="2.59356">
        <ele>111</ele>
        <time>2019-11-16T13:44:00.000Z</time>
      </trkpt>
      <trkpt lat="48.39682" lon="2.59353">
        <ele>108.80000305176</ele>
        <time>2019-11-16T13:44:02.000Z</time>
      </trkpt>
      <trkpt lat="48.3968" lon="2.59351">
        <ele>108</ele>
        <time>2019-11-16T13:44:03.000Z</time>
      </trkpt>
      <trkpt lat="48.39677" lon="2.5935">
        <ele>107.19999694824</ele>
        <time>2019-11-16T13:44:04.000Z</time>
      </trkpt>
      <trkpt lat="48.39675" lon="2.59347">
        <ele>106.80000305176</ele>
        <time>2019-11-16T13:44:05.000Z</time>
      </trkpt>
      <trkpt lat="48.39673" lon="2.59346">
        <ele>106.19999694824</ele>
        <time>2019-11-16T13:44:06.000Z</time>
      </trkpt>
      <trkpt lat="48.39671" lon="2.59345">
        <ele>105</ele>
        <time>2019-11-16T13:44:08.000Z</time>
      </trkpt>
      <trkpt lat="48.39671" lon="2.59345">
        <ele>103.80000305176</ele>
        <time>2019-11-16T13:44:10.000Z</time>
      </trkpt>
      <trkpt lat="48.39671" lon="2.59344">
        <ele>103.59999847412</ele>
        <time>2019-11-16T13:44:16.000Z</time>
      </trkpt>
      <trkpt lat="48.39671" lon="2.59343">
        <ele>103.40000152588</ele>
        <time>2019-11-16T13:44:21.000Z</time>
      </trkpt>
      <trkpt lat="48.39671" lon="2.59342">
        <ele>103.59999847412</ele>
        <time>2019-11-16T13:44:32.000Z</time>
      </trkpt>
      <trkpt lat="48.3967" lon="2.59341">
        <ele>103.40000152588</ele>
        <time>2019-11-16T13:44:33.000Z</time>
      </trkpt>
      <trkpt lat="48.39669" lon="2.59339">
        <ele>103.40000152588</ele>
        <time>2019-11-16T13:44:35.000Z</time>
      </trkpt>
      <trkpt lat="48.39669" lon="2.59338">
        <ele>103.40000152588</ele>
        <time>2019-11-16T13:44:36.000Z</time>
      </trkpt>
      <trkpt lat="48.39665" lon="2.59336">
        <ele>102.80000305176</ele>
        <time>2019-11-16T13:44:39.000Z</time>
      </trkpt>
      <trkpt lat="48.3966" lon="2.59335">
        <ele>102.19999694824</ele>
        <time>2019-11-16T13:44:41.000Z</time>
      </trkpt>
      <trkpt lat="48.39655" lon="2.59331">
        <ele>101.59999847412</ele>
        <time>2019-11-16T13:44:43.000Z</time>
      </trkpt>
      <trkpt lat="48.39649" lon="2.59325">
        <ele>101</ele>
        <time>2019-11-16T13:44:45.000Z</time>
      </trkpt>
      <trkpt lat="48.39646" lon="2.59323">
        <ele>100.40000152588</ele>
        <time>2019-11-16T13:44:46.000Z</time>
      </trkpt>
      <trkpt lat="48.39634" lon="2.59316">
        <ele>99.199996948242</ele>
        <time>2019-11-16T13:44:49.000Z</time>
      </trkpt>
      <trkpt lat="48.39624" lon="2.59309">
        <ele>98</ele>
        <time>2019-11-16T13:44:51.000Z</time>
      </trkpt>
      <trkpt lat="48.39614" lon="2.59302">
        <ele>97.199996948242</ele>
        <time>2019-11-16T13:44:53.000Z</time>
      </trkpt>
      <trkpt lat="48.3961" lon="2.59297">
        <ele>97</ele>
        <time>2019-11-16T13:44:54.000Z</time>
      </trkpt>
      <trkpt lat="48.39605" lon="2.59294">
        <ele>96.800003051758</ele>
        <time>2019-11-16T13:44:55.000Z</time>
      </trkpt>
      <trkpt lat="48.39597" lon="2.5929">
        <ele>96.199996948242</ele>
        <time>2019-11-16T13:44:57.000Z</time>
      </trkpt>
      <trkpt lat="48.39587" lon="2.59286">
        <ele>96.400001525879</ele>
        <time>2019-11-16T13:45:01.000Z</time>
      </trkpt>
      <trkpt lat="48.39583" lon="2.59285">
        <ele>96.599998474121</ele>
        <time>2019-11-16T13:45:06.000Z</time>
      </trkpt>
      <trkpt lat="48.39582" lon="2.59284">
        <ele>96.599998474121</ele>
        <time>2019-11-16T13:45:15.000Z</time>
      </trkpt>
      <trkpt lat="48.39581" lon="2.59284">
        <ele>96.599998474121</ele>
        <time>2019-11-16T13:45:16.000Z</time>
      </trkpt>
      <trkpt lat="48.39574" lon="2.59281">
        <ele>96.800003051758</ele>
        <time>2019-11-16T13:45:19.000Z</time>
      </trkpt>
      <trkpt lat="48.39559" lon="2.59273">
        <ele>96.800003051758</ele>
        <time>2019-11-16T13:45:24.000Z</time>
      </trkpt>
      <trkpt lat="48.39537" lon="2.59261">
        <ele>97.400001525879</ele>
        <time>2019-11-16T13:45:31.000Z</time>
      </trkpt>
      <trkpt lat="48.39522" lon="2.59252">
        <ele>97.800003051758</ele>
        <time>2019-11-16T13:45:36.000Z</time>
      </trkpt>
      <trkpt lat="48.39518" lon="2.59251">
        <ele>98</ele>
        <time>2019-11-16T13:45:37.000Z</time>
      </trkpt>
      <trkpt lat="48.3949" lon="2.59234">
        <ele>98.800003051758</ele>
        <time>2019-11-16T13:45:45.000Z</time>
      </trkpt>
      <trkpt lat="48.39483" lon="2.59229">
        <ele>99</ele>
        <time>2019-11-16T13:45:47.000Z</time>
      </trkpt>
      <trkpt lat="48.39472" lon="2.59222">
        <ele>99.199996948242</ele>
        <time>2019-11-16T13:45:50.000Z</time>
      </trkpt>
      <trkpt lat="48.39469" lon="2.5922">
        <ele>99.400001525879</ele>
        <time>2019-11-16T13:45:51.000Z</time>
      </trkpt>
      <trkpt lat="48.3945" lon="2.59208">
        <ele>99.800003051758</ele>
        <time>2019-11-16T13:45:56.000Z</time>
      </trkpt>
      <trkpt lat="48.39441" lon="2.59203">
        <ele>100.19999694824</ele>
        <time>2019-11-16T13:45:58.000Z</time>
      </trkpt>
      <trkpt lat="48.39422" lon="2.59191">
        <ele>101</ele>
        <time>2019-11-16T13:46:03.000Z</time>
      </trkpt>
      <trkpt lat="48.3941" lon="2.59186">
        <ele>101.40000152588</ele>
        <time>2019-11-16T13:46:06.000Z</time>
      </trkpt>
      <trkpt lat="48.39403" lon="2.59181">
        <ele>101.59999847412</ele>
        <time>2019-11-16T13:46:08.000Z</time>
      </trkpt>
      <trkpt lat="48.3938" lon="2.59168">
        <ele>102.40000152588</ele>
        <time>2019-11-16T13:46:14.000Z</time>
      </trkpt>
      <trkpt lat="48.39359" lon="2.59157">
        <ele>103.19999694824</ele>
        <time>2019-11-16T13:46:20.000Z</time>
      </trkpt>
      <trkpt lat="48.39355" lon="2.59155">
        <ele>103.40000152588</ele>
        <time>2019-11-16T13:46:21.000Z</time>
      </trkpt>
      <trkpt lat="48.39338" lon="2.59144">
        <ele>104.40000152588</ele>
        <time>2019-11-16T13:46:26.000Z</time>
      </trkpt>
      <trkpt lat="48.39334" lon="2.59144">
        <ele>104.59999847412</ele>
        <time>2019-11-16T13:46:27.000Z</time>
      </trkpt>
      <trkpt lat="48.39324" lon="2.59137">
        <ele>104.19999694824</ele>
        <time>2019-11-16T13:46:30.000Z</time>
      </trkpt>
      <trkpt lat="48.39302" lon="2.59129">
        <ele>105.19999694824</ele>
        <time>2019-11-16T13:46:36.000Z</time>
      </trkpt>
      <trkpt lat="48.39294" lon="2.5913">
        <ele>105.80000305176</ele>
        <time>2019-11-16T13:46:38.000Z</time>
      </trkpt>
      <trkpt lat="48.39287" lon="2.59132">
        <ele>106</ele>
        <time>2019-11-16T13:46:40.000Z</time>
      </trkpt>
      <trkpt lat="48.39273" lon="2.59137">
        <ele>106.80000305176</ele>
        <time>2019-11-16T13:46:44.000Z</time>
      </trkpt>
      <trkpt lat="48.39265" lon="2.5914">
        <ele>107.19999694824</ele>
        <time>2019-11-16T13:46:46.000Z</time>
      </trkpt>
      <trkpt lat="48.39255" lon="2.59143">
        <ele>108</ele>
        <time>2019-11-16T13:46:49.000Z</time>
      </trkpt>
      <trkpt lat="48.39249" lon="2.59144">
        <ele>108.40000152588</ele>
        <time>2019-11-16T13:46:51.000Z</time>
      </trkpt>
      <trkpt lat="48.39243" lon="2.59145">
        <ele>109</ele>
        <time>2019-11-16T13:46:53.000Z</time>
      </trkpt>
      <trkpt lat="48.39232" lon="2.59148">
        <ele>110</ele>
        <time>2019-11-16T13:46:56.000Z</time>
      </trkpt>
      <trkpt lat="48.39229" lon="2.5915">
        <ele>110.40000152588</ele>
        <time>2019-11-16T13:46:57.000Z</time>
      </trkpt>
      <trkpt lat="48.39219" lon="2.59154">
        <ele>111</ele>
        <time>2019-11-16T13:47:00.000Z</time>
      </trkpt>
      <trkpt lat="48.3921" lon="2.59158">
        <ele>112.59999847412</ele>
        <time>2019-11-16T13:47:03.000Z</time>
      </trkpt>
      <trkpt lat="48.39208" lon="2.59159">
        <ele>113.19999694824</ele>
        <time>2019-11-16T13:47:04.000Z</time>
      </trkpt>
      <trkpt lat="48.39205" lon="2.5916">
        <ele>114</ele>
        <time>2019-11-16T13:47:05.000Z</time>
      </trkpt>
      <trkpt lat="48.39202" lon="2.59162">
        <ele>115.19999694824</ele>
        <time>2019-11-16T13:47:07.000Z</time>
      </trkpt>
      <trkpt lat="48.39198" lon="2.59163">
        <ele>116</ele>
        <time>2019-11-16T13:47:09.000Z</time>
      </trkpt>
      <trkpt lat="48.39196" lon="2.59163">
        <ele>116.59999847412</ele>
        <time>2019-11-16T13:47:10.000Z</time>
      </trkpt>
      <trkpt lat="48.39189" lon="2.59165">
        <ele>118</ele>
        <time>2019-11-16T13:47:13.000Z</time>
      </trkpt>
      <trkpt lat="48.39186" lon="2.59167">
        <ele>119.40000152588</ele>
        <time>2019-11-16T13:47:15.000Z</time>
      </trkpt>
      <trkpt lat="48.3918" lon="2.59169">
        <ele>120.80000305176</ele>
        <time>2019-11-16T13:47:18.000Z</time>
      </trkpt>
      <trkpt lat="48.39175" lon="2.5917">
        <ele>121.80000305176</ele>
        <time>2019-11-16T13:47:21.000Z</time>
      </trkpt>
      <trkpt lat="48.3917" lon="2.59173">
        <ele>123</ele>
        <time>2019-11-16T13:47:24.000Z</time>
      </trkpt>
      <trkpt lat="48.39166" lon="2.59174">
        <ele>124.19999694824</ele>
        <time>2019-11-16T13:47:27.000Z</time>
      </trkpt>
      <trkpt lat="48.39165" lon="2.59174">
        <ele>124.59999847412</ele>
        <time>2019-11-16T13:47:28.000Z</time>
      </trkpt>
      <trkpt lat="48.39162" lon="2.59175">
        <ele>125.59999847412</ele>
        <time>2019-11-16T13:47:30.000Z</time>
      </trkpt>
      <trkpt lat="48.39156" lon="2.59177">
        <ele>126.59999847412</ele>
        <time>2019-11-16T13:47:33.000Z</time>
      </trkpt>
      <trkpt lat="48.39151" lon="2.59178">
        <ele>127.80000305176</ele>
        <time>2019-11-16T13:47:36.000Z</time>
      </trkpt>
      <trkpt lat="48.39148" lon="2.5918">
        <ele>128.80000305176</ele>
        <time>2019-11-16T13:47:39.000Z</time>
      </trkpt>
      <trkpt lat="48.39146" lon="2.59181">
        <ele>129.39999389648</ele>
        <time>2019-11-16T13:47:40.000Z</time>
      </trkpt>
      <trkpt lat="48.39145" lon="2.59181">
        <ele>129.60000610352</ele>
        <time>2019-11-16T13:47:41.000Z</time>
      </trkpt>
      <trkpt lat="48.39142" lon="2.59181">
        <ele>130</ele>
        <time>2019-11-16T13:47:43.000Z</time>
      </trkpt>
      <trkpt lat="48.39137" lon="2.59183">
        <ele>130.60000610352</ele>
        <time>2019-11-16T13:47:46.000Z</time>
      </trkpt>
      <trkpt lat="48.39132" lon="2.59186">
        <ele>131.19999694824</ele>
        <time>2019-11-16T13:47:48.000Z</time>
      </trkpt>
      <trkpt lat="48.39124" lon="2.59188">
        <ele>132</ele>
        <time>2019-11-16T13:47:52.000Z</time>
      </trkpt>
      <trkpt lat="48.39118" lon="2.5919">
        <ele>132.19999694824</ele>
        <time>2019-11-16T13:47:54.000Z</time>
      </trkpt>
      <trkpt lat="48.39108" lon="2.59193">
        <ele>132.80000305176</ele>
        <time>2019-11-16T13:47:58.000Z</time>
      </trkpt>
      <trkpt lat="48.39099" lon="2.59197">
        <ele>133.39999389648</ele>
        <time>2019-11-16T13:48:02.000Z</time>
      </trkpt>
      <trkpt lat="48.39097" lon="2.59197">
        <ele>133.39999389648</ele>
        <time>2019-11-16T13:48:03.000Z</time>
      </trkpt>
      <trkpt lat="48.39082" lon="2.59203">
        <ele>134</ele>
        <time>2019-11-16T13:48:09.000Z</time>
      </trkpt>
      <trkpt lat="48.39069" lon="2.59206">
        <ele>134.39999389648</ele>
        <time>2019-11-16T13:48:14.000Z</time>
      </trkpt>
      <trkpt lat="48.39051" lon="2.59211">
        <ele>134.60000610352</ele>
        <time>2019-11-16T13:48:19.000Z</time>
      </trkpt>
      <trkpt lat="48.39048" lon="2.59212">
        <ele>134.60000610352</ele>
        <time>2019-11-16T13:48:20.000Z</time>
      </trkpt>
      <trkpt lat="48.3903" lon="2.59218">
        <ele>134.39999389648</ele>
        <time>2019-11-16T13:48:25.000Z</time>
      </trkpt>
      <trkpt lat="48.39006" lon="2.59229">
        <ele>134.19999694824</ele>
        <time>2019-11-16T13:48:31.000Z</time>
      </trkpt>
      <trkpt lat="48.39003" lon="2.59242">
        <ele>133.19999694824</ele>
        <time>2019-11-16T13:48:33.000Z</time>
      </trkpt>
      <trkpt lat="48.38998" lon="2.59255">
        <ele>132.60000610352</ele>
        <time>2019-11-16T13:48:36.000Z</time>
      </trkpt>
      <trkpt lat="48.38996" lon="2.59258">
        <ele>132.60000610352</ele>
        <time>2019-11-16T13:48:37.000Z</time>
      </trkpt>
      <trkpt lat="48.38994" lon="2.59262">
        <ele>132.19999694824</ele>
        <time>2019-11-16T13:48:39.000Z</time>
      </trkpt>
      <trkpt lat="48.38991" lon="2.59264">
        <ele>131.60000610352</ele>
        <time>2019-11-16T13:48:41.000Z</time>
      </trkpt>
      <trkpt lat="48.38987" lon="2.59267">
        <ele>130.60000610352</ele>
        <time>2019-11-16T13:48:43.000Z</time>
      </trkpt>
      <trkpt lat="48.38985" lon="2.59269">
        <ele>129.80000305176</ele>
        <time>2019-11-16T13:48:44.000Z</time>
      </trkpt>
      <trkpt lat="48.3898" lon="2.59272">
        <ele>129</ele>
        <time>2019-11-16T13:48:45.000Z</time>
      </trkpt>
      <trkpt lat="48.38969" lon="2.59276">
        <ele>127.80000305176</ele>
        <time>2019-11-16T13:48:48.000Z</time>
      </trkpt>
      <trkpt lat="48.38963" lon="2.59275">
        <ele>126.59999847412</ele>
        <time>2019-11-16T13:48:50.000Z</time>
      </trkpt>
      <trkpt lat="48.38958" lon="2.59276">
        <ele>127.19999694824</ele>
        <time>2019-11-16T13:48:54.000Z</time>
      </trkpt>
      <trkpt lat="48.38957" lon="2.59276">
        <ele>127.80000305176</ele>
        <time>2019-11-16T13:48:55.000Z</time>
      </trkpt>
      <trkpt lat="48.38957" lon="2.59277">
        <ele>128.19999694824</ele>
        <time>2019-11-16T13:48:58.000Z</time>
      </trkpt>
      <trkpt lat="48.38958" lon="2.59276">
        <ele>127.80000305176</ele>
        <time>2019-11-16T13:49:05.000Z</time>
      </trkpt>
      <trkpt lat="48.3896" lon="2.59276">
        <ele>127.59999847412</ele>
        <time>2019-11-16T13:49:07.000Z</time>
      </trkpt>
      <trkpt lat="48.38965" lon="2.59281">
        <ele>127.19999694824</ele>
        <time>2019-11-16T13:49:10.000Z</time>
      </trkpt>
      <trkpt lat="48.38965" lon="2.5929">
        <ele>126.59999847412</ele>
        <time>2019-11-16T13:49:12.000Z</time>
      </trkpt>
      <trkpt lat="48.38964" lon="2.59294">
        <ele>126.40000152588</ele>
        <time>2019-11-16T13:49:13.000Z</time>
      </trkpt>
      <trkpt lat="48.38962" lon="2.59313">
        <ele>126.19999694824</ele>
        <time>2019-11-16T13:49:18.000Z</time>
      </trkpt>
      <trkpt lat="48.38962" lon="2.59321">
        <ele>126.19999694824</ele>
        <time>2019-11-16T13:49:20.000Z</time>
      </trkpt>
      <trkpt lat="48.38961" lon="2.59335">
        <ele>126.59999847412</ele>
        <time>2019-11-16T13:49:23.000Z</time>
      </trkpt>
      <trkpt lat="48.38956" lon="2.59358">
        <ele>127</ele>
        <time>2019-11-16T13:49:28.000Z</time>
      </trkpt>
      <trkpt lat="48.38951" lon="2.59381">
        <ele>127.19999694824</ele>
        <time>2019-11-16T13:49:33.000Z</time>
      </trkpt>
      <trkpt lat="48.38946" lon="2.59405">
        <ele>127.19999694824</ele>
        <time>2019-11-16T13:49:38.000Z</time>
      </trkpt>
      <trkpt lat="48.38945" lon="2.5943">
        <ele>127.59999847412</ele>
        <time>2019-11-16T13:49:43.000Z</time>
      </trkpt>
      <trkpt lat="48.38944" lon="2.59435">
        <ele>127.80000305176</ele>
        <time>2019-11-16T13:49:44.000Z</time>
      </trkpt>
      <trkpt lat="48.38943" lon="2.59448">
        <ele>128</ele>
        <time>2019-11-16T13:49:47.000Z</time>
      </trkpt>
      <trkpt lat="48.38937" lon="2.5947">
        <ele>128.39999389648</ele>
        <time>2019-11-16T13:49:52.000Z</time>
      </trkpt>
      <trkpt lat="48.38933" lon="2.5948">
        <ele>128.39999389648</ele>
        <time>2019-11-16T13:49:55.000Z</time>
      </trkpt>
      <trkpt lat="48.38931" lon="2.59479">
        <ele>128.19999694824</ele>
        <time>2019-11-16T13:49:56.000Z</time>
      </trkpt>
      <trkpt lat="48.38921" lon="2.59473">
        <ele>128.39999389648</ele>
        <time>2019-11-16T13:49:59.000Z</time>
      </trkpt>
      <trkpt lat="48.38917" lon="2.59472">
        <ele>128.80000305176</ele>
        <time>2019-11-16T13:50:00.000Z</time>
      </trkpt>
      <trkpt lat="48.38907" lon="2.59469">
        <ele>131</ele>
        <time>2019-11-16T13:50:04.000Z</time>
      </trkpt>
      <trkpt lat="48.38904" lon="2.59465">
        <ele>132</ele>
        <time>2019-11-16T13:50:06.000Z</time>
      </trkpt>
      <trkpt lat="48.389" lon="2.59457">
        <ele>132.60000610352</ele>
        <time>2019-11-16T13:50:09.000Z</time>
      </trkpt>
      <trkpt lat="48.389" lon="2.59452">
        <ele>133.19999694824</ele>
        <time>2019-11-16T13:50:11.000Z</time>
      </trkpt>
      <trkpt lat="48.38901" lon="2.59445">
        <ele>133.80000305176</ele>
        <time>2019-11-16T13:50:14.000Z</time>
      </trkpt>
      <trkpt lat="48.389" lon="2.59431">
        <ele>133.80000305176</ele>
        <time>2019-11-16T13:50:19.000Z</time>
      </trkpt>
      <trkpt lat="48.38901" lon="2.5942">
        <ele>134.19999694824</ele>
        <time>2019-11-16T13:50:22.000Z</time>
      </trkpt>
      <trkpt lat="48.389" lon="2.59413">
        <ele>134.19999694824</ele>
        <time>2019-11-16T13:50:24.000Z</time>
      </trkpt>
      <trkpt lat="48.38906" lon="2.59396">
        <ele>133.39999389648</ele>
        <time>2019-11-16T13:50:28.000Z</time>
      </trkpt>
      <trkpt lat="48.38909" lon="2.59378">
        <ele>133.80000305176</ele>
        <time>2019-11-16T13:50:33.000Z</time>
      </trkpt>
      <trkpt lat="48.38912" lon="2.59361">
        <ele>134</ele>
        <time>2019-11-16T13:50:37.000Z</time>
      </trkpt>
      <trkpt lat="48.38914" lon="2.59357">
        <ele>133.80000305176</ele>
        <time>2019-11-16T13:50:38.000Z</time>
      </trkpt>
      <trkpt lat="48.38914" lon="2.59338">
        <ele>133.80000305176</ele>
        <time>2019-11-16T13:50:42.000Z</time>
      </trkpt>
      <trkpt lat="48.38913" lon="2.59316">
        <ele>134.19999694824</ele>
        <time>2019-11-16T13:50:47.000Z</time>
      </trkpt>
      <trkpt lat="48.38918" lon="2.59292">
        <ele>133.80000305176</ele>
        <time>2019-11-16T13:50:52.000Z</time>
      </trkpt>
      <trkpt lat="48.38924" lon="2.59275">
        <ele>134</ele>
        <time>2019-11-16T13:50:56.000Z</time>
      </trkpt>
      <trkpt lat="48.38931" lon="2.59258">
        <ele>134.39999389648</ele>
        <time>2019-11-16T13:51:00.000Z</time>
      </trkpt>
      <trkpt lat="48.38932" lon="2.59242">
        <ele>134.80000305176</ele>
        <time>2019-11-16T13:51:04.000Z</time>
      </trkpt>
      <trkpt lat="48.38936" lon="2.59223">
        <ele>135</ele>
        <time>2019-11-16T13:51:08.000Z</time>
      </trkpt>
      <trkpt lat="48.38938" lon="2.59201">
        <ele>134.39999389648</ele>
        <time>2019-11-16T13:51:12.000Z</time>
      </trkpt>
      <trkpt lat="48.38937" lon="2.5918">
        <ele>134</ele>
        <time>2019-11-16T13:51:16.000Z</time>
      </trkpt>
      <trkpt lat="48.38935" lon="2.5916">
        <ele>134.39999389648</ele>
        <time>2019-11-16T13:51:20.000Z</time>
      </trkpt>
      <trkpt lat="48.38935" lon="2.59155">
        <ele>134.60000610352</ele>
        <time>2019-11-16T13:51:21.000Z</time>
      </trkpt>
      <trkpt lat="48.38931" lon="2.59136">
        <ele>135</ele>
        <time>2019-11-16T13:51:26.000Z</time>
      </trkpt>
      <trkpt lat="48.38933" lon="2.59114">
        <ele>135.19999694824</ele>
        <time>2019-11-16T13:51:31.000Z</time>
      </trkpt>
      <trkpt lat="48.38933" lon="2.59086">
        <ele>135</ele>
        <time>2019-11-16T13:51:36.000Z</time>
      </trkpt>
      <trkpt lat="48.38932" lon="2.59072">
        <ele>134.80000305176</ele>
        <time>2019-11-16T13:51:39.000Z</time>
      </trkpt>
      <trkpt lat="48.38938" lon="2.59054">
        <ele>135.19999694824</ele>
        <time>2019-11-16T13:51:43.000Z</time>
      </trkpt>
      <trkpt lat="48.38939" lon="2.5905">
        <ele>135.39999389648</ele>
        <time>2019-11-16T13:51:44.000Z</time>
      </trkpt>
      <trkpt lat="48.38943" lon="2.59026">
        <ele>135.39999389648</ele>
        <time>2019-11-16T13:51:49.000Z</time>
      </trkpt>
      <trkpt lat="48.38942" lon="2.5901">
        <ele>135.19999694824</ele>
        <time>2019-11-16T13:51:52.000Z</time>
      </trkpt>
      <trkpt lat="48.38936" lon="2.59002">
        <ele>135.19999694824</ele>
        <time>2019-11-16T13:51:54.000Z</time>
      </trkpt>
      <trkpt lat="48.38931" lon="2.5899">
        <ele>136.39999389648</ele>
        <time>2019-11-16T13:51:58.000Z</time>
      </trkpt>
      <trkpt lat="48.3893" lon="2.58987">
        <ele>136.80000305176</ele>
        <time>2019-11-16T13:51:59.000Z</time>
      </trkpt>
      <trkpt lat="48.38931" lon="2.58984">
        <ele>136.80000305176</ele>
        <time>2019-11-16T13:52:00.000Z</time>
      </trkpt>
      <trkpt lat="48.38934" lon="2.58978">
        <ele>136.60000610352</ele>
        <time>2019-11-16T13:52:02.000Z</time>
      </trkpt>
      <trkpt lat="48.38935" lon="2.58969">
        <ele>136.39999389648</ele>
        <time>2019-11-16T13:52:04.000Z</time>
      </trkpt>
      <trkpt lat="48.38936" lon="2.58965">
        <ele>136.60000610352</ele>
        <time>2019-11-16T13:52:05.000Z</time>
      </trkpt>
      <trkpt lat="48.3894" lon="2.58947">
        <ele>136.80000305176</ele>
        <time>2019-11-16T13:52:09.000Z</time>
      </trkpt>
      <trkpt lat="48.38938" lon="2.58934">
        <ele>136.60000610352</ele>
        <time>2019-11-16T13:52:12.000Z</time>
      </trkpt>
      <trkpt lat="48.38936" lon="2.58931">
        <ele>136.60000610352</ele>
        <time>2019-11-16T13:52:13.000Z</time>
      </trkpt>
      <trkpt lat="48.38931" lon="2.58918">
        <ele>136.80000305176</ele>
        <time>2019-11-16T13:52:17.000Z</time>
      </trkpt>
      <trkpt lat="48.38931" lon="2.58901">
        <ele>137</ele>
        <time>2019-11-16T13:52:21.000Z</time>
      </trkpt>
      <trkpt lat="48.38933" lon="2.58897">
        <ele>137.19999694824</ele>
        <time>2019-11-16T13:52:22.000Z</time>
      </trkpt>
      <trkpt lat="48.38933" lon="2.58873">
        <ele>137.19999694824</ele>
        <time>2019-11-16T13:52:27.000Z</time>
      </trkpt>
      <trkpt lat="48.38932" lon="2.58852">
        <ele>136.80000305176</ele>
        <time>2019-11-16T13:52:31.000Z</time>
      </trkpt>
      <trkpt lat="48.38927" lon="2.58835">
        <ele>136.80000305176</ele>
        <time>2019-11-16T13:52:35.000Z</time>
      </trkpt>
      <trkpt lat="48.38925" lon="2.58813">
        <ele>136.80000305176</ele>
        <time>2019-11-16T13:52:40.000Z</time>
      </trkpt>
      <trkpt lat="48.38925" lon="2.58798">
        <ele>137.19999694824</ele>
        <time>2019-11-16T13:52:44.000Z</time>
      </trkpt>
      <trkpt lat="48.3893" lon="2.58772">
        <ele>136.80000305176</ele>
        <time>2019-11-16T13:52:49.000Z</time>
      </trkpt>
      <trkpt lat="48.38937" lon="2.58746">
        <ele>137.19999694824</ele>
        <time>2019-11-16T13:52:54.000Z</time>
      </trkpt>
      <trkpt lat="48.38942" lon="2.58731">
        <ele>137</ele>
        <time>2019-11-16T13:52:57.000Z</time>
      </trkpt>
      <trkpt lat="48.38943" lon="2.58726">
        <ele>137</ele>
        <time>2019-11-16T13:52:58.000Z</time>
      </trkpt>
      <trkpt lat="48.38944" lon="2.58695">
        <ele>136.80000305176</ele>
        <time>2019-11-16T13:53:03.000Z</time>
      </trkpt>
      <trkpt lat="48.38945" lon="2.58664">
        <ele>136.60000610352</ele>
        <time>2019-11-16T13:53:08.000Z</time>
      </trkpt>
      <trkpt lat="48.3895" lon="2.58648">
        <ele>136.39999389648</ele>
        <time>2019-11-16T13:53:11.000Z</time>
      </trkpt>
      <trkpt lat="48.38955" lon="2.58621">
        <ele>137</ele>
        <time>2019-11-16T13:53:16.000Z</time>
      </trkpt>
      <trkpt lat="48.38959" lon="2.58606">
        <ele>137</ele>
        <time>2019-11-16T13:53:19.000Z</time>
      </trkpt>
      <trkpt lat="48.38961" lon="2.58602">
        <ele>136.60000610352</ele>
        <time>2019-11-16T13:53:20.000Z</time>
      </trkpt>
      <trkpt lat="48.38966" lon="2.58589">
        <ele>136.80000305176</ele>
        <time>2019-11-16T13:53:23.000Z</time>
      </trkpt>
      <trkpt lat="48.38971" lon="2.58573">
        <ele>137</ele>
        <time>2019-11-16T13:53:27.000Z</time>
      </trkpt>
      <trkpt lat="48.3897" lon="2.58571">
        <ele>137.19999694824</ele>
        <time>2019-11-16T13:53:28.000Z</time>
      </trkpt>
      <trkpt lat="48.38972" lon="2.58566">
        <ele>137.60000610352</ele>
        <time>2019-11-16T13:53:32.000Z</time>
      </trkpt>
      <trkpt lat="48.38977" lon="2.58561">
        <ele>137.39999389648</ele>
        <time>2019-11-16T13:53:35.000Z</time>
      </trkpt>
      <trkpt lat="48.38978" lon="2.58554">
        <ele>137.60000610352</ele>
        <time>2019-11-16T13:53:37.000Z</time>
      </trkpt>
      <trkpt lat="48.38981" lon="2.58537">
        <ele>137.19999694824</ele>
        <time>2019-11-16T13:53:42.000Z</time>
      </trkpt>
      <trkpt lat="48.38987" lon="2.58517">
        <ele>137.19999694824</ele>
        <time>2019-11-16T13:53:47.000Z</time>
      </trkpt>
      <trkpt lat="48.38998" lon="2.58502">
        <ele>137</ele>
        <time>2019-11-16T13:53:52.000Z</time>
      </trkpt>
      <trkpt lat="48.39" lon="2.58496">
        <ele>136.80000305176</ele>
        <time>2019-11-16T13:53:54.000Z</time>
      </trkpt>
      <trkpt lat="48.39001" lon="2.58487">
        <ele>137.39999389648</ele>
        <time>2019-11-16T13:53:56.000Z</time>
      </trkpt>
      <trkpt lat="48.39007" lon="2.58475">
        <ele>137</ele>
        <time>2019-11-16T13:53:59.000Z</time>
      </trkpt>
      <trkpt lat="48.39011" lon="2.58456">
        <ele>136.80000305176</ele>
        <time>2019-11-16T13:54:03.000Z</time>
      </trkpt>
      <trkpt lat="48.39014" lon="2.58437">
        <ele>137.39999389648</ele>
        <time>2019-11-16T13:54:07.000Z</time>
      </trkpt>
      <trkpt lat="48.39015" lon="2.58432">
        <ele>137.60000610352</ele>
        <time>2019-11-16T13:54:08.000Z</time>
      </trkpt>
      <trkpt lat="48.39018" lon="2.5842">
        <ele>137.60000610352</ele>
        <time>2019-11-16T13:54:10.000Z</time>
      </trkpt>
      <trkpt lat="48.3902" lon="2.58412">
        <ele>137.60000610352</ele>
        <time>2019-11-16T13:54:12.000Z</time>
      </trkpt>
      <trkpt lat="48.39024" lon="2.58402">
        <ele>137.80000305176</ele>
        <time>2019-11-16T13:54:15.000Z</time>
      </trkpt>
      <trkpt lat="48.39025" lon="2.58398">
        <ele>137.80000305176</ele>
        <time>2019-11-16T13:54:16.000Z</time>
      </trkpt>
      <trkpt lat="48.39029" lon="2.58373">
        <ele>137.80000305176</ele>
        <time>2019-11-16T13:54:21.000Z</time>
      </trkpt>
      <trkpt lat="48.39026" lon="2.58362">
        <ele>137.80000305176</ele>
        <time>2019-11-16T13:54:24.000Z</time>
      </trkpt>
      <trkpt lat="48.39025" lon="2.58358">
        <ele>137.60000610352</ele>
        <time>2019-11-16T13:54:25.000Z</time>
      </trkpt>
      <trkpt lat="48.39025" lon="2.58345">
        <ele>137.60000610352</ele>
        <time>2019-11-16T13:54:28.000Z</time>
      </trkpt>
      <trkpt lat="48.39026" lon="2.58331">
        <ele>138</ele>
        <time>2019-11-16T13:54:32.000Z</time>
      </trkpt>
      <trkpt lat="48.39028" lon="2.58328">
        <ele>137.80000305176</ele>
        <time>2019-11-16T13:54:33.000Z</time>
      </trkpt>
      <trkpt lat="48.39027" lon="2.58324">
        <ele>137.80000305176</ele>
        <time>2019-11-16T13:54:34.000Z</time>
      </trkpt>
      <trkpt lat="48.39026" lon="2.5832">
        <ele>137.80000305176</ele>
        <time>2019-11-16T13:54:35.000Z</time>
      </trkpt>
      <trkpt lat="48.39025" lon="2.58312">
        <ele>138</ele>
        <time>2019-11-16T13:54:37.000Z</time>
      </trkpt>
      <trkpt lat="48.39027" lon="2.58302">
        <ele>138.39999389648</ele>
        <time>2019-11-16T13:54:39.000Z</time>
      </trkpt>
      <trkpt lat="48.39025" lon="2.58287">
        <ele>138</ele>
        <time>2019-11-16T13:54:42.000Z</time>
      </trkpt>
      <trkpt lat="48.39022" lon="2.58278">
        <ele>137.60000610352</ele>
        <time>2019-11-16T13:54:44.000Z</time>
      </trkpt>
      <trkpt lat="48.39016" lon="2.58265">
        <ele>137.80000305176</ele>
        <time>2019-11-16T13:54:48.000Z</time>
      </trkpt>
      <trkpt lat="48.39009" lon="2.58259">
        <ele>138.19999694824</ele>
        <time>2019-11-16T13:54:51.000Z</time>
      </trkpt>
      <trkpt lat="48.39007" lon="2.58258">
        <ele>137.80000305176</ele>
        <time>2019-11-16T13:54:52.000Z</time>
      </trkpt>
      <trkpt lat="48.39003" lon="2.58251">
        <ele>137.80000305176</ele>
        <time>2019-11-16T13:54:54.000Z</time>
      </trkpt>
      <trkpt lat="48.39002" lon="2.58247">
        <ele>137.60000610352</ele>
        <time>2019-11-16T13:54:55.000Z</time>
      </trkpt>
      <trkpt lat="48.38998" lon="2.58235">
        <ele>137.19999694824</ele>
        <time>2019-11-16T13:54:59.000Z</time>
      </trkpt>
      <trkpt lat="48.38998" lon="2.58232">
        <ele>137.19999694824</ele>
        <time>2019-11-16T13:55:00.000Z</time>
      </trkpt>
      <trkpt lat="48.39003" lon="2.58215">
        <ele>137.60000610352</ele>
        <time>2019-11-16T13:55:04.000Z</time>
      </trkpt>
      <trkpt lat="48.39005" lon="2.58196">
        <ele>137</ele>
        <time>2019-11-16T13:55:08.000Z</time>
      </trkpt>
      <trkpt lat="48.39009" lon="2.58178">
        <ele>136.80000305176</ele>
        <time>2019-11-16T13:55:12.000Z</time>
      </trkpt>
      <trkpt lat="48.3901" lon="2.58174">
        <ele>136.60000610352</ele>
        <time>2019-11-16T13:55:13.000Z</time>
      </trkpt>
      <trkpt lat="48.39012" lon="2.58171">
        <ele>136.39999389648</ele>
        <time>2019-11-16T13:55:14.000Z</time>
      </trkpt>
      <trkpt lat="48.39016" lon="2.58164">
        <ele>136.39999389648</ele>
        <time>2019-11-16T13:55:16.000Z</time>
      </trkpt>
      <trkpt lat="48.39018" lon="2.58156">
        <ele>136.80000305176</ele>
        <time>2019-11-16T13:55:18.000Z</time>
      </trkpt>
      <trkpt lat="48.3902" lon="2.58151">
        <ele>136.80000305176</ele>
        <time>2019-11-16T13:55:20.000Z</time>
      </trkpt>
      <trkpt lat="48.39021" lon="2.58146">
        <ele>137</ele>
        <time>2019-11-16T13:55:22.000Z</time>
      </trkpt>
      <trkpt lat="48.39024" lon="2.58142">
        <ele>137</ele>
        <time>2019-11-16T13:55:24.000Z</time>
      </trkpt>
      <trkpt lat="48.39027" lon="2.58141">
        <ele>136.39999389648</ele>
        <time>2019-11-16T13:55:27.000Z</time>
      </trkpt>
      <trkpt lat="48.39031" lon="2.58128">
        <ele>136.80000305176</ele>
        <time>2019-11-16T13:55:31.000Z</time>
      </trkpt>
      <trkpt lat="48.39036" lon="2.58119">
        <ele>137.60000610352</ele>
        <time>2019-11-16T13:55:34.000Z</time>
      </trkpt>
      <trkpt lat="48.39038" lon="2.58115">
        <ele>137.60000610352</ele>
        <time>2019-11-16T13:55:35.000Z</time>
      </trkpt>
      <trkpt lat="48.39042" lon="2.58096">
        <ele>136.80000305176</ele>
        <time>2019-11-16T13:55:40.000Z</time>
      </trkpt>
      <trkpt lat="48.39041" lon="2.58092">
        <ele>136.60000610352</ele>
        <time>2019-11-16T13:55:41.000Z</time>
      </trkpt>
      <trkpt lat="48.39043" lon="2.5809">
        <ele>136.39999389648</ele>
        <time>2019-11-16T13:55:42.000Z</time>
      </trkpt>
      <trkpt lat="48.39042" lon="2.58083">
        <ele>136.60000610352</ele>
        <time>2019-11-16T13:55:44.000Z</time>
      </trkpt>
      <trkpt lat="48.39044" lon="2.58072">
        <ele>136.19999694824</ele>
        <time>2019-11-16T13:55:48.000Z</time>
      </trkpt>
      <trkpt lat="48.3905" lon="2.5806">
        <ele>135.19999694824</ele>
        <time>2019-11-16T13:55:52.000Z</time>
      </trkpt>
      <trkpt lat="48.39051" lon="2.58058">
        <ele>134.80000305176</ele>
        <time>2019-11-16T13:55:53.000Z</time>
      </trkpt>
      <trkpt lat="48.39055" lon="2.58055">
        <ele>134.39999389648</ele>
        <time>2019-11-16T13:55:57.000Z</time>
      </trkpt>
      <trkpt lat="48.39055" lon="2.58054">
        <ele>134.80000305176</ele>
        <time>2019-11-16T13:56:03.000Z</time>
      </trkpt>
      <trkpt lat="48.39051" lon="2.5805">
        <ele>135.19999694824</ele>
        <time>2019-11-16T13:56:09.000Z</time>
      </trkpt>
      <trkpt lat="48.39044" lon="2.58041">
        <ele>135</ele>
        <time>2019-11-16T13:56:14.000Z</time>
      </trkpt>
      <trkpt lat="48.39045" lon="2.58027">
        <ele>135.60000610352</ele>
        <time>2019-11-16T13:56:19.000Z</time>
      </trkpt>
      <trkpt lat="48.39045" lon="2.58017">
        <ele>134.39999389648</ele>
        <time>2019-11-16T13:56:24.000Z</time>
      </trkpt>
      <trkpt lat="48.39044" lon="2.58015">
        <ele>134.60000610352</ele>
        <time>2019-11-16T13:56:29.000Z</time>
      </trkpt>
      <trkpt lat="48.39043" lon="2.58014">
        <ele>134.19999694824</ele>
        <time>2019-11-16T13:56:36.000Z</time>
      </trkpt>
      <trkpt lat="48.39043" lon="2.58014">
        <ele>134.19999694824</ele>
        <time>2019-11-16T13:56:46.000Z</time>
      </trkpt>
      <trkpt lat="48.39043" lon="2.58013">
        <ele>134.60000610352</ele>
        <time>2019-11-16T13:56:55.000Z</time>
      </trkpt>
      <trkpt lat="48.39042" lon="2.58011">
        <ele>134.39999389648</ele>
        <time>2019-11-16T13:56:56.000Z</time>
      </trkpt>
      <trkpt lat="48.39035" lon="2.57999">
        <ele>134.60000610352</ele>
        <time>2019-11-16T13:57:00.000Z</time>
      </trkpt>
      <trkpt lat="48.39036" lon="2.57984">
        <ele>135</ele>
        <time>2019-11-16T13:57:03.000Z</time>
      </trkpt>
      <trkpt lat="48.39036" lon="2.5798">
        <ele>135</ele>
        <time>2019-11-16T13:57:04.000Z</time>
      </trkpt>
      <trkpt lat="48.39038" lon="2.57966">
        <ele>135.39999389648</ele>
        <time>2019-11-16T13:57:07.000Z</time>
      </trkpt>
      <trkpt lat="48.3904" lon="2.57963">
        <ele>135.39999389648</ele>
        <time>2019-11-16T13:57:08.000Z</time>
      </trkpt>
      <trkpt lat="48.39042" lon="2.57951">
        <ele>135.39999389648</ele>
        <time>2019-11-16T13:57:12.000Z</time>
      </trkpt>
      <trkpt lat="48.39048" lon="2.57935">
        <ele>135.19999694824</ele>
        <time>2019-11-16T13:57:17.000Z</time>
      </trkpt>
      <trkpt lat="48.39046" lon="2.57919">
        <ele>135.80000305176</ele>
        <time>2019-11-16T13:57:21.000Z</time>
      </trkpt>
      <trkpt lat="48.39045" lon="2.57903">
        <ele>135.80000305176</ele>
        <time>2019-11-16T13:57:25.000Z</time>
      </trkpt>
      <trkpt lat="48.39035" lon="2.57894">
        <ele>135.80000305176</ele>
        <time>2019-11-16T13:57:29.000Z</time>
      </trkpt>
      <trkpt lat="48.39033" lon="2.57891">
        <ele>136</ele>
        <time>2019-11-16T13:57:30.000Z</time>
      </trkpt>
      <trkpt lat="48.39018" lon="2.57871">
        <ele>136</ele>
        <time>2019-11-16T13:57:36.000Z</time>
      </trkpt>
      <trkpt lat="48.39009" lon="2.57853">
        <ele>135.19999694824</ele>
        <time>2019-11-16T13:57:40.000Z</time>
      </trkpt>
      <trkpt lat="48.39005" lon="2.57841">
        <ele>135.39999389648</ele>
        <time>2019-11-16T13:57:43.000Z</time>
      </trkpt>
      <trkpt lat="48.39002" lon="2.57827">
        <ele>135</ele>
        <time>2019-11-16T13:57:46.000Z</time>
      </trkpt>
      <trkpt lat="48.39004" lon="2.57808">
        <ele>135.19999694824</ele>
        <time>2019-11-16T13:57:50.000Z</time>
      </trkpt>
      <trkpt lat="48.39006" lon="2.5779">
        <ele>135</ele>
        <time>2019-11-16T13:57:54.000Z</time>
      </trkpt>
      <trkpt lat="48.39005" lon="2.57773">
        <ele>135</ele>
        <time>2019-11-16T13:57:58.000Z</time>
      </trkpt>
      <trkpt lat="48.39006" lon="2.57767">
        <ele>134.80000305176</ele>
        <time>2019-11-16T13:57:59.000Z</time>
      </trkpt>
      <trkpt lat="48.39012" lon="2.57752">
        <ele>134.60000610352</ele>
        <time>2019-11-16T13:58:03.000Z</time>
      </trkpt>
      <trkpt lat="48.39014" lon="2.57744">
        <ele>134.19999694824</ele>
        <time>2019-11-16T13:58:05.000Z</time>
      </trkpt>
      <trkpt lat="48.39016" lon="2.57727">
        <ele>134.19999694824</ele>
        <time>2019-11-16T13:58:09.000Z</time>
      </trkpt>
      <trkpt lat="48.3902" lon="2.5771">
        <ele>134.19999694824</ele>
        <time>2019-11-16T13:58:13.000Z</time>
      </trkpt>
      <trkpt lat="48.39024" lon="2.57699">
        <ele>134.19999694824</ele>
        <time>2019-11-16T13:58:15.000Z</time>
      </trkpt>
      <trkpt lat="48.39027" lon="2.57692">
        <ele>133.80000305176</ele>
        <time>2019-11-16T13:58:17.000Z</time>
      </trkpt>
      <trkpt lat="48.39031" lon="2.57674">
        <ele>134</ele>
        <time>2019-11-16T13:58:21.000Z</time>
      </trkpt>
      <trkpt lat="48.3903" lon="2.57668">
        <ele>134</ele>
        <time>2019-11-16T13:58:22.000Z</time>
      </trkpt>
      <trkpt lat="48.3903" lon="2.57657">
        <ele>134</ele>
        <time>2019-11-16T13:58:24.000Z</time>
      </trkpt>
      <trkpt lat="48.39036" lon="2.57649">
        <ele>134.19999694824</ele>
        <time>2019-11-16T13:58:27.000Z</time>
      </trkpt>
      <trkpt lat="48.39041" lon="2.57631">
        <ele>134.60000610352</ele>
        <time>2019-11-16T13:58:32.000Z</time>
      </trkpt>
      <trkpt lat="48.39038" lon="2.57612">
        <ele>135</ele>
        <time>2019-11-16T13:58:36.000Z</time>
      </trkpt>
      <trkpt lat="48.3904" lon="2.57599">
        <ele>135</ele>
        <time>2019-11-16T13:58:39.000Z</time>
      </trkpt>
      <trkpt lat="48.39041" lon="2.57581">
        <ele>134.39999389648</ele>
        <time>2019-11-16T13:58:44.000Z</time>
      </trkpt>
      <trkpt lat="48.39041" lon="2.57564">
        <ele>134.19999694824</ele>
        <time>2019-11-16T13:58:49.000Z</time>
      </trkpt>
      <trkpt lat="48.39044" lon="2.57555">
        <ele>134.39999389648</ele>
        <time>2019-11-16T13:58:52.000Z</time>
      </trkpt>
      <trkpt lat="48.39044" lon="2.57548">
        <ele>134.39999389648</ele>
        <time>2019-11-16T13:58:54.000Z</time>
      </trkpt>
      <trkpt lat="48.39046" lon="2.5753">
        <ele>134.60000610352</ele>
        <time>2019-11-16T13:58:58.000Z</time>
      </trkpt>
      <trkpt lat="48.39042" lon="2.57509">
        <ele>134</ele>
        <time>2019-11-16T13:59:03.000Z</time>
      </trkpt>
      <trkpt lat="48.39034" lon="2.57496">
        <ele>134</ele>
        <time>2019-11-16T13:59:07.000Z</time>
      </trkpt>
      <trkpt lat="48.39031" lon="2.57488">
        <ele>133.60000610352</ele>
        <time>2019-11-16T13:59:09.000Z</time>
      </trkpt>
      <trkpt lat="48.39029" lon="2.57486">
        <ele>133.60000610352</ele>
        <time>2019-11-16T13:59:10.000Z</time>
      </trkpt>
      <trkpt lat="48.39026" lon="2.57484">
        <ele>133.60000610352</ele>
        <time>2019-11-16T13:59:11.000Z</time>
      </trkpt>
      <trkpt lat="48.39023" lon="2.5748">
        <ele>133.60000610352</ele>
        <time>2019-11-16T13:59:13.000Z</time>
      </trkpt>
      <trkpt lat="48.39024" lon="2.57474">
        <ele>133.39999389648</ele>
        <time>2019-11-16T13:59:15.000Z</time>
      </trkpt>
      <trkpt lat="48.3903" lon="2.57457">
        <ele>133.39999389648</ele>
        <time>2019-11-16T13:59:19.000Z</time>
      </trkpt>
      <trkpt lat="48.39028" lon="2.57453">
        <ele>133.19999694824</ele>
        <time>2019-11-16T13:59:20.000Z</time>
      </trkpt>
      <trkpt lat="48.39025" lon="2.5745">
        <ele>132.80000305176</ele>
        <time>2019-11-16T13:59:21.000Z</time>
      </trkpt>
      <trkpt lat="48.39025" lon="2.57444">
        <ele>132</ele>
        <time>2019-11-16T13:59:23.000Z</time>
      </trkpt>
      <trkpt lat="48.39026" lon="2.57443">
        <ele>132.19999694824</ele>
        <time>2019-11-16T13:59:24.000Z</time>
      </trkpt>
      <trkpt lat="48.39026" lon="2.57439">
        <ele>132.80000305176</ele>
        <time>2019-11-16T13:59:27.000Z</time>
      </trkpt>
      <trkpt lat="48.39027" lon="2.57435">
        <ele>133.19999694824</ele>
        <time>2019-11-16T13:59:28.000Z</time>
      </trkpt>
      <trkpt lat="48.39028" lon="2.57432">
        <ele>133.19999694824</ele>
        <time>2019-11-16T13:59:29.000Z</time>
      </trkpt>
      <trkpt lat="48.39027" lon="2.57418">
        <ele>133.80000305176</ele>
        <time>2019-11-16T13:59:32.000Z</time>
      </trkpt>
      <trkpt lat="48.39027" lon="2.57414">
        <ele>134</ele>
        <time>2019-11-16T13:59:33.000Z</time>
      </trkpt>
      <trkpt lat="48.39027" lon="2.5741">
        <ele>134.19999694824</ele>
        <time>2019-11-16T13:59:34.000Z</time>
      </trkpt>
      <trkpt lat="48.3903" lon="2.57397">
        <ele>134</ele>
        <time>2019-11-16T13:59:37.000Z</time>
      </trkpt>
      <trkpt lat="48.39032" lon="2.57384">
        <ele>133.60000610352</ele>
        <time>2019-11-16T13:59:42.000Z</time>
      </trkpt>
      <trkpt lat="48.39034" lon="2.57381">
        <ele>134</ele>
        <time>2019-11-16T13:59:44.000Z</time>
      </trkpt>
      <trkpt lat="48.39038" lon="2.57375">
        <ele>134.19999694824</ele>
        <time>2019-11-16T13:59:47.000Z</time>
      </trkpt>
      <trkpt lat="48.39044" lon="2.57362">
        <ele>134</ele>
        <time>2019-11-16T13:59:52.000Z</time>
      </trkpt>
      <trkpt lat="48.39046" lon="2.57359">
        <ele>134.19999694824</ele>
        <time>2019-11-16T13:59:53.000Z</time>
      </trkpt>
      <trkpt lat="48.39049" lon="2.5734">
        <ele>134.60000610352</ele>
        <time>2019-11-16T13:59:57.000Z</time>
      </trkpt>
      <trkpt lat="48.39055" lon="2.57325">
        <ele>134.19999694824</ele>
        <time>2019-11-16T14:00:01.000Z</time>
      </trkpt>
      <trkpt lat="48.39061" lon="2.5731">
        <ele>134</ele>
        <time>2019-11-16T14:00:05.000Z</time>
      </trkpt>
      <trkpt lat="48.39071" lon="2.57304">
        <ele>134</ele>
        <time>2019-11-16T14:00:10.000Z</time>
      </trkpt>
      <trkpt lat="48.3908" lon="2.57299">
        <ele>134.39999389648</ele>
        <time>2019-11-16T14:00:13.000Z</time>
      </trkpt>
      <trkpt lat="48.39087" lon="2.57279">
        <ele>135.19999694824</ele>
        <time>2019-11-16T14:00:18.000Z</time>
      </trkpt>
      <trkpt lat="48.39083" lon="2.57268">
        <ele>134.60000610352</ele>
        <time>2019-11-16T14:00:21.000Z</time>
      </trkpt>
      <trkpt lat="48.39082" lon="2.57265">
        <ele>134.60000610352</ele>
        <time>2019-11-16T14:00:22.000Z</time>
      </trkpt>
      <trkpt lat="48.39083" lon="2.57249">
        <ele>134.19999694824</ele>
        <time>2019-11-16T14:00:26.000Z</time>
      </trkpt>
      <trkpt lat="48.39087" lon="2.57223">
        <ele>134.39999389648</ele>
        <time>2019-11-16T14:00:32.000Z</time>
      </trkpt>
      <trkpt lat="48.3909" lon="2.57208">
        <ele>134.19999694824</ele>
        <time>2019-11-16T14:00:36.000Z</time>
      </trkpt>
      <trkpt lat="48.39095" lon="2.57196">
        <ele>134</ele>
        <time>2019-11-16T14:00:39.000Z</time>
      </trkpt>
      <trkpt lat="48.39104" lon="2.5719">
        <ele>133.80000305176</ele>
        <time>2019-11-16T14:00:43.000Z</time>
      </trkpt>
      <trkpt lat="48.39104" lon="2.57186">
        <ele>134</ele>
        <time>2019-11-16T14:00:44.000Z</time>
      </trkpt>
      <trkpt lat="48.39108" lon="2.5718">
        <ele>134</ele>
        <time>2019-11-16T14:00:46.000Z</time>
      </trkpt>
      <trkpt lat="48.39115" lon="2.57169">
        <ele>134</ele>
        <time>2019-11-16T14:00:50.000Z</time>
      </trkpt>
      <trkpt lat="48.39123" lon="2.57158">
        <ele>134</ele>
        <time>2019-11-16T14:00:54.000Z</time>
      </trkpt>
      <trkpt lat="48.39127" lon="2.57143">
        <ele>133.80000305176</ele>
        <time>2019-11-16T14:00:57.000Z</time>
      </trkpt>
      <trkpt lat="48.39128" lon="2.57139">
        <ele>133.60000610352</ele>
        <time>2019-11-16T14:00:58.000Z</time>
      </trkpt>
      <trkpt lat="48.39127" lon="2.57133">
        <ele>133.60000610352</ele>
        <time>2019-11-16T14:00:59.000Z</time>
      </trkpt>
      <trkpt lat="48.39129" lon="2.5712">
        <ele>133.39999389648</ele>
        <time>2019-11-16T14:01:02.000Z</time>
      </trkpt>
      <trkpt lat="48.39132" lon="2.57112">
        <ele>133.19999694824</ele>
        <time>2019-11-16T14:01:04.000Z</time>
      </trkpt>
      <trkpt lat="48.39135" lon="2.57094">
        <ele>133.39999389648</ele>
        <time>2019-11-16T14:01:08.000Z</time>
      </trkpt>
      <trkpt lat="48.39135" lon="2.57075">
        <ele>133.60000610352</ele>
        <time>2019-11-16T14:01:12.000Z</time>
      </trkpt>
      <trkpt lat="48.39136" lon="2.57057">
        <ele>133.80000305176</ele>
        <time>2019-11-16T14:01:16.000Z</time>
      </trkpt>
      <trkpt lat="48.39139" lon="2.57042">
        <ele>134.19999694824</ele>
        <time>2019-11-16T14:01:20.000Z</time>
      </trkpt>
      <trkpt lat="48.39141" lon="2.57038">
        <ele>134.39999389648</ele>
        <time>2019-11-16T14:01:21.000Z</time>
      </trkpt>
      <trkpt lat="48.39152" lon="2.57017">
        <ele>134</ele>
        <time>2019-11-16T14:01:26.000Z</time>
      </trkpt>
      <trkpt lat="48.39156" lon="2.57003">
        <ele>133.60000610352</ele>
        <time>2019-11-16T14:01:29.000Z</time>
      </trkpt>
      <trkpt lat="48.3916" lon="2.5699">
        <ele>133.39999389648</ele>
        <time>2019-11-16T14:01:33.000Z</time>
      </trkpt>
      <trkpt lat="48.39167" lon="2.56976">
        <ele>133.60000610352</ele>
        <time>2019-11-16T14:01:36.000Z</time>
      </trkpt>
      <trkpt lat="48.39169" lon="2.56972">
        <ele>133.60000610352</ele>
        <time>2019-11-16T14:01:37.000Z</time>
      </trkpt>
      <trkpt lat="48.39168" lon="2.5696">
        <ele>133</ele>
        <time>2019-11-16T14:01:39.000Z</time>
      </trkpt>
      <trkpt lat="48.39166" lon="2.56955">
        <ele>132.80000305176</ele>
        <time>2019-11-16T14:01:40.000Z</time>
      </trkpt>
      <trkpt lat="48.39159" lon="2.56944">
        <ele>133.39999389648</ele>
        <time>2019-11-16T14:01:43.000Z</time>
      </trkpt>
      <trkpt lat="48.39158" lon="2.56938">
        <ele>133.19999694824</ele>
        <time>2019-11-16T14:01:44.000Z</time>
      </trkpt>
      <trkpt lat="48.39156" lon="2.56922">
        <ele>133.19999694824</ele>
        <time>2019-11-16T14:01:48.000Z</time>
      </trkpt>
      <trkpt lat="48.39158" lon="2.56919">
        <ele>133.80000305176</ele>
        <time>2019-11-16T14:01:52.000Z</time>
      </trkpt>
      <trkpt lat="48.3916" lon="2.5691">
        <ele>133.60000610352</ele>
        <time>2019-11-16T14:01:54.000Z</time>
      </trkpt>
      <trkpt lat="48.39161" lon="2.56906">
        <ele>133.39999389648</ele>
        <time>2019-11-16T14:01:55.000Z</time>
      </trkpt>
      <trkpt lat="48.39162" lon="2.569">
        <ele>133.19999694824</ele>
        <time>2019-11-16T14:01:57.000Z</time>
      </trkpt>
      <trkpt lat="48.39164" lon="2.56895">
        <ele>133.39999389648</ele>
        <time>2019-11-16T14:01:58.000Z</time>
      </trkpt>
      <trkpt lat="48.39172" lon="2.56877">
        <ele>133.39999389648</ele>
        <time>2019-11-16T14:02:02.000Z</time>
      </trkpt>
      <trkpt lat="48.39175" lon="2.56859">
        <ele>133.39999389648</ele>
        <time>2019-11-16T14:02:06.000Z</time>
      </trkpt>
      <trkpt lat="48.39174" lon="2.56845">
        <ele>133.19999694824</ele>
        <time>2019-11-16T14:02:09.000Z</time>
      </trkpt>
      <trkpt lat="48.39174" lon="2.56822">
        <ele>133</ele>
        <time>2019-11-16T14:02:13.000Z</time>
      </trkpt>
      <trkpt lat="48.39173" lon="2.56816">
        <ele>133</ele>
        <time>2019-11-16T14:02:14.000Z</time>
      </trkpt>
      <trkpt lat="48.39174" lon="2.56796">
        <ele>133.39999389648</ele>
        <time>2019-11-16T14:02:18.000Z</time>
      </trkpt>
      <trkpt lat="48.39175" lon="2.56785">
        <ele>133.19999694824</ele>
        <time>2019-11-16T14:02:20.000Z</time>
      </trkpt>
      <trkpt lat="48.39175" lon="2.56771">
        <ele>133.39999389648</ele>
        <time>2019-11-16T14:02:23.000Z</time>
      </trkpt>
      <trkpt lat="48.39177" lon="2.56763">
        <ele>133.39999389648</ele>
        <time>2019-11-16T14:02:25.000Z</time>
      </trkpt>
      <trkpt lat="48.39183" lon="2.56753">
        <ele>133.39999389648</ele>
        <time>2019-11-16T14:02:29.000Z</time>
      </trkpt>
      <trkpt lat="48.39182" lon="2.5675">
        <ele>133.39999389648</ele>
        <time>2019-11-16T14:02:30.000Z</time>
      </trkpt>
      <trkpt lat="48.39182" lon="2.56744">
        <ele>134</ele>
        <time>2019-11-16T14:02:32.000Z</time>
      </trkpt>
      <trkpt lat="48.39183" lon="2.56742">
        <ele>134.39999389648</ele>
        <time>2019-11-16T14:02:33.000Z</time>
      </trkpt>
      <trkpt lat="48.39196" lon="2.56724">
        <ele>134.60000610352</ele>
        <time>2019-11-16T14:02:38.000Z</time>
      </trkpt>
      <trkpt lat="48.39199" lon="2.56703">
        <ele>134</ele>
        <time>2019-11-16T14:02:42.000Z</time>
      </trkpt>
      <trkpt lat="48.39199" lon="2.56692">
        <ele>134</ele>
        <time>2019-11-16T14:02:45.000Z</time>
      </trkpt>
      <trkpt lat="48.39201" lon="2.56686">
        <ele>134.39999389648</ele>
        <time>2019-11-16T14:02:47.000Z</time>
      </trkpt>
      <trkpt lat="48.39205" lon="2.5667">
        <ele>134.80000305176</ele>
        <time>2019-11-16T14:02:51.000Z</time>
      </trkpt>
      <trkpt lat="48.39206" lon="2.56668">
        <ele>135</ele>
        <time>2019-11-16T14:02:52.000Z</time>
      </trkpt>
      <trkpt lat="48.3921" lon="2.56645">
        <ele>134.39999389648</ele>
        <time>2019-11-16T14:02:56.000Z</time>
      </trkpt>
      <trkpt lat="48.39211" lon="2.56637">
        <ele>133.80000305176</ele>
        <time>2019-11-16T14:02:57.000Z</time>
      </trkpt>
      <trkpt lat="48.39208" lon="2.56627">
        <ele>133.60000610352</ele>
        <time>2019-11-16T14:02:59.000Z</time>
      </trkpt>
      <trkpt lat="48.39208" lon="2.56607">
        <ele>134</ele>
        <time>2019-11-16T14:03:03.000Z</time>
      </trkpt>
      <trkpt lat="48.39203" lon="2.56588">
        <ele>133.60000610352</ele>
        <time>2019-11-16T14:03:08.000Z</time>
      </trkpt>
      <trkpt lat="48.39192" lon="2.56568">
        <ele>133.60000610352</ele>
        <time>2019-11-16T14:03:13.000Z</time>
      </trkpt>
      <trkpt lat="48.39193" lon="2.56557">
        <ele>133.60000610352</ele>
        <time>2019-11-16T14:03:16.000Z</time>
      </trkpt>
      <trkpt lat="48.3919" lon="2.56543">
        <ele>133.60000610352</ele>
        <time>2019-11-16T14:03:19.000Z</time>
      </trkpt>
      <trkpt lat="48.39196" lon="2.56533">
        <ele>133.19999694824</ele>
        <time>2019-11-16T14:03:22.000Z</time>
      </trkpt>
      <trkpt lat="48.39199" lon="2.56531">
        <ele>133</ele>
        <time>2019-11-16T14:03:23.000Z</time>
      </trkpt>
      <trkpt lat="48.39201" lon="2.5653">
        <ele>133</ele>
        <time>2019-11-16T14:03:24.000Z</time>
      </trkpt>
      <trkpt lat="48.39205" lon="2.56525">
        <ele>133.19999694824</ele>
        <time>2019-11-16T14:03:26.000Z</time>
      </trkpt>
      <trkpt lat="48.39206" lon="2.56519">
        <ele>133.19999694824</ele>
        <time>2019-11-16T14:03:27.000Z</time>
      </trkpt>
      <trkpt lat="48.39206" lon="2.56511">
        <ele>133</ele>
        <time>2019-11-16T14:03:29.000Z</time>
      </trkpt>
      <trkpt lat="48.39204" lon="2.56505">
        <ele>132.80000305176</ele>
        <time>2019-11-16T14:03:31.000Z</time>
      </trkpt>
      <trkpt lat="48.39205" lon="2.56501">
        <ele>132.80000305176</ele>
        <time>2019-11-16T14:03:32.000Z</time>
      </trkpt>
      <trkpt lat="48.39208" lon="2.56497">
        <ele>132.80000305176</ele>
        <time>2019-11-16T14:03:33.000Z</time>
      </trkpt>
      <trkpt lat="48.39221" lon="2.56491">
        <ele>132.39999389648</ele>
        <time>2019-11-16T14:03:37.000Z</time>
      </trkpt>
      <trkpt lat="48.39229" lon="2.56487">
        <ele>133.19999694824</ele>
        <time>2019-11-16T14:03:40.000Z</time>
      </trkpt>
      <trkpt lat="48.39234" lon="2.56481">
        <ele>133.60000610352</ele>
        <time>2019-11-16T14:03:42.000Z</time>
      </trkpt>
      <trkpt lat="48.39238" lon="2.56467">
        <ele>133.80000305176</ele>
        <time>2019-11-16T14:03:45.000Z</time>
      </trkpt>
      <trkpt lat="48.39241" lon="2.56449">
        <ele>133.60000610352</ele>
        <time>2019-11-16T14:03:49.000Z</time>
      </trkpt>
      <trkpt lat="48.39242" lon="2.5643">
        <ele>133.80000305176</ele>
        <time>2019-11-16T14:03:53.000Z</time>
      </trkpt>
      <trkpt lat="48.39243" lon="2.56413">
        <ele>133.80000305176</ele>
        <time>2019-11-16T14:03:57.000Z</time>
      </trkpt>
      <trkpt lat="48.39249" lon="2.56387">
        <ele>133.19999694824</ele>
        <time>2019-11-16T14:04:02.000Z</time>
      </trkpt>
      <trkpt lat="48.39253" lon="2.56373">
        <ele>133</ele>
        <time>2019-11-16T14:04:06.000Z</time>
      </trkpt>
      <trkpt lat="48.39256" lon="2.56362">
        <ele>133.80000305176</ele>
        <time>2019-11-16T14:04:10.000Z</time>
      </trkpt>
      <trkpt lat="48.39256" lon="2.5636">
        <ele>134</ele>
        <time>2019-11-16T14:04:11.000Z</time>
      </trkpt>
      <trkpt lat="48.39254" lon="2.56349">
        <ele>134</ele>
        <time>2019-11-16T14:04:15.000Z</time>
      </trkpt>
      <trkpt lat="48.39253" lon="2.56346">
        <ele>133.80000305176</ele>
        <time>2019-11-16T14:04:16.000Z</time>
      </trkpt>
      <trkpt lat="48.39251" lon="2.56335">
        <ele>133.19999694824</ele>
        <time>2019-11-16T14:04:18.000Z</time>
      </trkpt>
      <trkpt lat="48.39252" lon="2.56329">
        <ele>132.80000305176</ele>
        <time>2019-11-16T14:04:19.000Z</time>
      </trkpt>
      <trkpt lat="48.39249" lon="2.56313">
        <ele>132</ele>
        <time>2019-11-16T14:04:23.000Z</time>
      </trkpt>
      <trkpt lat="48.39244" lon="2.56306">
        <ele>132.19999694824</ele>
        <time>2019-11-16T14:04:28.000Z</time>
      </trkpt>
      <trkpt lat="48.39246" lon="2.56298">
        <ele>132.39999389648</ele>
        <time>2019-11-16T14:04:32.000Z</time>
      </trkpt>
      <trkpt lat="48.39251" lon="2.56301">
        <ele>132.19999694824</ele>
        <time>2019-11-16T14:04:36.000Z</time>
      </trkpt>
      <trkpt lat="48.39256" lon="2.56305">
        <ele>132</ele>
        <time>2019-11-16T14:04:40.000Z</time>
      </trkpt>
      <trkpt lat="48.39258" lon="2.56302">
        <ele>131.39999389648</ele>
        <time>2019-11-16T14:04:42.000Z</time>
      </trkpt>
      <trkpt lat="48.3926" lon="2.56299">
        <ele>130.60000610352</ele>
        <time>2019-11-16T14:04:44.000Z</time>
      </trkpt>
      <trkpt lat="48.39261" lon="2.56296">
        <ele>130</ele>
        <time>2019-11-16T14:04:45.000Z</time>
      </trkpt>
      <trkpt lat="48.39263" lon="2.56295">
        <ele>129.39999389648</ele>
        <time>2019-11-16T14:04:46.000Z</time>
      </trkpt>
      <trkpt lat="48.39263" lon="2.56294">
        <ele>128.19999694824</ele>
        <time>2019-11-16T14:04:48.000Z</time>
      </trkpt>
      <trkpt lat="48.39263" lon="2.56294">
        <ele>128</ele>
        <time>2019-11-16T14:04:49.000Z</time>
      </trkpt>
      <trkpt lat="48.39263" lon="2.56294">
        <ele>128.39999389648</ele>
        <time>2019-11-16T14:04:54.000Z</time>
      </trkpt>
      <trkpt lat="48.39263" lon="2.56294">
        <ele>128</ele>
        <time>2019-11-16T14:05:01.000Z</time>
      </trkpt>
      <trkpt lat="48.39262" lon="2.56293">
        <ele>127.80000305176</ele>
        <time>2019-11-16T14:05:05.000Z</time>
      </trkpt>
      <trkpt lat="48.39264" lon="2.56291">
        <ele>127.59999847412</ele>
        <time>2019-11-16T14:05:06.000Z</time>
      </trkpt>
      <trkpt lat="48.39265" lon="2.56289">
        <ele>127.19999694824</ele>
        <time>2019-11-16T14:05:07.000Z</time>
      </trkpt>
      <trkpt lat="48.39263" lon="2.56281">
        <ele>126.19999694824</ele>
        <time>2019-11-16T14:05:09.000Z</time>
      </trkpt>
      <trkpt lat="48.39262" lon="2.56277">
        <ele>126</ele>
        <time>2019-11-16T14:05:10.000Z</time>
      </trkpt>
      <trkpt lat="48.3926" lon="2.56275">
        <ele>125.40000152588</ele>
        <time>2019-11-16T14:05:11.000Z</time>
      </trkpt>
      <trkpt lat="48.39258" lon="2.56276">
        <ele>125.40000152588</ele>
        <time>2019-11-16T14:05:13.000Z</time>
      </trkpt>
      <trkpt lat="48.39255" lon="2.56268">
        <ele>126</ele>
        <time>2019-11-16T14:05:17.000Z</time>
      </trkpt>
      <trkpt lat="48.39256" lon="2.56265">
        <ele>125.80000305176</ele>
        <time>2019-11-16T14:05:18.000Z</time>
      </trkpt>
      <trkpt lat="48.39258" lon="2.56258">
        <ele>124.59999847412</ele>
        <time>2019-11-16T14:05:21.000Z</time>
      </trkpt>
      <trkpt lat="48.39259" lon="2.56255">
        <ele>124.19999694824</ele>
        <time>2019-11-16T14:05:22.000Z</time>
      </trkpt>
      <trkpt lat="48.39259" lon="2.56249">
        <ele>123.80000305176</ele>
        <time>2019-11-16T14:05:23.000Z</time>
      </trkpt>
      <trkpt lat="48.3926" lon="2.56244">
        <ele>123.19999694824</ele>
        <time>2019-11-16T14:05:24.000Z</time>
      </trkpt>
      <trkpt lat="48.39258" lon="2.56236">
        <ele>121.40000152588</ele>
        <time>2019-11-16T14:05:26.000Z</time>
      </trkpt>
      <trkpt lat="48.39259" lon="2.56233">
        <ele>120.59999847412</ele>
        <time>2019-11-16T14:05:27.000Z</time>
      </trkpt>
      <trkpt lat="48.3926" lon="2.56229">
        <ele>120</ele>
        <time>2019-11-16T14:05:28.000Z</time>
      </trkpt>
      <trkpt lat="48.39261" lon="2.56222">
        <ele>119.19999694824</ele>
        <time>2019-11-16T14:05:30.000Z</time>
      </trkpt>
      <trkpt lat="48.39259" lon="2.5622">
        <ele>118.59999847412</ele>
        <time>2019-11-16T14:05:31.000Z</time>
      </trkpt>
      <trkpt lat="48.39256" lon="2.56215">
        <ele>116.80000305176</ele>
        <time>2019-11-16T14:05:33.000Z</time>
      </trkpt>
      <trkpt lat="48.39255" lon="2.56211">
        <ele>115.80000305176</ele>
        <time>2019-11-16T14:05:34.000Z</time>
      </trkpt>
      <trkpt lat="48.39257" lon="2.56202">
        <ele>114.80000305176</ele>
        <time>2019-11-16T14:05:35.000Z</time>
      </trkpt>
      <trkpt lat="48.39256" lon="2.56193">
        <ele>113.80000305176</ele>
        <time>2019-11-16T14:05:36.000Z</time>
      </trkpt>
      <trkpt lat="48.39256" lon="2.56186">
        <ele>112.80000305176</ele>
        <time>2019-11-16T14:05:37.000Z</time>
      </trkpt>
      <trkpt lat="48.39256" lon="2.56178">
        <ele>111.59999847412</ele>
        <time>2019-11-16T14:05:38.000Z</time>
      </trkpt>
      <trkpt lat="48.39257" lon="2.56172">
        <ele>110.40000152588</ele>
        <time>2019-11-16T14:05:39.000Z</time>
      </trkpt>
      <trkpt lat="48.39259" lon="2.5617">
        <ele>109.40000152588</ele>
        <time>2019-11-16T14:05:40.000Z</time>
      </trkpt>
      <trkpt lat="48.39261" lon="2.56168">
        <ele>108.80000305176</ele>
        <time>2019-11-16T14:05:41.000Z</time>
      </trkpt>
      <trkpt lat="48.39266" lon="2.56162">
        <ele>107.59999847412</ele>
        <time>2019-11-16T14:05:43.000Z</time>
      </trkpt>
      <trkpt lat="48.39271" lon="2.56159">
        <ele>107.19999694824</ele>
        <time>2019-11-16T14:05:45.000Z</time>
      </trkpt>
      <trkpt lat="48.39281" lon="2.56141">
        <ele>107.80000305176</ele>
        <time>2019-11-16T14:05:50.000Z</time>
      </trkpt>
      <trkpt lat="48.39283" lon="2.56136">
        <ele>107.80000305176</ele>
        <time>2019-11-16T14:05:53.000Z</time>
      </trkpt>
      <trkpt lat="48.39285" lon="2.56117">
        <ele>108</ele>
        <time>2019-11-16T14:05:57.000Z</time>
      </trkpt>
      <trkpt lat="48.39288" lon="2.56107">
        <ele>108</ele>
        <time>2019-11-16T14:06:00.000Z</time>
      </trkpt>
      <trkpt lat="48.39291" lon="2.56093">
        <ele>108.80000305176</ele>
        <time>2019-11-16T14:06:03.000Z</time>
      </trkpt>
      <trkpt lat="48.39291" lon="2.56089">
        <ele>109.19999694824</ele>
        <time>2019-11-16T14:06:04.000Z</time>
      </trkpt>
      <trkpt lat="48.39292" lon="2.56086">
        <ele>110</ele>
        <time>2019-11-16T14:06:05.000Z</time>
      </trkpt>
      <trkpt lat="48.39293" lon="2.56084">
        <ele>111.40000152588</ele>
        <time>2019-11-16T14:06:06.000Z</time>
      </trkpt>
      <trkpt lat="48.39292" lon="2.56076">
        <ele>112.80000305176</ele>
        <time>2019-11-16T14:06:09.000Z</time>
      </trkpt>
      <trkpt lat="48.39293" lon="2.56072">
        <ele>114.19999694824</ele>
        <time>2019-11-16T14:06:11.000Z</time>
      </trkpt>
      <trkpt lat="48.39295" lon="2.56066">
        <ele>115.40000152588</ele>
        <time>2019-11-16T14:06:13.000Z</time>
      </trkpt>
      <trkpt lat="48.39296" lon="2.56064">
        <ele>115.80000305176</ele>
        <time>2019-11-16T14:06:14.000Z</time>
      </trkpt>
      <trkpt lat="48.39297" lon="2.56058">
        <ele>116.59999847412</ele>
        <time>2019-11-16T14:06:16.000Z</time>
      </trkpt>
      <trkpt lat="48.39297" lon="2.5605">
        <ele>118</ele>
        <time>2019-11-16T14:06:19.000Z</time>
      </trkpt>
      <trkpt lat="48.39298" lon="2.56046">
        <ele>118.19999694824</ele>
        <time>2019-11-16T14:06:20.000Z</time>
      </trkpt>
      <trkpt lat="48.39306" lon="2.56024">
        <ele>117.59999847412</ele>
        <time>2019-11-16T14:06:26.000Z</time>
      </trkpt>
      <trkpt lat="48.39308" lon="2.56013">
        <ele>117.80000305176</ele>
        <time>2019-11-16T14:06:28.000Z</time>
      </trkpt>
      <trkpt lat="48.39308" lon="2.56003">
        <ele>116.59999847412</ele>
        <time>2019-11-16T14:06:30.000Z</time>
      </trkpt>
      <trkpt lat="48.39307" lon="2.55995">
        <ele>115.19999694824</ele>
        <time>2019-11-16T14:06:32.000Z</time>
      </trkpt>
      <trkpt lat="48.39306" lon="2.55984">
        <ele>113.80000305176</ele>
        <time>2019-11-16T14:06:34.000Z</time>
      </trkpt>
      <trkpt lat="48.39304" lon="2.55971">
        <ele>111.80000305176</ele>
        <time>2019-11-16T14:06:36.000Z</time>
      </trkpt>
      <trkpt lat="48.39304" lon="2.55963">
        <ele>110.80000305176</ele>
        <time>2019-11-16T14:06:37.000Z</time>
      </trkpt>
      <trkpt lat="48.39303" lon="2.55954">
        <ele>110</ele>
        <time>2019-11-16T14:06:38.000Z</time>
      </trkpt>
      <trkpt lat="48.39302" lon="2.55945">
        <ele>109</ele>
        <time>2019-11-16T14:06:39.000Z</time>
      </trkpt>
      <trkpt lat="48.393" lon="2.5593">
        <ele>107.40000152588</ele>
        <time>2019-11-16T14:06:41.000Z</time>
      </trkpt>
      <trkpt lat="48.39298" lon="2.55921">
        <ele>106</ele>
        <time>2019-11-16T14:06:43.000Z</time>
      </trkpt>
      <trkpt lat="48.39297" lon="2.5591">
        <ele>106.40000152588</ele>
        <time>2019-11-16T14:06:47.000Z</time>
      </trkpt>
      <trkpt lat="48.39297" lon="2.55909">
        <ele>106.59999847412</ele>
        <time>2019-11-16T14:06:52.000Z</time>
      </trkpt>
      <trkpt lat="48.39297" lon="2.55905">
        <ele>107</ele>
        <time>2019-11-16T14:06:57.000Z</time>
      </trkpt>
      <trkpt lat="48.39296" lon="2.55896">
        <ele>106.80000305176</ele>
        <time>2019-11-16T14:06:59.000Z</time>
      </trkpt>
      <trkpt lat="48.39293" lon="2.5589">
        <ele>106.59999847412</ele>
        <time>2019-11-16T14:07:01.000Z</time>
      </trkpt>
      <trkpt lat="48.3929" lon="2.55877">
        <ele>106.80000305176</ele>
        <time>2019-11-16T14:07:05.000Z</time>
      </trkpt>
      <trkpt lat="48.39291" lon="2.55872">
        <ele>106.80000305176</ele>
        <time>2019-11-16T14:07:06.000Z</time>
      </trkpt>
      <trkpt lat="48.39293" lon="2.55868">
        <ele>106.80000305176</ele>
        <time>2019-11-16T14:07:07.000Z</time>
      </trkpt>
      <trkpt lat="48.393" lon="2.55849">
        <ele>106.80000305176</ele>
        <time>2019-11-16T14:07:13.000Z</time>
      </trkpt>
      <trkpt lat="48.39311" lon="2.55829">
        <ele>106.19999694824</ele>
        <time>2019-11-16T14:07:18.000Z</time>
      </trkpt>
      <trkpt lat="48.39322" lon="2.55816">
        <ele>106.40000152588</ele>
        <time>2019-11-16T14:07:23.000Z</time>
      </trkpt>
      <trkpt lat="48.39332" lon="2.55801">
        <ele>106.40000152588</ele>
        <time>2019-11-16T14:07:28.000Z</time>
      </trkpt>
      <trkpt lat="48.39339" lon="2.55788">
        <ele>107.40000152588</ele>
        <time>2019-11-16T14:07:32.000Z</time>
      </trkpt>
      <trkpt lat="48.39341" lon="2.55782">
        <ele>108</ele>
        <time>2019-11-16T14:07:37.000Z</time>
      </trkpt>
      <trkpt lat="48.39342" lon="2.55781">
        <ele>108.40000152588</ele>
        <time>2019-11-16T14:07:39.000Z</time>
      </trkpt>
      <trkpt lat="48.39342" lon="2.55779">
        <ele>109.19999694824</ele>
        <time>2019-11-16T14:07:43.000Z</time>
      </trkpt>
      <trkpt lat="48.39342" lon="2.55779">
        <ele>109.40000152588</ele>
        <time>2019-11-16T14:07:46.000Z</time>
      </trkpt>
      <trkpt lat="48.39344" lon="2.55774">
        <ele>109.80000305176</ele>
        <time>2019-11-16T14:07:48.000Z</time>
      </trkpt>
      <trkpt lat="48.3935" lon="2.55763">
        <ele>110.19999694824</ele>
        <time>2019-11-16T14:07:53.000Z</time>
      </trkpt>
      <trkpt lat="48.39351" lon="2.5576">
        <ele>110.40000152588</ele>
        <time>2019-11-16T14:07:54.000Z</time>
      </trkpt>
      <trkpt lat="48.39351" lon="2.55759">
        <ele>110.59999847412</ele>
        <time>2019-11-16T14:07:55.000Z</time>
      </trkpt>
      <trkpt lat="48.39351" lon="2.55759">
        <ele>110.80000305176</ele>
        <time>2019-11-16T14:07:58.000Z</time>
      </trkpt>
      <trkpt lat="48.3935" lon="2.55758">
        <ele>110.80000305176</ele>
        <time>2019-11-16T14:08:01.000Z</time>
      </trkpt>
      <trkpt lat="48.3935" lon="2.55757">
        <ele>110.40000152588</ele>
        <time>2019-11-16T14:08:03.000Z</time>
      </trkpt>
      <trkpt lat="48.39349" lon="2.55757">
        <ele>110.40000152588</ele>
        <time>2019-11-16T14:08:04.000Z</time>
      </trkpt>
      <trkpt lat="48.39344" lon="2.55753">
        <ele>109.40000152588</ele>
        <time>2019-11-16T14:08:08.000Z</time>
      </trkpt>
      <trkpt lat="48.39342" lon="2.5575">
        <ele>108.59999847412</ele>
        <time>2019-11-16T14:08:10.000Z</time>
      </trkpt>
      <trkpt lat="48.39342" lon="2.55747">
        <ele>108.19999694824</ele>
        <time>2019-11-16T14:08:11.000Z</time>
      </trkpt>
      <trkpt lat="48.39342" lon="2.55744">
        <ele>107.80000305176</ele>
        <time>2019-11-16T14:08:13.000Z</time>
      </trkpt>
      <trkpt lat="48.39342" lon="2.55742">
        <ele>107.40000152588</ele>
        <time>2019-11-16T14:08:14.000Z</time>
      </trkpt>
      <trkpt lat="48.39341" lon="2.5574">
        <ele>107</ele>
        <time>2019-11-16T14:08:15.000Z</time>
      </trkpt>
      <trkpt lat="48.3934" lon="2.55737">
        <ele>106.19999694824</ele>
        <time>2019-11-16T14:08:18.000Z</time>
      </trkpt>
      <trkpt lat="48.3934" lon="2.55737">
        <ele>105.80000305176</ele>
        <time>2019-11-16T14:08:19.000Z</time>
      </trkpt>
      <trkpt lat="48.3934" lon="2.55737">
        <ele>105.40000152588</ele>
        <time>2019-11-16T14:08:24.000Z</time>
      </trkpt>
      <trkpt lat="48.39339" lon="2.55736">
        <ele>105.59999847412</ele>
        <time>2019-11-16T14:08:32.000Z</time>
      </trkpt>
      <trkpt lat="48.39337" lon="2.55735">
        <ele>105.40000152588</ele>
        <time>2019-11-16T14:08:35.000Z</time>
      </trkpt>
      <trkpt lat="48.39332" lon="2.55733">
        <ele>105.19999694824</ele>
        <time>2019-11-16T14:08:37.000Z</time>
      </trkpt>
      <trkpt lat="48.3933" lon="2.55734">
        <ele>104.80000305176</ele>
        <time>2019-11-16T14:08:38.000Z</time>
      </trkpt>
      <trkpt lat="48.39329" lon="2.5573">
        <ele>103.80000305176</ele>
        <time>2019-11-16T14:08:41.000Z</time>
      </trkpt>
      <trkpt lat="48.39329" lon="2.55731">
        <ele>103.59999847412</ele>
        <time>2019-11-16T14:08:42.000Z</time>
      </trkpt>
      <trkpt lat="48.39328" lon="2.55728">
        <ele>103.40000152588</ele>
        <time>2019-11-16T14:08:43.000Z</time>
      </trkpt>
      <trkpt lat="48.39326" lon="2.55723">
        <ele>102.19999694824</ele>
        <time>2019-11-16T14:08:45.000Z</time>
      </trkpt>
      <trkpt lat="48.39328" lon="2.55716">
        <ele>101.19999694824</ele>
        <time>2019-11-16T14:08:48.000Z</time>
      </trkpt>
      <trkpt lat="48.39329" lon="2.55713">
        <ele>101</ele>
        <time>2019-11-16T14:08:49.000Z</time>
      </trkpt>
      <trkpt lat="48.39329" lon="2.5571">
        <ele>101</ele>
        <time>2019-11-16T14:08:50.000Z</time>
      </trkpt>
      <trkpt lat="48.39329" lon="2.55702">
        <ele>100.40000152588</ele>
        <time>2019-11-16T14:08:55.000Z</time>
      </trkpt>
      <trkpt lat="48.39327" lon="2.55701">
        <ele>99.800003051758</ele>
        <time>2019-11-16T14:08:56.000Z</time>
      </trkpt>
      <trkpt lat="48.39325" lon="2.55697">
        <ele>99.599998474121</ele>
        <time>2019-11-16T14:08:58.000Z</time>
      </trkpt>
      <trkpt lat="48.39324" lon="2.55693">
        <ele>99.400001525879</ele>
        <time>2019-11-16T14:09:00.000Z</time>
      </trkpt>
      <trkpt lat="48.3932" lon="2.5569">
        <ele>98.800003051758</ele>
        <time>2019-11-16T14:09:02.000Z</time>
      </trkpt>
      <trkpt lat="48.39316" lon="2.55681">
        <ele>97.400001525879</ele>
        <time>2019-11-16T14:09:04.000Z</time>
      </trkpt>
      <trkpt lat="48.39312" lon="2.5567">
        <ele>95.599998474121</ele>
        <time>2019-11-16T14:09:06.000Z</time>
      </trkpt>
      <trkpt lat="48.39307" lon="2.55662">
        <ele>94.199996948242</ele>
        <time>2019-11-16T14:09:08.000Z</time>
      </trkpt>
      <trkpt lat="48.39303" lon="2.55657">
        <ele>92.599998474121</ele>
        <time>2019-11-16T14:09:10.000Z</time>
      </trkpt>
      <trkpt lat="48.39298" lon="2.55648">
        <ele>91.400001525879</ele>
        <time>2019-11-16T14:09:12.000Z</time>
      </trkpt>
      <trkpt lat="48.39292" lon="2.5564">
        <ele>90.400001525879</ele>
        <time>2019-11-16T14:09:14.000Z</time>
      </trkpt>
      <trkpt lat="48.39284" lon="2.55631">
        <ele>89.400001525879</ele>
        <time>2019-11-16T14:09:16.000Z</time>
      </trkpt>
      <trkpt lat="48.3928" lon="2.55625">
        <ele>88.400001525879</ele>
        <time>2019-11-16T14:09:17.000Z</time>
      </trkpt>
      <trkpt lat="48.39275" lon="2.55617">
        <ele>86.599998474121</ele>
        <time>2019-11-16T14:09:18.000Z</time>
      </trkpt>
      <trkpt lat="48.39267" lon="2.55603">
        <ele>85.400001525879</ele>
        <time>2019-11-16T14:09:20.000Z</time>
      </trkpt>
      <trkpt lat="48.39258" lon="2.55589">
        <ele>84.199996948242</ele>
        <time>2019-11-16T14:09:22.000Z</time>
      </trkpt>
      <trkpt lat="48.39252" lon="2.55578">
        <ele>83.400001525879</ele>
        <time>2019-11-16T14:09:24.000Z</time>
      </trkpt>
      <trkpt lat="48.3925" lon="2.55574">
        <ele>83.199996948242</ele>
        <time>2019-11-16T14:09:25.000Z</time>
      </trkpt>
      <trkpt lat="48.39243" lon="2.55568">
        <ele>83</ele>
        <time>2019-11-16T14:09:28.000Z</time>
      </trkpt>
      <trkpt lat="48.3923" lon="2.55578">
        <ele>83</ele>
        <time>2019-11-16T14:09:32.000Z</time>
      </trkpt>
      <trkpt lat="48.39225" lon="2.55586">
        <ele>84.199996948242</ele>
        <time>2019-11-16T14:09:34.000Z</time>
      </trkpt>
      <trkpt lat="48.39222" lon="2.5559">
        <ele>83.800003051758</ele>
        <time>2019-11-16T14:09:35.000Z</time>
      </trkpt>
      <trkpt lat="48.39219" lon="2.55594">
        <ele>83</ele>
        <time>2019-11-16T14:09:36.000Z</time>
      </trkpt>
      <trkpt lat="48.39212" lon="2.55602">
        <ele>82.599998474121</ele>
        <time>2019-11-16T14:09:38.000Z</time>
      </trkpt>
      <trkpt lat="48.39194" lon="2.55624">
        <ele>82.599998474121</ele>
        <time>2019-11-16T14:09:43.000Z</time>
      </trkpt>
      <trkpt lat="48.39158" lon="2.55667">
        <ele>83</ele>
        <time>2019-11-16T14:09:52.000Z</time>
      </trkpt>
      <trkpt lat="48.39131" lon="2.55701">
        <ele>83.400001525879</ele>
        <time>2019-11-16T14:09:59.000Z</time>
      </trkpt>
      <trkpt lat="48.39104" lon="2.55734">
        <ele>83.400001525879</ele>
        <time>2019-11-16T14:10:06.000Z</time>
      </trkpt>
      <trkpt lat="48.39096" lon="2.55741">
        <ele>83.400001525879</ele>
        <time>2019-11-16T14:10:08.000Z</time>
      </trkpt>
      <trkpt lat="48.39086" lon="2.55739">
        <ele>83.599998474121</ele>
        <time>2019-11-16T14:10:10.000Z</time>
      </trkpt>
      <trkpt lat="48.39074" lon="2.55722">
        <ele>83.599998474121</ele>
        <time>2019-11-16T14:10:13.000Z</time>
      </trkpt>
      <trkpt lat="48.39068" lon="2.55709">
        <ele>83.599998474121</ele>
        <time>2019-11-16T14:10:15.000Z</time>
      </trkpt>
      <trkpt lat="48.39055" lon="2.55683">
        <ele>83.599998474121</ele>
        <time>2019-11-16T14:10:19.000Z</time>
      </trkpt>
      <trkpt lat="48.39045" lon="2.55665">
        <ele>83.800003051758</ele>
        <time>2019-11-16T14:10:22.000Z</time>
      </trkpt>
      <trkpt lat="48.39037" lon="2.55652">
        <ele>83.800003051758</ele>
        <time>2019-11-16T14:10:24.000Z</time>
      </trkpt>
      <trkpt lat="48.39021" lon="2.55627">
        <ele>83.400001525879</ele>
        <time>2019-11-16T14:10:28.000Z</time>
      </trkpt>
      <trkpt lat="48.39015" lon="2.55613">
        <ele>83.199996948242</ele>
        <time>2019-11-16T14:10:30.000Z</time>
      </trkpt>
      <trkpt lat="48.39009" lon="2.55597">
        <ele>83.199996948242</ele>
        <time>2019-11-16T14:10:32.000Z</time>
      </trkpt>
      <trkpt lat="48.39003" lon="2.55572">
        <ele>83.199996948242</ele>
        <time>2019-11-16T14:10:35.000Z</time>
      </trkpt>
      <trkpt lat="48.38995" lon="2.55511">
        <ele>83.400001525879</ele>
        <time>2019-11-16T14:10:42.000Z</time>
      </trkpt>
      <trkpt lat="48.3899" lon="2.55486">
        <ele>83.199996948242</ele>
        <time>2019-11-16T14:10:45.000Z</time>
      </trkpt>
      <trkpt lat="48.38994" lon="2.5546">
        <ele>83.599998474121</ele>
        <time>2019-11-16T14:10:48.000Z</time>
      </trkpt>
      <trkpt lat="48.39009" lon="2.55432">
        <ele>83.400001525879</ele>
        <time>2019-11-16T14:10:52.000Z</time>
      </trkpt>
      <trkpt lat="48.39018" lon="2.55419">
        <ele>83.599998474121</ele>
        <time>2019-11-16T14:10:54.000Z</time>
      </trkpt>
      <trkpt lat="48.39028" lon="2.55409">
        <ele>83.599998474121</ele>
        <time>2019-11-16T14:10:56.000Z</time>
      </trkpt>
      <trkpt lat="48.39035" lon="2.55386">
        <ele>83.400001525879</ele>
        <time>2019-11-16T14:10:59.000Z</time>
      </trkpt>
      <trkpt lat="48.39037" lon="2.55378">
        <ele>83.400001525879</ele>
        <time>2019-11-16T14:11:00.000Z</time>
      </trkpt>
      <trkpt lat="48.39045" lon="2.5535">
        <ele>83.400001525879</ele>
        <time>2019-11-16T14:11:04.000Z</time>
      </trkpt>
      <trkpt lat="48.39046" lon="2.55342">
        <ele>83.199996948242</ele>
        <time>2019-11-16T14:11:05.000Z</time>
      </trkpt>
      <trkpt lat="48.39051" lon="2.5531">
        <ele>83.400001525879</ele>
        <time>2019-11-16T14:11:10.000Z</time>
      </trkpt>
      <trkpt lat="48.39052" lon="2.55305">
        <ele>83.400001525879</ele>
        <time>2019-11-16T14:11:11.000Z</time>
      </trkpt>
      <trkpt lat="48.39053" lon="2.55303">
        <ele>83.599998474121</ele>
        <time>2019-11-16T14:11:14.000Z</time>
      </trkpt>
    </trkseg>
  </trk>
</gpx>